<?xml version="1.0" encoding="UTF-8" standalone="no" ?>
<gpx xmlns="http://www.topografix.com/GPX/1/1" xmlns:xsi="http://www.w3.org/2001/XMLSchema-instance" xsi:schemaLocation="http://www.topografix.com/GPX/1/1 http://www.topografix.com/GPX/1/1/gpx.xsd" version="1.1" creator="VisuGPX - https://www.visugpx.com">
  <metadata>
    <name>Le tour du parc du confluent à Lacroix Falgarde</name>
    <desc><![CDATA[Le tour du parc du confluent à Lacroix Falgarde]]></desc>
  </metadata>
  <trk>
    <name><![CDATA[Le tour du parc du confluent à Lacroix Falgarde_1]]></name>
    <trkseg>
      <trkpt lat="43.52324" lon="1.42067">
        <ele>154</ele>
        <time>2012-03-11T09:35:47Z</time>
      </trkpt>
      <trkpt lat="43.52346" lon="1.4209">
        <ele>152</ele>
        <time>2012-03-11T09:36:04Z</time>
      </trkpt>
      <trkpt lat="43.52347" lon="1.42092">
        <ele>152</ele>
        <time>2012-03-11T09:36:05Z</time>
      </trkpt>
      <trkpt lat="43.52349" lon="1.42094">
        <ele>152</ele>
        <time>2012-03-11T09:36:06Z</time>
      </trkpt>
      <trkpt lat="43.5235" lon="1.42095">
        <ele>152</ele>
        <time>2012-03-11T09:36:07Z</time>
      </trkpt>
      <trkpt lat="43.52351" lon="1.42097">
        <ele>152</ele>
        <time>2012-03-11T09:36:08Z</time>
      </trkpt>
      <trkpt lat="43.52352" lon="1.42098">
        <ele>152</ele>
        <time>2012-03-11T09:36:09Z</time>
      </trkpt>
      <trkpt lat="43.52353" lon="1.421">
        <ele>152</ele>
        <time>2012-03-11T09:36:10Z</time>
      </trkpt>
      <trkpt lat="43.52354" lon="1.42102">
        <ele>152</ele>
        <time>2012-03-11T09:36:11Z</time>
      </trkpt>
      <trkpt lat="43.52355" lon="1.42103">
        <ele>152</ele>
        <time>2012-03-11T09:36:12Z</time>
      </trkpt>
      <trkpt lat="43.52356" lon="1.42105">
        <ele>152</ele>
        <time>2012-03-11T09:36:13Z</time>
      </trkpt>
      <trkpt lat="43.52357" lon="1.42106">
        <ele>151</ele>
        <time>2012-03-11T09:36:14Z</time>
      </trkpt>
      <trkpt lat="43.52358" lon="1.42108">
        <ele>151</ele>
        <time>2012-03-11T09:36:15Z</time>
      </trkpt>
      <trkpt lat="43.52359" lon="1.4211">
        <ele>151</ele>
        <time>2012-03-11T09:36:16Z</time>
      </trkpt>
      <trkpt lat="43.52361" lon="1.42111">
        <ele>151</ele>
        <time>2012-03-11T09:36:17Z</time>
      </trkpt>
      <trkpt lat="43.52361" lon="1.42113">
        <ele>151</ele>
        <time>2012-03-11T09:36:18Z</time>
      </trkpt>
      <trkpt lat="43.52362" lon="1.42114">
        <ele>151</ele>
        <time>2012-03-11T09:36:19Z</time>
      </trkpt>
      <trkpt lat="43.52363" lon="1.42116">
        <ele>151</ele>
        <time>2012-03-11T09:36:20Z</time>
      </trkpt>
      <trkpt lat="43.52364" lon="1.42118">
        <ele>151</ele>
        <time>2012-03-11T09:36:21Z</time>
      </trkpt>
      <trkpt lat="43.52365" lon="1.42119">
        <ele>151</ele>
        <time>2012-03-11T09:36:22Z</time>
      </trkpt>
      <trkpt lat="43.52367" lon="1.42121">
        <ele>151</ele>
        <time>2012-03-11T09:36:23Z</time>
      </trkpt>
      <trkpt lat="43.52368" lon="1.42122">
        <ele>151</ele>
        <time>2012-03-11T09:36:24Z</time>
      </trkpt>
      <trkpt lat="43.52369" lon="1.42124">
        <ele>151</ele>
        <time>2012-03-11T09:36:25Z</time>
      </trkpt>
      <trkpt lat="43.5237" lon="1.42125">
        <ele>151</ele>
        <time>2012-03-11T09:36:26Z</time>
      </trkpt>
      <trkpt lat="43.52371" lon="1.42127">
        <ele>151</ele>
        <time>2012-03-11T09:36:27Z</time>
      </trkpt>
      <trkpt lat="43.52372" lon="1.42128">
        <ele>151</ele>
        <time>2012-03-11T09:36:28Z</time>
      </trkpt>
      <trkpt lat="43.52374" lon="1.4213">
        <ele>151</ele>
        <time>2012-03-11T09:36:29Z</time>
      </trkpt>
      <trkpt lat="43.52375" lon="1.42131">
        <ele>150</ele>
        <time>2012-03-11T09:36:30Z</time>
      </trkpt>
      <trkpt lat="43.52376" lon="1.42133">
        <ele>150</ele>
        <time>2012-03-11T09:36:31Z</time>
      </trkpt>
      <trkpt lat="43.52377" lon="1.42134">
        <ele>150</ele>
        <time>2012-03-11T09:36:32Z</time>
      </trkpt>
      <trkpt lat="43.52378" lon="1.42136">
        <ele>150</ele>
        <time>2012-03-11T09:36:33Z</time>
      </trkpt>
      <trkpt lat="43.52379" lon="1.42137">
        <ele>149</ele>
        <time>2012-03-11T09:36:34Z</time>
      </trkpt>
      <trkpt lat="43.52381" lon="1.4214">
        <ele>149</ele>
        <time>2012-03-11T09:36:36Z</time>
      </trkpt>
      <trkpt lat="43.52383" lon="1.42141">
        <ele>149</ele>
        <time>2012-03-11T09:36:37Z</time>
      </trkpt>
      <trkpt lat="43.52385" lon="1.42144">
        <ele>149</ele>
        <time>2012-03-11T09:36:39Z</time>
      </trkpt>
      <trkpt lat="43.52386" lon="1.42145">
        <ele>149</ele>
        <time>2012-03-11T09:36:40Z</time>
      </trkpt>
      <trkpt lat="43.52388" lon="1.42148">
        <ele>149</ele>
        <time>2012-03-11T09:36:42Z</time>
      </trkpt>
      <trkpt lat="43.52389" lon="1.42149">
        <ele>149</ele>
        <time>2012-03-11T09:36:43Z</time>
      </trkpt>
      <trkpt lat="43.52391" lon="1.42151">
        <ele>148</ele>
        <time>2012-03-11T09:36:45Z</time>
      </trkpt>
      <trkpt lat="43.52393" lon="1.42152">
        <ele>148</ele>
        <time>2012-03-11T09:36:46Z</time>
      </trkpt>
      <trkpt lat="43.52394" lon="1.42153">
        <ele>148</ele>
        <time>2012-03-11T09:36:47Z</time>
      </trkpt>
      <trkpt lat="43.52395" lon="1.42154">
        <ele>148</ele>
        <time>2012-03-11T09:36:48Z</time>
      </trkpt>
      <trkpt lat="43.52397" lon="1.42156">
        <ele>147</ele>
        <time>2012-03-11T09:36:50Z</time>
      </trkpt>
      <trkpt lat="43.52399" lon="1.42157">
        <ele>146</ele>
        <time>2012-03-11T09:36:51Z</time>
      </trkpt>
      <trkpt lat="43.524" lon="1.42159">
        <ele>146</ele>
        <time>2012-03-11T09:36:52Z</time>
      </trkpt>
      <trkpt lat="43.52401" lon="1.4216">
        <ele>145</ele>
        <time>2012-03-11T09:36:53Z</time>
      </trkpt>
      <trkpt lat="43.52403" lon="1.42162">
        <ele>145</ele>
        <time>2012-03-11T09:36:54Z</time>
      </trkpt>
      <trkpt lat="43.52404" lon="1.42163">
        <ele>144</ele>
        <time>2012-03-11T09:36:55Z</time>
      </trkpt>
      <trkpt lat="43.52405" lon="1.42165">
        <ele>144</ele>
        <time>2012-03-11T09:36:56Z</time>
      </trkpt>
      <trkpt lat="43.52406" lon="1.42166">
        <ele>144</ele>
        <time>2012-03-11T09:36:57Z</time>
      </trkpt>
      <trkpt lat="43.52407" lon="1.42168">
        <ele>144</ele>
        <time>2012-03-11T09:36:58Z</time>
      </trkpt>
      <trkpt lat="43.52407" lon="1.42169">
        <ele>144</ele>
        <time>2012-03-11T09:36:59Z</time>
      </trkpt>
      <trkpt lat="43.52409" lon="1.42171">
        <ele>144</ele>
        <time>2012-03-11T09:37:00Z</time>
      </trkpt>
      <trkpt lat="43.5241" lon="1.42173">
        <ele>144</ele>
        <time>2012-03-11T09:37:01Z</time>
      </trkpt>
      <trkpt lat="43.52411" lon="1.42175">
        <ele>144</ele>
        <time>2012-03-11T09:37:02Z</time>
      </trkpt>
      <trkpt lat="43.52412" lon="1.42177">
        <ele>144</ele>
        <time>2012-03-11T09:37:03Z</time>
      </trkpt>
      <trkpt lat="43.52412" lon="1.42178">
        <ele>144</ele>
        <time>2012-03-11T09:37:04Z</time>
      </trkpt>
      <trkpt lat="43.52413" lon="1.4218">
        <ele>144</ele>
        <time>2012-03-11T09:37:05Z</time>
      </trkpt>
      <trkpt lat="43.52414" lon="1.42182">
        <ele>144</ele>
        <time>2012-03-11T09:37:06Z</time>
      </trkpt>
      <trkpt lat="43.52415" lon="1.42184">
        <ele>144</ele>
        <time>2012-03-11T09:37:07Z</time>
      </trkpt>
      <trkpt lat="43.52416" lon="1.42185">
        <ele>144</ele>
        <time>2012-03-11T09:37:08Z</time>
      </trkpt>
      <trkpt lat="43.52416" lon="1.42188">
        <ele>144</ele>
        <time>2012-03-11T09:37:09Z</time>
      </trkpt>
      <trkpt lat="43.52417" lon="1.4219">
        <ele>144</ele>
        <time>2012-03-11T09:37:10Z</time>
      </trkpt>
      <trkpt lat="43.52417" lon="1.42191">
        <ele>144</ele>
        <time>2012-03-11T09:37:11Z</time>
      </trkpt>
      <trkpt lat="43.52418" lon="1.42193">
        <ele>144</ele>
        <time>2012-03-11T09:37:12Z</time>
      </trkpt>
      <trkpt lat="43.52419" lon="1.42195">
        <ele>144</ele>
        <time>2012-03-11T09:37:13Z</time>
      </trkpt>
      <trkpt lat="43.5242" lon="1.42197">
        <ele>144</ele>
        <time>2012-03-11T09:37:14Z</time>
      </trkpt>
      <trkpt lat="43.5242" lon="1.42199">
        <ele>144</ele>
        <time>2012-03-11T09:37:15Z</time>
      </trkpt>
      <trkpt lat="43.52421" lon="1.422">
        <ele>144</ele>
        <time>2012-03-11T09:37:16Z</time>
      </trkpt>
      <trkpt lat="43.52422" lon="1.42202">
        <ele>144</ele>
        <time>2012-03-11T09:37:17Z</time>
      </trkpt>
      <trkpt lat="43.52423" lon="1.42205">
        <ele>144</ele>
        <time>2012-03-11T09:37:19Z</time>
      </trkpt>
      <trkpt lat="43.52424" lon="1.42206">
        <ele>144</ele>
        <time>2012-03-11T09:37:20Z</time>
      </trkpt>
      <trkpt lat="43.52425" lon="1.42208">
        <ele>144</ele>
        <time>2012-03-11T09:37:21Z</time>
      </trkpt>
      <trkpt lat="43.52425" lon="1.4221">
        <ele>144</ele>
        <time>2012-03-11T09:37:22Z</time>
      </trkpt>
      <trkpt lat="43.52425" lon="1.42212">
        <ele>144</ele>
        <time>2012-03-11T09:37:23Z</time>
      </trkpt>
      <trkpt lat="43.52426" lon="1.42214">
        <ele>144</ele>
        <time>2012-03-11T09:37:24Z</time>
      </trkpt>
      <trkpt lat="43.52426" lon="1.42216">
        <ele>144</ele>
        <time>2012-03-11T09:37:25Z</time>
      </trkpt>
      <trkpt lat="43.52426" lon="1.42217">
        <ele>144</ele>
        <time>2012-03-11T09:37:26Z</time>
      </trkpt>
      <trkpt lat="43.52426" lon="1.42219">
        <ele>144</ele>
        <time>2012-03-11T09:37:27Z</time>
      </trkpt>
      <trkpt lat="43.52425" lon="1.4222">
        <ele>144</ele>
        <time>2012-03-11T09:37:28Z</time>
      </trkpt>
      <trkpt lat="43.52425" lon="1.42222">
        <ele>144</ele>
        <time>2012-03-11T09:37:29Z</time>
      </trkpt>
      <trkpt lat="43.52425" lon="1.42225">
        <ele>144</ele>
        <time>2012-03-11T09:37:30Z</time>
      </trkpt>
      <trkpt lat="43.52424" lon="1.42226">
        <ele>144</ele>
        <time>2012-03-11T09:37:31Z</time>
      </trkpt>
      <trkpt lat="43.52424" lon="1.42228">
        <ele>144</ele>
        <time>2012-03-11T09:37:32Z</time>
      </trkpt>
      <trkpt lat="43.52424" lon="1.42231">
        <ele>144</ele>
        <time>2012-03-11T09:37:33Z</time>
      </trkpt>
      <trkpt lat="43.52424" lon="1.42233">
        <ele>144</ele>
        <time>2012-03-11T09:37:34Z</time>
      </trkpt>
      <trkpt lat="43.52424" lon="1.42235">
        <ele>144</ele>
        <time>2012-03-11T09:37:35Z</time>
      </trkpt>
      <trkpt lat="43.52425" lon="1.42237">
        <ele>144</ele>
        <time>2012-03-11T09:37:36Z</time>
      </trkpt>
      <trkpt lat="43.52425" lon="1.42239">
        <ele>144</ele>
        <time>2012-03-11T09:37:37Z</time>
      </trkpt>
      <trkpt lat="43.52427" lon="1.42241">
        <ele>144</ele>
        <time>2012-03-11T09:37:38Z</time>
      </trkpt>
      <trkpt lat="43.52428" lon="1.42243">
        <ele>144</ele>
        <time>2012-03-11T09:37:39Z</time>
      </trkpt>
      <trkpt lat="43.52429" lon="1.42245">
        <ele>144</ele>
        <time>2012-03-11T09:37:40Z</time>
      </trkpt>
      <trkpt lat="43.5243" lon="1.42246">
        <ele>144</ele>
        <time>2012-03-11T09:37:41Z</time>
      </trkpt>
      <trkpt lat="43.52431" lon="1.42248">
        <ele>144</ele>
        <time>2012-03-11T09:37:42Z</time>
      </trkpt>
      <trkpt lat="43.52433" lon="1.4225">
        <ele>144</ele>
        <time>2012-03-11T09:37:44Z</time>
      </trkpt>
      <trkpt lat="43.52434" lon="1.42251">
        <ele>144</ele>
        <time>2012-03-11T09:37:45Z</time>
      </trkpt>
      <trkpt lat="43.52436" lon="1.42253">
        <ele>144</ele>
        <time>2012-03-11T09:37:46Z</time>
      </trkpt>
      <trkpt lat="43.52437" lon="1.42254">
        <ele>144</ele>
        <time>2012-03-11T09:37:47Z</time>
      </trkpt>
      <trkpt lat="43.52438" lon="1.42255">
        <ele>144</ele>
        <time>2012-03-11T09:37:48Z</time>
      </trkpt>
      <trkpt lat="43.52439" lon="1.42257">
        <ele>144</ele>
        <time>2012-03-11T09:37:49Z</time>
      </trkpt>
      <trkpt lat="43.5244" lon="1.42258">
        <ele>144</ele>
        <time>2012-03-11T09:37:50Z</time>
      </trkpt>
      <trkpt lat="43.52441" lon="1.4226">
        <ele>144</ele>
        <time>2012-03-11T09:37:51Z</time>
      </trkpt>
      <trkpt lat="43.52442" lon="1.42262">
        <ele>144</ele>
        <time>2012-03-11T09:37:52Z</time>
      </trkpt>
      <trkpt lat="43.52443" lon="1.42264">
        <ele>144</ele>
        <time>2012-03-11T09:37:53Z</time>
      </trkpt>
      <trkpt lat="43.52444" lon="1.42266">
        <ele>144</ele>
        <time>2012-03-11T09:37:54Z</time>
      </trkpt>
      <trkpt lat="43.52445" lon="1.42268">
        <ele>144</ele>
        <time>2012-03-11T09:37:55Z</time>
      </trkpt>
      <trkpt lat="43.52446" lon="1.4227">
        <ele>144</ele>
        <time>2012-03-11T09:37:56Z</time>
      </trkpt>
      <trkpt lat="43.52446" lon="1.42271">
        <ele>144</ele>
        <time>2012-03-11T09:37:58Z</time>
      </trkpt>
      <trkpt lat="43.52447" lon="1.42273">
        <ele>144</ele>
        <time>2012-03-11T09:37:58Z</time>
      </trkpt>
      <trkpt lat="43.52448" lon="1.42275">
        <ele>144</ele>
        <time>2012-03-11T09:37:59Z</time>
      </trkpt>
      <trkpt lat="43.52448" lon="1.42277">
        <ele>144</ele>
        <time>2012-03-11T09:38:00Z</time>
      </trkpt>
      <trkpt lat="43.52449" lon="1.42279">
        <ele>144</ele>
        <time>2012-03-11T09:38:01Z</time>
      </trkpt>
      <trkpt lat="43.52449" lon="1.42281">
        <ele>144</ele>
        <time>2012-03-11T09:38:02Z</time>
      </trkpt>
      <trkpt lat="43.52449" lon="1.42283">
        <ele>144</ele>
        <time>2012-03-11T09:38:03Z</time>
      </trkpt>
      <trkpt lat="43.52449" lon="1.42285">
        <ele>144</ele>
        <time>2012-03-11T09:38:04Z</time>
      </trkpt>
      <trkpt lat="43.52449" lon="1.42288">
        <ele>144</ele>
        <time>2012-03-11T09:38:05Z</time>
      </trkpt>
      <trkpt lat="43.52449" lon="1.4229">
        <ele>144</ele>
        <time>2012-03-11T09:38:06Z</time>
      </trkpt>
      <trkpt lat="43.52449" lon="1.42292">
        <ele>144</ele>
        <time>2012-03-11T09:38:07Z</time>
      </trkpt>
      <trkpt lat="43.52449" lon="1.42294">
        <ele>144</ele>
        <time>2012-03-11T09:38:08Z</time>
      </trkpt>
      <trkpt lat="43.52449" lon="1.42296">
        <ele>144</ele>
        <time>2012-03-11T09:38:09Z</time>
      </trkpt>
      <trkpt lat="43.52449" lon="1.42298">
        <ele>144</ele>
        <time>2012-03-11T09:38:10Z</time>
      </trkpt>
      <trkpt lat="43.5245" lon="1.423">
        <ele>144</ele>
        <time>2012-03-11T09:38:11Z</time>
      </trkpt>
      <trkpt lat="43.5245" lon="1.42303">
        <ele>144</ele>
        <time>2012-03-11T09:38:12Z</time>
      </trkpt>
      <trkpt lat="43.52451" lon="1.42305">
        <ele>144</ele>
        <time>2012-03-11T09:38:13Z</time>
      </trkpt>
      <trkpt lat="43.52451" lon="1.42306">
        <ele>144</ele>
        <time>2012-03-11T09:38:14Z</time>
      </trkpt>
      <trkpt lat="43.52451" lon="1.42308">
        <ele>144</ele>
        <time>2012-03-11T09:38:15Z</time>
      </trkpt>
      <trkpt lat="43.52452" lon="1.4231">
        <ele>144</ele>
        <time>2012-03-11T09:38:16Z</time>
      </trkpt>
      <trkpt lat="43.52452" lon="1.42312">
        <ele>144</ele>
        <time>2012-03-11T09:38:17Z</time>
      </trkpt>
      <trkpt lat="43.52453" lon="1.42313">
        <ele>144</ele>
        <time>2012-03-11T09:38:18Z</time>
      </trkpt>
      <trkpt lat="43.52454" lon="1.42315">
        <ele>144</ele>
        <time>2012-03-11T09:38:19Z</time>
      </trkpt>
      <trkpt lat="43.52454" lon="1.42317">
        <ele>144</ele>
        <time>2012-03-11T09:38:20Z</time>
      </trkpt>
      <trkpt lat="43.52454" lon="1.42319">
        <ele>144</ele>
        <time>2012-03-11T09:38:21Z</time>
      </trkpt>
      <trkpt lat="43.52455" lon="1.42321">
        <ele>144</ele>
        <time>2012-03-11T09:38:22Z</time>
      </trkpt>
      <trkpt lat="43.52456" lon="1.42323">
        <ele>144</ele>
        <time>2012-03-11T09:38:23Z</time>
      </trkpt>
      <trkpt lat="43.52456" lon="1.42325">
        <ele>144</ele>
        <time>2012-03-11T09:38:24Z</time>
      </trkpt>
      <trkpt lat="43.52456" lon="1.42327">
        <ele>144</ele>
        <time>2012-03-11T09:38:25Z</time>
      </trkpt>
      <trkpt lat="43.52457" lon="1.42329">
        <ele>144</ele>
        <time>2012-03-11T09:38:26Z</time>
      </trkpt>
      <trkpt lat="43.52457" lon="1.42331">
        <ele>144</ele>
        <time>2012-03-11T09:38:27Z</time>
      </trkpt>
      <trkpt lat="43.52457" lon="1.42333">
        <ele>144</ele>
        <time>2012-03-11T09:38:28Z</time>
      </trkpt>
      <trkpt lat="43.52458" lon="1.42335">
        <ele>144</ele>
        <time>2012-03-11T09:38:29Z</time>
      </trkpt>
      <trkpt lat="43.52458" lon="1.42338">
        <ele>144</ele>
        <time>2012-03-11T09:38:30Z</time>
      </trkpt>
      <trkpt lat="43.52459" lon="1.4234">
        <ele>144</ele>
        <time>2012-03-11T09:38:31Z</time>
      </trkpt>
      <trkpt lat="43.52459" lon="1.42342">
        <ele>144</ele>
        <time>2012-03-11T09:38:32Z</time>
      </trkpt>
      <trkpt lat="43.5246" lon="1.42344">
        <ele>144</ele>
        <time>2012-03-11T09:38:33Z</time>
      </trkpt>
      <trkpt lat="43.5246" lon="1.42346">
        <ele>144</ele>
        <time>2012-03-11T09:38:34Z</time>
      </trkpt>
      <trkpt lat="43.52461" lon="1.42348">
        <ele>144</ele>
        <time>2012-03-11T09:38:35Z</time>
      </trkpt>
      <trkpt lat="43.52462" lon="1.4235">
        <ele>144</ele>
        <time>2012-03-11T09:38:36Z</time>
      </trkpt>
      <trkpt lat="43.52463" lon="1.42351">
        <ele>144</ele>
        <time>2012-03-11T09:38:37Z</time>
      </trkpt>
      <trkpt lat="43.52464" lon="1.42353">
        <ele>144</ele>
        <time>2012-03-11T09:38:38Z</time>
      </trkpt>
      <trkpt lat="43.52465" lon="1.42355">
        <ele>144</ele>
        <time>2012-03-11T09:38:39Z</time>
      </trkpt>
      <trkpt lat="43.52466" lon="1.42356">
        <ele>144</ele>
        <time>2012-03-11T09:38:40Z</time>
      </trkpt>
      <trkpt lat="43.52467" lon="1.42357">
        <ele>144</ele>
        <time>2012-03-11T09:38:41Z</time>
      </trkpt>
      <trkpt lat="43.52468" lon="1.42358">
        <ele>144</ele>
        <time>2012-03-11T09:38:42Z</time>
      </trkpt>
      <trkpt lat="43.5247" lon="1.42359">
        <ele>144</ele>
        <time>2012-03-11T09:38:43Z</time>
      </trkpt>
      <trkpt lat="43.52471" lon="1.4236">
        <ele>144</ele>
        <time>2012-03-11T09:38:44Z</time>
      </trkpt>
      <trkpt lat="43.52472" lon="1.42362">
        <ele>144</ele>
        <time>2012-03-11T09:38:45Z</time>
      </trkpt>
      <trkpt lat="43.52473" lon="1.42363">
        <ele>144</ele>
        <time>2012-03-11T09:38:46Z</time>
      </trkpt>
      <trkpt lat="43.52475" lon="1.42365">
        <ele>144</ele>
        <time>2012-03-11T09:38:47Z</time>
      </trkpt>
      <trkpt lat="43.52476" lon="1.42366">
        <ele>144</ele>
        <time>2012-03-11T09:38:48Z</time>
      </trkpt>
      <trkpt lat="43.52477" lon="1.42368">
        <ele>144</ele>
        <time>2012-03-11T09:38:49Z</time>
      </trkpt>
      <trkpt lat="43.52478" lon="1.42369">
        <ele>144</ele>
        <time>2012-03-11T09:38:50Z</time>
      </trkpt>
      <trkpt lat="43.52479" lon="1.42371">
        <ele>144</ele>
        <time>2012-03-11T09:38:51Z</time>
      </trkpt>
      <trkpt lat="43.5248" lon="1.42373">
        <ele>144</ele>
        <time>2012-03-11T09:38:52Z</time>
      </trkpt>
      <trkpt lat="43.5248" lon="1.42375">
        <ele>144</ele>
        <time>2012-03-11T09:38:53Z</time>
      </trkpt>
      <trkpt lat="43.52481" lon="1.42377">
        <ele>144</ele>
        <time>2012-03-11T09:38:54Z</time>
      </trkpt>
      <trkpt lat="43.52481" lon="1.42379">
        <ele>144</ele>
        <time>2012-03-11T09:38:55Z</time>
      </trkpt>
      <trkpt lat="43.52482" lon="1.42381">
        <ele>144</ele>
        <time>2012-03-11T09:38:56Z</time>
      </trkpt>
      <trkpt lat="43.52482" lon="1.42383">
        <ele>144</ele>
        <time>2012-03-11T09:38:57Z</time>
      </trkpt>
      <trkpt lat="43.52483" lon="1.42385">
        <ele>144</ele>
        <time>2012-03-11T09:38:58Z</time>
      </trkpt>
      <trkpt lat="43.52483" lon="1.42387">
        <ele>144</ele>
        <time>2012-03-11T09:38:59Z</time>
      </trkpt>
      <trkpt lat="43.52484" lon="1.42388">
        <ele>144</ele>
        <time>2012-03-11T09:39:00Z</time>
      </trkpt>
      <trkpt lat="43.52485" lon="1.42391">
        <ele>144</ele>
        <time>2012-03-11T09:39:01Z</time>
      </trkpt>
      <trkpt lat="43.52485" lon="1.42392">
        <ele>144</ele>
        <time>2012-03-11T09:39:02Z</time>
      </trkpt>
      <trkpt lat="43.52486" lon="1.42394">
        <ele>144</ele>
        <time>2012-03-11T09:39:03Z</time>
      </trkpt>
      <trkpt lat="43.52486" lon="1.42396">
        <ele>144</ele>
        <time>2012-03-11T09:39:04Z</time>
      </trkpt>
      <trkpt lat="43.52486" lon="1.42399">
        <ele>144</ele>
        <time>2012-03-11T09:39:05Z</time>
      </trkpt>
      <trkpt lat="43.52486" lon="1.42401">
        <ele>144</ele>
        <time>2012-03-11T09:39:06Z</time>
      </trkpt>
      <trkpt lat="43.52486" lon="1.42403">
        <ele>144</ele>
        <time>2012-03-11T09:39:07Z</time>
      </trkpt>
      <trkpt lat="43.52487" lon="1.42404">
        <ele>144</ele>
        <time>2012-03-11T09:39:08Z</time>
      </trkpt>
      <trkpt lat="43.52488" lon="1.42406">
        <ele>144</ele>
        <time>2012-03-11T09:39:09Z</time>
      </trkpt>
      <trkpt lat="43.52488" lon="1.42408">
        <ele>144</ele>
        <time>2012-03-11T09:39:10Z</time>
      </trkpt>
      <trkpt lat="43.52488" lon="1.42411">
        <ele>144</ele>
        <time>2012-03-11T09:39:11Z</time>
      </trkpt>
      <trkpt lat="43.52489" lon="1.42413">
        <ele>144</ele>
        <time>2012-03-11T09:39:12Z</time>
      </trkpt>
      <trkpt lat="43.52489" lon="1.42415">
        <ele>144</ele>
        <time>2012-03-11T09:39:13Z</time>
      </trkpt>
      <trkpt lat="43.52489" lon="1.42417">
        <ele>144</ele>
        <time>2012-03-11T09:39:14Z</time>
      </trkpt>
      <trkpt lat="43.52489" lon="1.4242">
        <ele>144</ele>
        <time>2012-03-11T09:39:15Z</time>
      </trkpt>
      <trkpt lat="43.5249" lon="1.42422">
        <ele>144</ele>
        <time>2012-03-11T09:39:16Z</time>
      </trkpt>
      <trkpt lat="43.5249" lon="1.42424">
        <ele>144</ele>
        <time>2012-03-11T09:39:17Z</time>
      </trkpt>
      <trkpt lat="43.52491" lon="1.42426">
        <ele>144</ele>
        <time>2012-03-11T09:39:18Z</time>
      </trkpt>
      <trkpt lat="43.52491" lon="1.42428">
        <ele>144</ele>
        <time>2012-03-11T09:39:19Z</time>
      </trkpt>
      <trkpt lat="43.52491" lon="1.4243">
        <ele>144</ele>
        <time>2012-03-11T09:39:20Z</time>
      </trkpt>
      <trkpt lat="43.52492" lon="1.42432">
        <ele>144</ele>
        <time>2012-03-11T09:39:21Z</time>
      </trkpt>
      <trkpt lat="43.52492" lon="1.42434">
        <ele>144</ele>
        <time>2012-03-11T09:39:22Z</time>
      </trkpt>
      <trkpt lat="43.52493" lon="1.42435">
        <ele>144</ele>
        <time>2012-03-11T09:39:23Z</time>
      </trkpt>
      <trkpt lat="43.52494" lon="1.42437">
        <ele>144</ele>
        <time>2012-03-11T09:39:24Z</time>
      </trkpt>
      <trkpt lat="43.52495" lon="1.42438">
        <ele>144</ele>
        <time>2012-03-11T09:39:25Z</time>
      </trkpt>
      <trkpt lat="43.52496" lon="1.4244">
        <ele>144</ele>
        <time>2012-03-11T09:39:26Z</time>
      </trkpt>
      <trkpt lat="43.52496" lon="1.42441">
        <ele>144</ele>
        <time>2012-03-11T09:39:27Z</time>
      </trkpt>
      <trkpt lat="43.52497" lon="1.42443">
        <ele>144</ele>
        <time>2012-03-11T09:39:28Z</time>
      </trkpt>
      <trkpt lat="43.52499" lon="1.42445">
        <ele>144</ele>
        <time>2012-03-11T09:39:29Z</time>
      </trkpt>
      <trkpt lat="43.525" lon="1.42446">
        <ele>144</ele>
        <time>2012-03-11T09:39:30Z</time>
      </trkpt>
      <trkpt lat="43.52501" lon="1.42448">
        <ele>144</ele>
        <time>2012-03-11T09:39:31Z</time>
      </trkpt>
      <trkpt lat="43.52501" lon="1.4245">
        <ele>144</ele>
        <time>2012-03-11T09:39:32Z</time>
      </trkpt>
      <trkpt lat="43.52502" lon="1.42452">
        <ele>144</ele>
        <time>2012-03-11T09:39:33Z</time>
      </trkpt>
      <trkpt lat="43.52503" lon="1.42454">
        <ele>144</ele>
        <time>2012-03-11T09:39:34Z</time>
      </trkpt>
      <trkpt lat="43.52504" lon="1.42456">
        <ele>144</ele>
        <time>2012-03-11T09:39:35Z</time>
      </trkpt>
      <trkpt lat="43.52505" lon="1.42457">
        <ele>144</ele>
        <time>2012-03-11T09:39:36Z</time>
      </trkpt>
      <trkpt lat="43.52506" lon="1.42459">
        <ele>144</ele>
        <time>2012-03-11T09:39:37Z</time>
      </trkpt>
      <trkpt lat="43.52507" lon="1.42461">
        <ele>144</ele>
        <time>2012-03-11T09:39:38Z</time>
      </trkpt>
      <trkpt lat="43.52508" lon="1.42463">
        <ele>144</ele>
        <time>2012-03-11T09:39:39Z</time>
      </trkpt>
      <trkpt lat="43.5251" lon="1.42464">
        <ele>144</ele>
        <time>2012-03-11T09:39:40Z</time>
      </trkpt>
      <trkpt lat="43.5251" lon="1.42466">
        <ele>144</ele>
        <time>2012-03-11T09:39:41Z</time>
      </trkpt>
      <trkpt lat="43.52511" lon="1.42468">
        <ele>144</ele>
        <time>2012-03-11T09:39:42Z</time>
      </trkpt>
      <trkpt lat="43.52512" lon="1.4247">
        <ele>144</ele>
        <time>2012-03-11T09:39:43Z</time>
      </trkpt>
      <trkpt lat="43.52513" lon="1.42471">
        <ele>144</ele>
        <time>2012-03-11T09:39:44Z</time>
      </trkpt>
      <trkpt lat="43.52514" lon="1.42473">
        <ele>144</ele>
        <time>2012-03-11T09:39:45Z</time>
      </trkpt>
      <trkpt lat="43.52515" lon="1.42474">
        <ele>144</ele>
        <time>2012-03-11T09:39:46Z</time>
      </trkpt>
      <trkpt lat="43.52517" lon="1.42476">
        <ele>144</ele>
        <time>2012-03-11T09:39:47Z</time>
      </trkpt>
      <trkpt lat="43.52518" lon="1.42477">
        <ele>144</ele>
        <time>2012-03-11T09:39:48Z</time>
      </trkpt>
      <trkpt lat="43.52519" lon="1.42479">
        <ele>144</ele>
        <time>2012-03-11T09:39:49Z</time>
      </trkpt>
      <trkpt lat="43.52521" lon="1.42482">
        <ele>144</ele>
        <time>2012-03-11T09:39:51Z</time>
      </trkpt>
      <trkpt lat="43.52522" lon="1.42483">
        <ele>144</ele>
        <time>2012-03-11T09:39:52Z</time>
      </trkpt>
      <trkpt lat="43.52523" lon="1.42485">
        <ele>144</ele>
        <time>2012-03-11T09:39:53Z</time>
      </trkpt>
      <trkpt lat="43.52524" lon="1.42486">
        <ele>144</ele>
        <time>2012-03-11T09:39:54Z</time>
      </trkpt>
      <trkpt lat="43.52525" lon="1.42488">
        <ele>144</ele>
        <time>2012-03-11T09:39:55Z</time>
      </trkpt>
      <trkpt lat="43.52526" lon="1.42489">
        <ele>144</ele>
        <time>2012-03-11T09:39:56Z</time>
      </trkpt>
      <trkpt lat="43.52528" lon="1.42491">
        <ele>144</ele>
        <time>2012-03-11T09:39:57Z</time>
      </trkpt>
      <trkpt lat="43.52529" lon="1.42492">
        <ele>144</ele>
        <time>2012-03-11T09:39:58Z</time>
      </trkpt>
      <trkpt lat="43.52531" lon="1.42494">
        <ele>144</ele>
        <time>2012-03-11T09:40:00Z</time>
      </trkpt>
      <trkpt lat="43.52532" lon="1.42495">
        <ele>144</ele>
        <time>2012-03-11T09:40:01Z</time>
      </trkpt>
      <trkpt lat="43.52533" lon="1.42496">
        <ele>144</ele>
        <time>2012-03-11T09:40:02Z</time>
      </trkpt>
      <trkpt lat="43.52536" lon="1.42496">
        <ele>144</ele>
        <time>2012-03-11T09:40:03Z</time>
      </trkpt>
      <trkpt lat="43.52538" lon="1.42495">
        <ele>144</ele>
        <time>2012-03-11T09:40:04Z</time>
      </trkpt>
      <trkpt lat="43.52539" lon="1.42495">
        <ele>144</ele>
        <time>2012-03-11T09:40:05Z</time>
      </trkpt>
      <trkpt lat="43.52541" lon="1.42495">
        <ele>144</ele>
        <time>2012-03-11T09:40:06Z</time>
      </trkpt>
      <trkpt lat="43.52542" lon="1.42494">
        <ele>144</ele>
        <time>2012-03-11T09:40:07Z</time>
      </trkpt>
      <trkpt lat="43.52544" lon="1.42493">
        <ele>144</ele>
        <time>2012-03-11T09:40:08Z</time>
      </trkpt>
      <trkpt lat="43.52545" lon="1.42492">
        <ele>144</ele>
        <time>2012-03-11T09:40:09Z</time>
      </trkpt>
      <trkpt lat="43.52547" lon="1.42491">
        <ele>144</ele>
        <time>2012-03-11T09:40:10Z</time>
      </trkpt>
      <trkpt lat="43.52548" lon="1.4249">
        <ele>144</ele>
        <time>2012-03-11T09:40:11Z</time>
      </trkpt>
      <trkpt lat="43.5255" lon="1.42489">
        <ele>144</ele>
        <time>2012-03-11T09:40:12Z</time>
      </trkpt>
      <trkpt lat="43.52552" lon="1.42486">
        <ele>144</ele>
        <time>2012-03-11T09:40:14Z</time>
      </trkpt>
      <trkpt lat="43.52552" lon="1.42484">
        <ele>144</ele>
        <time>2012-03-11T09:40:15Z</time>
      </trkpt>
      <trkpt lat="43.52554" lon="1.42482">
        <ele>144</ele>
        <time>2012-03-11T09:40:16Z</time>
      </trkpt>
      <trkpt lat="43.52554" lon="1.42481">
        <ele>143</ele>
        <time>2012-03-11T09:40:17Z</time>
      </trkpt>
      <trkpt lat="43.52555" lon="1.42479">
        <ele>143</ele>
        <time>2012-03-11T09:40:18Z</time>
      </trkpt>
      <trkpt lat="43.52555" lon="1.42477">
        <ele>143</ele>
        <time>2012-03-11T09:40:19Z</time>
      </trkpt>
      <trkpt lat="43.52556" lon="1.42475">
        <ele>143</ele>
        <time>2012-03-11T09:40:20Z</time>
      </trkpt>
      <trkpt lat="43.52557" lon="1.42474">
        <ele>143</ele>
        <time>2012-03-11T09:40:21Z</time>
      </trkpt>
      <trkpt lat="43.52559" lon="1.42473">
        <ele>143</ele>
        <time>2012-03-11T09:40:22Z</time>
      </trkpt>
      <trkpt lat="43.5256" lon="1.42473">
        <ele>143</ele>
        <time>2012-03-11T09:40:23Z</time>
      </trkpt>
      <trkpt lat="43.52562" lon="1.42473">
        <ele>143</ele>
        <time>2012-03-11T09:40:24Z</time>
      </trkpt>
      <trkpt lat="43.52564" lon="1.42474">
        <ele>143</ele>
        <time>2012-03-11T09:40:26Z</time>
      </trkpt>
      <trkpt lat="43.52565" lon="1.42474">
        <ele>143</ele>
        <time>2012-03-11T09:40:26Z</time>
      </trkpt>
      <trkpt lat="43.52567" lon="1.42475">
        <ele>143</ele>
        <time>2012-03-11T09:40:27Z</time>
      </trkpt>
      <trkpt lat="43.52568" lon="1.42477">
        <ele>143</ele>
        <time>2012-03-11T09:40:28Z</time>
      </trkpt>
      <trkpt lat="43.52568" lon="1.42479">
        <ele>143</ele>
        <time>2012-03-11T09:40:29Z</time>
      </trkpt>
      <trkpt lat="43.52569" lon="1.42481">
        <ele>143</ele>
        <time>2012-03-11T09:40:30Z</time>
      </trkpt>
      <trkpt lat="43.5257" lon="1.42482">
        <ele>143</ele>
        <time>2012-03-11T09:40:31Z</time>
      </trkpt>
      <trkpt lat="43.5257" lon="1.42484">
        <ele>143</ele>
        <time>2012-03-11T09:40:32Z</time>
      </trkpt>
      <trkpt lat="43.52571" lon="1.42486">
        <ele>143</ele>
        <time>2012-03-11T09:40:33Z</time>
      </trkpt>
      <trkpt lat="43.52571" lon="1.42488">
        <ele>143</ele>
        <time>2012-03-11T09:40:34Z</time>
      </trkpt>
      <trkpt lat="43.52572" lon="1.42491">
        <ele>143</ele>
        <time>2012-03-11T09:40:35Z</time>
      </trkpt>
      <trkpt lat="43.52572" lon="1.42493">
        <ele>143</ele>
        <time>2012-03-11T09:40:36Z</time>
      </trkpt>
      <trkpt lat="43.52573" lon="1.42495">
        <ele>143</ele>
        <time>2012-03-11T09:40:37Z</time>
      </trkpt>
      <trkpt lat="43.52573" lon="1.42497">
        <ele>143</ele>
        <time>2012-03-11T09:40:38Z</time>
      </trkpt>
      <trkpt lat="43.52573" lon="1.42499">
        <ele>143</ele>
        <time>2012-03-11T09:40:39Z</time>
      </trkpt>
      <trkpt lat="43.52573" lon="1.42501">
        <ele>143</ele>
        <time>2012-03-11T09:40:40Z</time>
      </trkpt>
      <trkpt lat="43.52573" lon="1.42503">
        <ele>143</ele>
        <time>2012-03-11T09:40:41Z</time>
      </trkpt>
      <trkpt lat="43.52573" lon="1.42506">
        <ele>143</ele>
        <time>2012-03-11T09:40:42Z</time>
      </trkpt>
      <trkpt lat="43.52573" lon="1.42509">
        <ele>143</ele>
        <time>2012-03-11T09:40:43Z</time>
      </trkpt>
      <trkpt lat="43.52573" lon="1.42511">
        <ele>143</ele>
        <time>2012-03-11T09:40:44Z</time>
      </trkpt>
      <trkpt lat="43.52573" lon="1.42514">
        <ele>143</ele>
        <time>2012-03-11T09:40:45Z</time>
      </trkpt>
      <trkpt lat="43.52573" lon="1.42516">
        <ele>143</ele>
        <time>2012-03-11T09:40:46Z</time>
      </trkpt>
      <trkpt lat="43.52573" lon="1.42518">
        <ele>143</ele>
        <time>2012-03-11T09:40:47Z</time>
      </trkpt>
      <trkpt lat="43.52574" lon="1.4252">
        <ele>143</ele>
        <time>2012-03-11T09:40:48Z</time>
      </trkpt>
      <trkpt lat="43.52576" lon="1.42522">
        <ele>143</ele>
        <time>2012-03-11T09:40:50Z</time>
      </trkpt>
      <trkpt lat="43.52578" lon="1.42523">
        <ele>143</ele>
        <time>2012-03-11T09:40:51Z</time>
      </trkpt>
      <trkpt lat="43.52579" lon="1.42524">
        <ele>143</ele>
        <time>2012-03-11T09:40:52Z</time>
      </trkpt>
      <trkpt lat="43.5258" lon="1.42525">
        <ele>143</ele>
        <time>2012-03-11T09:40:53Z</time>
      </trkpt>
      <trkpt lat="43.52581" lon="1.42526">
        <ele>143</ele>
        <time>2012-03-11T09:40:54Z</time>
      </trkpt>
      <trkpt lat="43.52583" lon="1.42527">
        <ele>143</ele>
        <time>2012-03-11T09:40:55Z</time>
      </trkpt>
      <trkpt lat="43.52585" lon="1.42527">
        <ele>143</ele>
        <time>2012-03-11T09:40:56Z</time>
      </trkpt>
      <trkpt lat="43.52587" lon="1.42527">
        <ele>143</ele>
        <time>2012-03-11T09:40:57Z</time>
      </trkpt>
      <trkpt lat="43.52588" lon="1.42527">
        <ele>143</ele>
        <time>2012-03-11T09:40:58Z</time>
      </trkpt>
      <trkpt lat="43.5259" lon="1.42527">
        <ele>143</ele>
        <time>2012-03-11T09:40:59Z</time>
      </trkpt>
      <trkpt lat="43.52591" lon="1.42527">
        <ele>143</ele>
        <time>2012-03-11T09:41:00Z</time>
      </trkpt>
      <trkpt lat="43.52592" lon="1.42527">
        <ele>143</ele>
        <time>2012-03-11T09:41:01Z</time>
      </trkpt>
      <trkpt lat="43.52594" lon="1.42528">
        <ele>143</ele>
        <time>2012-03-11T09:41:02Z</time>
      </trkpt>
      <trkpt lat="43.52596" lon="1.42528">
        <ele>143</ele>
        <time>2012-03-11T09:41:03Z</time>
      </trkpt>
      <trkpt lat="43.52597" lon="1.42529">
        <ele>143</ele>
        <time>2012-03-11T09:41:04Z</time>
      </trkpt>
      <trkpt lat="43.52599" lon="1.42529">
        <ele>143</ele>
        <time>2012-03-11T09:41:05Z</time>
      </trkpt>
      <trkpt lat="43.526" lon="1.42529">
        <ele>143</ele>
        <time>2012-03-11T09:41:06Z</time>
      </trkpt>
      <trkpt lat="43.52602" lon="1.42529">
        <ele>143</ele>
        <time>2012-03-11T09:41:07Z</time>
      </trkpt>
      <trkpt lat="43.52604" lon="1.42529">
        <ele>143</ele>
        <time>2012-03-11T09:41:08Z</time>
      </trkpt>
      <trkpt lat="43.52605" lon="1.42529">
        <ele>143</ele>
        <time>2012-03-11T09:41:09Z</time>
      </trkpt>
      <trkpt lat="43.52607" lon="1.4253">
        <ele>143</ele>
        <time>2012-03-11T09:41:10Z</time>
      </trkpt>
      <trkpt lat="43.52608" lon="1.4253">
        <ele>143</ele>
        <time>2012-03-11T09:41:11Z</time>
      </trkpt>
      <trkpt lat="43.5261" lon="1.42532">
        <ele>143</ele>
        <time>2012-03-11T09:41:13Z</time>
      </trkpt>
      <trkpt lat="43.52612" lon="1.42533">
        <ele>143</ele>
        <time>2012-03-11T09:41:15Z</time>
      </trkpt>
      <trkpt lat="43.52613" lon="1.42534">
        <ele>143</ele>
        <time>2012-03-11T09:41:16Z</time>
      </trkpt>
      <trkpt lat="43.52615" lon="1.42534">
        <ele>143</ele>
        <time>2012-03-11T09:41:17Z</time>
      </trkpt>
      <trkpt lat="43.52617" lon="1.42534">
        <ele>143</ele>
        <time>2012-03-11T09:41:18Z</time>
      </trkpt>
      <trkpt lat="43.52618" lon="1.42535">
        <ele>143</ele>
        <time>2012-03-11T09:41:19Z</time>
      </trkpt>
      <trkpt lat="43.5262" lon="1.42535">
        <ele>143</ele>
        <time>2012-03-11T09:41:20Z</time>
      </trkpt>
      <trkpt lat="43.52621" lon="1.42535">
        <ele>143</ele>
        <time>2012-03-11T09:41:21Z</time>
      </trkpt>
      <trkpt lat="43.52622" lon="1.42536">
        <ele>143</ele>
        <time>2012-03-11T09:41:22Z</time>
      </trkpt>
      <trkpt lat="43.52624" lon="1.42536">
        <ele>143</ele>
        <time>2012-03-11T09:41:23Z</time>
      </trkpt>
      <trkpt lat="43.52626" lon="1.42536">
        <ele>143</ele>
        <time>2012-03-11T09:41:24Z</time>
      </trkpt>
      <trkpt lat="43.52627" lon="1.42536">
        <ele>143</ele>
        <time>2012-03-11T09:41:25Z</time>
      </trkpt>
      <trkpt lat="43.52628" lon="1.42536">
        <ele>143</ele>
        <time>2012-03-11T09:41:26Z</time>
      </trkpt>
      <trkpt lat="43.5263" lon="1.42536">
        <ele>143</ele>
        <time>2012-03-11T09:41:27Z</time>
      </trkpt>
      <trkpt lat="43.52632" lon="1.42536">
        <ele>143</ele>
        <time>2012-03-11T09:41:29Z</time>
      </trkpt>
      <trkpt lat="43.52635" lon="1.42535">
        <ele>143</ele>
        <time>2012-03-11T09:41:31Z</time>
      </trkpt>
      <trkpt lat="43.52636" lon="1.42534">
        <ele>143</ele>
        <time>2012-03-11T09:41:32Z</time>
      </trkpt>
      <trkpt lat="43.52638" lon="1.42533">
        <ele>143</ele>
        <time>2012-03-11T09:41:33Z</time>
      </trkpt>
      <trkpt lat="43.52639" lon="1.42532">
        <ele>143</ele>
        <time>2012-03-11T09:41:34Z</time>
      </trkpt>
      <trkpt lat="43.5264" lon="1.4253">
        <ele>143</ele>
        <time>2012-03-11T09:41:35Z</time>
      </trkpt>
      <trkpt lat="43.52642" lon="1.42529">
        <ele>143</ele>
        <time>2012-03-11T09:41:36Z</time>
      </trkpt>
      <trkpt lat="43.52644" lon="1.42528">
        <ele>143</ele>
        <time>2012-03-11T09:41:37Z</time>
      </trkpt>
      <trkpt lat="43.52646" lon="1.42528">
        <ele>143</ele>
        <time>2012-03-11T09:41:38Z</time>
      </trkpt>
      <trkpt lat="43.52647" lon="1.42529">
        <ele>143</ele>
        <time>2012-03-11T09:41:39Z</time>
      </trkpt>
      <trkpt lat="43.52649" lon="1.42528">
        <ele>143</ele>
        <time>2012-03-11T09:41:40Z</time>
      </trkpt>
      <trkpt lat="43.5265" lon="1.42529">
        <ele>143</ele>
        <time>2012-03-11T09:41:41Z</time>
      </trkpt>
      <trkpt lat="43.52651" lon="1.42529">
        <ele>143</ele>
        <time>2012-03-11T09:41:42Z</time>
      </trkpt>
      <trkpt lat="43.52652" lon="1.42529">
        <ele>143</ele>
        <time>2012-03-11T09:41:43Z</time>
      </trkpt>
      <trkpt lat="43.52654" lon="1.42529">
        <ele>143</ele>
        <time>2012-03-11T09:41:44Z</time>
      </trkpt>
      <trkpt lat="43.52655" lon="1.4253">
        <ele>143</ele>
        <time>2012-03-11T09:41:45Z</time>
      </trkpt>
      <trkpt lat="43.52656" lon="1.4253">
        <ele>143</ele>
        <time>2012-03-11T09:41:46Z</time>
      </trkpt>
      <trkpt lat="43.52658" lon="1.4253">
        <ele>143</ele>
        <time>2012-03-11T09:41:47Z</time>
      </trkpt>
      <trkpt lat="43.52659" lon="1.42531">
        <ele>143</ele>
        <time>2012-03-11T09:41:48Z</time>
      </trkpt>
      <trkpt lat="43.5266" lon="1.42531">
        <ele>143</ele>
        <time>2012-03-11T09:41:49Z</time>
      </trkpt>
      <trkpt lat="43.52662" lon="1.42531">
        <ele>143</ele>
        <time>2012-03-11T09:41:50Z</time>
      </trkpt>
      <trkpt lat="43.52663" lon="1.42532">
        <ele>143</ele>
        <time>2012-03-11T09:41:51Z</time>
      </trkpt>
      <trkpt lat="43.52665" lon="1.42533">
        <ele>143</ele>
        <time>2012-03-11T09:41:52Z</time>
      </trkpt>
      <trkpt lat="43.52666" lon="1.42533">
        <ele>143</ele>
        <time>2012-03-11T09:41:53Z</time>
      </trkpt>
      <trkpt lat="43.52668" lon="1.42534">
        <ele>143</ele>
        <time>2012-03-11T09:41:54Z</time>
      </trkpt>
      <trkpt lat="43.52669" lon="1.42534">
        <ele>143</ele>
        <time>2012-03-11T09:41:55Z</time>
      </trkpt>
      <trkpt lat="43.52671" lon="1.42536">
        <ele>143</ele>
        <time>2012-03-11T09:41:57Z</time>
      </trkpt>
      <trkpt lat="43.52673" lon="1.42536">
        <ele>143</ele>
        <time>2012-03-11T09:41:58Z</time>
      </trkpt>
      <trkpt lat="43.52675" lon="1.42537">
        <ele>143</ele>
        <time>2012-03-11T09:41:59Z</time>
      </trkpt>
      <trkpt lat="43.52676" lon="1.42537">
        <ele>143</ele>
        <time>2012-03-11T09:42:00Z</time>
      </trkpt>
      <trkpt lat="43.52677" lon="1.42538">
        <ele>143</ele>
        <time>2012-03-11T09:42:01Z</time>
      </trkpt>
      <trkpt lat="43.52679" lon="1.42538">
        <ele>143</ele>
        <time>2012-03-11T09:42:02Z</time>
      </trkpt>
      <trkpt lat="43.5268" lon="1.42538">
        <ele>143</ele>
        <time>2012-03-11T09:42:03Z</time>
      </trkpt>
      <trkpt lat="43.52682" lon="1.42537">
        <ele>143</ele>
        <time>2012-03-11T09:42:04Z</time>
      </trkpt>
      <trkpt lat="43.52685" lon="1.42536">
        <ele>143</ele>
        <time>2012-03-11T09:42:05Z</time>
      </trkpt>
      <trkpt lat="43.52686" lon="1.42535">
        <ele>143</ele>
        <time>2012-03-11T09:42:06Z</time>
      </trkpt>
      <trkpt lat="43.52688" lon="1.42535">
        <ele>143</ele>
        <time>2012-03-11T09:42:07Z</time>
      </trkpt>
      <trkpt lat="43.52689" lon="1.42535">
        <ele>143</ele>
        <time>2012-03-11T09:42:08Z</time>
      </trkpt>
      <trkpt lat="43.52691" lon="1.42535">
        <ele>144</ele>
        <time>2012-03-11T09:42:09Z</time>
      </trkpt>
      <trkpt lat="43.52693" lon="1.42535">
        <ele>144</ele>
        <time>2012-03-11T09:42:10Z</time>
      </trkpt>
      <trkpt lat="43.52694" lon="1.42534">
        <ele>145</ele>
        <time>2012-03-11T09:42:11Z</time>
      </trkpt>
      <trkpt lat="43.52696" lon="1.42535">
        <ele>145</ele>
        <time>2012-03-11T09:42:12Z</time>
      </trkpt>
      <trkpt lat="43.52697" lon="1.42534">
        <ele>145</ele>
        <time>2012-03-11T09:42:13Z</time>
      </trkpt>
      <trkpt lat="43.52699" lon="1.42535">
        <ele>145</ele>
        <time>2012-03-11T09:42:14Z</time>
      </trkpt>
      <trkpt lat="43.527" lon="1.42536">
        <ele>145</ele>
        <time>2012-03-11T09:42:15Z</time>
      </trkpt>
      <trkpt lat="43.52702" lon="1.42537">
        <ele>145</ele>
        <time>2012-03-11T09:42:16Z</time>
      </trkpt>
      <trkpt lat="43.52703" lon="1.42538">
        <ele>145</ele>
        <time>2012-03-11T09:42:17Z</time>
      </trkpt>
      <trkpt lat="43.52704" lon="1.42539">
        <ele>145</ele>
        <time>2012-03-11T09:42:18Z</time>
      </trkpt>
      <trkpt lat="43.52705" lon="1.42541">
        <ele>145</ele>
        <time>2012-03-11T09:42:19Z</time>
      </trkpt>
      <trkpt lat="43.52707" lon="1.42542">
        <ele>145</ele>
        <time>2012-03-11T09:42:20Z</time>
      </trkpt>
      <trkpt lat="43.52708" lon="1.42543">
        <ele>145</ele>
        <time>2012-03-11T09:42:21Z</time>
      </trkpt>
      <trkpt lat="43.5271" lon="1.42544">
        <ele>145</ele>
        <time>2012-03-11T09:42:22Z</time>
      </trkpt>
      <trkpt lat="43.52711" lon="1.42545">
        <ele>145</ele>
        <time>2012-03-11T09:42:23Z</time>
      </trkpt>
      <trkpt lat="43.52712" lon="1.42545">
        <ele>145</ele>
        <time>2012-03-11T09:42:24Z</time>
      </trkpt>
      <trkpt lat="43.52713" lon="1.42546">
        <ele>145</ele>
        <time>2012-03-11T09:42:25Z</time>
      </trkpt>
      <trkpt lat="43.52715" lon="1.42546">
        <ele>145</ele>
        <time>2012-03-11T09:42:26Z</time>
      </trkpt>
      <trkpt lat="43.52717" lon="1.42546">
        <ele>145</ele>
        <time>2012-03-11T09:42:27Z</time>
      </trkpt>
      <trkpt lat="43.52718" lon="1.42547">
        <ele>145</ele>
        <time>2012-03-11T09:42:28Z</time>
      </trkpt>
      <trkpt lat="43.52721" lon="1.42547">
        <ele>145</ele>
        <time>2012-03-11T09:42:29Z</time>
      </trkpt>
      <trkpt lat="43.52723" lon="1.42548">
        <ele>145</ele>
        <time>2012-03-11T09:42:30Z</time>
      </trkpt>
      <trkpt lat="43.52724" lon="1.42549">
        <ele>145</ele>
        <time>2012-03-11T09:42:31Z</time>
      </trkpt>
      <trkpt lat="43.52726" lon="1.4255">
        <ele>145</ele>
        <time>2012-03-11T09:42:32Z</time>
      </trkpt>
      <trkpt lat="43.52727" lon="1.42551">
        <ele>145</ele>
        <time>2012-03-11T09:42:33Z</time>
      </trkpt>
      <trkpt lat="43.52727" lon="1.42553">
        <ele>145</ele>
        <time>2012-03-11T09:42:34Z</time>
      </trkpt>
      <trkpt lat="43.52728" lon="1.42554">
        <ele>145</ele>
        <time>2012-03-11T09:42:35Z</time>
      </trkpt>
      <trkpt lat="43.52728" lon="1.42556">
        <ele>145</ele>
        <time>2012-03-11T09:42:36Z</time>
      </trkpt>
      <trkpt lat="43.52729" lon="1.42558">
        <ele>145</ele>
        <time>2012-03-11T09:42:37Z</time>
      </trkpt>
      <trkpt lat="43.52729" lon="1.4256">
        <ele>145</ele>
        <time>2012-03-11T09:42:38Z</time>
      </trkpt>
      <trkpt lat="43.52729" lon="1.42562">
        <ele>145</ele>
        <time>2012-03-11T09:42:39Z</time>
      </trkpt>
      <trkpt lat="43.5273" lon="1.42564">
        <ele>145</ele>
        <time>2012-03-11T09:42:40Z</time>
      </trkpt>
      <trkpt lat="43.52731" lon="1.42566">
        <ele>145</ele>
        <time>2012-03-11T09:42:41Z</time>
      </trkpt>
      <trkpt lat="43.52731" lon="1.42568">
        <ele>145</ele>
        <time>2012-03-11T09:42:42Z</time>
      </trkpt>
      <trkpt lat="43.52731" lon="1.4257">
        <ele>145</ele>
        <time>2012-03-11T09:42:43Z</time>
      </trkpt>
      <trkpt lat="43.52733" lon="1.42573">
        <ele>145</ele>
        <time>2012-03-11T09:42:45Z</time>
      </trkpt>
      <trkpt lat="43.52734" lon="1.42576">
        <ele>145</ele>
        <time>2012-03-11T09:42:46Z</time>
      </trkpt>
      <trkpt lat="43.52735" lon="1.42577">
        <ele>145</ele>
        <time>2012-03-11T09:42:47Z</time>
      </trkpt>
      <trkpt lat="43.52735" lon="1.42579">
        <ele>145</ele>
        <time>2012-03-11T09:42:48Z</time>
      </trkpt>
      <trkpt lat="43.52736" lon="1.4258">
        <ele>145</ele>
        <time>2012-03-11T09:42:49Z</time>
      </trkpt>
      <trkpt lat="43.52737" lon="1.42582">
        <ele>145</ele>
        <time>2012-03-11T09:42:50Z</time>
      </trkpt>
      <trkpt lat="43.52738" lon="1.42584">
        <ele>145</ele>
        <time>2012-03-11T09:42:51Z</time>
      </trkpt>
      <trkpt lat="43.52739" lon="1.42585">
        <ele>145</ele>
        <time>2012-03-11T09:42:52Z</time>
      </trkpt>
      <trkpt lat="43.5274" lon="1.42588">
        <ele>145</ele>
        <time>2012-03-11T09:42:54Z</time>
      </trkpt>
      <trkpt lat="43.52742" lon="1.4259">
        <ele>145</ele>
        <time>2012-03-11T09:42:56Z</time>
      </trkpt>
      <trkpt lat="43.52744" lon="1.42591">
        <ele>145</ele>
        <time>2012-03-11T09:42:58Z</time>
      </trkpt>
      <trkpt lat="43.52745" lon="1.42593">
        <ele>145</ele>
        <time>2012-03-11T09:43:00Z</time>
      </trkpt>
      <trkpt lat="43.52745" lon="1.42595">
        <ele>145</ele>
        <time>2012-03-11T09:43:01Z</time>
      </trkpt>
      <trkpt lat="43.52746" lon="1.42597">
        <ele>145</ele>
        <time>2012-03-11T09:43:02Z</time>
      </trkpt>
      <trkpt lat="43.52746" lon="1.42599">
        <ele>145</ele>
        <time>2012-03-11T09:43:03Z</time>
      </trkpt>
      <trkpt lat="43.52746" lon="1.42601">
        <ele>145</ele>
        <time>2012-03-11T09:43:04Z</time>
      </trkpt>
      <trkpt lat="43.52747" lon="1.42603">
        <ele>145</ele>
        <time>2012-03-11T09:43:05Z</time>
      </trkpt>
      <trkpt lat="43.52747" lon="1.42605">
        <ele>145</ele>
        <time>2012-03-11T09:43:06Z</time>
      </trkpt>
      <trkpt lat="43.52748" lon="1.42607">
        <ele>145</ele>
        <time>2012-03-11T09:43:07Z</time>
      </trkpt>
      <trkpt lat="43.52749" lon="1.4261">
        <ele>145</ele>
        <time>2012-03-11T09:43:08Z</time>
      </trkpt>
      <trkpt lat="43.5275" lon="1.42611">
        <ele>145</ele>
        <time>2012-03-11T09:43:09Z</time>
      </trkpt>
      <trkpt lat="43.5275" lon="1.42613">
        <ele>145</ele>
        <time>2012-03-11T09:43:10Z</time>
      </trkpt>
      <trkpt lat="43.52752" lon="1.42616">
        <ele>145</ele>
        <time>2012-03-11T09:43:12Z</time>
      </trkpt>
      <trkpt lat="43.52753" lon="1.42619">
        <ele>145</ele>
        <time>2012-03-11T09:43:14Z</time>
      </trkpt>
      <trkpt lat="43.52754" lon="1.42622">
        <ele>145</ele>
        <time>2012-03-11T09:43:16Z</time>
      </trkpt>
      <trkpt lat="43.52755" lon="1.42623">
        <ele>145</ele>
        <time>2012-03-11T09:43:17Z</time>
      </trkpt>
      <trkpt lat="43.52755" lon="1.42625">
        <ele>145</ele>
        <time>2012-03-11T09:43:18Z</time>
      </trkpt>
      <trkpt lat="43.52756" lon="1.42627">
        <ele>145</ele>
        <time>2012-03-11T09:43:19Z</time>
      </trkpt>
      <trkpt lat="43.52756" lon="1.42629">
        <ele>145</ele>
        <time>2012-03-11T09:43:20Z</time>
      </trkpt>
      <trkpt lat="43.52757" lon="1.4263">
        <ele>145</ele>
        <time>2012-03-11T09:43:21Z</time>
      </trkpt>
      <trkpt lat="43.52757" lon="1.42632">
        <ele>145</ele>
        <time>2012-03-11T09:43:22Z</time>
      </trkpt>
      <trkpt lat="43.52758" lon="1.42634">
        <ele>145</ele>
        <time>2012-03-11T09:43:23Z</time>
      </trkpt>
      <trkpt lat="43.52758" lon="1.42636">
        <ele>145</ele>
        <time>2012-03-11T09:43:24Z</time>
      </trkpt>
      <trkpt lat="43.52759" lon="1.42637">
        <ele>145</ele>
        <time>2012-03-11T09:43:25Z</time>
      </trkpt>
      <trkpt lat="43.52759" lon="1.42639">
        <ele>145</ele>
        <time>2012-03-11T09:43:26Z</time>
      </trkpt>
      <trkpt lat="43.5276" lon="1.42641">
        <ele>145</ele>
        <time>2012-03-11T09:43:27Z</time>
      </trkpt>
      <trkpt lat="43.5276" lon="1.42643">
        <ele>145</ele>
        <time>2012-03-11T09:43:28Z</time>
      </trkpt>
      <trkpt lat="43.5276" lon="1.42645">
        <ele>145</ele>
        <time>2012-03-11T09:43:29Z</time>
      </trkpt>
      <trkpt lat="43.52761" lon="1.42646">
        <ele>145</ele>
        <time>2012-03-11T09:43:30Z</time>
      </trkpt>
      <trkpt lat="43.52762" lon="1.42649">
        <ele>145</ele>
        <time>2012-03-11T09:43:32Z</time>
      </trkpt>
      <trkpt lat="43.52763" lon="1.42651">
        <ele>145</ele>
        <time>2012-03-11T09:43:34Z</time>
      </trkpt>
      <trkpt lat="43.52763" lon="1.42654">
        <ele>145</ele>
        <time>2012-03-11T09:43:36Z</time>
      </trkpt>
      <trkpt lat="43.52764" lon="1.42653">
        <ele>145</ele>
        <time>2012-03-11T09:43:45Z</time>
      </trkpt>
      <trkpt lat="43.52766" lon="1.42651">
        <ele>145</ele>
        <time>2012-03-11T09:43:47Z</time>
      </trkpt>
      <trkpt lat="43.52766" lon="1.42649">
        <ele>145</ele>
        <time>2012-03-11T09:43:49Z</time>
      </trkpt>
      <trkpt lat="43.52766" lon="1.42647">
        <ele>145</ele>
        <time>2012-03-11T09:43:50Z</time>
      </trkpt>
      <trkpt lat="43.52766" lon="1.42646">
        <ele>145</ele>
        <time>2012-03-11T09:43:51Z</time>
      </trkpt>
      <trkpt lat="43.52765" lon="1.42644">
        <ele>145</ele>
        <time>2012-03-11T09:43:52Z</time>
      </trkpt>
      <trkpt lat="43.52765" lon="1.42643">
        <ele>145</ele>
        <time>2012-03-11T09:43:53Z</time>
      </trkpt>
      <trkpt lat="43.52763" lon="1.42641">
        <ele>144</ele>
        <time>2012-03-11T09:43:54Z</time>
      </trkpt>
      <trkpt lat="43.52762" lon="1.42639">
        <ele>144</ele>
        <time>2012-03-11T09:43:55Z</time>
      </trkpt>
      <trkpt lat="43.52761" lon="1.42638">
        <ele>144</ele>
        <time>2012-03-11T09:43:56Z</time>
      </trkpt>
      <trkpt lat="43.5276" lon="1.42637">
        <ele>144</ele>
        <time>2012-03-11T09:43:57Z</time>
      </trkpt>
      <trkpt lat="43.52758" lon="1.42635">
        <ele>143</ele>
        <time>2012-03-11T09:43:59Z</time>
      </trkpt>
      <trkpt lat="43.52757" lon="1.42632">
        <ele>142</ele>
        <time>2012-03-11T09:44:01Z</time>
      </trkpt>
      <trkpt lat="43.52756" lon="1.42631">
        <ele>142</ele>
        <time>2012-03-11T09:44:02Z</time>
      </trkpt>
      <trkpt lat="43.52755" lon="1.42629">
        <ele>142</ele>
        <time>2012-03-11T09:44:03Z</time>
      </trkpt>
      <trkpt lat="43.52755" lon="1.42628">
        <ele>142</ele>
        <time>2012-03-11T09:44:04Z</time>
      </trkpt>
      <trkpt lat="43.52755" lon="1.42626">
        <ele>142</ele>
        <time>2012-03-11T09:44:05Z</time>
      </trkpt>
      <trkpt lat="43.52754" lon="1.42625">
        <ele>142</ele>
        <time>2012-03-11T09:44:06Z</time>
      </trkpt>
      <trkpt lat="43.52754" lon="1.42623">
        <ele>141</ele>
        <time>2012-03-11T09:44:07Z</time>
      </trkpt>
      <trkpt lat="43.52753" lon="1.42622">
        <ele>141</ele>
        <time>2012-03-11T09:44:08Z</time>
      </trkpt>
      <trkpt lat="43.52753" lon="1.4262">
        <ele>141</ele>
        <time>2012-03-11T09:44:09Z</time>
      </trkpt>
      <trkpt lat="43.52751" lon="1.42617">
        <ele>141</ele>
        <time>2012-03-11T09:44:11Z</time>
      </trkpt>
      <trkpt lat="43.5275" lon="1.42615">
        <ele>141</ele>
        <time>2012-03-11T09:44:13Z</time>
      </trkpt>
      <trkpt lat="43.52748" lon="1.42612">
        <ele>141</ele>
        <time>2012-03-11T09:44:15Z</time>
      </trkpt>
      <trkpt lat="43.52747" lon="1.42611">
        <ele>141</ele>
        <time>2012-03-11T09:44:16Z</time>
      </trkpt>
      <trkpt lat="43.52747" lon="1.42609">
        <ele>141</ele>
        <time>2012-03-11T09:44:17Z</time>
      </trkpt>
      <trkpt lat="43.52746" lon="1.42607">
        <ele>141</ele>
        <time>2012-03-11T09:44:18Z</time>
      </trkpt>
      <trkpt lat="43.52745" lon="1.42606">
        <ele>141</ele>
        <time>2012-03-11T09:44:19Z</time>
      </trkpt>
      <trkpt lat="43.52745" lon="1.42604">
        <ele>141</ele>
        <time>2012-03-11T09:44:20Z</time>
      </trkpt>
      <trkpt lat="43.52744" lon="1.42602">
        <ele>141</ele>
        <time>2012-03-11T09:44:21Z</time>
      </trkpt>
      <trkpt lat="43.52744" lon="1.426">
        <ele>141</ele>
        <time>2012-03-11T09:44:22Z</time>
      </trkpt>
      <trkpt lat="43.52744" lon="1.42598">
        <ele>141</ele>
        <time>2012-03-11T09:44:23Z</time>
      </trkpt>
      <trkpt lat="43.52743" lon="1.42596">
        <ele>141</ele>
        <time>2012-03-11T09:44:24Z</time>
      </trkpt>
      <trkpt lat="43.52742" lon="1.42594">
        <ele>140</ele>
        <time>2012-03-11T09:44:25Z</time>
      </trkpt>
      <trkpt lat="43.52743" lon="1.42591">
        <ele>140</ele>
        <time>2012-03-11T09:44:26Z</time>
      </trkpt>
      <trkpt lat="43.52743" lon="1.42589">
        <ele>140</ele>
        <time>2012-03-11T09:44:27Z</time>
      </trkpt>
      <trkpt lat="43.52744" lon="1.42587">
        <ele>140</ele>
        <time>2012-03-11T09:44:28Z</time>
      </trkpt>
      <trkpt lat="43.52744" lon="1.42585">
        <ele>139</ele>
        <time>2012-03-11T09:44:29Z</time>
      </trkpt>
      <trkpt lat="43.52744" lon="1.42582">
        <ele>139</ele>
        <time>2012-03-11T09:44:30Z</time>
      </trkpt>
      <trkpt lat="43.52744" lon="1.4258">
        <ele>139</ele>
        <time>2012-03-11T09:44:31Z</time>
      </trkpt>
      <trkpt lat="43.52744" lon="1.42578">
        <ele>139</ele>
        <time>2012-03-11T09:44:32Z</time>
      </trkpt>
      <trkpt lat="43.52744" lon="1.42576">
        <ele>139</ele>
        <time>2012-03-11T09:44:33Z</time>
      </trkpt>
      <trkpt lat="43.52743" lon="1.42573">
        <ele>138</ele>
        <time>2012-03-11T09:44:34Z</time>
      </trkpt>
      <trkpt lat="43.52742" lon="1.42571">
        <ele>138</ele>
        <time>2012-03-11T09:44:35Z</time>
      </trkpt>
      <trkpt lat="43.52742" lon="1.4257">
        <ele>138</ele>
        <time>2012-03-11T09:44:36Z</time>
      </trkpt>
      <trkpt lat="43.52742" lon="1.42568">
        <ele>138</ele>
        <time>2012-03-11T09:44:37Z</time>
      </trkpt>
      <trkpt lat="43.52741" lon="1.42565">
        <ele>138</ele>
        <time>2012-03-11T09:44:38Z</time>
      </trkpt>
      <trkpt lat="43.52741" lon="1.42563">
        <ele>138</ele>
        <time>2012-03-11T09:44:39Z</time>
      </trkpt>
      <trkpt lat="43.52741" lon="1.42561">
        <ele>138</ele>
        <time>2012-03-11T09:44:40Z</time>
      </trkpt>
      <trkpt lat="43.5274" lon="1.42559">
        <ele>138</ele>
        <time>2012-03-11T09:44:41Z</time>
      </trkpt>
      <trkpt lat="43.5274" lon="1.42556">
        <ele>138</ele>
        <time>2012-03-11T09:44:42Z</time>
      </trkpt>
      <trkpt lat="43.52741" lon="1.42554">
        <ele>138</ele>
        <time>2012-03-11T09:44:43Z</time>
      </trkpt>
      <trkpt lat="43.5274" lon="1.42552">
        <ele>138</ele>
        <time>2012-03-11T09:44:44Z</time>
      </trkpt>
      <trkpt lat="43.5274" lon="1.4255">
        <ele>138</ele>
        <time>2012-03-11T09:44:45Z</time>
      </trkpt>
      <trkpt lat="43.5274" lon="1.42548">
        <ele>138</ele>
        <time>2012-03-11T09:44:46Z</time>
      </trkpt>
      <trkpt lat="43.5274" lon="1.42546">
        <ele>138</ele>
        <time>2012-03-11T09:44:47Z</time>
      </trkpt>
      <trkpt lat="43.52739" lon="1.42545">
        <ele>138</ele>
        <time>2012-03-11T09:44:48Z</time>
      </trkpt>
      <trkpt lat="43.52739" lon="1.42543">
        <ele>138</ele>
        <time>2012-03-11T09:44:49Z</time>
      </trkpt>
      <trkpt lat="43.52738" lon="1.4254">
        <ele>138</ele>
        <time>2012-03-11T09:44:51Z</time>
      </trkpt>
      <trkpt lat="43.52737" lon="1.42538">
        <ele>138</ele>
        <time>2012-03-11T09:44:53Z</time>
      </trkpt>
      <trkpt lat="43.52736" lon="1.42536">
        <ele>138</ele>
        <time>2012-03-11T09:44:54Z</time>
      </trkpt>
      <trkpt lat="43.52735" lon="1.42535">
        <ele>138</ele>
        <time>2012-03-11T09:44:55Z</time>
      </trkpt>
      <trkpt lat="43.52734" lon="1.42533">
        <ele>138</ele>
        <time>2012-03-11T09:44:56Z</time>
      </trkpt>
      <trkpt lat="43.52733" lon="1.42531">
        <ele>138</ele>
        <time>2012-03-11T09:44:57Z</time>
      </trkpt>
      <trkpt lat="43.52732" lon="1.42528">
        <ele>138</ele>
        <time>2012-03-11T09:44:58Z</time>
      </trkpt>
      <trkpt lat="43.52732" lon="1.42526">
        <ele>138</ele>
        <time>2012-03-11T09:44:59Z</time>
      </trkpt>
      <trkpt lat="43.52731" lon="1.42524">
        <ele>138</ele>
        <time>2012-03-11T09:45:00Z</time>
      </trkpt>
      <trkpt lat="43.52731" lon="1.42522">
        <ele>138</ele>
        <time>2012-03-11T09:45:01Z</time>
      </trkpt>
      <trkpt lat="43.52731" lon="1.42519">
        <ele>138</ele>
        <time>2012-03-11T09:45:02Z</time>
      </trkpt>
      <trkpt lat="43.52731" lon="1.42517">
        <ele>138</ele>
        <time>2012-03-11T09:45:03Z</time>
      </trkpt>
      <trkpt lat="43.52731" lon="1.42516">
        <ele>138</ele>
        <time>2012-03-11T09:45:04Z</time>
      </trkpt>
      <trkpt lat="43.52731" lon="1.42514">
        <ele>138</ele>
        <time>2012-03-11T09:45:05Z</time>
      </trkpt>
      <trkpt lat="43.52731" lon="1.42511">
        <ele>138</ele>
        <time>2012-03-11T09:45:06Z</time>
      </trkpt>
      <trkpt lat="43.52731" lon="1.42509">
        <ele>138</ele>
        <time>2012-03-11T09:45:07Z</time>
      </trkpt>
      <trkpt lat="43.52731" lon="1.42507">
        <ele>138</ele>
        <time>2012-03-11T09:45:08Z</time>
      </trkpt>
      <trkpt lat="43.52731" lon="1.42505">
        <ele>138</ele>
        <time>2012-03-11T09:45:09Z</time>
      </trkpt>
      <trkpt lat="43.52731" lon="1.42503">
        <ele>138</ele>
        <time>2012-03-11T09:45:10Z</time>
      </trkpt>
      <trkpt lat="43.52731" lon="1.42501">
        <ele>138</ele>
        <time>2012-03-11T09:45:11Z</time>
      </trkpt>
      <trkpt lat="43.52731" lon="1.42499">
        <ele>138</ele>
        <time>2012-03-11T09:45:12Z</time>
      </trkpt>
      <trkpt lat="43.52731" lon="1.42496">
        <ele>138</ele>
        <time>2012-03-11T09:45:13Z</time>
      </trkpt>
      <trkpt lat="43.52731" lon="1.42494">
        <ele>138</ele>
        <time>2012-03-11T09:45:14Z</time>
      </trkpt>
      <trkpt lat="43.52731" lon="1.42492">
        <ele>138</ele>
        <time>2012-03-11T09:45:15Z</time>
      </trkpt>
      <trkpt lat="43.52731" lon="1.4249">
        <ele>138</ele>
        <time>2012-03-11T09:45:16Z</time>
      </trkpt>
      <trkpt lat="43.5273" lon="1.42487">
        <ele>138</ele>
        <time>2012-03-11T09:45:17Z</time>
      </trkpt>
      <trkpt lat="43.5273" lon="1.42485">
        <ele>138</ele>
        <time>2012-03-11T09:45:18Z</time>
      </trkpt>
      <trkpt lat="43.5273" lon="1.42482">
        <ele>138</ele>
        <time>2012-03-11T09:45:19Z</time>
      </trkpt>
      <trkpt lat="43.52729" lon="1.4248">
        <ele>138</ele>
        <time>2012-03-11T09:45:20Z</time>
      </trkpt>
      <trkpt lat="43.5273" lon="1.42478">
        <ele>138</ele>
        <time>2012-03-11T09:45:21Z</time>
      </trkpt>
      <trkpt lat="43.5273" lon="1.42476">
        <ele>138</ele>
        <time>2012-03-11T09:45:22Z</time>
      </trkpt>
      <trkpt lat="43.5273" lon="1.42473">
        <ele>138</ele>
        <time>2012-03-11T09:45:23Z</time>
      </trkpt>
      <trkpt lat="43.5273" lon="1.42471">
        <ele>138</ele>
        <time>2012-03-11T09:45:24Z</time>
      </trkpt>
      <trkpt lat="43.5273" lon="1.42469">
        <ele>138</ele>
        <time>2012-03-11T09:45:25Z</time>
      </trkpt>
      <trkpt lat="43.5273" lon="1.42466">
        <ele>138</ele>
        <time>2012-03-11T09:45:26Z</time>
      </trkpt>
      <trkpt lat="43.5273" lon="1.42464">
        <ele>137</ele>
        <time>2012-03-11T09:45:27Z</time>
      </trkpt>
      <trkpt lat="43.5273" lon="1.42462">
        <ele>137</ele>
        <time>2012-03-11T09:45:28Z</time>
      </trkpt>
      <trkpt lat="43.5273" lon="1.4246">
        <ele>137</ele>
        <time>2012-03-11T09:45:29Z</time>
      </trkpt>
      <trkpt lat="43.5273" lon="1.42458">
        <ele>136</ele>
        <time>2012-03-11T09:45:30Z</time>
      </trkpt>
      <trkpt lat="43.52729" lon="1.42455">
        <ele>136</ele>
        <time>2012-03-11T09:45:31Z</time>
      </trkpt>
      <trkpt lat="43.52729" lon="1.42453">
        <ele>136</ele>
        <time>2012-03-11T09:45:32Z</time>
      </trkpt>
      <trkpt lat="43.52729" lon="1.42451">
        <ele>136</ele>
        <time>2012-03-11T09:45:33Z</time>
      </trkpt>
      <trkpt lat="43.52729" lon="1.42449">
        <ele>136</ele>
        <time>2012-03-11T09:45:34Z</time>
      </trkpt>
      <trkpt lat="43.52729" lon="1.42447">
        <ele>136</ele>
        <time>2012-03-11T09:45:35Z</time>
      </trkpt>
      <trkpt lat="43.52728" lon="1.42445">
        <ele>135</ele>
        <time>2012-03-11T09:45:36Z</time>
      </trkpt>
      <trkpt lat="43.52728" lon="1.42442">
        <ele>135</ele>
        <time>2012-03-11T09:45:37Z</time>
      </trkpt>
      <trkpt lat="43.52727" lon="1.4244">
        <ele>135</ele>
        <time>2012-03-11T09:45:38Z</time>
      </trkpt>
      <trkpt lat="43.52726" lon="1.42438">
        <ele>135</ele>
        <time>2012-03-11T09:45:39Z</time>
      </trkpt>
      <trkpt lat="43.52726" lon="1.42435">
        <ele>135</ele>
        <time>2012-03-11T09:45:40Z</time>
      </trkpt>
      <trkpt lat="43.52725" lon="1.42433">
        <ele>135</ele>
        <time>2012-03-11T09:45:41Z</time>
      </trkpt>
      <trkpt lat="43.52724" lon="1.42431">
        <ele>135</ele>
        <time>2012-03-11T09:45:42Z</time>
      </trkpt>
      <trkpt lat="43.52724" lon="1.42429">
        <ele>135</ele>
        <time>2012-03-11T09:45:43Z</time>
      </trkpt>
      <trkpt lat="43.52723" lon="1.42427">
        <ele>135</ele>
        <time>2012-03-11T09:45:44Z</time>
      </trkpt>
      <trkpt lat="43.52722" lon="1.42425">
        <ele>135</ele>
        <time>2012-03-11T09:45:45Z</time>
      </trkpt>
      <trkpt lat="43.52722" lon="1.42423">
        <ele>135</ele>
        <time>2012-03-11T09:45:46Z</time>
      </trkpt>
      <trkpt lat="43.52721" lon="1.42421">
        <ele>135</ele>
        <time>2012-03-11T09:45:47Z</time>
      </trkpt>
      <trkpt lat="43.52721" lon="1.42419">
        <ele>135</ele>
        <time>2012-03-11T09:45:48Z</time>
      </trkpt>
      <trkpt lat="43.5272" lon="1.42417">
        <ele>135</ele>
        <time>2012-03-11T09:45:49Z</time>
      </trkpt>
      <trkpt lat="43.52719" lon="1.42415">
        <ele>135</ele>
        <time>2012-03-11T09:45:50Z</time>
      </trkpt>
      <trkpt lat="43.5272" lon="1.42412">
        <ele>135</ele>
        <time>2012-03-11T09:45:51Z</time>
      </trkpt>
      <trkpt lat="43.5272" lon="1.42411">
        <ele>135</ele>
        <time>2012-03-11T09:45:52Z</time>
      </trkpt>
      <trkpt lat="43.52721" lon="1.42409">
        <ele>135</ele>
        <time>2012-03-11T09:45:53Z</time>
      </trkpt>
      <trkpt lat="43.52721" lon="1.42406">
        <ele>135</ele>
        <time>2012-03-11T09:45:54Z</time>
      </trkpt>
      <trkpt lat="43.52722" lon="1.42404">
        <ele>135</ele>
        <time>2012-03-11T09:45:55Z</time>
      </trkpt>
      <trkpt lat="43.52723" lon="1.42402">
        <ele>135</ele>
        <time>2012-03-11T09:45:56Z</time>
      </trkpt>
      <trkpt lat="43.52723" lon="1.424">
        <ele>135</ele>
        <time>2012-03-11T09:45:57Z</time>
      </trkpt>
      <trkpt lat="43.52724" lon="1.42398">
        <ele>135</ele>
        <time>2012-03-11T09:45:59Z</time>
      </trkpt>
      <trkpt lat="43.52725" lon="1.42396">
        <ele>135</ele>
        <time>2012-03-11T09:45:59Z</time>
      </trkpt>
      <trkpt lat="43.52725" lon="1.42394">
        <ele>135</ele>
        <time>2012-03-11T09:46:00Z</time>
      </trkpt>
      <trkpt lat="43.52726" lon="1.42391">
        <ele>135</ele>
        <time>2012-03-11T09:46:01Z</time>
      </trkpt>
      <trkpt lat="43.52726" lon="1.42389">
        <ele>135</ele>
        <time>2012-03-11T09:46:02Z</time>
      </trkpt>
      <trkpt lat="43.52726" lon="1.42387">
        <ele>135</ele>
        <time>2012-03-11T09:46:03Z</time>
      </trkpt>
      <trkpt lat="43.52726" lon="1.42385">
        <ele>135</ele>
        <time>2012-03-11T09:46:04Z</time>
      </trkpt>
      <trkpt lat="43.52727" lon="1.42383">
        <ele>135</ele>
        <time>2012-03-11T09:46:05Z</time>
      </trkpt>
      <trkpt lat="43.52727" lon="1.4238">
        <ele>135</ele>
        <time>2012-03-11T09:46:06Z</time>
      </trkpt>
      <trkpt lat="43.52727" lon="1.42378">
        <ele>135</ele>
        <time>2012-03-11T09:46:07Z</time>
      </trkpt>
      <trkpt lat="43.52727" lon="1.42376">
        <ele>135</ele>
        <time>2012-03-11T09:46:08Z</time>
      </trkpt>
      <trkpt lat="43.52727" lon="1.42373">
        <ele>135</ele>
        <time>2012-03-11T09:46:09Z</time>
      </trkpt>
      <trkpt lat="43.52726" lon="1.42371">
        <ele>135</ele>
        <time>2012-03-11T09:46:10Z</time>
      </trkpt>
      <trkpt lat="43.52727" lon="1.42369">
        <ele>135</ele>
        <time>2012-03-11T09:46:11Z</time>
      </trkpt>
      <trkpt lat="43.52727" lon="1.42367">
        <ele>135</ele>
        <time>2012-03-11T09:46:12Z</time>
      </trkpt>
      <trkpt lat="43.52727" lon="1.42365">
        <ele>135</ele>
        <time>2012-03-11T09:46:13Z</time>
      </trkpt>
      <trkpt lat="43.52727" lon="1.42363">
        <ele>135</ele>
        <time>2012-03-11T09:46:14Z</time>
      </trkpt>
      <trkpt lat="43.52727" lon="1.4236">
        <ele>135</ele>
        <time>2012-03-11T09:46:15Z</time>
      </trkpt>
      <trkpt lat="43.52726" lon="1.42358">
        <ele>134</ele>
        <time>2012-03-11T09:46:16Z</time>
      </trkpt>
      <trkpt lat="43.52726" lon="1.42356">
        <ele>134</ele>
        <time>2012-03-11T09:46:17Z</time>
      </trkpt>
      <trkpt lat="43.52726" lon="1.42354">
        <ele>134</ele>
        <time>2012-03-11T09:46:18Z</time>
      </trkpt>
      <trkpt lat="43.52725" lon="1.42352">
        <ele>133</ele>
        <time>2012-03-11T09:46:19Z</time>
      </trkpt>
      <trkpt lat="43.52724" lon="1.4235">
        <ele>133</ele>
        <time>2012-03-11T09:46:20Z</time>
      </trkpt>
      <trkpt lat="43.52723" lon="1.42349">
        <ele>133</ele>
        <time>2012-03-11T09:46:21Z</time>
      </trkpt>
      <trkpt lat="43.52723" lon="1.42347">
        <ele>133</ele>
        <time>2012-03-11T09:46:22Z</time>
      </trkpt>
      <trkpt lat="43.52721" lon="1.42344">
        <ele>133</ele>
        <time>2012-03-11T09:46:24Z</time>
      </trkpt>
      <trkpt lat="43.5272" lon="1.42342">
        <ele>133</ele>
        <time>2012-03-11T09:46:25Z</time>
      </trkpt>
      <trkpt lat="43.52719" lon="1.42341">
        <ele>133</ele>
        <time>2012-03-11T09:46:26Z</time>
      </trkpt>
      <trkpt lat="43.52718" lon="1.42339">
        <ele>133</ele>
        <time>2012-03-11T09:46:27Z</time>
      </trkpt>
      <trkpt lat="43.52717" lon="1.42337">
        <ele>133</ele>
        <time>2012-03-11T09:46:28Z</time>
      </trkpt>
      <trkpt lat="43.52716" lon="1.42335">
        <ele>133</ele>
        <time>2012-03-11T09:46:29Z</time>
      </trkpt>
      <trkpt lat="43.52715" lon="1.42334">
        <ele>133</ele>
        <time>2012-03-11T09:46:30Z</time>
      </trkpt>
      <trkpt lat="43.52714" lon="1.42332">
        <ele>133</ele>
        <time>2012-03-11T09:46:31Z</time>
      </trkpt>
      <trkpt lat="43.52713" lon="1.4233">
        <ele>133</ele>
        <time>2012-03-11T09:46:32Z</time>
      </trkpt>
      <trkpt lat="43.52713" lon="1.42329">
        <ele>133</ele>
        <time>2012-03-11T09:46:33Z</time>
      </trkpt>
      <trkpt lat="43.52711" lon="1.42327">
        <ele>133</ele>
        <time>2012-03-11T09:46:34Z</time>
      </trkpt>
      <trkpt lat="43.5271" lon="1.42325">
        <ele>133</ele>
        <time>2012-03-11T09:46:35Z</time>
      </trkpt>
      <trkpt lat="43.52709" lon="1.42324">
        <ele>133</ele>
        <time>2012-03-11T09:46:36Z</time>
      </trkpt>
      <trkpt lat="43.52708" lon="1.42322">
        <ele>133</ele>
        <time>2012-03-11T09:46:37Z</time>
      </trkpt>
      <trkpt lat="43.52707" lon="1.42321">
        <ele>133</ele>
        <time>2012-03-11T09:46:38Z</time>
      </trkpt>
      <trkpt lat="43.52705" lon="1.42318">
        <ele>133</ele>
        <time>2012-03-11T09:46:40Z</time>
      </trkpt>
      <trkpt lat="43.52704" lon="1.42316">
        <ele>133</ele>
        <time>2012-03-11T09:46:41Z</time>
      </trkpt>
      <trkpt lat="43.52703" lon="1.42315">
        <ele>133</ele>
        <time>2012-03-11T09:46:42Z</time>
      </trkpt>
      <trkpt lat="43.52702" lon="1.42312">
        <ele>133</ele>
        <time>2012-03-11T09:46:43Z</time>
      </trkpt>
      <trkpt lat="43.52702" lon="1.4231">
        <ele>133</ele>
        <time>2012-03-11T09:46:44Z</time>
      </trkpt>
      <trkpt lat="43.52701" lon="1.42308">
        <ele>133</ele>
        <time>2012-03-11T09:46:45Z</time>
      </trkpt>
      <trkpt lat="43.527" lon="1.42306">
        <ele>133</ele>
        <time>2012-03-11T09:46:46Z</time>
      </trkpt>
      <trkpt lat="43.527" lon="1.42304">
        <ele>133</ele>
        <time>2012-03-11T09:46:47Z</time>
      </trkpt>
      <trkpt lat="43.527" lon="1.42302">
        <ele>133</ele>
        <time>2012-03-11T09:46:48Z</time>
      </trkpt>
      <trkpt lat="43.52699" lon="1.42299">
        <ele>133</ele>
        <time>2012-03-11T09:46:49Z</time>
      </trkpt>
      <trkpt lat="43.52699" lon="1.42297">
        <ele>133</ele>
        <time>2012-03-11T09:46:50Z</time>
      </trkpt>
      <trkpt lat="43.52699" lon="1.42296">
        <ele>133</ele>
        <time>2012-03-11T09:46:51Z</time>
      </trkpt>
      <trkpt lat="43.52699" lon="1.42294">
        <ele>133</ele>
        <time>2012-03-11T09:46:52Z</time>
      </trkpt>
      <trkpt lat="43.52698" lon="1.42292">
        <ele>133</ele>
        <time>2012-03-11T09:46:53Z</time>
      </trkpt>
      <trkpt lat="43.52698" lon="1.42291">
        <ele>133</ele>
        <time>2012-03-11T09:46:54Z</time>
      </trkpt>
      <trkpt lat="43.52699" lon="1.42289">
        <ele>133</ele>
        <time>2012-03-11T09:46:55Z</time>
      </trkpt>
      <trkpt lat="43.527" lon="1.42288">
        <ele>133</ele>
        <time>2012-03-11T09:46:57Z</time>
      </trkpt>
      <trkpt lat="43.52702" lon="1.42287">
        <ele>133</ele>
        <time>2012-03-11T09:46:59Z</time>
      </trkpt>
      <trkpt lat="43.52701" lon="1.42286">
        <ele>133</ele>
        <time>2012-03-11T09:47:14Z</time>
      </trkpt>
      <trkpt lat="43.527" lon="1.42285">
        <ele>133</ele>
        <time>2012-03-11T09:47:18Z</time>
      </trkpt>
      <trkpt lat="43.52699" lon="1.42285">
        <ele>133</ele>
        <time>2012-03-11T09:47:19Z</time>
      </trkpt>
      <trkpt lat="43.52697" lon="1.42285">
        <ele>133</ele>
        <time>2012-03-11T09:47:20Z</time>
      </trkpt>
      <trkpt lat="43.52696" lon="1.42285">
        <ele>133</ele>
        <time>2012-03-11T09:47:21Z</time>
      </trkpt>
      <trkpt lat="43.52694" lon="1.42284">
        <ele>133</ele>
        <time>2012-03-11T09:47:22Z</time>
      </trkpt>
      <trkpt lat="43.52693" lon="1.42284">
        <ele>133</ele>
        <time>2012-03-11T09:47:23Z</time>
      </trkpt>
      <trkpt lat="43.52692" lon="1.42284">
        <ele>133</ele>
        <time>2012-03-11T09:47:24Z</time>
      </trkpt>
      <trkpt lat="43.5269" lon="1.42285">
        <ele>133</ele>
        <time>2012-03-11T09:47:25Z</time>
      </trkpt>
      <trkpt lat="43.52689" lon="1.42284">
        <ele>133</ele>
        <time>2012-03-11T09:47:26Z</time>
      </trkpt>
      <trkpt lat="43.52688" lon="1.42284">
        <ele>133</ele>
        <time>2012-03-11T09:47:27Z</time>
      </trkpt>
      <trkpt lat="43.52686" lon="1.42284">
        <ele>133</ele>
        <time>2012-03-11T09:47:28Z</time>
      </trkpt>
      <trkpt lat="43.52685" lon="1.42284">
        <ele>133</ele>
        <time>2012-03-11T09:47:29Z</time>
      </trkpt>
      <trkpt lat="43.52684" lon="1.42284">
        <ele>133</ele>
        <time>2012-03-11T09:47:30Z</time>
      </trkpt>
      <trkpt lat="43.52682" lon="1.42283">
        <ele>133</ele>
        <time>2012-03-11T09:47:31Z</time>
      </trkpt>
      <trkpt lat="43.52681" lon="1.42282">
        <ele>133</ele>
        <time>2012-03-11T09:47:32Z</time>
      </trkpt>
      <trkpt lat="43.5268" lon="1.42281">
        <ele>133</ele>
        <time>2012-03-11T09:47:33Z</time>
      </trkpt>
      <trkpt lat="43.52679" lon="1.42279">
        <ele>133</ele>
        <time>2012-03-11T09:47:34Z</time>
      </trkpt>
      <trkpt lat="43.52679" lon="1.42278">
        <ele>133</ele>
        <time>2012-03-11T09:47:35Z</time>
      </trkpt>
      <trkpt lat="43.52678" lon="1.42276">
        <ele>133</ele>
        <time>2012-03-11T09:47:36Z</time>
      </trkpt>
      <trkpt lat="43.52678" lon="1.42274">
        <ele>133</ele>
        <time>2012-03-11T09:47:37Z</time>
      </trkpt>
      <trkpt lat="43.52678" lon="1.42272">
        <ele>133</ele>
        <time>2012-03-11T09:47:38Z</time>
      </trkpt>
      <trkpt lat="43.52678" lon="1.4227">
        <ele>133</ele>
        <time>2012-03-11T09:47:39Z</time>
      </trkpt>
      <trkpt lat="43.52678" lon="1.42269">
        <ele>133</ele>
        <time>2012-03-11T09:47:40Z</time>
      </trkpt>
      <trkpt lat="43.52678" lon="1.42266">
        <ele>133</ele>
        <time>2012-03-11T09:47:41Z</time>
      </trkpt>
      <trkpt lat="43.52678" lon="1.42264">
        <ele>133</ele>
        <time>2012-03-11T09:47:42Z</time>
      </trkpt>
      <trkpt lat="43.52679" lon="1.42262">
        <ele>133</ele>
        <time>2012-03-11T09:47:43Z</time>
      </trkpt>
      <trkpt lat="43.52679" lon="1.4226">
        <ele>133</ele>
        <time>2012-03-11T09:47:44Z</time>
      </trkpt>
      <trkpt lat="43.5268" lon="1.42258">
        <ele>133</ele>
        <time>2012-03-11T09:47:45Z</time>
      </trkpt>
      <trkpt lat="43.52681" lon="1.42257">
        <ele>133</ele>
        <time>2012-03-11T09:47:46Z</time>
      </trkpt>
      <trkpt lat="43.52681" lon="1.42254">
        <ele>133</ele>
        <time>2012-03-11T09:47:47Z</time>
      </trkpt>
      <trkpt lat="43.52682" lon="1.42253">
        <ele>133</ele>
        <time>2012-03-11T09:47:48Z</time>
      </trkpt>
      <trkpt lat="43.52683" lon="1.42251">
        <ele>133</ele>
        <time>2012-03-11T09:47:49Z</time>
      </trkpt>
      <trkpt lat="43.52683" lon="1.42248">
        <ele>133</ele>
        <time>2012-03-11T09:47:50Z</time>
      </trkpt>
      <trkpt lat="43.52684" lon="1.42247">
        <ele>133</ele>
        <time>2012-03-11T09:47:51Z</time>
      </trkpt>
      <trkpt lat="43.52685" lon="1.42245">
        <ele>133</ele>
        <time>2012-03-11T09:47:52Z</time>
      </trkpt>
      <trkpt lat="43.52686" lon="1.42244">
        <ele>133</ele>
        <time>2012-03-11T09:47:53Z</time>
      </trkpt>
      <trkpt lat="43.52687" lon="1.42242">
        <ele>133</ele>
        <time>2012-03-11T09:47:54Z</time>
      </trkpt>
      <trkpt lat="43.52687" lon="1.42238">
        <ele>133</ele>
        <time>2012-03-11T09:47:56Z</time>
      </trkpt>
      <trkpt lat="43.52688" lon="1.42236">
        <ele>133</ele>
        <time>2012-03-11T09:47:57Z</time>
      </trkpt>
      <trkpt lat="43.52688" lon="1.42234">
        <ele>132</ele>
        <time>2012-03-11T09:47:58Z</time>
      </trkpt>
      <trkpt lat="43.52688" lon="1.42233">
        <ele>132</ele>
        <time>2012-03-11T09:47:59Z</time>
      </trkpt>
      <trkpt lat="43.52688" lon="1.4223">
        <ele>132</ele>
        <time>2012-03-11T09:48:00Z</time>
      </trkpt>
      <trkpt lat="43.52687" lon="1.42228">
        <ele>132</ele>
        <time>2012-03-11T09:48:01Z</time>
      </trkpt>
      <trkpt lat="43.52687" lon="1.42225">
        <ele>132</ele>
        <time>2012-03-11T09:48:02Z</time>
      </trkpt>
      <trkpt lat="43.52686" lon="1.42223">
        <ele>132</ele>
        <time>2012-03-11T09:48:03Z</time>
      </trkpt>
      <trkpt lat="43.52686" lon="1.42221">
        <ele>132</ele>
        <time>2012-03-11T09:48:04Z</time>
      </trkpt>
      <trkpt lat="43.52686" lon="1.42219">
        <ele>132</ele>
        <time>2012-03-11T09:48:05Z</time>
      </trkpt>
      <trkpt lat="43.52686" lon="1.42217">
        <ele>132</ele>
        <time>2012-03-11T09:48:06Z</time>
      </trkpt>
      <trkpt lat="43.52685" lon="1.42215">
        <ele>132</ele>
        <time>2012-03-11T09:48:07Z</time>
      </trkpt>
      <trkpt lat="43.52685" lon="1.42212">
        <ele>132</ele>
        <time>2012-03-11T09:48:08Z</time>
      </trkpt>
      <trkpt lat="43.52684" lon="1.4221">
        <ele>132</ele>
        <time>2012-03-11T09:48:09Z</time>
      </trkpt>
      <trkpt lat="43.52683" lon="1.42208">
        <ele>132</ele>
        <time>2012-03-11T09:48:10Z</time>
      </trkpt>
      <trkpt lat="43.52683" lon="1.42206">
        <ele>132</ele>
        <time>2012-03-11T09:48:11Z</time>
      </trkpt>
      <trkpt lat="43.52682" lon="1.42204">
        <ele>132</ele>
        <time>2012-03-11T09:48:12Z</time>
      </trkpt>
      <trkpt lat="43.52682" lon="1.42202">
        <ele>132</ele>
        <time>2012-03-11T09:48:13Z</time>
      </trkpt>
      <trkpt lat="43.52682" lon="1.422">
        <ele>132</ele>
        <time>2012-03-11T09:48:14Z</time>
      </trkpt>
      <trkpt lat="43.52682" lon="1.42197">
        <ele>132</ele>
        <time>2012-03-11T09:48:15Z</time>
      </trkpt>
      <trkpt lat="43.52681" lon="1.42195">
        <ele>132</ele>
        <time>2012-03-11T09:48:16Z</time>
      </trkpt>
      <trkpt lat="43.52681" lon="1.42193">
        <ele>132</ele>
        <time>2012-03-11T09:48:17Z</time>
      </trkpt>
      <trkpt lat="43.52681" lon="1.42191">
        <ele>132</ele>
        <time>2012-03-11T09:48:18Z</time>
      </trkpt>
      <trkpt lat="43.52681" lon="1.42189">
        <ele>132</ele>
        <time>2012-03-11T09:48:19Z</time>
      </trkpt>
      <trkpt lat="43.52681" lon="1.42187">
        <ele>132</ele>
        <time>2012-03-11T09:48:20Z</time>
      </trkpt>
      <trkpt lat="43.52681" lon="1.42185">
        <ele>132</ele>
        <time>2012-03-11T09:48:21Z</time>
      </trkpt>
      <trkpt lat="43.52681" lon="1.42183">
        <ele>132</ele>
        <time>2012-03-11T09:48:22Z</time>
      </trkpt>
      <trkpt lat="43.52681" lon="1.4218">
        <ele>132</ele>
        <time>2012-03-11T09:48:23Z</time>
      </trkpt>
      <trkpt lat="43.52681" lon="1.42178">
        <ele>132</ele>
        <time>2012-03-11T09:48:24Z</time>
      </trkpt>
      <trkpt lat="43.52681" lon="1.42176">
        <ele>132</ele>
        <time>2012-03-11T09:48:25Z</time>
      </trkpt>
      <trkpt lat="43.52681" lon="1.42174">
        <ele>132</ele>
        <time>2012-03-11T09:48:26Z</time>
      </trkpt>
      <trkpt lat="43.5268" lon="1.42172">
        <ele>132</ele>
        <time>2012-03-11T09:48:27Z</time>
      </trkpt>
      <trkpt lat="43.5268" lon="1.42169">
        <ele>132</ele>
        <time>2012-03-11T09:48:28Z</time>
      </trkpt>
      <trkpt lat="43.5268" lon="1.42167">
        <ele>132</ele>
        <time>2012-03-11T09:48:29Z</time>
      </trkpt>
      <trkpt lat="43.52679" lon="1.42165">
        <ele>132</ele>
        <time>2012-03-11T09:48:30Z</time>
      </trkpt>
      <trkpt lat="43.52679" lon="1.42163">
        <ele>132</ele>
        <time>2012-03-11T09:48:31Z</time>
      </trkpt>
      <trkpt lat="43.52679" lon="1.42162">
        <ele>132</ele>
        <time>2012-03-11T09:48:32Z</time>
      </trkpt>
      <trkpt lat="43.52678" lon="1.4216">
        <ele>132</ele>
        <time>2012-03-11T09:48:33Z</time>
      </trkpt>
      <trkpt lat="43.52678" lon="1.42158">
        <ele>132</ele>
        <time>2012-03-11T09:48:34Z</time>
      </trkpt>
      <trkpt lat="43.52678" lon="1.42155">
        <ele>132</ele>
        <time>2012-03-11T09:48:35Z</time>
      </trkpt>
      <trkpt lat="43.52677" lon="1.42153">
        <ele>132</ele>
        <time>2012-03-11T09:48:36Z</time>
      </trkpt>
      <trkpt lat="43.52677" lon="1.42152">
        <ele>132</ele>
        <time>2012-03-11T09:48:37Z</time>
      </trkpt>
      <trkpt lat="43.52676" lon="1.4215">
        <ele>132</ele>
        <time>2012-03-11T09:48:38Z</time>
      </trkpt>
      <trkpt lat="43.52675" lon="1.42148">
        <ele>132</ele>
        <time>2012-03-11T09:48:39Z</time>
      </trkpt>
      <trkpt lat="43.52674" lon="1.42146">
        <ele>132</ele>
        <time>2012-03-11T09:48:40Z</time>
      </trkpt>
      <trkpt lat="43.52674" lon="1.42145">
        <ele>132</ele>
        <time>2012-03-11T09:48:41Z</time>
      </trkpt>
      <trkpt lat="43.52673" lon="1.42143">
        <ele>132</ele>
        <time>2012-03-11T09:48:42Z</time>
      </trkpt>
      <trkpt lat="43.52673" lon="1.42141">
        <ele>132</ele>
        <time>2012-03-11T09:48:43Z</time>
      </trkpt>
      <trkpt lat="43.52672" lon="1.42139">
        <ele>132</ele>
        <time>2012-03-11T09:48:44Z</time>
      </trkpt>
      <trkpt lat="43.52671" lon="1.42137">
        <ele>132</ele>
        <time>2012-03-11T09:48:45Z</time>
      </trkpt>
      <trkpt lat="43.52671" lon="1.42135">
        <ele>132</ele>
        <time>2012-03-11T09:48:46Z</time>
      </trkpt>
      <trkpt lat="43.5267" lon="1.42132">
        <ele>132</ele>
        <time>2012-03-11T09:48:47Z</time>
      </trkpt>
      <trkpt lat="43.5267" lon="1.4213">
        <ele>132</ele>
        <time>2012-03-11T09:48:48Z</time>
      </trkpt>
      <trkpt lat="43.5267" lon="1.42128">
        <ele>132</ele>
        <time>2012-03-11T09:48:49Z</time>
      </trkpt>
      <trkpt lat="43.52669" lon="1.42126">
        <ele>132</ele>
        <time>2012-03-11T09:48:50Z</time>
      </trkpt>
      <trkpt lat="43.52669" lon="1.42123">
        <ele>132</ele>
        <time>2012-03-11T09:48:51Z</time>
      </trkpt>
      <trkpt lat="43.52668" lon="1.42122">
        <ele>132</ele>
        <time>2012-03-11T09:48:52Z</time>
      </trkpt>
      <trkpt lat="43.52668" lon="1.42119">
        <ele>132</ele>
        <time>2012-03-11T09:48:53Z</time>
      </trkpt>
      <trkpt lat="43.52667" lon="1.42117">
        <ele>132</ele>
        <time>2012-03-11T09:48:54Z</time>
      </trkpt>
      <trkpt lat="43.52667" lon="1.42115">
        <ele>132</ele>
        <time>2012-03-11T09:48:55Z</time>
      </trkpt>
      <trkpt lat="43.52666" lon="1.42113">
        <ele>132</ele>
        <time>2012-03-11T09:48:56Z</time>
      </trkpt>
      <trkpt lat="43.52666" lon="1.42111">
        <ele>132</ele>
        <time>2012-03-11T09:48:57Z</time>
      </trkpt>
      <trkpt lat="43.52665" lon="1.42109">
        <ele>132</ele>
        <time>2012-03-11T09:48:58Z</time>
      </trkpt>
      <trkpt lat="43.52664" lon="1.42106">
        <ele>132</ele>
        <time>2012-03-11T09:48:59Z</time>
      </trkpt>
      <trkpt lat="43.52663" lon="1.42104">
        <ele>132</ele>
        <time>2012-03-11T09:49:00Z</time>
      </trkpt>
      <trkpt lat="43.52663" lon="1.42101">
        <ele>132</ele>
        <time>2012-03-11T09:49:01Z</time>
      </trkpt>
      <trkpt lat="43.52663" lon="1.42099">
        <ele>132</ele>
        <time>2012-03-11T09:49:02Z</time>
      </trkpt>
      <trkpt lat="43.52663" lon="1.42096">
        <ele>132</ele>
        <time>2012-03-11T09:49:03Z</time>
      </trkpt>
      <trkpt lat="43.52662" lon="1.42094">
        <ele>132</ele>
        <time>2012-03-11T09:49:04Z</time>
      </trkpt>
      <trkpt lat="43.52662" lon="1.42093">
        <ele>132</ele>
        <time>2012-03-11T09:49:05Z</time>
      </trkpt>
      <trkpt lat="43.52662" lon="1.42091">
        <ele>132</ele>
        <time>2012-03-11T09:49:06Z</time>
      </trkpt>
      <trkpt lat="43.52662" lon="1.42089">
        <ele>132</ele>
        <time>2012-03-11T09:49:07Z</time>
      </trkpt>
      <trkpt lat="43.52662" lon="1.42087">
        <ele>132</ele>
        <time>2012-03-11T09:49:08Z</time>
      </trkpt>
      <trkpt lat="43.52661" lon="1.42084">
        <ele>132</ele>
        <time>2012-03-11T09:49:09Z</time>
      </trkpt>
      <trkpt lat="43.5266" lon="1.42082">
        <ele>132</ele>
        <time>2012-03-11T09:49:10Z</time>
      </trkpt>
      <trkpt lat="43.5266" lon="1.4208">
        <ele>132</ele>
        <time>2012-03-11T09:49:11Z</time>
      </trkpt>
      <trkpt lat="43.52658" lon="1.42078">
        <ele>132</ele>
        <time>2012-03-11T09:49:12Z</time>
      </trkpt>
      <trkpt lat="43.52657" lon="1.42076">
        <ele>132</ele>
        <time>2012-03-11T09:49:13Z</time>
      </trkpt>
      <trkpt lat="43.52656" lon="1.42074">
        <ele>132</ele>
        <time>2012-03-11T09:49:14Z</time>
      </trkpt>
      <trkpt lat="43.52655" lon="1.42072">
        <ele>132</ele>
        <time>2012-03-11T09:49:15Z</time>
      </trkpt>
      <trkpt lat="43.52654" lon="1.42071">
        <ele>132</ele>
        <time>2012-03-11T09:49:16Z</time>
      </trkpt>
      <trkpt lat="43.52652" lon="1.4207">
        <ele>132</ele>
        <time>2012-03-11T09:49:17Z</time>
      </trkpt>
      <trkpt lat="43.5265" lon="1.42069">
        <ele>132</ele>
        <time>2012-03-11T09:49:18Z</time>
      </trkpt>
      <trkpt lat="43.52649" lon="1.42069">
        <ele>132</ele>
        <time>2012-03-11T09:49:19Z</time>
      </trkpt>
      <trkpt lat="43.52647" lon="1.42069">
        <ele>132</ele>
        <time>2012-03-11T09:49:20Z</time>
      </trkpt>
      <trkpt lat="43.52645" lon="1.42068">
        <ele>132</ele>
        <time>2012-03-11T09:49:21Z</time>
      </trkpt>
      <trkpt lat="43.52644" lon="1.42067">
        <ele>132</ele>
        <time>2012-03-11T09:49:22Z</time>
      </trkpt>
      <trkpt lat="43.52642" lon="1.42067">
        <ele>132</ele>
        <time>2012-03-11T09:49:23Z</time>
      </trkpt>
      <trkpt lat="43.52641" lon="1.42066">
        <ele>132</ele>
        <time>2012-03-11T09:49:24Z</time>
      </trkpt>
      <trkpt lat="43.5264" lon="1.42065">
        <ele>132</ele>
        <time>2012-03-11T09:49:25Z</time>
      </trkpt>
      <trkpt lat="43.52638" lon="1.42064">
        <ele>132</ele>
        <time>2012-03-11T09:49:26Z</time>
      </trkpt>
      <trkpt lat="43.52637" lon="1.42063">
        <ele>132</ele>
        <time>2012-03-11T09:49:27Z</time>
      </trkpt>
      <trkpt lat="43.52636" lon="1.42062">
        <ele>132</ele>
        <time>2012-03-11T09:49:28Z</time>
      </trkpt>
      <trkpt lat="43.52634" lon="1.42061">
        <ele>132</ele>
        <time>2012-03-11T09:49:29Z</time>
      </trkpt>
      <trkpt lat="43.52633" lon="1.4206">
        <ele>132</ele>
        <time>2012-03-11T09:49:30Z</time>
      </trkpt>
      <trkpt lat="43.52632" lon="1.42058">
        <ele>132</ele>
        <time>2012-03-11T09:49:31Z</time>
      </trkpt>
      <trkpt lat="43.52631" lon="1.42057">
        <ele>132</ele>
        <time>2012-03-11T09:49:32Z</time>
      </trkpt>
      <trkpt lat="43.5263" lon="1.42055">
        <ele>132</ele>
        <time>2012-03-11T09:49:33Z</time>
      </trkpt>
      <trkpt lat="43.52629" lon="1.42053">
        <ele>132</ele>
        <time>2012-03-11T09:49:34Z</time>
      </trkpt>
      <trkpt lat="43.52628" lon="1.42052">
        <ele>132</ele>
        <time>2012-03-11T09:49:35Z</time>
      </trkpt>
      <trkpt lat="43.52628" lon="1.4205">
        <ele>132</ele>
        <time>2012-03-11T09:49:36Z</time>
      </trkpt>
      <trkpt lat="43.52627" lon="1.42048">
        <ele>132</ele>
        <time>2012-03-11T09:49:37Z</time>
      </trkpt>
      <trkpt lat="43.52626" lon="1.42046">
        <ele>132</ele>
        <time>2012-03-11T09:49:38Z</time>
      </trkpt>
      <trkpt lat="43.52626" lon="1.42044">
        <ele>132</ele>
        <time>2012-03-11T09:49:39Z</time>
      </trkpt>
      <trkpt lat="43.52626" lon="1.42042">
        <ele>132</ele>
        <time>2012-03-11T09:49:40Z</time>
      </trkpt>
      <trkpt lat="43.52627" lon="1.4204">
        <ele>132</ele>
        <time>2012-03-11T09:49:41Z</time>
      </trkpt>
      <trkpt lat="43.52627" lon="1.42038">
        <ele>132</ele>
        <time>2012-03-11T09:49:42Z</time>
      </trkpt>
      <trkpt lat="43.52628" lon="1.42036">
        <ele>132</ele>
        <time>2012-03-11T09:49:43Z</time>
      </trkpt>
      <trkpt lat="43.52628" lon="1.42034">
        <ele>132</ele>
        <time>2012-03-11T09:49:44Z</time>
      </trkpt>
      <trkpt lat="43.52628" lon="1.42031">
        <ele>132</ele>
        <time>2012-03-11T09:49:45Z</time>
      </trkpt>
      <trkpt lat="43.52628" lon="1.42029">
        <ele>132</ele>
        <time>2012-03-11T09:49:46Z</time>
      </trkpt>
      <trkpt lat="43.52628" lon="1.42026">
        <ele>132</ele>
        <time>2012-03-11T09:49:47Z</time>
      </trkpt>
      <trkpt lat="43.52628" lon="1.42024">
        <ele>132</ele>
        <time>2012-03-11T09:49:48Z</time>
      </trkpt>
      <trkpt lat="43.52628" lon="1.42022">
        <ele>132</ele>
        <time>2012-03-11T09:49:49Z</time>
      </trkpt>
      <trkpt lat="43.52628" lon="1.4202">
        <ele>132</ele>
        <time>2012-03-11T09:49:50Z</time>
      </trkpt>
      <trkpt lat="43.52629" lon="1.42017">
        <ele>132</ele>
        <time>2012-03-11T09:49:51Z</time>
      </trkpt>
      <trkpt lat="43.52629" lon="1.42015">
        <ele>132</ele>
        <time>2012-03-11T09:49:52Z</time>
      </trkpt>
      <trkpt lat="43.52629" lon="1.42013">
        <ele>132</ele>
        <time>2012-03-11T09:49:53Z</time>
      </trkpt>
      <trkpt lat="43.52629" lon="1.42011">
        <ele>132</ele>
        <time>2012-03-11T09:49:54Z</time>
      </trkpt>
      <trkpt lat="43.52629" lon="1.42008">
        <ele>132</ele>
        <time>2012-03-11T09:49:55Z</time>
      </trkpt>
      <trkpt lat="43.52628" lon="1.42007">
        <ele>132</ele>
        <time>2012-03-11T09:49:56Z</time>
      </trkpt>
      <trkpt lat="43.52628" lon="1.42005">
        <ele>132</ele>
        <time>2012-03-11T09:49:57Z</time>
      </trkpt>
      <trkpt lat="43.52628" lon="1.42002">
        <ele>132</ele>
        <time>2012-03-11T09:49:58Z</time>
      </trkpt>
      <trkpt lat="43.52628" lon="1.42">
        <ele>132</ele>
        <time>2012-03-11T09:49:59Z</time>
      </trkpt>
      <trkpt lat="43.52628" lon="1.41997">
        <ele>132</ele>
        <time>2012-03-11T09:50:00Z</time>
      </trkpt>
      <trkpt lat="43.52628" lon="1.41995">
        <ele>132</ele>
        <time>2012-03-11T09:50:01Z</time>
      </trkpt>
      <trkpt lat="43.52628" lon="1.41993">
        <ele>132</ele>
        <time>2012-03-11T09:50:02Z</time>
      </trkpt>
      <trkpt lat="43.52628" lon="1.41991">
        <ele>132</ele>
        <time>2012-03-11T09:50:03Z</time>
      </trkpt>
      <trkpt lat="43.52628" lon="1.4199">
        <ele>132</ele>
        <time>2012-03-11T09:50:04Z</time>
      </trkpt>
      <trkpt lat="43.52628" lon="1.41988">
        <ele>132</ele>
        <time>2012-03-11T09:50:05Z</time>
      </trkpt>
      <trkpt lat="43.52627" lon="1.41985">
        <ele>132</ele>
        <time>2012-03-11T09:50:06Z</time>
      </trkpt>
      <trkpt lat="43.52627" lon="1.41984">
        <ele>132</ele>
        <time>2012-03-11T09:50:07Z</time>
      </trkpt>
      <trkpt lat="43.52627" lon="1.41982">
        <ele>132</ele>
        <time>2012-03-11T09:50:08Z</time>
      </trkpt>
      <trkpt lat="43.52627" lon="1.4198">
        <ele>132</ele>
        <time>2012-03-11T09:50:09Z</time>
      </trkpt>
      <trkpt lat="43.52626" lon="1.41978">
        <ele>132</ele>
        <time>2012-03-11T09:50:10Z</time>
      </trkpt>
      <trkpt lat="43.52626" lon="1.41976">
        <ele>132</ele>
        <time>2012-03-11T09:50:11Z</time>
      </trkpt>
      <trkpt lat="43.52626" lon="1.41974">
        <ele>132</ele>
        <time>2012-03-11T09:50:12Z</time>
      </trkpt>
      <trkpt lat="43.52626" lon="1.41972">
        <ele>132</ele>
        <time>2012-03-11T09:50:13Z</time>
      </trkpt>
      <trkpt lat="43.52626" lon="1.4197">
        <ele>132</ele>
        <time>2012-03-11T09:50:14Z</time>
      </trkpt>
      <trkpt lat="43.52626" lon="1.41968">
        <ele>132</ele>
        <time>2012-03-11T09:50:15Z</time>
      </trkpt>
      <trkpt lat="43.52627" lon="1.41966">
        <ele>132</ele>
        <time>2012-03-11T09:50:16Z</time>
      </trkpt>
      <trkpt lat="43.52627" lon="1.41964">
        <ele>132</ele>
        <time>2012-03-11T09:50:17Z</time>
      </trkpt>
      <trkpt lat="43.52628" lon="1.41962">
        <ele>132</ele>
        <time>2012-03-11T09:50:18Z</time>
      </trkpt>
      <trkpt lat="43.52629" lon="1.4196">
        <ele>132</ele>
        <time>2012-03-11T09:50:19Z</time>
      </trkpt>
      <trkpt lat="43.5263" lon="1.41958">
        <ele>132</ele>
        <time>2012-03-11T09:50:20Z</time>
      </trkpt>
      <trkpt lat="43.52631" lon="1.41957">
        <ele>132</ele>
        <time>2012-03-11T09:50:21Z</time>
      </trkpt>
      <trkpt lat="43.52633" lon="1.41955">
        <ele>132</ele>
        <time>2012-03-11T09:50:22Z</time>
      </trkpt>
      <trkpt lat="43.52634" lon="1.41954">
        <ele>132</ele>
        <time>2012-03-11T09:50:23Z</time>
      </trkpt>
      <trkpt lat="43.52636" lon="1.41952">
        <ele>133</ele>
        <time>2012-03-11T09:50:24Z</time>
      </trkpt>
      <trkpt lat="43.52637" lon="1.41951">
        <ele>133</ele>
        <time>2012-03-11T09:50:25Z</time>
      </trkpt>
      <trkpt lat="43.52638" lon="1.41949">
        <ele>133</ele>
        <time>2012-03-11T09:50:26Z</time>
      </trkpt>
      <trkpt lat="43.52639" lon="1.41947">
        <ele>133</ele>
        <time>2012-03-11T09:50:27Z</time>
      </trkpt>
      <trkpt lat="43.5264" lon="1.41946">
        <ele>133</ele>
        <time>2012-03-11T09:50:28Z</time>
      </trkpt>
      <trkpt lat="43.5264" lon="1.41944">
        <ele>133</ele>
        <time>2012-03-11T09:50:29Z</time>
      </trkpt>
      <trkpt lat="43.52641" lon="1.41941">
        <ele>133</ele>
        <time>2012-03-11T09:50:30Z</time>
      </trkpt>
      <trkpt lat="43.52641" lon="1.41939">
        <ele>133</ele>
        <time>2012-03-11T09:50:31Z</time>
      </trkpt>
      <trkpt lat="43.52642" lon="1.41937">
        <ele>133</ele>
        <time>2012-03-11T09:50:32Z</time>
      </trkpt>
      <trkpt lat="43.52642" lon="1.41935">
        <ele>133</ele>
        <time>2012-03-11T09:50:33Z</time>
      </trkpt>
      <trkpt lat="43.52642" lon="1.41933">
        <ele>133</ele>
        <time>2012-03-11T09:50:34Z</time>
      </trkpt>
      <trkpt lat="43.52643" lon="1.4193">
        <ele>133</ele>
        <time>2012-03-11T09:50:35Z</time>
      </trkpt>
      <trkpt lat="43.52644" lon="1.41928">
        <ele>133</ele>
        <time>2012-03-11T09:50:36Z</time>
      </trkpt>
      <trkpt lat="43.52644" lon="1.41926">
        <ele>133</ele>
        <time>2012-03-11T09:50:37Z</time>
      </trkpt>
      <trkpt lat="43.52644" lon="1.41923">
        <ele>133</ele>
        <time>2012-03-11T09:50:38Z</time>
      </trkpt>
      <trkpt lat="43.52645" lon="1.41921">
        <ele>133</ele>
        <time>2012-03-11T09:50:39Z</time>
      </trkpt>
      <trkpt lat="43.52645" lon="1.41919">
        <ele>133</ele>
        <time>2012-03-11T09:50:40Z</time>
      </trkpt>
      <trkpt lat="43.52645" lon="1.41917">
        <ele>133</ele>
        <time>2012-03-11T09:50:41Z</time>
      </trkpt>
      <trkpt lat="43.52645" lon="1.41914">
        <ele>133</ele>
        <time>2012-03-11T09:50:42Z</time>
      </trkpt>
      <trkpt lat="43.52645" lon="1.41912">
        <ele>133</ele>
        <time>2012-03-11T09:50:43Z</time>
      </trkpt>
      <trkpt lat="43.52645" lon="1.4191">
        <ele>133</ele>
        <time>2012-03-11T09:50:44Z</time>
      </trkpt>
      <trkpt lat="43.52645" lon="1.41907">
        <ele>133</ele>
        <time>2012-03-11T09:50:45Z</time>
      </trkpt>
      <trkpt lat="43.52645" lon="1.41905">
        <ele>133</ele>
        <time>2012-03-11T09:50:46Z</time>
      </trkpt>
      <trkpt lat="43.52645" lon="1.41903">
        <ele>133</ele>
        <time>2012-03-11T09:50:47Z</time>
      </trkpt>
      <trkpt lat="43.52644" lon="1.419">
        <ele>133</ele>
        <time>2012-03-11T09:50:48Z</time>
      </trkpt>
      <trkpt lat="43.52644" lon="1.41897">
        <ele>133</ele>
        <time>2012-03-11T09:50:49Z</time>
      </trkpt>
      <trkpt lat="43.52644" lon="1.41895">
        <ele>133</ele>
        <time>2012-03-11T09:50:50Z</time>
      </trkpt>
      <trkpt lat="43.52644" lon="1.41893">
        <ele>133</ele>
        <time>2012-03-11T09:50:51Z</time>
      </trkpt>
      <trkpt lat="43.52645" lon="1.4189">
        <ele>133</ele>
        <time>2012-03-11T09:50:52Z</time>
      </trkpt>
      <trkpt lat="43.52645" lon="1.41888">
        <ele>133</ele>
        <time>2012-03-11T09:50:53Z</time>
      </trkpt>
      <trkpt lat="43.52645" lon="1.41886">
        <ele>133</ele>
        <time>2012-03-11T09:50:54Z</time>
      </trkpt>
      <trkpt lat="43.52646" lon="1.41884">
        <ele>133</ele>
        <time>2012-03-11T09:50:55Z</time>
      </trkpt>
      <trkpt lat="43.52646" lon="1.41881">
        <ele>133</ele>
        <time>2012-03-11T09:50:56Z</time>
      </trkpt>
      <trkpt lat="43.52646" lon="1.41879">
        <ele>133</ele>
        <time>2012-03-11T09:50:57Z</time>
      </trkpt>
      <trkpt lat="43.52646" lon="1.41877">
        <ele>133</ele>
        <time>2012-03-11T09:50:58Z</time>
      </trkpt>
      <trkpt lat="43.52647" lon="1.41875">
        <ele>133</ele>
        <time>2012-03-11T09:50:59Z</time>
      </trkpt>
      <trkpt lat="43.52647" lon="1.41873">
        <ele>133</ele>
        <time>2012-03-11T09:51:00Z</time>
      </trkpt>
      <trkpt lat="43.52647" lon="1.4187">
        <ele>133</ele>
        <time>2012-03-11T09:51:01Z</time>
      </trkpt>
      <trkpt lat="43.52646" lon="1.41868">
        <ele>133</ele>
        <time>2012-03-11T09:51:02Z</time>
      </trkpt>
      <trkpt lat="43.52646" lon="1.41866">
        <ele>133</ele>
        <time>2012-03-11T09:51:03Z</time>
      </trkpt>
      <trkpt lat="43.52646" lon="1.41864">
        <ele>133</ele>
        <time>2012-03-11T09:51:04Z</time>
      </trkpt>
      <trkpt lat="43.52646" lon="1.41862">
        <ele>133</ele>
        <time>2012-03-11T09:51:05Z</time>
      </trkpt>
      <trkpt lat="43.52646" lon="1.4186">
        <ele>133</ele>
        <time>2012-03-11T09:51:06Z</time>
      </trkpt>
      <trkpt lat="43.52645" lon="1.41858">
        <ele>133</ele>
        <time>2012-03-11T09:51:07Z</time>
      </trkpt>
      <trkpt lat="43.52645" lon="1.41856">
        <ele>133</ele>
        <time>2012-03-11T09:51:08Z</time>
      </trkpt>
      <trkpt lat="43.52645" lon="1.41853">
        <ele>133</ele>
        <time>2012-03-11T09:51:09Z</time>
      </trkpt>
      <trkpt lat="43.52644" lon="1.41852">
        <ele>133</ele>
        <time>2012-03-11T09:51:10Z</time>
      </trkpt>
      <trkpt lat="43.52644" lon="1.4185">
        <ele>133</ele>
        <time>2012-03-11T09:51:11Z</time>
      </trkpt>
      <trkpt lat="43.52643" lon="1.41848">
        <ele>133</ele>
        <time>2012-03-11T09:51:12Z</time>
      </trkpt>
      <trkpt lat="43.52642" lon="1.41846">
        <ele>133</ele>
        <time>2012-03-11T09:51:13Z</time>
      </trkpt>
      <trkpt lat="43.52642" lon="1.41844">
        <ele>133</ele>
        <time>2012-03-11T09:51:14Z</time>
      </trkpt>
      <trkpt lat="43.52641" lon="1.41842">
        <ele>133</ele>
        <time>2012-03-11T09:51:15Z</time>
      </trkpt>
      <trkpt lat="43.5264" lon="1.41841">
        <ele>133</ele>
        <time>2012-03-11T09:51:16Z</time>
      </trkpt>
      <trkpt lat="43.52639" lon="1.41839">
        <ele>133</ele>
        <time>2012-03-11T09:51:17Z</time>
      </trkpt>
      <trkpt lat="43.52638" lon="1.41837">
        <ele>133</ele>
        <time>2012-03-11T09:51:18Z</time>
      </trkpt>
      <trkpt lat="43.52637" lon="1.41834">
        <ele>133</ele>
        <time>2012-03-11T09:51:19Z</time>
      </trkpt>
      <trkpt lat="43.52636" lon="1.41832">
        <ele>133</ele>
        <time>2012-03-11T09:51:20Z</time>
      </trkpt>
      <trkpt lat="43.52635" lon="1.41831">
        <ele>133</ele>
        <time>2012-03-11T09:51:21Z</time>
      </trkpt>
      <trkpt lat="43.52634" lon="1.41829">
        <ele>133</ele>
        <time>2012-03-11T09:51:22Z</time>
      </trkpt>
      <trkpt lat="43.52633" lon="1.41827">
        <ele>133</ele>
        <time>2012-03-11T09:51:23Z</time>
      </trkpt>
      <trkpt lat="43.52633" lon="1.41825">
        <ele>133</ele>
        <time>2012-03-11T09:51:24Z</time>
      </trkpt>
      <trkpt lat="43.52632" lon="1.41823">
        <ele>133</ele>
        <time>2012-03-11T09:51:25Z</time>
      </trkpt>
      <trkpt lat="43.52631" lon="1.41821">
        <ele>133</ele>
        <time>2012-03-11T09:51:26Z</time>
      </trkpt>
      <trkpt lat="43.5263" lon="1.41819">
        <ele>133</ele>
        <time>2012-03-11T09:51:27Z</time>
      </trkpt>
      <trkpt lat="43.52629" lon="1.41817">
        <ele>133</ele>
        <time>2012-03-11T09:51:28Z</time>
      </trkpt>
      <trkpt lat="43.52628" lon="1.41815">
        <ele>133</ele>
        <time>2012-03-11T09:51:29Z</time>
      </trkpt>
      <trkpt lat="43.52628" lon="1.41813">
        <ele>133</ele>
        <time>2012-03-11T09:51:30Z</time>
      </trkpt>
      <trkpt lat="43.52627" lon="1.41811">
        <ele>133</ele>
        <time>2012-03-11T09:51:31Z</time>
      </trkpt>
      <trkpt lat="43.52626" lon="1.41809">
        <ele>133</ele>
        <time>2012-03-11T09:51:32Z</time>
      </trkpt>
      <trkpt lat="43.52626" lon="1.41807">
        <ele>133</ele>
        <time>2012-03-11T09:51:33Z</time>
      </trkpt>
      <trkpt lat="43.52625" lon="1.41805">
        <ele>133</ele>
        <time>2012-03-11T09:51:34Z</time>
      </trkpt>
      <trkpt lat="43.52625" lon="1.41803">
        <ele>133</ele>
        <time>2012-03-11T09:51:35Z</time>
      </trkpt>
      <trkpt lat="43.52624" lon="1.41801">
        <ele>133</ele>
        <time>2012-03-11T09:51:36Z</time>
      </trkpt>
      <trkpt lat="43.52624" lon="1.41799">
        <ele>133</ele>
        <time>2012-03-11T09:51:37Z</time>
      </trkpt>
      <trkpt lat="43.52623" lon="1.41797">
        <ele>133</ele>
        <time>2012-03-11T09:51:38Z</time>
      </trkpt>
      <trkpt lat="43.52622" lon="1.41796">
        <ele>133</ele>
        <time>2012-03-11T09:51:39Z</time>
      </trkpt>
      <trkpt lat="43.52622" lon="1.41794">
        <ele>133</ele>
        <time>2012-03-11T09:51:40Z</time>
      </trkpt>
      <trkpt lat="43.52621" lon="1.41791">
        <ele>133</ele>
        <time>2012-03-11T09:51:41Z</time>
      </trkpt>
      <trkpt lat="43.52621" lon="1.4179">
        <ele>133</ele>
        <time>2012-03-11T09:51:42Z</time>
      </trkpt>
      <trkpt lat="43.5262" lon="1.41788">
        <ele>133</ele>
        <time>2012-03-11T09:51:43Z</time>
      </trkpt>
      <trkpt lat="43.52619" lon="1.41786">
        <ele>133</ele>
        <time>2012-03-11T09:51:44Z</time>
      </trkpt>
      <trkpt lat="43.52618" lon="1.41784">
        <ele>133</ele>
        <time>2012-03-11T09:51:45Z</time>
      </trkpt>
      <trkpt lat="43.52618" lon="1.41782">
        <ele>133</ele>
        <time>2012-03-11T09:51:46Z</time>
      </trkpt>
      <trkpt lat="43.52617" lon="1.4178">
        <ele>133</ele>
        <time>2012-03-11T09:51:47Z</time>
      </trkpt>
      <trkpt lat="43.52616" lon="1.41779">
        <ele>133</ele>
        <time>2012-03-11T09:51:48Z</time>
      </trkpt>
      <trkpt lat="43.52615" lon="1.41777">
        <ele>133</ele>
        <time>2012-03-11T09:51:49Z</time>
      </trkpt>
      <trkpt lat="43.52614" lon="1.41775">
        <ele>133</ele>
        <time>2012-03-11T09:51:50Z</time>
      </trkpt>
      <trkpt lat="43.52613" lon="1.41774">
        <ele>133</ele>
        <time>2012-03-11T09:51:51Z</time>
      </trkpt>
      <trkpt lat="43.52612" lon="1.41772">
        <ele>133</ele>
        <time>2012-03-11T09:51:52Z</time>
      </trkpt>
      <trkpt lat="43.52611" lon="1.41771">
        <ele>133</ele>
        <time>2012-03-11T09:51:53Z</time>
      </trkpt>
      <trkpt lat="43.5261" lon="1.41769">
        <ele>133</ele>
        <time>2012-03-11T09:51:54Z</time>
      </trkpt>
      <trkpt lat="43.52609" lon="1.41768">
        <ele>133</ele>
        <time>2012-03-11T09:51:55Z</time>
      </trkpt>
      <trkpt lat="43.52607" lon="1.41766">
        <ele>133</ele>
        <time>2012-03-11T09:51:56Z</time>
      </trkpt>
      <trkpt lat="43.52606" lon="1.41765">
        <ele>133</ele>
        <time>2012-03-11T09:51:57Z</time>
      </trkpt>
      <trkpt lat="43.52605" lon="1.41763">
        <ele>133</ele>
        <time>2012-03-11T09:51:58Z</time>
      </trkpt>
      <trkpt lat="43.52604" lon="1.41762">
        <ele>133</ele>
        <time>2012-03-11T09:51:59Z</time>
      </trkpt>
      <trkpt lat="43.52602" lon="1.41761">
        <ele>133</ele>
        <time>2012-03-11T09:52:00Z</time>
      </trkpt>
      <trkpt lat="43.52601" lon="1.41759">
        <ele>133</ele>
        <time>2012-03-11T09:52:01Z</time>
      </trkpt>
      <trkpt lat="43.526" lon="1.41758">
        <ele>133</ele>
        <time>2012-03-11T09:52:02Z</time>
      </trkpt>
      <trkpt lat="43.52598" lon="1.41756">
        <ele>133</ele>
        <time>2012-03-11T09:52:03Z</time>
      </trkpt>
      <trkpt lat="43.52597" lon="1.41755">
        <ele>133</ele>
        <time>2012-03-11T09:52:04Z</time>
      </trkpt>
      <trkpt lat="43.52596" lon="1.41753">
        <ele>133</ele>
        <time>2012-03-11T09:52:05Z</time>
      </trkpt>
      <trkpt lat="43.52594" lon="1.41752">
        <ele>133</ele>
        <time>2012-03-11T09:52:06Z</time>
      </trkpt>
      <trkpt lat="43.52593" lon="1.4175">
        <ele>133</ele>
        <time>2012-03-11T09:52:07Z</time>
      </trkpt>
      <trkpt lat="43.52592" lon="1.41748">
        <ele>133</ele>
        <time>2012-03-11T09:52:08Z</time>
      </trkpt>
      <trkpt lat="43.52591" lon="1.41747">
        <ele>133</ele>
        <time>2012-03-11T09:52:09Z</time>
      </trkpt>
      <trkpt lat="43.5259" lon="1.41745">
        <ele>133</ele>
        <time>2012-03-11T09:52:10Z</time>
      </trkpt>
      <trkpt lat="43.52589" lon="1.41744">
        <ele>133</ele>
        <time>2012-03-11T09:52:11Z</time>
      </trkpt>
      <trkpt lat="43.52588" lon="1.41742">
        <ele>133</ele>
        <time>2012-03-11T09:52:12Z</time>
      </trkpt>
      <trkpt lat="43.52587" lon="1.4174">
        <ele>133</ele>
        <time>2012-03-11T09:52:13Z</time>
      </trkpt>
      <trkpt lat="43.52586" lon="1.41738">
        <ele>133</ele>
        <time>2012-03-11T09:52:14Z</time>
      </trkpt>
      <trkpt lat="43.52585" lon="1.41736">
        <ele>133</ele>
        <time>2012-03-11T09:52:15Z</time>
      </trkpt>
      <trkpt lat="43.52584" lon="1.41735">
        <ele>133</ele>
        <time>2012-03-11T09:52:16Z</time>
      </trkpt>
      <trkpt lat="43.52583" lon="1.41733">
        <ele>133</ele>
        <time>2012-03-11T09:52:17Z</time>
      </trkpt>
      <trkpt lat="43.52582" lon="1.41731">
        <ele>133</ele>
        <time>2012-03-11T09:52:18Z</time>
      </trkpt>
      <trkpt lat="43.52581" lon="1.41729">
        <ele>133</ele>
        <time>2012-03-11T09:52:19Z</time>
      </trkpt>
      <trkpt lat="43.5258" lon="1.41728">
        <ele>133</ele>
        <time>2012-03-11T09:52:20Z</time>
      </trkpt>
      <trkpt lat="43.52579" lon="1.41727">
        <ele>133</ele>
        <time>2012-03-11T09:52:21Z</time>
      </trkpt>
      <trkpt lat="43.52577" lon="1.41725">
        <ele>134</ele>
        <time>2012-03-11T09:52:22Z</time>
      </trkpt>
      <trkpt lat="43.52576" lon="1.41724">
        <ele>134</ele>
        <time>2012-03-11T09:52:23Z</time>
      </trkpt>
      <trkpt lat="43.52574" lon="1.41723">
        <ele>134</ele>
        <time>2012-03-11T09:52:24Z</time>
      </trkpt>
      <trkpt lat="43.52573" lon="1.41722">
        <ele>134</ele>
        <time>2012-03-11T09:52:25Z</time>
      </trkpt>
      <trkpt lat="43.52572" lon="1.41721">
        <ele>134</ele>
        <time>2012-03-11T09:52:26Z</time>
      </trkpt>
      <trkpt lat="43.5257" lon="1.4172">
        <ele>134</ele>
        <time>2012-03-11T09:52:27Z</time>
      </trkpt>
      <trkpt lat="43.52568" lon="1.4172">
        <ele>134</ele>
        <time>2012-03-11T09:52:28Z</time>
      </trkpt>
      <trkpt lat="43.52567" lon="1.41719">
        <ele>134</ele>
        <time>2012-03-11T09:52:29Z</time>
      </trkpt>
      <trkpt lat="43.52565" lon="1.41718">
        <ele>134</ele>
        <time>2012-03-11T09:52:30Z</time>
      </trkpt>
      <trkpt lat="43.52563" lon="1.41718">
        <ele>134</ele>
        <time>2012-03-11T09:52:31Z</time>
      </trkpt>
      <trkpt lat="43.52562" lon="1.41717">
        <ele>134</ele>
        <time>2012-03-11T09:52:32Z</time>
      </trkpt>
      <trkpt lat="43.5256" lon="1.41717">
        <ele>134</ele>
        <time>2012-03-11T09:52:33Z</time>
      </trkpt>
      <trkpt lat="43.52559" lon="1.41716">
        <ele>134</ele>
        <time>2012-03-11T09:52:34Z</time>
      </trkpt>
      <trkpt lat="43.52557" lon="1.41715">
        <ele>134</ele>
        <time>2012-03-11T09:52:35Z</time>
      </trkpt>
      <trkpt lat="43.52556" lon="1.41715">
        <ele>134</ele>
        <time>2012-03-11T09:52:36Z</time>
      </trkpt>
      <trkpt lat="43.52554" lon="1.41714">
        <ele>134</ele>
        <time>2012-03-11T09:52:37Z</time>
      </trkpt>
      <trkpt lat="43.52553" lon="1.41713">
        <ele>134</ele>
        <time>2012-03-11T09:52:38Z</time>
      </trkpt>
      <trkpt lat="43.52552" lon="1.41712">
        <ele>134</ele>
        <time>2012-03-11T09:52:39Z</time>
      </trkpt>
      <trkpt lat="43.5255" lon="1.41711">
        <ele>134</ele>
        <time>2012-03-11T09:52:40Z</time>
      </trkpt>
      <trkpt lat="43.52549" lon="1.4171">
        <ele>134</ele>
        <time>2012-03-11T09:52:41Z</time>
      </trkpt>
      <trkpt lat="43.52548" lon="1.41709">
        <ele>134</ele>
        <time>2012-03-11T09:52:42Z</time>
      </trkpt>
      <trkpt lat="43.52546" lon="1.41709">
        <ele>134</ele>
        <time>2012-03-11T09:52:43Z</time>
      </trkpt>
      <trkpt lat="43.52545" lon="1.41708">
        <ele>134</ele>
        <time>2012-03-11T09:52:44Z</time>
      </trkpt>
      <trkpt lat="43.52544" lon="1.41707">
        <ele>134</ele>
        <time>2012-03-11T09:52:45Z</time>
      </trkpt>
      <trkpt lat="43.52542" lon="1.41706">
        <ele>134</ele>
        <time>2012-03-11T09:52:46Z</time>
      </trkpt>
      <trkpt lat="43.52541" lon="1.41704">
        <ele>134</ele>
        <time>2012-03-11T09:52:47Z</time>
      </trkpt>
      <trkpt lat="43.5254" lon="1.41703">
        <ele>134</ele>
        <time>2012-03-11T09:52:48Z</time>
      </trkpt>
      <trkpt lat="43.52538" lon="1.41702">
        <ele>134</ele>
        <time>2012-03-11T09:52:49Z</time>
      </trkpt>
      <trkpt lat="43.52537" lon="1.41702">
        <ele>134</ele>
        <time>2012-03-11T09:52:50Z</time>
      </trkpt>
      <trkpt lat="43.52536" lon="1.41701">
        <ele>134</ele>
        <time>2012-03-11T09:52:51Z</time>
      </trkpt>
      <trkpt lat="43.52534" lon="1.417">
        <ele>134</ele>
        <time>2012-03-11T09:52:52Z</time>
      </trkpt>
      <trkpt lat="43.52533" lon="1.417">
        <ele>134</ele>
        <time>2012-03-11T09:52:53Z</time>
      </trkpt>
      <trkpt lat="43.52531" lon="1.41699">
        <ele>134</ele>
        <time>2012-03-11T09:52:54Z</time>
      </trkpt>
      <trkpt lat="43.5253" lon="1.41699">
        <ele>134</ele>
        <time>2012-03-11T09:52:55Z</time>
      </trkpt>
      <trkpt lat="43.52528" lon="1.41699">
        <ele>134</ele>
        <time>2012-03-11T09:52:56Z</time>
      </trkpt>
      <trkpt lat="43.52527" lon="1.41698">
        <ele>134</ele>
        <time>2012-03-11T09:52:57Z</time>
      </trkpt>
      <trkpt lat="43.52525" lon="1.41698">
        <ele>134</ele>
        <time>2012-03-11T09:52:58Z</time>
      </trkpt>
      <trkpt lat="43.52524" lon="1.41698">
        <ele>134</ele>
        <time>2012-03-11T09:52:59Z</time>
      </trkpt>
      <trkpt lat="43.52522" lon="1.41698">
        <ele>134</ele>
        <time>2012-03-11T09:53:00Z</time>
      </trkpt>
      <trkpt lat="43.5252" lon="1.41698">
        <ele>134</ele>
        <time>2012-03-11T09:53:01Z</time>
      </trkpt>
      <trkpt lat="43.52519" lon="1.41699">
        <ele>134</ele>
        <time>2012-03-11T09:53:02Z</time>
      </trkpt>
      <trkpt lat="43.52518" lon="1.41699">
        <ele>134</ele>
        <time>2012-03-11T09:53:03Z</time>
      </trkpt>
      <trkpt lat="43.52516" lon="1.41699">
        <ele>134</ele>
        <time>2012-03-11T09:53:04Z</time>
      </trkpt>
      <trkpt lat="43.52515" lon="1.41699">
        <ele>134</ele>
        <time>2012-03-11T09:53:05Z</time>
      </trkpt>
      <trkpt lat="43.52514" lon="1.41699">
        <ele>134</ele>
        <time>2012-03-11T09:53:06Z</time>
      </trkpt>
      <trkpt lat="43.52512" lon="1.41699">
        <ele>134</ele>
        <time>2012-03-11T09:53:07Z</time>
      </trkpt>
      <trkpt lat="43.52511" lon="1.41698">
        <ele>134</ele>
        <time>2012-03-11T09:53:08Z</time>
      </trkpt>
      <trkpt lat="43.5251" lon="1.41697">
        <ele>134</ele>
        <time>2012-03-11T09:53:09Z</time>
      </trkpt>
      <trkpt lat="43.52509" lon="1.41695">
        <ele>134</ele>
        <time>2012-03-11T09:53:10Z</time>
      </trkpt>
      <trkpt lat="43.52509" lon="1.41693">
        <ele>134</ele>
        <time>2012-03-11T09:53:11Z</time>
      </trkpt>
      <trkpt lat="43.52509" lon="1.41691">
        <ele>134</ele>
        <time>2012-03-11T09:53:12Z</time>
      </trkpt>
      <trkpt lat="43.52509" lon="1.41689">
        <ele>134</ele>
        <time>2012-03-11T09:53:13Z</time>
      </trkpt>
      <trkpt lat="43.52509" lon="1.41687">
        <ele>134</ele>
        <time>2012-03-11T09:53:14Z</time>
      </trkpt>
      <trkpt lat="43.52509" lon="1.41685">
        <ele>134</ele>
        <time>2012-03-11T09:53:15Z</time>
      </trkpt>
      <trkpt lat="43.52509" lon="1.41683">
        <ele>134</ele>
        <time>2012-03-11T09:53:16Z</time>
      </trkpt>
      <trkpt lat="43.52509" lon="1.41681">
        <ele>134</ele>
        <time>2012-03-11T09:53:17Z</time>
      </trkpt>
      <trkpt lat="43.52508" lon="1.41679">
        <ele>134</ele>
        <time>2012-03-11T09:53:18Z</time>
      </trkpt>
      <trkpt lat="43.52507" lon="1.41677">
        <ele>134</ele>
        <time>2012-03-11T09:53:19Z</time>
      </trkpt>
      <trkpt lat="43.52507" lon="1.41675">
        <ele>134</ele>
        <time>2012-03-11T09:53:20Z</time>
      </trkpt>
      <trkpt lat="43.52506" lon="1.41673">
        <ele>134</ele>
        <time>2012-03-11T09:53:21Z</time>
      </trkpt>
      <trkpt lat="43.52505" lon="1.41671">
        <ele>134</ele>
        <time>2012-03-11T09:53:22Z</time>
      </trkpt>
      <trkpt lat="43.52504" lon="1.41669">
        <ele>134</ele>
        <time>2012-03-11T09:53:23Z</time>
      </trkpt>
      <trkpt lat="43.52504" lon="1.41667">
        <ele>134</ele>
        <time>2012-03-11T09:53:24Z</time>
      </trkpt>
      <trkpt lat="43.52503" lon="1.41665">
        <ele>134</ele>
        <time>2012-03-11T09:53:25Z</time>
      </trkpt>
      <trkpt lat="43.52503" lon="1.41664">
        <ele>134</ele>
        <time>2012-03-11T09:53:26Z</time>
      </trkpt>
      <trkpt lat="43.52502" lon="1.41662">
        <ele>134</ele>
        <time>2012-03-11T09:53:27Z</time>
      </trkpt>
      <trkpt lat="43.52501" lon="1.4166">
        <ele>134</ele>
        <time>2012-03-11T09:53:28Z</time>
      </trkpt>
      <trkpt lat="43.52501" lon="1.41658">
        <ele>134</ele>
        <time>2012-03-11T09:53:29Z</time>
      </trkpt>
      <trkpt lat="43.525" lon="1.41656">
        <ele>134</ele>
        <time>2012-03-11T09:53:30Z</time>
      </trkpt>
      <trkpt lat="43.52499" lon="1.41655">
        <ele>134</ele>
        <time>2012-03-11T09:53:31Z</time>
      </trkpt>
      <trkpt lat="43.52499" lon="1.41653">
        <ele>134</ele>
        <time>2012-03-11T09:53:32Z</time>
      </trkpt>
      <trkpt lat="43.52499" lon="1.41651">
        <ele>134</ele>
        <time>2012-03-11T09:53:33Z</time>
      </trkpt>
      <trkpt lat="43.52499" lon="1.41649">
        <ele>134</ele>
        <time>2012-03-11T09:53:34Z</time>
      </trkpt>
      <trkpt lat="43.52499" lon="1.41647">
        <ele>134</ele>
        <time>2012-03-11T09:53:35Z</time>
      </trkpt>
      <trkpt lat="43.52499" lon="1.41645">
        <ele>134</ele>
        <time>2012-03-11T09:53:36Z</time>
      </trkpt>
      <trkpt lat="43.52499" lon="1.41643">
        <ele>134</ele>
        <time>2012-03-11T09:53:37Z</time>
      </trkpt>
      <trkpt lat="43.52499" lon="1.41641">
        <ele>134</ele>
        <time>2012-03-11T09:53:38Z</time>
      </trkpt>
      <trkpt lat="43.52499" lon="1.4164">
        <ele>134</ele>
        <time>2012-03-11T09:53:39Z</time>
      </trkpt>
      <trkpt lat="43.52499" lon="1.41638">
        <ele>134</ele>
        <time>2012-03-11T09:53:40Z</time>
      </trkpt>
      <trkpt lat="43.52499" lon="1.41636">
        <ele>134</ele>
        <time>2012-03-11T09:53:41Z</time>
      </trkpt>
      <trkpt lat="43.52499" lon="1.41634">
        <ele>134</ele>
        <time>2012-03-11T09:53:42Z</time>
      </trkpt>
      <trkpt lat="43.52499" lon="1.41632">
        <ele>134</ele>
        <time>2012-03-11T09:53:43Z</time>
      </trkpt>
      <trkpt lat="43.52499" lon="1.4163">
        <ele>134</ele>
        <time>2012-03-11T09:53:44Z</time>
      </trkpt>
      <trkpt lat="43.52499" lon="1.41628">
        <ele>134</ele>
        <time>2012-03-11T09:53:45Z</time>
      </trkpt>
      <trkpt lat="43.52499" lon="1.41626">
        <ele>134</ele>
        <time>2012-03-11T09:53:46Z</time>
      </trkpt>
      <trkpt lat="43.52498" lon="1.41624">
        <ele>134</ele>
        <time>2012-03-11T09:53:47Z</time>
      </trkpt>
      <trkpt lat="43.52497" lon="1.41622">
        <ele>134</ele>
        <time>2012-03-11T09:53:48Z</time>
      </trkpt>
      <trkpt lat="43.52496" lon="1.41621">
        <ele>134</ele>
        <time>2012-03-11T09:53:49Z</time>
      </trkpt>
      <trkpt lat="43.52496" lon="1.41619">
        <ele>134</ele>
        <time>2012-03-11T09:53:50Z</time>
      </trkpt>
      <trkpt lat="43.52494" lon="1.41618">
        <ele>134</ele>
        <time>2012-03-11T09:53:51Z</time>
      </trkpt>
      <trkpt lat="43.52493" lon="1.41616">
        <ele>134</ele>
        <time>2012-03-11T09:53:52Z</time>
      </trkpt>
      <trkpt lat="43.52491" lon="1.41615">
        <ele>134</ele>
        <time>2012-03-11T09:53:53Z</time>
      </trkpt>
      <trkpt lat="43.5249" lon="1.41613">
        <ele>134</ele>
        <time>2012-03-11T09:53:54Z</time>
      </trkpt>
      <trkpt lat="43.52489" lon="1.41612">
        <ele>134</ele>
        <time>2012-03-11T09:53:55Z</time>
      </trkpt>
      <trkpt lat="43.52488" lon="1.41611">
        <ele>134</ele>
        <time>2012-03-11T09:53:56Z</time>
      </trkpt>
      <trkpt lat="43.52486" lon="1.41609">
        <ele>134</ele>
        <time>2012-03-11T09:53:57Z</time>
      </trkpt>
      <trkpt lat="43.52485" lon="1.41608">
        <ele>134</ele>
        <time>2012-03-11T09:53:58Z</time>
      </trkpt>
      <trkpt lat="43.52484" lon="1.41606">
        <ele>134</ele>
        <time>2012-03-11T09:53:59Z</time>
      </trkpt>
      <trkpt lat="43.52483" lon="1.41605">
        <ele>134</ele>
        <time>2012-03-11T09:54:00Z</time>
      </trkpt>
      <trkpt lat="43.5248" lon="1.41603">
        <ele>134</ele>
        <time>2012-03-11T09:54:02Z</time>
      </trkpt>
      <trkpt lat="43.52479" lon="1.41602">
        <ele>134</ele>
        <time>2012-03-11T09:54:03Z</time>
      </trkpt>
      <trkpt lat="43.52478" lon="1.41601">
        <ele>134</ele>
        <time>2012-03-11T09:54:04Z</time>
      </trkpt>
      <trkpt lat="43.52476" lon="1.41598">
        <ele>134</ele>
        <time>2012-03-11T09:54:06Z</time>
      </trkpt>
      <trkpt lat="43.52474" lon="1.41596">
        <ele>134</ele>
        <time>2012-03-11T09:54:07Z</time>
      </trkpt>
      <trkpt lat="43.52473" lon="1.41595">
        <ele>134</ele>
        <time>2012-03-11T09:54:08Z</time>
      </trkpt>
      <trkpt lat="43.52472" lon="1.41593">
        <ele>134</ele>
        <time>2012-03-11T09:54:09Z</time>
      </trkpt>
      <trkpt lat="43.5247" lon="1.41592">
        <ele>134</ele>
        <time>2012-03-11T09:54:10Z</time>
      </trkpt>
      <trkpt lat="43.52469" lon="1.4159">
        <ele>134</ele>
        <time>2012-03-11T09:54:11Z</time>
      </trkpt>
      <trkpt lat="43.52467" lon="1.41589">
        <ele>134</ele>
        <time>2012-03-11T09:54:12Z</time>
      </trkpt>
      <trkpt lat="43.52466" lon="1.41587">
        <ele>134</ele>
        <time>2012-03-11T09:54:13Z</time>
      </trkpt>
      <trkpt lat="43.52465" lon="1.41586">
        <ele>134</ele>
        <time>2012-03-11T09:54:14Z</time>
      </trkpt>
      <trkpt lat="43.52464" lon="1.41585">
        <ele>134</ele>
        <time>2012-03-11T09:54:15Z</time>
      </trkpt>
      <trkpt lat="43.52462" lon="1.41583">
        <ele>134</ele>
        <time>2012-03-11T09:54:16Z</time>
      </trkpt>
      <trkpt lat="43.52461" lon="1.41582">
        <ele>134</ele>
        <time>2012-03-11T09:54:17Z</time>
      </trkpt>
      <trkpt lat="43.5246" lon="1.4158">
        <ele>134</ele>
        <time>2012-03-11T09:54:19Z</time>
      </trkpt>
      <trkpt lat="43.52459" lon="1.41579">
        <ele>134</ele>
        <time>2012-03-11T09:54:20Z</time>
      </trkpt>
      <trkpt lat="43.52457" lon="1.41577">
        <ele>134</ele>
        <time>2012-03-11T09:54:21Z</time>
      </trkpt>
      <trkpt lat="43.52456" lon="1.41576">
        <ele>134</ele>
        <time>2012-03-11T09:54:22Z</time>
      </trkpt>
      <trkpt lat="43.52455" lon="1.41575">
        <ele>134</ele>
        <time>2012-03-11T09:54:23Z</time>
      </trkpt>
      <trkpt lat="43.52454" lon="1.41574">
        <ele>134</ele>
        <time>2012-03-11T09:54:24Z</time>
      </trkpt>
      <trkpt lat="43.52452" lon="1.41573">
        <ele>134</ele>
        <time>2012-03-11T09:54:25Z</time>
      </trkpt>
      <trkpt lat="43.52451" lon="1.41572">
        <ele>134</ele>
        <time>2012-03-11T09:54:26Z</time>
      </trkpt>
      <trkpt lat="43.52449" lon="1.41571">
        <ele>134</ele>
        <time>2012-03-11T09:54:27Z</time>
      </trkpt>
      <trkpt lat="43.52448" lon="1.41571">
        <ele>134</ele>
        <time>2012-03-11T09:54:28Z</time>
      </trkpt>
      <trkpt lat="43.52446" lon="1.4157">
        <ele>134</ele>
        <time>2012-03-11T09:54:29Z</time>
      </trkpt>
      <trkpt lat="43.52445" lon="1.41569">
        <ele>134</ele>
        <time>2012-03-11T09:54:30Z</time>
      </trkpt>
      <trkpt lat="43.52443" lon="1.41569">
        <ele>134</ele>
        <time>2012-03-11T09:54:31Z</time>
      </trkpt>
      <trkpt lat="43.52442" lon="1.41568">
        <ele>134</ele>
        <time>2012-03-11T09:54:32Z</time>
      </trkpt>
      <trkpt lat="43.5244" lon="1.41568">
        <ele>134</ele>
        <time>2012-03-11T09:54:33Z</time>
      </trkpt>
      <trkpt lat="43.52439" lon="1.41567">
        <ele>134</ele>
        <time>2012-03-11T09:54:34Z</time>
      </trkpt>
      <trkpt lat="43.52437" lon="1.41566">
        <ele>134</ele>
        <time>2012-03-11T09:54:35Z</time>
      </trkpt>
      <trkpt lat="43.52436" lon="1.41565">
        <ele>134</ele>
        <time>2012-03-11T09:54:36Z</time>
      </trkpt>
      <trkpt lat="43.52435" lon="1.41565">
        <ele>134</ele>
        <time>2012-03-11T09:54:37Z</time>
      </trkpt>
      <trkpt lat="43.52433" lon="1.41564">
        <ele>134</ele>
        <time>2012-03-11T09:54:38Z</time>
      </trkpt>
      <trkpt lat="43.52432" lon="1.41563">
        <ele>134</ele>
        <time>2012-03-11T09:54:39Z</time>
      </trkpt>
      <trkpt lat="43.5243" lon="1.41563">
        <ele>134</ele>
        <time>2012-03-11T09:54:40Z</time>
      </trkpt>
      <trkpt lat="43.52428" lon="1.41562">
        <ele>134</ele>
        <time>2012-03-11T09:54:41Z</time>
      </trkpt>
      <trkpt lat="43.52427" lon="1.41561">
        <ele>134</ele>
        <time>2012-03-11T09:54:42Z</time>
      </trkpt>
      <trkpt lat="43.52425" lon="1.4156">
        <ele>134</ele>
        <time>2012-03-11T09:54:43Z</time>
      </trkpt>
      <trkpt lat="43.52424" lon="1.41559">
        <ele>134</ele>
        <time>2012-03-11T09:54:44Z</time>
      </trkpt>
      <trkpt lat="43.52423" lon="1.41557">
        <ele>134</ele>
        <time>2012-03-11T09:54:45Z</time>
      </trkpt>
      <trkpt lat="43.52421" lon="1.41556">
        <ele>134</ele>
        <time>2012-03-11T09:54:46Z</time>
      </trkpt>
      <trkpt lat="43.5242" lon="1.41555">
        <ele>134</ele>
        <time>2012-03-11T09:54:47Z</time>
      </trkpt>
      <trkpt lat="43.52419" lon="1.41553">
        <ele>134</ele>
        <time>2012-03-11T09:54:48Z</time>
      </trkpt>
      <trkpt lat="43.52417" lon="1.41552">
        <ele>134</ele>
        <time>2012-03-11T09:54:49Z</time>
      </trkpt>
      <trkpt lat="43.52417" lon="1.4155">
        <ele>134</ele>
        <time>2012-03-11T09:54:50Z</time>
      </trkpt>
      <trkpt lat="43.52415" lon="1.41549">
        <ele>134</ele>
        <time>2012-03-11T09:54:51Z</time>
      </trkpt>
      <trkpt lat="43.52414" lon="1.41548">
        <ele>134</ele>
        <time>2012-03-11T09:54:52Z</time>
      </trkpt>
      <trkpt lat="43.52412" lon="1.41546">
        <ele>134</ele>
        <time>2012-03-11T09:54:53Z</time>
      </trkpt>
      <trkpt lat="43.52411" lon="1.41545">
        <ele>134</ele>
        <time>2012-03-11T09:54:54Z</time>
      </trkpt>
      <trkpt lat="43.5241" lon="1.41544">
        <ele>134</ele>
        <time>2012-03-11T09:54:55Z</time>
      </trkpt>
      <trkpt lat="43.52409" lon="1.41542">
        <ele>135</ele>
        <time>2012-03-11T09:54:56Z</time>
      </trkpt>
      <trkpt lat="43.52407" lon="1.41541">
        <ele>135</ele>
        <time>2012-03-11T09:54:57Z</time>
      </trkpt>
      <trkpt lat="43.52406" lon="1.4154">
        <ele>135</ele>
        <time>2012-03-11T09:54:58Z</time>
      </trkpt>
      <trkpt lat="43.52405" lon="1.41539">
        <ele>135</ele>
        <time>2012-03-11T09:54:59Z</time>
      </trkpt>
      <trkpt lat="43.52404" lon="1.41538">
        <ele>135</ele>
        <time>2012-03-11T09:55:00Z</time>
      </trkpt>
      <trkpt lat="43.52402" lon="1.41537">
        <ele>136</ele>
        <time>2012-03-11T09:55:01Z</time>
      </trkpt>
      <trkpt lat="43.52401" lon="1.41536">
        <ele>136</ele>
        <time>2012-03-11T09:55:02Z</time>
      </trkpt>
      <trkpt lat="43.52399" lon="1.41535">
        <ele>136</ele>
        <time>2012-03-11T09:55:03Z</time>
      </trkpt>
      <trkpt lat="43.52398" lon="1.41534">
        <ele>136</ele>
        <time>2012-03-11T09:55:04Z</time>
      </trkpt>
      <trkpt lat="43.52397" lon="1.41534">
        <ele>136</ele>
        <time>2012-03-11T09:55:05Z</time>
      </trkpt>
      <trkpt lat="43.52395" lon="1.41533">
        <ele>136</ele>
        <time>2012-03-11T09:55:06Z</time>
      </trkpt>
      <trkpt lat="43.52394" lon="1.41532">
        <ele>136</ele>
        <time>2012-03-11T09:55:07Z</time>
      </trkpt>
      <trkpt lat="43.52392" lon="1.41531">
        <ele>136</ele>
        <time>2012-03-11T09:55:08Z</time>
      </trkpt>
      <trkpt lat="43.52391" lon="1.4153">
        <ele>136</ele>
        <time>2012-03-11T09:55:09Z</time>
      </trkpt>
      <trkpt lat="43.52389" lon="1.4153">
        <ele>136</ele>
        <time>2012-03-11T09:55:10Z</time>
      </trkpt>
      <trkpt lat="43.52388" lon="1.41529">
        <ele>136</ele>
        <time>2012-03-11T09:55:11Z</time>
      </trkpt>
      <trkpt lat="43.52386" lon="1.41528">
        <ele>136</ele>
        <time>2012-03-11T09:55:12Z</time>
      </trkpt>
      <trkpt lat="43.52385" lon="1.41527">
        <ele>136</ele>
        <time>2012-03-11T09:55:13Z</time>
      </trkpt>
      <trkpt lat="43.52383" lon="1.41526">
        <ele>136</ele>
        <time>2012-03-11T09:55:14Z</time>
      </trkpt>
      <trkpt lat="43.52382" lon="1.41525">
        <ele>136</ele>
        <time>2012-03-11T09:55:15Z</time>
      </trkpt>
      <trkpt lat="43.5238" lon="1.41525">
        <ele>136</ele>
        <time>2012-03-11T09:55:16Z</time>
      </trkpt>
      <trkpt lat="43.52379" lon="1.41524">
        <ele>136</ele>
        <time>2012-03-11T09:55:17Z</time>
      </trkpt>
      <trkpt lat="43.52377" lon="1.41523">
        <ele>136</ele>
        <time>2012-03-11T09:55:18Z</time>
      </trkpt>
      <trkpt lat="43.52376" lon="1.41522">
        <ele>136</ele>
        <time>2012-03-11T09:55:19Z</time>
      </trkpt>
      <trkpt lat="43.52375" lon="1.41521">
        <ele>136</ele>
        <time>2012-03-11T09:55:20Z</time>
      </trkpt>
      <trkpt lat="43.52373" lon="1.4152">
        <ele>136</ele>
        <time>2012-03-11T09:55:21Z</time>
      </trkpt>
      <trkpt lat="43.52372" lon="1.41519">
        <ele>136</ele>
        <time>2012-03-11T09:55:22Z</time>
      </trkpt>
      <trkpt lat="43.5237" lon="1.41518">
        <ele>136</ele>
        <time>2012-03-11T09:55:23Z</time>
      </trkpt>
      <trkpt lat="43.52369" lon="1.41518">
        <ele>136</ele>
        <time>2012-03-11T09:55:24Z</time>
      </trkpt>
      <trkpt lat="43.52368" lon="1.41517">
        <ele>136</ele>
        <time>2012-03-11T09:55:25Z</time>
      </trkpt>
      <trkpt lat="43.52365" lon="1.41515">
        <ele>136</ele>
        <time>2012-03-11T09:55:27Z</time>
      </trkpt>
      <trkpt lat="43.52364" lon="1.41515">
        <ele>136</ele>
        <time>2012-03-11T09:55:28Z</time>
      </trkpt>
      <trkpt lat="43.52362" lon="1.41514">
        <ele>136</ele>
        <time>2012-03-11T09:55:29Z</time>
      </trkpt>
      <trkpt lat="43.52361" lon="1.41513">
        <ele>136</ele>
        <time>2012-03-11T09:55:30Z</time>
      </trkpt>
      <trkpt lat="43.52359" lon="1.41512">
        <ele>136</ele>
        <time>2012-03-11T09:55:31Z</time>
      </trkpt>
      <trkpt lat="43.52358" lon="1.41512">
        <ele>136</ele>
        <time>2012-03-11T09:55:32Z</time>
      </trkpt>
      <trkpt lat="43.52356" lon="1.41511">
        <ele>136</ele>
        <time>2012-03-11T09:55:33Z</time>
      </trkpt>
      <trkpt lat="43.52355" lon="1.4151">
        <ele>136</ele>
        <time>2012-03-11T09:55:34Z</time>
      </trkpt>
      <trkpt lat="43.52353" lon="1.4151">
        <ele>136</ele>
        <time>2012-03-11T09:55:35Z</time>
      </trkpt>
      <trkpt lat="43.52352" lon="1.41509">
        <ele>136</ele>
        <time>2012-03-11T09:55:36Z</time>
      </trkpt>
      <trkpt lat="43.5235" lon="1.41508">
        <ele>136</ele>
        <time>2012-03-11T09:55:37Z</time>
      </trkpt>
      <trkpt lat="43.52349" lon="1.41508">
        <ele>136</ele>
        <time>2012-03-11T09:55:38Z</time>
      </trkpt>
      <trkpt lat="43.52347" lon="1.41507">
        <ele>136</ele>
        <time>2012-03-11T09:55:39Z</time>
      </trkpt>
      <trkpt lat="43.52346" lon="1.41507">
        <ele>136</ele>
        <time>2012-03-11T09:55:40Z</time>
      </trkpt>
      <trkpt lat="43.52344" lon="1.41506">
        <ele>136</ele>
        <time>2012-03-11T09:55:41Z</time>
      </trkpt>
      <trkpt lat="43.52343" lon="1.41506">
        <ele>136</ele>
        <time>2012-03-11T09:55:42Z</time>
      </trkpt>
      <trkpt lat="43.52341" lon="1.41505">
        <ele>136</ele>
        <time>2012-03-11T09:55:43Z</time>
      </trkpt>
      <trkpt lat="43.5234" lon="1.41505">
        <ele>136</ele>
        <time>2012-03-11T09:55:44Z</time>
      </trkpt>
      <trkpt lat="43.52338" lon="1.41505">
        <ele>136</ele>
        <time>2012-03-11T09:55:45Z</time>
      </trkpt>
      <trkpt lat="43.52336" lon="1.41505">
        <ele>136</ele>
        <time>2012-03-11T09:55:46Z</time>
      </trkpt>
      <trkpt lat="43.52335" lon="1.41504">
        <ele>136</ele>
        <time>2012-03-11T09:55:47Z</time>
      </trkpt>
      <trkpt lat="43.52333" lon="1.41504">
        <ele>136</ele>
        <time>2012-03-11T09:55:48Z</time>
      </trkpt>
      <trkpt lat="43.52332" lon="1.41503">
        <ele>136</ele>
        <time>2012-03-11T09:55:49Z</time>
      </trkpt>
      <trkpt lat="43.5233" lon="1.41502">
        <ele>136</ele>
        <time>2012-03-11T09:55:50Z</time>
      </trkpt>
      <trkpt lat="43.52329" lon="1.41502">
        <ele>136</ele>
        <time>2012-03-11T09:55:51Z</time>
      </trkpt>
      <trkpt lat="43.52327" lon="1.41501">
        <ele>136</ele>
        <time>2012-03-11T09:55:52Z</time>
      </trkpt>
      <trkpt lat="43.52326" lon="1.41501">
        <ele>136</ele>
        <time>2012-03-11T09:55:53Z</time>
      </trkpt>
      <trkpt lat="43.52325" lon="1.415">
        <ele>136</ele>
        <time>2012-03-11T09:55:54Z</time>
      </trkpt>
      <trkpt lat="43.52323" lon="1.41499">
        <ele>136</ele>
        <time>2012-03-11T09:55:55Z</time>
      </trkpt>
      <trkpt lat="43.52322" lon="1.41499">
        <ele>136</ele>
        <time>2012-03-11T09:55:56Z</time>
      </trkpt>
      <trkpt lat="43.5232" lon="1.41499">
        <ele>136</ele>
        <time>2012-03-11T09:55:57Z</time>
      </trkpt>
      <trkpt lat="43.52319" lon="1.41498">
        <ele>136</ele>
        <time>2012-03-11T09:55:58Z</time>
      </trkpt>
      <trkpt lat="43.52317" lon="1.41498">
        <ele>136</ele>
        <time>2012-03-11T09:55:59Z</time>
      </trkpt>
      <trkpt lat="43.52316" lon="1.41497">
        <ele>136</ele>
        <time>2012-03-11T09:56:00Z</time>
      </trkpt>
      <trkpt lat="43.52314" lon="1.41497">
        <ele>136</ele>
        <time>2012-03-11T09:56:01Z</time>
      </trkpt>
      <trkpt lat="43.52313" lon="1.41496">
        <ele>136</ele>
        <time>2012-03-11T09:56:02Z</time>
      </trkpt>
      <trkpt lat="43.52311" lon="1.41496">
        <ele>136</ele>
        <time>2012-03-11T09:56:03Z</time>
      </trkpt>
      <trkpt lat="43.5231" lon="1.41496">
        <ele>136</ele>
        <time>2012-03-11T09:56:04Z</time>
      </trkpt>
      <trkpt lat="43.52309" lon="1.41495">
        <ele>136</ele>
        <time>2012-03-11T09:56:05Z</time>
      </trkpt>
      <trkpt lat="43.52308" lon="1.41494">
        <ele>136</ele>
        <time>2012-03-11T09:56:06Z</time>
      </trkpt>
      <trkpt lat="43.52306" lon="1.41493">
        <ele>136</ele>
        <time>2012-03-11T09:56:07Z</time>
      </trkpt>
      <trkpt lat="43.52305" lon="1.41493">
        <ele>136</ele>
        <time>2012-03-11T09:56:08Z</time>
      </trkpt>
      <trkpt lat="43.52303" lon="1.41492">
        <ele>136</ele>
        <time>2012-03-11T09:56:10Z</time>
      </trkpt>
      <trkpt lat="43.52302" lon="1.41492">
        <ele>136</ele>
        <time>2012-03-11T09:56:10Z</time>
      </trkpt>
      <trkpt lat="43.52301" lon="1.41491">
        <ele>136</ele>
        <time>2012-03-11T09:56:11Z</time>
      </trkpt>
      <trkpt lat="43.52299" lon="1.4149">
        <ele>136</ele>
        <time>2012-03-11T09:56:12Z</time>
      </trkpt>
      <trkpt lat="43.52298" lon="1.41489">
        <ele>136</ele>
        <time>2012-03-11T09:56:13Z</time>
      </trkpt>
      <trkpt lat="43.52297" lon="1.41488">
        <ele>136</ele>
        <time>2012-03-11T09:56:14Z</time>
      </trkpt>
      <trkpt lat="43.52296" lon="1.41487">
        <ele>136</ele>
        <time>2012-03-11T09:56:15Z</time>
      </trkpt>
      <trkpt lat="43.52294" lon="1.41485">
        <ele>136</ele>
        <time>2012-03-11T09:56:17Z</time>
      </trkpt>
      <trkpt lat="43.52293" lon="1.41485">
        <ele>136</ele>
        <time>2012-03-11T09:56:18Z</time>
      </trkpt>
      <trkpt lat="43.52291" lon="1.41484">
        <ele>136</ele>
        <time>2012-03-11T09:56:19Z</time>
      </trkpt>
      <trkpt lat="43.5229" lon="1.41483">
        <ele>136</ele>
        <time>2012-03-11T09:56:20Z</time>
      </trkpt>
      <trkpt lat="43.52288" lon="1.41482">
        <ele>136</ele>
        <time>2012-03-11T09:56:21Z</time>
      </trkpt>
      <trkpt lat="43.52287" lon="1.41481">
        <ele>136</ele>
        <time>2012-03-11T09:56:22Z</time>
      </trkpt>
      <trkpt lat="43.52285" lon="1.4148">
        <ele>136</ele>
        <time>2012-03-11T09:56:23Z</time>
      </trkpt>
      <trkpt lat="43.52284" lon="1.41479">
        <ele>136</ele>
        <time>2012-03-11T09:56:24Z</time>
      </trkpt>
      <trkpt lat="43.52282" lon="1.41478">
        <ele>136</ele>
        <time>2012-03-11T09:56:25Z</time>
      </trkpt>
      <trkpt lat="43.52281" lon="1.41476">
        <ele>136</ele>
        <time>2012-03-11T09:56:26Z</time>
      </trkpt>
      <trkpt lat="43.5228" lon="1.41475">
        <ele>136</ele>
        <time>2012-03-11T09:56:27Z</time>
      </trkpt>
      <trkpt lat="43.52279" lon="1.41474">
        <ele>136</ele>
        <time>2012-03-11T09:56:28Z</time>
      </trkpt>
      <trkpt lat="43.52277" lon="1.41473">
        <ele>136</ele>
        <time>2012-03-11T09:56:29Z</time>
      </trkpt>
      <trkpt lat="43.52276" lon="1.41472">
        <ele>136</ele>
        <time>2012-03-11T09:56:30Z</time>
      </trkpt>
      <trkpt lat="43.52275" lon="1.41471">
        <ele>136</ele>
        <time>2012-03-11T09:56:31Z</time>
      </trkpt>
      <trkpt lat="43.52273" lon="1.4147">
        <ele>136</ele>
        <time>2012-03-11T09:56:32Z</time>
      </trkpt>
      <trkpt lat="43.52271" lon="1.41468">
        <ele>136</ele>
        <time>2012-03-11T09:56:34Z</time>
      </trkpt>
      <trkpt lat="43.5227" lon="1.41467">
        <ele>136</ele>
        <time>2012-03-11T09:56:35Z</time>
      </trkpt>
      <trkpt lat="43.52268" lon="1.41465">
        <ele>136</ele>
        <time>2012-03-11T09:56:36Z</time>
      </trkpt>
      <trkpt lat="43.52267" lon="1.41464">
        <ele>136</ele>
        <time>2012-03-11T09:56:37Z</time>
      </trkpt>
      <trkpt lat="43.52265" lon="1.41463">
        <ele>136</ele>
        <time>2012-03-11T09:56:38Z</time>
      </trkpt>
      <trkpt lat="43.52264" lon="1.41462">
        <ele>136</ele>
        <time>2012-03-11T09:56:39Z</time>
      </trkpt>
      <trkpt lat="43.52263" lon="1.41461">
        <ele>136</ele>
        <time>2012-03-11T09:56:40Z</time>
      </trkpt>
      <trkpt lat="43.52262" lon="1.41459">
        <ele>136</ele>
        <time>2012-03-11T09:56:41Z</time>
      </trkpt>
      <trkpt lat="43.52259" lon="1.41456">
        <ele>136</ele>
        <time>2012-03-11T09:56:43Z</time>
      </trkpt>
      <trkpt lat="43.52258" lon="1.41454">
        <ele>136</ele>
        <time>2012-03-11T09:56:44Z</time>
      </trkpt>
      <trkpt lat="43.52257" lon="1.41452">
        <ele>136</ele>
        <time>2012-03-11T09:56:45Z</time>
      </trkpt>
      <trkpt lat="43.52255" lon="1.41451">
        <ele>136</ele>
        <time>2012-03-11T09:56:46Z</time>
      </trkpt>
      <trkpt lat="43.52254" lon="1.41449">
        <ele>136</ele>
        <time>2012-03-11T09:56:47Z</time>
      </trkpt>
      <trkpt lat="43.52253" lon="1.41447">
        <ele>136</ele>
        <time>2012-03-11T09:56:48Z</time>
      </trkpt>
      <trkpt lat="43.52252" lon="1.41445">
        <ele>136</ele>
        <time>2012-03-11T09:56:49Z</time>
      </trkpt>
      <trkpt lat="43.52251" lon="1.41444">
        <ele>136</ele>
        <time>2012-03-11T09:56:50Z</time>
      </trkpt>
      <trkpt lat="43.5225" lon="1.41442">
        <ele>136</ele>
        <time>2012-03-11T09:56:51Z</time>
      </trkpt>
      <trkpt lat="43.52248" lon="1.41441">
        <ele>136</ele>
        <time>2012-03-11T09:56:52Z</time>
      </trkpt>
      <trkpt lat="43.52247" lon="1.4144">
        <ele>136</ele>
        <time>2012-03-11T09:56:53Z</time>
      </trkpt>
      <trkpt lat="43.52245" lon="1.41439">
        <ele>136</ele>
        <time>2012-03-11T09:56:54Z</time>
      </trkpt>
      <trkpt lat="43.52244" lon="1.41439">
        <ele>136</ele>
        <time>2012-03-11T09:56:55Z</time>
      </trkpt>
      <trkpt lat="43.52242" lon="1.41438">
        <ele>136</ele>
        <time>2012-03-11T09:56:56Z</time>
      </trkpt>
      <trkpt lat="43.5224" lon="1.41437">
        <ele>136</ele>
        <time>2012-03-11T09:56:57Z</time>
      </trkpt>
      <trkpt lat="43.52239" lon="1.41436">
        <ele>136</ele>
        <time>2012-03-11T09:56:58Z</time>
      </trkpt>
      <trkpt lat="43.52237" lon="1.41435">
        <ele>136</ele>
        <time>2012-03-11T09:56:59Z</time>
      </trkpt>
      <trkpt lat="43.52236" lon="1.41434">
        <ele>136</ele>
        <time>2012-03-11T09:57:00Z</time>
      </trkpt>
      <trkpt lat="43.52235" lon="1.41433">
        <ele>136</ele>
        <time>2012-03-11T09:57:01Z</time>
      </trkpt>
      <trkpt lat="43.52233" lon="1.41431">
        <ele>136</ele>
        <time>2012-03-11T09:57:02Z</time>
      </trkpt>
      <trkpt lat="43.52232" lon="1.4143">
        <ele>136</ele>
        <time>2012-03-11T09:57:03Z</time>
      </trkpt>
      <trkpt lat="43.5223" lon="1.41429">
        <ele>136</ele>
        <time>2012-03-11T09:57:04Z</time>
      </trkpt>
      <trkpt lat="43.52229" lon="1.41428">
        <ele>136</ele>
        <time>2012-03-11T09:57:05Z</time>
      </trkpt>
      <trkpt lat="43.52228" lon="1.41426">
        <ele>136</ele>
        <time>2012-03-11T09:57:06Z</time>
      </trkpt>
      <trkpt lat="43.52226" lon="1.41425">
        <ele>136</ele>
        <time>2012-03-11T09:57:07Z</time>
      </trkpt>
      <trkpt lat="43.52225" lon="1.41424">
        <ele>136</ele>
        <time>2012-03-11T09:57:08Z</time>
      </trkpt>
      <trkpt lat="43.52224" lon="1.41423">
        <ele>136</ele>
        <time>2012-03-11T09:57:09Z</time>
      </trkpt>
      <trkpt lat="43.52222" lon="1.41421">
        <ele>136</ele>
        <time>2012-03-11T09:57:10Z</time>
      </trkpt>
      <trkpt lat="43.52221" lon="1.4142">
        <ele>136</ele>
        <time>2012-03-11T09:57:11Z</time>
      </trkpt>
      <trkpt lat="43.5222" lon="1.41418">
        <ele>136</ele>
        <time>2012-03-11T09:57:12Z</time>
      </trkpt>
      <trkpt lat="43.52219" lon="1.41417">
        <ele>136</ele>
        <time>2012-03-11T09:57:13Z</time>
      </trkpt>
      <trkpt lat="43.52217" lon="1.41416">
        <ele>136</ele>
        <time>2012-03-11T09:57:14Z</time>
      </trkpt>
      <trkpt lat="43.52216" lon="1.41414">
        <ele>136</ele>
        <time>2012-03-11T09:57:15Z</time>
      </trkpt>
      <trkpt lat="43.52214" lon="1.41413">
        <ele>136</ele>
        <time>2012-03-11T09:57:16Z</time>
      </trkpt>
      <trkpt lat="43.52213" lon="1.41413">
        <ele>136</ele>
        <time>2012-03-11T09:57:17Z</time>
      </trkpt>
      <trkpt lat="43.52212" lon="1.41412">
        <ele>136</ele>
        <time>2012-03-11T09:57:18Z</time>
      </trkpt>
      <trkpt lat="43.5221" lon="1.41411">
        <ele>136</ele>
        <time>2012-03-11T09:57:19Z</time>
      </trkpt>
      <trkpt lat="43.52209" lon="1.41411">
        <ele>136</ele>
        <time>2012-03-11T09:57:20Z</time>
      </trkpt>
      <trkpt lat="43.52206" lon="1.41411">
        <ele>136</ele>
        <time>2012-03-11T09:57:21Z</time>
      </trkpt>
      <trkpt lat="43.52205" lon="1.4141">
        <ele>136</ele>
        <time>2012-03-11T09:57:22Z</time>
      </trkpt>
      <trkpt lat="43.52203" lon="1.4141">
        <ele>136</ele>
        <time>2012-03-11T09:57:23Z</time>
      </trkpt>
      <trkpt lat="43.52202" lon="1.41409">
        <ele>136</ele>
        <time>2012-03-11T09:57:24Z</time>
      </trkpt>
      <trkpt lat="43.52201" lon="1.41409">
        <ele>136</ele>
        <time>2012-03-11T09:57:25Z</time>
      </trkpt>
      <trkpt lat="43.52199" lon="1.41408">
        <ele>136</ele>
        <time>2012-03-11T09:57:26Z</time>
      </trkpt>
      <trkpt lat="43.52198" lon="1.41408">
        <ele>136</ele>
        <time>2012-03-11T09:57:27Z</time>
      </trkpt>
      <trkpt lat="43.52197" lon="1.41407">
        <ele>136</ele>
        <time>2012-03-11T09:57:28Z</time>
      </trkpt>
      <trkpt lat="43.52195" lon="1.41406">
        <ele>136</ele>
        <time>2012-03-11T09:57:29Z</time>
      </trkpt>
      <trkpt lat="43.52194" lon="1.41405">
        <ele>136</ele>
        <time>2012-03-11T09:57:30Z</time>
      </trkpt>
      <trkpt lat="43.52193" lon="1.41404">
        <ele>136</ele>
        <time>2012-03-11T09:57:31Z</time>
      </trkpt>
      <trkpt lat="43.52192" lon="1.41403">
        <ele>136</ele>
        <time>2012-03-11T09:57:32Z</time>
      </trkpt>
      <trkpt lat="43.5219" lon="1.41402">
        <ele>136</ele>
        <time>2012-03-11T09:57:33Z</time>
      </trkpt>
      <trkpt lat="43.52189" lon="1.414">
        <ele>136</ele>
        <time>2012-03-11T09:57:34Z</time>
      </trkpt>
      <trkpt lat="43.52187" lon="1.41399">
        <ele>136</ele>
        <time>2012-03-11T09:57:35Z</time>
      </trkpt>
      <trkpt lat="43.52186" lon="1.41398">
        <ele>136</ele>
        <time>2012-03-11T09:57:36Z</time>
      </trkpt>
      <trkpt lat="43.52185" lon="1.41397">
        <ele>136</ele>
        <time>2012-03-11T09:57:37Z</time>
      </trkpt>
      <trkpt lat="43.52183" lon="1.41396">
        <ele>136</ele>
        <time>2012-03-11T09:57:38Z</time>
      </trkpt>
      <trkpt lat="43.52182" lon="1.41395">
        <ele>136</ele>
        <time>2012-03-11T09:57:39Z</time>
      </trkpt>
      <trkpt lat="43.5218" lon="1.41394">
        <ele>136</ele>
        <time>2012-03-11T09:57:40Z</time>
      </trkpt>
      <trkpt lat="43.52179" lon="1.41393">
        <ele>136</ele>
        <time>2012-03-11T09:57:41Z</time>
      </trkpt>
      <trkpt lat="43.52177" lon="1.41392">
        <ele>136</ele>
        <time>2012-03-11T09:57:42Z</time>
      </trkpt>
      <trkpt lat="43.52176" lon="1.41391">
        <ele>136</ele>
        <time>2012-03-11T09:57:43Z</time>
      </trkpt>
      <trkpt lat="43.52174" lon="1.4139">
        <ele>136</ele>
        <time>2012-03-11T09:57:44Z</time>
      </trkpt>
      <trkpt lat="43.52173" lon="1.41389">
        <ele>136</ele>
        <time>2012-03-11T09:57:45Z</time>
      </trkpt>
      <trkpt lat="43.52171" lon="1.41388">
        <ele>136</ele>
        <time>2012-03-11T09:57:46Z</time>
      </trkpt>
      <trkpt lat="43.5217" lon="1.41387">
        <ele>136</ele>
        <time>2012-03-11T09:57:47Z</time>
      </trkpt>
      <trkpt lat="43.52169" lon="1.41387">
        <ele>136</ele>
        <time>2012-03-11T09:57:48Z</time>
      </trkpt>
      <trkpt lat="43.52167" lon="1.41387">
        <ele>136</ele>
        <time>2012-03-11T09:57:49Z</time>
      </trkpt>
      <trkpt lat="43.52165" lon="1.41386">
        <ele>136</ele>
        <time>2012-03-11T09:57:50Z</time>
      </trkpt>
      <trkpt lat="43.52164" lon="1.41386">
        <ele>136</ele>
        <time>2012-03-11T09:57:51Z</time>
      </trkpt>
      <trkpt lat="43.52162" lon="1.41385">
        <ele>136</ele>
        <time>2012-03-11T09:57:52Z</time>
      </trkpt>
      <trkpt lat="43.52161" lon="1.41385">
        <ele>136</ele>
        <time>2012-03-11T09:57:53Z</time>
      </trkpt>
      <trkpt lat="43.52159" lon="1.41385">
        <ele>136</ele>
        <time>2012-03-11T09:57:54Z</time>
      </trkpt>
      <trkpt lat="43.52158" lon="1.41384">
        <ele>136</ele>
        <time>2012-03-11T09:57:55Z</time>
      </trkpt>
      <trkpt lat="43.52156" lon="1.41384">
        <ele>136</ele>
        <time>2012-03-11T09:57:56Z</time>
      </trkpt>
      <trkpt lat="43.52155" lon="1.41384">
        <ele>136</ele>
        <time>2012-03-11T09:57:57Z</time>
      </trkpt>
      <trkpt lat="43.52153" lon="1.41383">
        <ele>136</ele>
        <time>2012-03-11T09:57:58Z</time>
      </trkpt>
      <trkpt lat="43.52152" lon="1.41383">
        <ele>136</ele>
        <time>2012-03-11T09:57:59Z</time>
      </trkpt>
      <trkpt lat="43.5215" lon="1.41382">
        <ele>136</ele>
        <time>2012-03-11T09:58:00Z</time>
      </trkpt>
      <trkpt lat="43.52149" lon="1.41381">
        <ele>136</ele>
        <time>2012-03-11T09:58:01Z</time>
      </trkpt>
      <trkpt lat="43.52148" lon="1.4138">
        <ele>136</ele>
        <time>2012-03-11T09:58:02Z</time>
      </trkpt>
      <trkpt lat="43.52146" lon="1.41379">
        <ele>136</ele>
        <time>2012-03-11T09:58:03Z</time>
      </trkpt>
      <trkpt lat="43.52145" lon="1.41379">
        <ele>136</ele>
        <time>2012-03-11T09:58:04Z</time>
      </trkpt>
      <trkpt lat="43.52143" lon="1.41378">
        <ele>136</ele>
        <time>2012-03-11T09:58:05Z</time>
      </trkpt>
      <trkpt lat="43.52142" lon="1.41377">
        <ele>136</ele>
        <time>2012-03-11T09:58:06Z</time>
      </trkpt>
      <trkpt lat="43.5214" lon="1.41376">
        <ele>136</ele>
        <time>2012-03-11T09:58:07Z</time>
      </trkpt>
      <trkpt lat="43.52139" lon="1.41376">
        <ele>136</ele>
        <time>2012-03-11T09:58:08Z</time>
      </trkpt>
      <trkpt lat="43.52137" lon="1.41375">
        <ele>136</ele>
        <time>2012-03-11T09:58:09Z</time>
      </trkpt>
      <trkpt lat="43.52135" lon="1.41375">
        <ele>136</ele>
        <time>2012-03-11T09:58:10Z</time>
      </trkpt>
      <trkpt lat="43.52134" lon="1.41374">
        <ele>136</ele>
        <time>2012-03-11T09:58:11Z</time>
      </trkpt>
      <trkpt lat="43.52132" lon="1.41373">
        <ele>136</ele>
        <time>2012-03-11T09:58:12Z</time>
      </trkpt>
      <trkpt lat="43.52131" lon="1.41372">
        <ele>136</ele>
        <time>2012-03-11T09:58:13Z</time>
      </trkpt>
      <trkpt lat="43.52129" lon="1.41372">
        <ele>136</ele>
        <time>2012-03-11T09:58:14Z</time>
      </trkpt>
      <trkpt lat="43.52127" lon="1.41371">
        <ele>136</ele>
        <time>2012-03-11T09:58:15Z</time>
      </trkpt>
      <trkpt lat="43.52126" lon="1.4137">
        <ele>136</ele>
        <time>2012-03-11T09:58:16Z</time>
      </trkpt>
      <trkpt lat="43.52124" lon="1.4137">
        <ele>136</ele>
        <time>2012-03-11T09:58:17Z</time>
      </trkpt>
      <trkpt lat="43.52122" lon="1.41369">
        <ele>136</ele>
        <time>2012-03-11T09:58:18Z</time>
      </trkpt>
      <trkpt lat="43.52121" lon="1.41369">
        <ele>136</ele>
        <time>2012-03-11T09:58:19Z</time>
      </trkpt>
      <trkpt lat="43.52119" lon="1.41368">
        <ele>136</ele>
        <time>2012-03-11T09:58:20Z</time>
      </trkpt>
      <trkpt lat="43.52118" lon="1.41367">
        <ele>136</ele>
        <time>2012-03-11T09:58:21Z</time>
      </trkpt>
      <trkpt lat="43.52116" lon="1.41366">
        <ele>136</ele>
        <time>2012-03-11T09:58:22Z</time>
      </trkpt>
      <trkpt lat="43.52115" lon="1.41365">
        <ele>136</ele>
        <time>2012-03-11T09:58:23Z</time>
      </trkpt>
      <trkpt lat="43.52113" lon="1.41364">
        <ele>136</ele>
        <time>2012-03-11T09:58:24Z</time>
      </trkpt>
      <trkpt lat="43.52112" lon="1.41363">
        <ele>136</ele>
        <time>2012-03-11T09:58:25Z</time>
      </trkpt>
      <trkpt lat="43.5211" lon="1.41362">
        <ele>136</ele>
        <time>2012-03-11T09:58:26Z</time>
      </trkpt>
      <trkpt lat="43.52109" lon="1.41361">
        <ele>136</ele>
        <time>2012-03-11T09:58:27Z</time>
      </trkpt>
      <trkpt lat="43.52108" lon="1.41359">
        <ele>136</ele>
        <time>2012-03-11T09:58:28Z</time>
      </trkpt>
      <trkpt lat="43.52106" lon="1.41358">
        <ele>136</ele>
        <time>2012-03-11T09:58:29Z</time>
      </trkpt>
      <trkpt lat="43.52105" lon="1.41356">
        <ele>136</ele>
        <time>2012-03-11T09:58:30Z</time>
      </trkpt>
      <trkpt lat="43.52104" lon="1.41355">
        <ele>136</ele>
        <time>2012-03-11T09:58:31Z</time>
      </trkpt>
      <trkpt lat="43.52103" lon="1.41354">
        <ele>136</ele>
        <time>2012-03-11T09:58:32Z</time>
      </trkpt>
      <trkpt lat="43.521" lon="1.41352">
        <ele>136</ele>
        <time>2012-03-11T09:58:34Z</time>
      </trkpt>
      <trkpt lat="43.52099" lon="1.41351">
        <ele>136</ele>
        <time>2012-03-11T09:58:35Z</time>
      </trkpt>
      <trkpt lat="43.52098" lon="1.4135">
        <ele>136</ele>
        <time>2012-03-11T09:58:36Z</time>
      </trkpt>
      <trkpt lat="43.52097" lon="1.41349">
        <ele>136</ele>
        <time>2012-03-11T09:58:37Z</time>
      </trkpt>
      <trkpt lat="43.52095" lon="1.41348">
        <ele>136</ele>
        <time>2012-03-11T09:58:38Z</time>
      </trkpt>
      <trkpt lat="43.52094" lon="1.41348">
        <ele>136</ele>
        <time>2012-03-11T09:58:39Z</time>
      </trkpt>
      <trkpt lat="43.52093" lon="1.41347">
        <ele>136</ele>
        <time>2012-03-11T09:58:40Z</time>
      </trkpt>
      <trkpt lat="43.52091" lon="1.41346">
        <ele>136</ele>
        <time>2012-03-11T09:58:41Z</time>
      </trkpt>
      <trkpt lat="43.5209" lon="1.41345">
        <ele>136</ele>
        <time>2012-03-11T09:58:42Z</time>
      </trkpt>
      <trkpt lat="43.52089" lon="1.41344">
        <ele>136</ele>
        <time>2012-03-11T09:58:43Z</time>
      </trkpt>
      <trkpt lat="43.52087" lon="1.41343">
        <ele>136</ele>
        <time>2012-03-11T09:58:44Z</time>
      </trkpt>
      <trkpt lat="43.52086" lon="1.41342">
        <ele>136</ele>
        <time>2012-03-11T09:58:45Z</time>
      </trkpt>
      <trkpt lat="43.52084" lon="1.41341">
        <ele>136</ele>
        <time>2012-03-11T09:58:46Z</time>
      </trkpt>
      <trkpt lat="43.52083" lon="1.4134">
        <ele>136</ele>
        <time>2012-03-11T09:58:47Z</time>
      </trkpt>
      <trkpt lat="43.52082" lon="1.41339">
        <ele>136</ele>
        <time>2012-03-11T09:58:48Z</time>
      </trkpt>
      <trkpt lat="43.5208" lon="1.41338">
        <ele>136</ele>
        <time>2012-03-11T09:58:49Z</time>
      </trkpt>
      <trkpt lat="43.52079" lon="1.41337">
        <ele>136</ele>
        <time>2012-03-11T09:58:50Z</time>
      </trkpt>
      <trkpt lat="43.52077" lon="1.41336">
        <ele>136</ele>
        <time>2012-03-11T09:58:51Z</time>
      </trkpt>
      <trkpt lat="43.52076" lon="1.41335">
        <ele>136</ele>
        <time>2012-03-11T09:58:52Z</time>
      </trkpt>
      <trkpt lat="43.52074" lon="1.41334">
        <ele>136</ele>
        <time>2012-03-11T09:58:53Z</time>
      </trkpt>
      <trkpt lat="43.52073" lon="1.41333">
        <ele>136</ele>
        <time>2012-03-11T09:58:54Z</time>
      </trkpt>
      <trkpt lat="43.52071" lon="1.41332">
        <ele>136</ele>
        <time>2012-03-11T09:58:55Z</time>
      </trkpt>
      <trkpt lat="43.5207" lon="1.41331">
        <ele>136</ele>
        <time>2012-03-11T09:58:56Z</time>
      </trkpt>
      <trkpt lat="43.52068" lon="1.4133">
        <ele>136</ele>
        <time>2012-03-11T09:58:57Z</time>
      </trkpt>
      <trkpt lat="43.52067" lon="1.4133">
        <ele>136</ele>
        <time>2012-03-11T09:58:58Z</time>
      </trkpt>
      <trkpt lat="43.52065" lon="1.41329">
        <ele>136</ele>
        <time>2012-03-11T09:58:59Z</time>
      </trkpt>
      <trkpt lat="43.52063" lon="1.41329">
        <ele>136</ele>
        <time>2012-03-11T09:59:00Z</time>
      </trkpt>
      <trkpt lat="43.52062" lon="1.41329">
        <ele>136</ele>
        <time>2012-03-11T09:59:01Z</time>
      </trkpt>
      <trkpt lat="43.5206" lon="1.41328">
        <ele>136</ele>
        <time>2012-03-11T09:59:02Z</time>
      </trkpt>
      <trkpt lat="43.52059" lon="1.41328">
        <ele>136</ele>
        <time>2012-03-11T09:59:03Z</time>
      </trkpt>
      <trkpt lat="43.52057" lon="1.41328">
        <ele>136</ele>
        <time>2012-03-11T09:59:04Z</time>
      </trkpt>
      <trkpt lat="43.52055" lon="1.41327">
        <ele>136</ele>
        <time>2012-03-11T09:59:05Z</time>
      </trkpt>
      <trkpt lat="43.52054" lon="1.41327">
        <ele>136</ele>
        <time>2012-03-11T09:59:06Z</time>
      </trkpt>
      <trkpt lat="43.52053" lon="1.41326">
        <ele>136</ele>
        <time>2012-03-11T09:59:07Z</time>
      </trkpt>
      <trkpt lat="43.52051" lon="1.41325">
        <ele>136</ele>
        <time>2012-03-11T09:59:08Z</time>
      </trkpt>
      <trkpt lat="43.52049" lon="1.41325">
        <ele>136</ele>
        <time>2012-03-11T09:59:09Z</time>
      </trkpt>
      <trkpt lat="43.52048" lon="1.41324">
        <ele>136</ele>
        <time>2012-03-11T09:59:10Z</time>
      </trkpt>
      <trkpt lat="43.52046" lon="1.41323">
        <ele>136</ele>
        <time>2012-03-11T09:59:11Z</time>
      </trkpt>
      <trkpt lat="43.52045" lon="1.41322">
        <ele>136</ele>
        <time>2012-03-11T09:59:12Z</time>
      </trkpt>
      <trkpt lat="43.52043" lon="1.41322">
        <ele>136</ele>
        <time>2012-03-11T09:59:13Z</time>
      </trkpt>
      <trkpt lat="43.52042" lon="1.41321">
        <ele>136</ele>
        <time>2012-03-11T09:59:14Z</time>
      </trkpt>
      <trkpt lat="43.5204" lon="1.41321">
        <ele>136</ele>
        <time>2012-03-11T09:59:15Z</time>
      </trkpt>
      <trkpt lat="43.52039" lon="1.4132">
        <ele>136</ele>
        <time>2012-03-11T09:59:16Z</time>
      </trkpt>
      <trkpt lat="43.52037" lon="1.4132">
        <ele>136</ele>
        <time>2012-03-11T09:59:17Z</time>
      </trkpt>
      <trkpt lat="43.52035" lon="1.41319">
        <ele>136</ele>
        <time>2012-03-11T09:59:18Z</time>
      </trkpt>
      <trkpt lat="43.52034" lon="1.41318">
        <ele>136</ele>
        <time>2012-03-11T09:59:19Z</time>
      </trkpt>
      <trkpt lat="43.52032" lon="1.41317">
        <ele>136</ele>
        <time>2012-03-11T09:59:20Z</time>
      </trkpt>
      <trkpt lat="43.52031" lon="1.41317">
        <ele>136</ele>
        <time>2012-03-11T09:59:21Z</time>
      </trkpt>
      <trkpt lat="43.52029" lon="1.41316">
        <ele>136</ele>
        <time>2012-03-11T09:59:22Z</time>
      </trkpt>
      <trkpt lat="43.52028" lon="1.41315">
        <ele>136</ele>
        <time>2012-03-11T09:59:23Z</time>
      </trkpt>
      <trkpt lat="43.52027" lon="1.41315">
        <ele>136</ele>
        <time>2012-03-11T09:59:24Z</time>
      </trkpt>
      <trkpt lat="43.52026" lon="1.41314">
        <ele>136</ele>
        <time>2012-03-11T09:59:25Z</time>
      </trkpt>
      <trkpt lat="43.52024" lon="1.41313">
        <ele>136</ele>
        <time>2012-03-11T09:59:26Z</time>
      </trkpt>
      <trkpt lat="43.52022" lon="1.41312">
        <ele>136</ele>
        <time>2012-03-11T09:59:27Z</time>
      </trkpt>
      <trkpt lat="43.52021" lon="1.41311">
        <ele>136</ele>
        <time>2012-03-11T09:59:28Z</time>
      </trkpt>
      <trkpt lat="43.52019" lon="1.4131">
        <ele>136</ele>
        <time>2012-03-11T09:59:29Z</time>
      </trkpt>
      <trkpt lat="43.52018" lon="1.41309">
        <ele>136</ele>
        <time>2012-03-11T09:59:30Z</time>
      </trkpt>
      <trkpt lat="43.52016" lon="1.41308">
        <ele>136</ele>
        <time>2012-03-11T09:59:31Z</time>
      </trkpt>
      <trkpt lat="43.52015" lon="1.41307">
        <ele>136</ele>
        <time>2012-03-11T09:59:32Z</time>
      </trkpt>
      <trkpt lat="43.52013" lon="1.41306">
        <ele>136</ele>
        <time>2012-03-11T09:59:33Z</time>
      </trkpt>
      <trkpt lat="43.52012" lon="1.41305">
        <ele>136</ele>
        <time>2012-03-11T09:59:34Z</time>
      </trkpt>
      <trkpt lat="43.5201" lon="1.41305">
        <ele>136</ele>
        <time>2012-03-11T09:59:35Z</time>
      </trkpt>
      <trkpt lat="43.52009" lon="1.41304">
        <ele>136</ele>
        <time>2012-03-11T09:59:36Z</time>
      </trkpt>
      <trkpt lat="43.52008" lon="1.41303">
        <ele>136</ele>
        <time>2012-03-11T09:59:37Z</time>
      </trkpt>
      <trkpt lat="43.52006" lon="1.41303">
        <ele>136</ele>
        <time>2012-03-11T09:59:38Z</time>
      </trkpt>
      <trkpt lat="43.52005" lon="1.41302">
        <ele>136</ele>
        <time>2012-03-11T09:59:39Z</time>
      </trkpt>
      <trkpt lat="43.52003" lon="1.41301">
        <ele>136</ele>
        <time>2012-03-11T09:59:40Z</time>
      </trkpt>
      <trkpt lat="43.52002" lon="1.41301">
        <ele>136</ele>
        <time>2012-03-11T09:59:41Z</time>
      </trkpt>
      <trkpt lat="43.52" lon="1.413">
        <ele>136</ele>
        <time>2012-03-11T09:59:42Z</time>
      </trkpt>
      <trkpt lat="43.51999" lon="1.41299">
        <ele>136</ele>
        <time>2012-03-11T09:59:43Z</time>
      </trkpt>
      <trkpt lat="43.51997" lon="1.41298">
        <ele>136</ele>
        <time>2012-03-11T09:59:44Z</time>
      </trkpt>
      <trkpt lat="43.51996" lon="1.41297">
        <ele>136</ele>
        <time>2012-03-11T09:59:45Z</time>
      </trkpt>
      <trkpt lat="43.51995" lon="1.41295">
        <ele>136</ele>
        <time>2012-03-11T09:59:46Z</time>
      </trkpt>
      <trkpt lat="43.51994" lon="1.41294">
        <ele>136</ele>
        <time>2012-03-11T09:59:47Z</time>
      </trkpt>
      <trkpt lat="43.51992" lon="1.41291">
        <ele>136</ele>
        <time>2012-03-11T09:59:49Z</time>
      </trkpt>
      <trkpt lat="43.5199" lon="1.4129">
        <ele>136</ele>
        <time>2012-03-11T09:59:50Z</time>
      </trkpt>
      <trkpt lat="43.51989" lon="1.41288">
        <ele>136</ele>
        <time>2012-03-11T09:59:51Z</time>
      </trkpt>
      <trkpt lat="43.51988" lon="1.41287">
        <ele>136</ele>
        <time>2012-03-11T09:59:52Z</time>
      </trkpt>
      <trkpt lat="43.51987" lon="1.41286">
        <ele>136</ele>
        <time>2012-03-11T09:59:53Z</time>
      </trkpt>
      <trkpt lat="43.51986" lon="1.41285">
        <ele>136</ele>
        <time>2012-03-11T09:59:54Z</time>
      </trkpt>
      <trkpt lat="43.51984" lon="1.41283">
        <ele>136</ele>
        <time>2012-03-11T09:59:55Z</time>
      </trkpt>
      <trkpt lat="43.51983" lon="1.41282">
        <ele>136</ele>
        <time>2012-03-11T09:59:56Z</time>
      </trkpt>
      <trkpt lat="43.51981" lon="1.4128">
        <ele>136</ele>
        <time>2012-03-11T09:59:58Z</time>
      </trkpt>
      <trkpt lat="43.51979" lon="1.41279">
        <ele>136</ele>
        <time>2012-03-11T09:59:59Z</time>
      </trkpt>
      <trkpt lat="43.51978" lon="1.41278">
        <ele>136</ele>
        <time>2012-03-11T10:00:00Z</time>
      </trkpt>
      <trkpt lat="43.51976" lon="1.41277">
        <ele>136</ele>
        <time>2012-03-11T10:00:01Z</time>
      </trkpt>
      <trkpt lat="43.51975" lon="1.41276">
        <ele>136</ele>
        <time>2012-03-11T10:00:02Z</time>
      </trkpt>
      <trkpt lat="43.51973" lon="1.41275">
        <ele>136</ele>
        <time>2012-03-11T10:00:03Z</time>
      </trkpt>
      <trkpt lat="43.51971" lon="1.41274">
        <ele>136</ele>
        <time>2012-03-11T10:00:04Z</time>
      </trkpt>
      <trkpt lat="43.51969" lon="1.41273">
        <ele>136</ele>
        <time>2012-03-11T10:00:05Z</time>
      </trkpt>
      <trkpt lat="43.51968" lon="1.41272">
        <ele>136</ele>
        <time>2012-03-11T10:00:06Z</time>
      </trkpt>
      <trkpt lat="43.51966" lon="1.41272">
        <ele>136</ele>
        <time>2012-03-11T10:00:07Z</time>
      </trkpt>
      <trkpt lat="43.51965" lon="1.41271">
        <ele>136</ele>
        <time>2012-03-11T10:00:08Z</time>
      </trkpt>
      <trkpt lat="43.51963" lon="1.4127">
        <ele>136</ele>
        <time>2012-03-11T10:00:09Z</time>
      </trkpt>
      <trkpt lat="43.51962" lon="1.4127">
        <ele>136</ele>
        <time>2012-03-11T10:00:10Z</time>
      </trkpt>
      <trkpt lat="43.5196" lon="1.41269">
        <ele>136</ele>
        <time>2012-03-11T10:00:11Z</time>
      </trkpt>
      <trkpt lat="43.51958" lon="1.41268">
        <ele>136</ele>
        <time>2012-03-11T10:00:12Z</time>
      </trkpt>
      <trkpt lat="43.51957" lon="1.41267">
        <ele>136</ele>
        <time>2012-03-11T10:00:13Z</time>
      </trkpt>
      <trkpt lat="43.51955" lon="1.41267">
        <ele>136</ele>
        <time>2012-03-11T10:00:14Z</time>
      </trkpt>
      <trkpt lat="43.51953" lon="1.41265">
        <ele>136</ele>
        <time>2012-03-11T10:00:15Z</time>
      </trkpt>
      <trkpt lat="43.51952" lon="1.41264">
        <ele>136</ele>
        <time>2012-03-11T10:00:16Z</time>
      </trkpt>
      <trkpt lat="43.51951" lon="1.41263">
        <ele>136</ele>
        <time>2012-03-11T10:00:17Z</time>
      </trkpt>
      <trkpt lat="43.51949" lon="1.41262">
        <ele>136</ele>
        <time>2012-03-11T10:00:18Z</time>
      </trkpt>
      <trkpt lat="43.51948" lon="1.41261">
        <ele>136</ele>
        <time>2012-03-11T10:00:19Z</time>
      </trkpt>
      <trkpt lat="43.51947" lon="1.41261">
        <ele>136</ele>
        <time>2012-03-11T10:00:20Z</time>
      </trkpt>
      <trkpt lat="43.51945" lon="1.4126">
        <ele>136</ele>
        <time>2012-03-11T10:00:21Z</time>
      </trkpt>
      <trkpt lat="43.51944" lon="1.41259">
        <ele>136</ele>
        <time>2012-03-11T10:00:22Z</time>
      </trkpt>
      <trkpt lat="43.51942" lon="1.41258">
        <ele>136</ele>
        <time>2012-03-11T10:00:23Z</time>
      </trkpt>
      <trkpt lat="43.51941" lon="1.41257">
        <ele>136</ele>
        <time>2012-03-11T10:00:24Z</time>
      </trkpt>
      <trkpt lat="43.51939" lon="1.41256">
        <ele>136</ele>
        <time>2012-03-11T10:00:25Z</time>
      </trkpt>
      <trkpt lat="43.51938" lon="1.41255">
        <ele>136</ele>
        <time>2012-03-11T10:00:26Z</time>
      </trkpt>
      <trkpt lat="43.51937" lon="1.41254">
        <ele>136</ele>
        <time>2012-03-11T10:00:27Z</time>
      </trkpt>
      <trkpt lat="43.51936" lon="1.41253">
        <ele>136</ele>
        <time>2012-03-11T10:00:28Z</time>
      </trkpt>
      <trkpt lat="43.51934" lon="1.41252">
        <ele>136</ele>
        <time>2012-03-11T10:00:29Z</time>
      </trkpt>
      <trkpt lat="43.51934" lon="1.4125">
        <ele>136</ele>
        <time>2012-03-11T10:00:30Z</time>
      </trkpt>
      <trkpt lat="43.51932" lon="1.41247">
        <ele>136</ele>
        <time>2012-03-11T10:00:32Z</time>
      </trkpt>
      <trkpt lat="43.51931" lon="1.41246">
        <ele>136</ele>
        <time>2012-03-11T10:00:36Z</time>
      </trkpt>
      <trkpt lat="43.51929" lon="1.41244">
        <ele>136</ele>
        <time>2012-03-11T10:00:38Z</time>
      </trkpt>
      <trkpt lat="43.51928" lon="1.41242">
        <ele>136</ele>
        <time>2012-03-11T10:00:40Z</time>
      </trkpt>
      <trkpt lat="43.51925" lon="1.41239">
        <ele>136</ele>
        <time>2012-03-11T10:00:42Z</time>
      </trkpt>
      <trkpt lat="43.51924" lon="1.41238">
        <ele>136</ele>
        <time>2012-03-11T10:00:43Z</time>
      </trkpt>
      <trkpt lat="43.51922" lon="1.41235">
        <ele>136</ele>
        <time>2012-03-11T10:00:45Z</time>
      </trkpt>
      <trkpt lat="43.51921" lon="1.41234">
        <ele>136</ele>
        <time>2012-03-11T10:00:46Z</time>
      </trkpt>
      <trkpt lat="43.5192" lon="1.41232">
        <ele>136</ele>
        <time>2012-03-11T10:00:47Z</time>
      </trkpt>
      <trkpt lat="43.51919" lon="1.4123">
        <ele>136</ele>
        <time>2012-03-11T10:00:48Z</time>
      </trkpt>
      <trkpt lat="43.51918" lon="1.41229">
        <ele>136</ele>
        <time>2012-03-11T10:00:49Z</time>
      </trkpt>
      <trkpt lat="43.51917" lon="1.41227">
        <ele>136</ele>
        <time>2012-03-11T10:00:50Z</time>
      </trkpt>
      <trkpt lat="43.51916" lon="1.41225">
        <ele>136</ele>
        <time>2012-03-11T10:00:51Z</time>
      </trkpt>
      <trkpt lat="43.51915" lon="1.41223">
        <ele>136</ele>
        <time>2012-03-11T10:00:52Z</time>
      </trkpt>
      <trkpt lat="43.51914" lon="1.41221">
        <ele>136</ele>
        <time>2012-03-11T10:00:53Z</time>
      </trkpt>
      <trkpt lat="43.51913" lon="1.4122">
        <ele>136</ele>
        <time>2012-03-11T10:00:54Z</time>
      </trkpt>
      <trkpt lat="43.51911" lon="1.41218">
        <ele>136</ele>
        <time>2012-03-11T10:00:55Z</time>
      </trkpt>
      <trkpt lat="43.5191" lon="1.41217">
        <ele>136</ele>
        <time>2012-03-11T10:00:56Z</time>
      </trkpt>
      <trkpt lat="43.51909" lon="1.41216">
        <ele>136</ele>
        <time>2012-03-11T10:00:57Z</time>
      </trkpt>
      <trkpt lat="43.51907" lon="1.41215">
        <ele>136</ele>
        <time>2012-03-11T10:00:58Z</time>
      </trkpt>
      <trkpt lat="43.51906" lon="1.41213">
        <ele>136</ele>
        <time>2012-03-11T10:00:59Z</time>
      </trkpt>
      <trkpt lat="43.51905" lon="1.41212">
        <ele>136</ele>
        <time>2012-03-11T10:01:00Z</time>
      </trkpt>
      <trkpt lat="43.51903" lon="1.4121">
        <ele>136</ele>
        <time>2012-03-11T10:01:02Z</time>
      </trkpt>
      <trkpt lat="43.51901" lon="1.41209">
        <ele>136</ele>
        <time>2012-03-11T10:01:03Z</time>
      </trkpt>
      <trkpt lat="43.519" lon="1.41208">
        <ele>136</ele>
        <time>2012-03-11T10:01:04Z</time>
      </trkpt>
      <trkpt lat="43.51899" lon="1.41206">
        <ele>136</ele>
        <time>2012-03-11T10:01:05Z</time>
      </trkpt>
      <trkpt lat="43.51897" lon="1.41204">
        <ele>136</ele>
        <time>2012-03-11T10:01:07Z</time>
      </trkpt>
      <trkpt lat="43.51895" lon="1.41203">
        <ele>136</ele>
        <time>2012-03-11T10:01:08Z</time>
      </trkpt>
      <trkpt lat="43.51894" lon="1.41202">
        <ele>136</ele>
        <time>2012-03-11T10:01:09Z</time>
      </trkpt>
      <trkpt lat="43.51893" lon="1.41201">
        <ele>136</ele>
        <time>2012-03-11T10:01:10Z</time>
      </trkpt>
      <trkpt lat="43.51891" lon="1.412">
        <ele>136</ele>
        <time>2012-03-11T10:01:11Z</time>
      </trkpt>
      <trkpt lat="43.5189" lon="1.41198">
        <ele>136</ele>
        <time>2012-03-11T10:01:12Z</time>
      </trkpt>
      <trkpt lat="43.51889" lon="1.41197">
        <ele>136</ele>
        <time>2012-03-11T10:01:13Z</time>
      </trkpt>
      <trkpt lat="43.51887" lon="1.41195">
        <ele>136</ele>
        <time>2012-03-11T10:01:14Z</time>
      </trkpt>
      <trkpt lat="43.51886" lon="1.41194">
        <ele>136</ele>
        <time>2012-03-11T10:01:15Z</time>
      </trkpt>
      <trkpt lat="43.51885" lon="1.41193">
        <ele>136</ele>
        <time>2012-03-11T10:01:16Z</time>
      </trkpt>
      <trkpt lat="43.51883" lon="1.41192">
        <ele>136</ele>
        <time>2012-03-11T10:01:17Z</time>
      </trkpt>
      <trkpt lat="43.51882" lon="1.41191">
        <ele>136</ele>
        <time>2012-03-11T10:01:18Z</time>
      </trkpt>
      <trkpt lat="43.51881" lon="1.4119">
        <ele>136</ele>
        <time>2012-03-11T10:01:19Z</time>
      </trkpt>
      <trkpt lat="43.5188" lon="1.41188">
        <ele>136</ele>
        <time>2012-03-11T10:01:20Z</time>
      </trkpt>
      <trkpt lat="43.51879" lon="1.41187">
        <ele>136</ele>
        <time>2012-03-11T10:01:21Z</time>
      </trkpt>
      <trkpt lat="43.51878" lon="1.41185">
        <ele>136</ele>
        <time>2012-03-11T10:01:22Z</time>
      </trkpt>
      <trkpt lat="43.51877" lon="1.41184">
        <ele>136</ele>
        <time>2012-03-11T10:01:23Z</time>
      </trkpt>
      <trkpt lat="43.51876" lon="1.41182">
        <ele>136</ele>
        <time>2012-03-11T10:01:24Z</time>
      </trkpt>
      <trkpt lat="43.51875" lon="1.4118">
        <ele>136</ele>
        <time>2012-03-11T10:01:25Z</time>
      </trkpt>
      <trkpt lat="43.51874" lon="1.41178">
        <ele>136</ele>
        <time>2012-03-11T10:01:26Z</time>
      </trkpt>
      <trkpt lat="43.51873" lon="1.41176">
        <ele>136</ele>
        <time>2012-03-11T10:01:27Z</time>
      </trkpt>
      <trkpt lat="43.51872" lon="1.41175">
        <ele>136</ele>
        <time>2012-03-11T10:01:28Z</time>
      </trkpt>
      <trkpt lat="43.51871" lon="1.41173">
        <ele>136</ele>
        <time>2012-03-11T10:01:29Z</time>
      </trkpt>
      <trkpt lat="43.5187" lon="1.41171">
        <ele>136</ele>
        <time>2012-03-11T10:01:30Z</time>
      </trkpt>
      <trkpt lat="43.51869" lon="1.41169">
        <ele>136</ele>
        <time>2012-03-11T10:01:31Z</time>
      </trkpt>
      <trkpt lat="43.51869" lon="1.41167">
        <ele>136</ele>
        <time>2012-03-11T10:01:32Z</time>
      </trkpt>
      <trkpt lat="43.51868" lon="1.41165">
        <ele>136</ele>
        <time>2012-03-11T10:01:33Z</time>
      </trkpt>
      <trkpt lat="43.51867" lon="1.41163">
        <ele>136</ele>
        <time>2012-03-11T10:01:34Z</time>
      </trkpt>
      <trkpt lat="43.51866" lon="1.41162">
        <ele>136</ele>
        <time>2012-03-11T10:01:35Z</time>
      </trkpt>
      <trkpt lat="43.51865" lon="1.41159">
        <ele>136</ele>
        <time>2012-03-11T10:01:36Z</time>
      </trkpt>
      <trkpt lat="43.51864" lon="1.41157">
        <ele>136</ele>
        <time>2012-03-11T10:01:37Z</time>
      </trkpt>
      <trkpt lat="43.51863" lon="1.41156">
        <ele>136</ele>
        <time>2012-03-11T10:01:38Z</time>
      </trkpt>
      <trkpt lat="43.51862" lon="1.41154">
        <ele>136</ele>
        <time>2012-03-11T10:01:39Z</time>
      </trkpt>
      <trkpt lat="43.51862" lon="1.41152">
        <ele>136</ele>
        <time>2012-03-11T10:01:40Z</time>
      </trkpt>
      <trkpt lat="43.5186" lon="1.41151">
        <ele>136</ele>
        <time>2012-03-11T10:01:41Z</time>
      </trkpt>
      <trkpt lat="43.5186" lon="1.41149">
        <ele>136</ele>
        <time>2012-03-11T10:01:42Z</time>
      </trkpt>
      <trkpt lat="43.51858" lon="1.41148">
        <ele>136</ele>
        <time>2012-03-11T10:01:43Z</time>
      </trkpt>
      <trkpt lat="43.51857" lon="1.41146">
        <ele>136</ele>
        <time>2012-03-11T10:01:44Z</time>
      </trkpt>
      <trkpt lat="43.51856" lon="1.41144">
        <ele>136</ele>
        <time>2012-03-11T10:01:45Z</time>
      </trkpt>
      <trkpt lat="43.51855" lon="1.41143">
        <ele>136</ele>
        <time>2012-03-11T10:01:46Z</time>
      </trkpt>
      <trkpt lat="43.51854" lon="1.41141">
        <ele>136</ele>
        <time>2012-03-11T10:01:47Z</time>
      </trkpt>
      <trkpt lat="43.51853" lon="1.4114">
        <ele>136</ele>
        <time>2012-03-11T10:01:48Z</time>
      </trkpt>
      <trkpt lat="43.51852" lon="1.41138">
        <ele>136</ele>
        <time>2012-03-11T10:01:49Z</time>
      </trkpt>
      <trkpt lat="43.51851" lon="1.41137">
        <ele>136</ele>
        <time>2012-03-11T10:01:50Z</time>
      </trkpt>
      <trkpt lat="43.51849" lon="1.41136">
        <ele>136</ele>
        <time>2012-03-11T10:01:51Z</time>
      </trkpt>
      <trkpt lat="43.51848" lon="1.41134">
        <ele>136</ele>
        <time>2012-03-11T10:01:52Z</time>
      </trkpt>
      <trkpt lat="43.51846" lon="1.41133">
        <ele>136</ele>
        <time>2012-03-11T10:01:53Z</time>
      </trkpt>
      <trkpt lat="43.51845" lon="1.41132">
        <ele>136</ele>
        <time>2012-03-11T10:01:54Z</time>
      </trkpt>
      <trkpt lat="43.51844" lon="1.41131">
        <ele>136</ele>
        <time>2012-03-11T10:01:55Z</time>
      </trkpt>
      <trkpt lat="43.51843" lon="1.4113">
        <ele>136</ele>
        <time>2012-03-11T10:01:56Z</time>
      </trkpt>
      <trkpt lat="43.51841" lon="1.41128">
        <ele>136</ele>
        <time>2012-03-11T10:01:57Z</time>
      </trkpt>
      <trkpt lat="43.5184" lon="1.41127">
        <ele>136</ele>
        <time>2012-03-11T10:01:58Z</time>
      </trkpt>
      <trkpt lat="43.51839" lon="1.41126">
        <ele>136</ele>
        <time>2012-03-11T10:01:59Z</time>
      </trkpt>
      <trkpt lat="43.51838" lon="1.41124">
        <ele>136</ele>
        <time>2012-03-11T10:02:00Z</time>
      </trkpt>
      <trkpt lat="43.51836" lon="1.41123">
        <ele>136</ele>
        <time>2012-03-11T10:02:01Z</time>
      </trkpt>
      <trkpt lat="43.51835" lon="1.41121">
        <ele>136</ele>
        <time>2012-03-11T10:02:02Z</time>
      </trkpt>
      <trkpt lat="43.51834" lon="1.4112">
        <ele>136</ele>
        <time>2012-03-11T10:02:03Z</time>
      </trkpt>
      <trkpt lat="43.51833" lon="1.41119">
        <ele>136</ele>
        <time>2012-03-11T10:02:04Z</time>
      </trkpt>
      <trkpt lat="43.51831" lon="1.41116">
        <ele>136</ele>
        <time>2012-03-11T10:02:06Z</time>
      </trkpt>
      <trkpt lat="43.5183" lon="1.41115">
        <ele>136</ele>
        <time>2012-03-11T10:02:07Z</time>
      </trkpt>
      <trkpt lat="43.51828" lon="1.41114">
        <ele>136</ele>
        <time>2012-03-11T10:02:08Z</time>
      </trkpt>
      <trkpt lat="43.51827" lon="1.41113">
        <ele>136</ele>
        <time>2012-03-11T10:02:09Z</time>
      </trkpt>
      <trkpt lat="43.51825" lon="1.41112">
        <ele>136</ele>
        <time>2012-03-11T10:02:10Z</time>
      </trkpt>
      <trkpt lat="43.51824" lon="1.41111">
        <ele>136</ele>
        <time>2012-03-11T10:02:11Z</time>
      </trkpt>
      <trkpt lat="43.51823" lon="1.4111">
        <ele>136</ele>
        <time>2012-03-11T10:02:12Z</time>
      </trkpt>
      <trkpt lat="43.51822" lon="1.41108">
        <ele>136</ele>
        <time>2012-03-11T10:02:13Z</time>
      </trkpt>
      <trkpt lat="43.5182" lon="1.41107">
        <ele>136</ele>
        <time>2012-03-11T10:02:14Z</time>
      </trkpt>
      <trkpt lat="43.51819" lon="1.41105">
        <ele>136</ele>
        <time>2012-03-11T10:02:15Z</time>
      </trkpt>
      <trkpt lat="43.51818" lon="1.41104">
        <ele>136</ele>
        <time>2012-03-11T10:02:16Z</time>
      </trkpt>
      <trkpt lat="43.51817" lon="1.41103">
        <ele>136</ele>
        <time>2012-03-11T10:02:17Z</time>
      </trkpt>
      <trkpt lat="43.51815" lon="1.41102">
        <ele>136</ele>
        <time>2012-03-11T10:02:18Z</time>
      </trkpt>
      <trkpt lat="43.51814" lon="1.41101">
        <ele>136</ele>
        <time>2012-03-11T10:02:19Z</time>
      </trkpt>
      <trkpt lat="43.51813" lon="1.41099">
        <ele>136</ele>
        <time>2012-03-11T10:02:20Z</time>
      </trkpt>
      <trkpt lat="43.51812" lon="1.41098">
        <ele>136</ele>
        <time>2012-03-11T10:02:21Z</time>
      </trkpt>
      <trkpt lat="43.5181" lon="1.41097">
        <ele>136</ele>
        <time>2012-03-11T10:02:22Z</time>
      </trkpt>
      <trkpt lat="43.51809" lon="1.41096">
        <ele>136</ele>
        <time>2012-03-11T10:02:23Z</time>
      </trkpt>
      <trkpt lat="43.51808" lon="1.41095">
        <ele>136</ele>
        <time>2012-03-11T10:02:24Z</time>
      </trkpt>
      <trkpt lat="43.51807" lon="1.41094">
        <ele>136</ele>
        <time>2012-03-11T10:02:25Z</time>
      </trkpt>
      <trkpt lat="43.51805" lon="1.41093">
        <ele>136</ele>
        <time>2012-03-11T10:02:26Z</time>
      </trkpt>
      <trkpt lat="43.51804" lon="1.41091">
        <ele>136</ele>
        <time>2012-03-11T10:02:27Z</time>
      </trkpt>
      <trkpt lat="43.51802" lon="1.4109">
        <ele>136</ele>
        <time>2012-03-11T10:02:28Z</time>
      </trkpt>
      <trkpt lat="43.51801" lon="1.41089">
        <ele>136</ele>
        <time>2012-03-11T10:02:29Z</time>
      </trkpt>
      <trkpt lat="43.51799" lon="1.41088">
        <ele>136</ele>
        <time>2012-03-11T10:02:30Z</time>
      </trkpt>
      <trkpt lat="43.51797" lon="1.41086">
        <ele>136</ele>
        <time>2012-03-11T10:02:31Z</time>
      </trkpt>
      <trkpt lat="43.51796" lon="1.41085">
        <ele>136</ele>
        <time>2012-03-11T10:02:32Z</time>
      </trkpt>
      <trkpt lat="43.51794" lon="1.41084">
        <ele>136</ele>
        <time>2012-03-11T10:02:33Z</time>
      </trkpt>
      <trkpt lat="43.51793" lon="1.41083">
        <ele>136</ele>
        <time>2012-03-11T10:02:34Z</time>
      </trkpt>
      <trkpt lat="43.51791" lon="1.41082">
        <ele>136</ele>
        <time>2012-03-11T10:02:35Z</time>
      </trkpt>
      <trkpt lat="43.51789" lon="1.41081">
        <ele>136</ele>
        <time>2012-03-11T10:02:36Z</time>
      </trkpt>
      <trkpt lat="43.51788" lon="1.4108">
        <ele>136</ele>
        <time>2012-03-11T10:02:37Z</time>
      </trkpt>
      <trkpt lat="43.51787" lon="1.41079">
        <ele>136</ele>
        <time>2012-03-11T10:02:38Z</time>
      </trkpt>
      <trkpt lat="43.51786" lon="1.41079">
        <ele>136</ele>
        <time>2012-03-11T10:02:39Z</time>
      </trkpt>
      <trkpt lat="43.51784" lon="1.41078">
        <ele>136</ele>
        <time>2012-03-11T10:02:40Z</time>
      </trkpt>
      <trkpt lat="43.51783" lon="1.41078">
        <ele>136</ele>
        <time>2012-03-11T10:02:41Z</time>
      </trkpt>
      <trkpt lat="43.51781" lon="1.41078">
        <ele>136</ele>
        <time>2012-03-11T10:02:42Z</time>
      </trkpt>
      <trkpt lat="43.5178" lon="1.41078">
        <ele>136</ele>
        <time>2012-03-11T10:02:43Z</time>
      </trkpt>
      <trkpt lat="43.51779" lon="1.41079">
        <ele>136</ele>
        <time>2012-03-11T10:02:45Z</time>
      </trkpt>
      <trkpt lat="43.51778" lon="1.41078">
        <ele>136</ele>
        <time>2012-03-11T10:02:48Z</time>
      </trkpt>
      <trkpt lat="43.51779" lon="1.41077">
        <ele>136</ele>
        <time>2012-03-11T10:03:00Z</time>
      </trkpt>
      <trkpt lat="43.5178" lon="1.41077">
        <ele>137</ele>
        <time>2012-03-11T10:03:12Z</time>
      </trkpt>
      <trkpt lat="43.51778" lon="1.41078">
        <ele>137</ele>
        <time>2012-03-11T10:03:26Z</time>
      </trkpt>
      <trkpt lat="43.51777" lon="1.41081">
        <ele>137</ele>
        <time>2012-03-11T10:03:28Z</time>
      </trkpt>
      <trkpt lat="43.51776" lon="1.41083">
        <ele>137</ele>
        <time>2012-03-11T10:03:29Z</time>
      </trkpt>
      <trkpt lat="43.51775" lon="1.41084">
        <ele>137</ele>
        <time>2012-03-11T10:03:30Z</time>
      </trkpt>
      <trkpt lat="43.51775" lon="1.41086">
        <ele>137</ele>
        <time>2012-03-11T10:03:31Z</time>
      </trkpt>
      <trkpt lat="43.51775" lon="1.41088">
        <ele>137</ele>
        <time>2012-03-11T10:03:33Z</time>
      </trkpt>
      <trkpt lat="43.51774" lon="1.4109">
        <ele>137</ele>
        <time>2012-03-11T10:03:34Z</time>
      </trkpt>
      <trkpt lat="43.51774" lon="1.41092">
        <ele>137</ele>
        <time>2012-03-11T10:03:35Z</time>
      </trkpt>
      <trkpt lat="43.51773" lon="1.41093">
        <ele>137</ele>
        <time>2012-03-11T10:03:36Z</time>
      </trkpt>
      <trkpt lat="43.51773" lon="1.41095">
        <ele>137</ele>
        <time>2012-03-11T10:03:37Z</time>
      </trkpt>
      <trkpt lat="43.51773" lon="1.41097">
        <ele>137</ele>
        <time>2012-03-11T10:03:38Z</time>
      </trkpt>
      <trkpt lat="43.51773" lon="1.41099">
        <ele>137</ele>
        <time>2012-03-11T10:03:39Z</time>
      </trkpt>
      <trkpt lat="43.51773" lon="1.41101">
        <ele>137</ele>
        <time>2012-03-11T10:03:40Z</time>
      </trkpt>
      <trkpt lat="43.51773" lon="1.41103">
        <ele>137</ele>
        <time>2012-03-11T10:03:41Z</time>
      </trkpt>
      <trkpt lat="43.51773" lon="1.41105">
        <ele>137</ele>
        <time>2012-03-11T10:03:42Z</time>
      </trkpt>
      <trkpt lat="43.51774" lon="1.41107">
        <ele>137</ele>
        <time>2012-03-11T10:03:43Z</time>
      </trkpt>
      <trkpt lat="43.51774" lon="1.41109">
        <ele>137</ele>
        <time>2012-03-11T10:03:44Z</time>
      </trkpt>
      <trkpt lat="43.51775" lon="1.41111">
        <ele>137</ele>
        <time>2012-03-11T10:03:45Z</time>
      </trkpt>
      <trkpt lat="43.51775" lon="1.41112">
        <ele>137</ele>
        <time>2012-03-11T10:03:46Z</time>
      </trkpt>
      <trkpt lat="43.51776" lon="1.41114">
        <ele>137</ele>
        <time>2012-03-11T10:03:47Z</time>
      </trkpt>
      <trkpt lat="43.51777" lon="1.41116">
        <ele>137</ele>
        <time>2012-03-11T10:03:48Z</time>
      </trkpt>
      <trkpt lat="43.51777" lon="1.41118">
        <ele>137</ele>
        <time>2012-03-11T10:03:49Z</time>
      </trkpt>
      <trkpt lat="43.51777" lon="1.41121">
        <ele>137</ele>
        <time>2012-03-11T10:03:50Z</time>
      </trkpt>
      <trkpt lat="43.51776" lon="1.41123">
        <ele>137</ele>
        <time>2012-03-11T10:03:51Z</time>
      </trkpt>
      <trkpt lat="43.51776" lon="1.41125">
        <ele>137</ele>
        <time>2012-03-11T10:03:52Z</time>
      </trkpt>
      <trkpt lat="43.51776" lon="1.41127">
        <ele>137</ele>
        <time>2012-03-11T10:03:53Z</time>
      </trkpt>
      <trkpt lat="43.51776" lon="1.41129">
        <ele>137</ele>
        <time>2012-03-11T10:03:54Z</time>
      </trkpt>
      <trkpt lat="43.51775" lon="1.41131">
        <ele>137</ele>
        <time>2012-03-11T10:03:55Z</time>
      </trkpt>
      <trkpt lat="43.51774" lon="1.41133">
        <ele>137</ele>
        <time>2012-03-11T10:03:56Z</time>
      </trkpt>
      <trkpt lat="43.51773" lon="1.41135">
        <ele>137</ele>
        <time>2012-03-11T10:03:57Z</time>
      </trkpt>
      <trkpt lat="43.51772" lon="1.41137">
        <ele>137</ele>
        <time>2012-03-11T10:03:58Z</time>
      </trkpt>
      <trkpt lat="43.51771" lon="1.41138">
        <ele>137</ele>
        <time>2012-03-11T10:03:59Z</time>
      </trkpt>
      <trkpt lat="43.51769" lon="1.41138">
        <ele>137</ele>
        <time>2012-03-11T10:04:00Z</time>
      </trkpt>
      <trkpt lat="43.51768" lon="1.41138">
        <ele>137</ele>
        <time>2012-03-11T10:04:01Z</time>
      </trkpt>
      <trkpt lat="43.51766" lon="1.41138">
        <ele>137</ele>
        <time>2012-03-11T10:04:02Z</time>
      </trkpt>
      <trkpt lat="43.51765" lon="1.41138">
        <ele>137</ele>
        <time>2012-03-11T10:04:03Z</time>
      </trkpt>
      <trkpt lat="43.51763" lon="1.41138">
        <ele>137</ele>
        <time>2012-03-11T10:04:04Z</time>
      </trkpt>
      <trkpt lat="43.51762" lon="1.41138">
        <ele>137</ele>
        <time>2012-03-11T10:04:05Z</time>
      </trkpt>
      <trkpt lat="43.51761" lon="1.41137">
        <ele>137</ele>
        <time>2012-03-11T10:04:06Z</time>
      </trkpt>
      <trkpt lat="43.51759" lon="1.41137">
        <ele>137</ele>
        <time>2012-03-11T10:04:07Z</time>
      </trkpt>
      <trkpt lat="43.51758" lon="1.41137">
        <ele>137</ele>
        <time>2012-03-11T10:04:08Z</time>
      </trkpt>
      <trkpt lat="43.51756" lon="1.41137">
        <ele>137</ele>
        <time>2012-03-11T10:04:09Z</time>
      </trkpt>
      <trkpt lat="43.51754" lon="1.41137">
        <ele>137</ele>
        <time>2012-03-11T10:04:11Z</time>
      </trkpt>
      <trkpt lat="43.51753" lon="1.41137">
        <ele>137</ele>
        <time>2012-03-11T10:04:12Z</time>
      </trkpt>
      <trkpt lat="43.51751" lon="1.41138">
        <ele>137</ele>
        <time>2012-03-11T10:04:14Z</time>
      </trkpt>
      <trkpt lat="43.5175" lon="1.41139">
        <ele>137</ele>
        <time>2012-03-11T10:04:15Z</time>
      </trkpt>
      <trkpt lat="43.51748" lon="1.4114">
        <ele>137</ele>
        <time>2012-03-11T10:04:17Z</time>
      </trkpt>
      <trkpt lat="43.51746" lon="1.41141">
        <ele>137</ele>
        <time>2012-03-11T10:04:19Z</time>
      </trkpt>
      <trkpt lat="43.51744" lon="1.41143">
        <ele>137</ele>
        <time>2012-03-11T10:04:20Z</time>
      </trkpt>
      <trkpt lat="43.51743" lon="1.41145">
        <ele>137</ele>
        <time>2012-03-11T10:04:21Z</time>
      </trkpt>
      <trkpt lat="43.51743" lon="1.41146">
        <ele>137</ele>
        <time>2012-03-11T10:04:22Z</time>
      </trkpt>
      <trkpt lat="43.51742" lon="1.41149">
        <ele>137</ele>
        <time>2012-03-11T10:04:23Z</time>
      </trkpt>
      <trkpt lat="43.51741" lon="1.41151">
        <ele>137</ele>
        <time>2012-03-11T10:04:24Z</time>
      </trkpt>
      <trkpt lat="43.5174" lon="1.41153">
        <ele>137</ele>
        <time>2012-03-11T10:04:25Z</time>
      </trkpt>
      <trkpt lat="43.51739" lon="1.41156">
        <ele>137</ele>
        <time>2012-03-11T10:04:26Z</time>
      </trkpt>
      <trkpt lat="43.51739" lon="1.41158">
        <ele>137</ele>
        <time>2012-03-11T10:04:27Z</time>
      </trkpt>
      <trkpt lat="43.51738" lon="1.4116">
        <ele>137</ele>
        <time>2012-03-11T10:04:28Z</time>
      </trkpt>
      <trkpt lat="43.51737" lon="1.41162">
        <ele>137</ele>
        <time>2012-03-11T10:04:29Z</time>
      </trkpt>
      <trkpt lat="43.51736" lon="1.41164">
        <ele>137</ele>
        <time>2012-03-11T10:04:30Z</time>
      </trkpt>
      <trkpt lat="43.51736" lon="1.41166">
        <ele>137</ele>
        <time>2012-03-11T10:04:31Z</time>
      </trkpt>
      <trkpt lat="43.51735" lon="1.41168">
        <ele>137</ele>
        <time>2012-03-11T10:04:32Z</time>
      </trkpt>
      <trkpt lat="43.51734" lon="1.41171">
        <ele>137</ele>
        <time>2012-03-11T10:04:33Z</time>
      </trkpt>
      <trkpt lat="43.51733" lon="1.41174">
        <ele>137</ele>
        <time>2012-03-11T10:04:34Z</time>
      </trkpt>
      <trkpt lat="43.51732" lon="1.41176">
        <ele>137</ele>
        <time>2012-03-11T10:04:35Z</time>
      </trkpt>
      <trkpt lat="43.51731" lon="1.41179">
        <ele>137</ele>
        <time>2012-03-11T10:04:36Z</time>
      </trkpt>
      <trkpt lat="43.51731" lon="1.41181">
        <ele>138</ele>
        <time>2012-03-11T10:04:37Z</time>
      </trkpt>
      <trkpt lat="43.51731" lon="1.41183">
        <ele>138</ele>
        <time>2012-03-11T10:04:38Z</time>
      </trkpt>
      <trkpt lat="43.51731" lon="1.41186">
        <ele>138</ele>
        <time>2012-03-11T10:04:39Z</time>
      </trkpt>
      <trkpt lat="43.51731" lon="1.41188">
        <ele>138</ele>
        <time>2012-03-11T10:04:40Z</time>
      </trkpt>
      <trkpt lat="43.51731" lon="1.4119">
        <ele>138</ele>
        <time>2012-03-11T10:04:41Z</time>
      </trkpt>
      <trkpt lat="43.51731" lon="1.41191">
        <ele>138</ele>
        <time>2012-03-11T10:04:42Z</time>
      </trkpt>
      <trkpt lat="43.5173" lon="1.41193">
        <ele>138</ele>
        <time>2012-03-11T10:04:43Z</time>
      </trkpt>
      <trkpt lat="43.5173" lon="1.41195">
        <ele>138</ele>
        <time>2012-03-11T10:04:44Z</time>
      </trkpt>
      <trkpt lat="43.51731" lon="1.41197">
        <ele>138</ele>
        <time>2012-03-11T10:04:45Z</time>
      </trkpt>
      <trkpt lat="43.51731" lon="1.41199">
        <ele>138</ele>
        <time>2012-03-11T10:04:46Z</time>
      </trkpt>
      <trkpt lat="43.51731" lon="1.41202">
        <ele>138</ele>
        <time>2012-03-11T10:04:47Z</time>
      </trkpt>
      <trkpt lat="43.51732" lon="1.41204">
        <ele>138</ele>
        <time>2012-03-11T10:04:48Z</time>
      </trkpt>
      <trkpt lat="43.51733" lon="1.41207">
        <ele>138</ele>
        <time>2012-03-11T10:04:49Z</time>
      </trkpt>
      <trkpt lat="43.51733" lon="1.41209">
        <ele>138</ele>
        <time>2012-03-11T10:04:50Z</time>
      </trkpt>
      <trkpt lat="43.51733" lon="1.4121">
        <ele>138</ele>
        <time>2012-03-11T10:04:51Z</time>
      </trkpt>
      <trkpt lat="43.51734" lon="1.41213">
        <ele>138</ele>
        <time>2012-03-11T10:04:52Z</time>
      </trkpt>
      <trkpt lat="43.51734" lon="1.41215">
        <ele>138</ele>
        <time>2012-03-11T10:04:53Z</time>
      </trkpt>
      <trkpt lat="43.51734" lon="1.41217">
        <ele>138</ele>
        <time>2012-03-11T10:04:54Z</time>
      </trkpt>
      <trkpt lat="43.51735" lon="1.4122">
        <ele>138</ele>
        <time>2012-03-11T10:04:55Z</time>
      </trkpt>
      <trkpt lat="43.51735" lon="1.41222">
        <ele>138</ele>
        <time>2012-03-11T10:04:56Z</time>
      </trkpt>
      <trkpt lat="43.51735" lon="1.41224">
        <ele>138</ele>
        <time>2012-03-11T10:04:57Z</time>
      </trkpt>
      <trkpt lat="43.51735" lon="1.41226">
        <ele>138</ele>
        <time>2012-03-11T10:04:58Z</time>
      </trkpt>
      <trkpt lat="43.51735" lon="1.41228">
        <ele>138</ele>
        <time>2012-03-11T10:04:59Z</time>
      </trkpt>
      <trkpt lat="43.51736" lon="1.4123">
        <ele>138</ele>
        <time>2012-03-11T10:05:00Z</time>
      </trkpt>
      <trkpt lat="43.51736" lon="1.41232">
        <ele>138</ele>
        <time>2012-03-11T10:05:01Z</time>
      </trkpt>
      <trkpt lat="43.51737" lon="1.41234">
        <ele>138</ele>
        <time>2012-03-11T10:05:02Z</time>
      </trkpt>
      <trkpt lat="43.51738" lon="1.41236">
        <ele>138</ele>
        <time>2012-03-11T10:05:03Z</time>
      </trkpt>
      <trkpt lat="43.51738" lon="1.41239">
        <ele>138</ele>
        <time>2012-03-11T10:05:04Z</time>
      </trkpt>
      <trkpt lat="43.51738" lon="1.41241">
        <ele>138</ele>
        <time>2012-03-11T10:05:05Z</time>
      </trkpt>
      <trkpt lat="43.51738" lon="1.41243">
        <ele>138</ele>
        <time>2012-03-11T10:05:06Z</time>
      </trkpt>
      <trkpt lat="43.51738" lon="1.41245">
        <ele>138</ele>
        <time>2012-03-11T10:05:07Z</time>
      </trkpt>
      <trkpt lat="43.51739" lon="1.41247">
        <ele>138</ele>
        <time>2012-03-11T10:05:08Z</time>
      </trkpt>
      <trkpt lat="43.51739" lon="1.41249">
        <ele>138</ele>
        <time>2012-03-11T10:05:09Z</time>
      </trkpt>
      <trkpt lat="43.5174" lon="1.41252">
        <ele>138</ele>
        <time>2012-03-11T10:05:10Z</time>
      </trkpt>
      <trkpt lat="43.51741" lon="1.41253">
        <ele>138</ele>
        <time>2012-03-11T10:05:11Z</time>
      </trkpt>
      <trkpt lat="43.51741" lon="1.41255">
        <ele>138</ele>
        <time>2012-03-11T10:05:12Z</time>
      </trkpt>
      <trkpt lat="43.51742" lon="1.41256">
        <ele>138</ele>
        <time>2012-03-11T10:05:13Z</time>
      </trkpt>
      <trkpt lat="43.51743" lon="1.41258">
        <ele>138</ele>
        <time>2012-03-11T10:05:14Z</time>
      </trkpt>
      <trkpt lat="43.51743" lon="1.4126">
        <ele>138</ele>
        <time>2012-03-11T10:05:15Z</time>
      </trkpt>
      <trkpt lat="43.51744" lon="1.41262">
        <ele>138</ele>
        <time>2012-03-11T10:05:16Z</time>
      </trkpt>
      <trkpt lat="43.51745" lon="1.41263">
        <ele>138</ele>
        <time>2012-03-11T10:05:17Z</time>
      </trkpt>
      <trkpt lat="43.51746" lon="1.41265">
        <ele>138</ele>
        <time>2012-03-11T10:05:18Z</time>
      </trkpt>
      <trkpt lat="43.51746" lon="1.41267">
        <ele>138</ele>
        <time>2012-03-11T10:05:19Z</time>
      </trkpt>
      <trkpt lat="43.51747" lon="1.41269">
        <ele>138</ele>
        <time>2012-03-11T10:05:20Z</time>
      </trkpt>
      <trkpt lat="43.51749" lon="1.41271">
        <ele>138</ele>
        <time>2012-03-11T10:05:22Z</time>
      </trkpt>
      <trkpt lat="43.51751" lon="1.41274">
        <ele>137</ele>
        <time>2012-03-11T10:05:24Z</time>
      </trkpt>
      <trkpt lat="43.51752" lon="1.41276">
        <ele>137</ele>
        <time>2012-03-11T10:05:25Z</time>
      </trkpt>
      <trkpt lat="43.51754" lon="1.41278">
        <ele>137</ele>
        <time>2012-03-11T10:05:27Z</time>
      </trkpt>
      <trkpt lat="43.51755" lon="1.4128">
        <ele>137</ele>
        <time>2012-03-11T10:05:28Z</time>
      </trkpt>
      <trkpt lat="43.51756" lon="1.41282">
        <ele>137</ele>
        <time>2012-03-11T10:05:29Z</time>
      </trkpt>
      <trkpt lat="43.51757" lon="1.41284">
        <ele>137</ele>
        <time>2012-03-11T10:05:30Z</time>
      </trkpt>
      <trkpt lat="43.51759" lon="1.41286">
        <ele>137</ele>
        <time>2012-03-11T10:05:31Z</time>
      </trkpt>
      <trkpt lat="43.5176" lon="1.41287">
        <ele>137</ele>
        <time>2012-03-11T10:05:32Z</time>
      </trkpt>
      <trkpt lat="43.51761" lon="1.41289">
        <ele>137</ele>
        <time>2012-03-11T10:05:33Z</time>
      </trkpt>
      <trkpt lat="43.51762" lon="1.41292">
        <ele>137</ele>
        <time>2012-03-11T10:05:34Z</time>
      </trkpt>
      <trkpt lat="43.51762" lon="1.41294">
        <ele>137</ele>
        <time>2012-03-11T10:05:35Z</time>
      </trkpt>
      <trkpt lat="43.51763" lon="1.41296">
        <ele>137</ele>
        <time>2012-03-11T10:05:36Z</time>
      </trkpt>
      <trkpt lat="43.51764" lon="1.41298">
        <ele>137</ele>
        <time>2012-03-11T10:05:37Z</time>
      </trkpt>
      <trkpt lat="43.51764" lon="1.413">
        <ele>137</ele>
        <time>2012-03-11T10:05:38Z</time>
      </trkpt>
      <trkpt lat="43.51764" lon="1.41302">
        <ele>137</ele>
        <time>2012-03-11T10:05:39Z</time>
      </trkpt>
      <trkpt lat="43.51764" lon="1.41305">
        <ele>137</ele>
        <time>2012-03-11T10:05:40Z</time>
      </trkpt>
      <trkpt lat="43.51765" lon="1.41307">
        <ele>137</ele>
        <time>2012-03-11T10:05:41Z</time>
      </trkpt>
      <trkpt lat="43.51765" lon="1.41309">
        <ele>137</ele>
        <time>2012-03-11T10:05:42Z</time>
      </trkpt>
      <trkpt lat="43.51766" lon="1.41311">
        <ele>137</ele>
        <time>2012-03-11T10:05:43Z</time>
      </trkpt>
      <trkpt lat="43.51767" lon="1.41313">
        <ele>137</ele>
        <time>2012-03-11T10:05:44Z</time>
      </trkpt>
      <trkpt lat="43.51768" lon="1.41315">
        <ele>137</ele>
        <time>2012-03-11T10:05:45Z</time>
      </trkpt>
      <trkpt lat="43.51768" lon="1.41317">
        <ele>137</ele>
        <time>2012-03-11T10:05:46Z</time>
      </trkpt>
      <trkpt lat="43.51768" lon="1.41319">
        <ele>137</ele>
        <time>2012-03-11T10:05:47Z</time>
      </trkpt>
      <trkpt lat="43.51768" lon="1.41321">
        <ele>137</ele>
        <time>2012-03-11T10:05:48Z</time>
      </trkpt>
      <trkpt lat="43.51768" lon="1.41323">
        <ele>137</ele>
        <time>2012-03-11T10:05:49Z</time>
      </trkpt>
      <trkpt lat="43.51767" lon="1.41325">
        <ele>137</ele>
        <time>2012-03-11T10:05:50Z</time>
      </trkpt>
      <trkpt lat="43.51765" lon="1.41328">
        <ele>137</ele>
        <time>2012-03-11T10:05:52Z</time>
      </trkpt>
      <trkpt lat="43.51763" lon="1.4133">
        <ele>137</ele>
        <time>2012-03-11T10:05:53Z</time>
      </trkpt>
      <trkpt lat="43.51762" lon="1.4133">
        <ele>137</ele>
        <time>2012-03-11T10:05:54Z</time>
      </trkpt>
      <trkpt lat="43.5176" lon="1.4133">
        <ele>137</ele>
        <time>2012-03-11T10:05:55Z</time>
      </trkpt>
      <trkpt lat="43.51759" lon="1.4133">
        <ele>137</ele>
        <time>2012-03-11T10:05:56Z</time>
      </trkpt>
      <trkpt lat="43.51758" lon="1.4133">
        <ele>137</ele>
        <time>2012-03-11T10:05:57Z</time>
      </trkpt>
      <trkpt lat="43.51756" lon="1.41331">
        <ele>136</ele>
        <time>2012-03-11T10:05:58Z</time>
      </trkpt>
      <trkpt lat="43.51755" lon="1.41331">
        <ele>136</ele>
        <time>2012-03-11T10:05:59Z</time>
      </trkpt>
      <trkpt lat="43.51753" lon="1.41332">
        <ele>136</ele>
        <time>2012-03-11T10:06:00Z</time>
      </trkpt>
      <trkpt lat="43.51752" lon="1.41332">
        <ele>135</ele>
        <time>2012-03-11T10:06:01Z</time>
      </trkpt>
      <trkpt lat="43.51751" lon="1.41332">
        <ele>135</ele>
        <time>2012-03-11T10:06:02Z</time>
      </trkpt>
      <trkpt lat="43.51748" lon="1.41334">
        <ele>135</ele>
        <time>2012-03-11T10:06:03Z</time>
      </trkpt>
      <trkpt lat="43.51747" lon="1.41335">
        <ele>135</ele>
        <time>2012-03-11T10:06:04Z</time>
      </trkpt>
      <trkpt lat="43.51746" lon="1.41335">
        <ele>135</ele>
        <time>2012-03-11T10:06:05Z</time>
      </trkpt>
      <trkpt lat="43.51744" lon="1.41336">
        <ele>135</ele>
        <time>2012-03-11T10:06:06Z</time>
      </trkpt>
      <trkpt lat="43.51743" lon="1.41337">
        <ele>135</ele>
        <time>2012-03-11T10:06:07Z</time>
      </trkpt>
      <trkpt lat="43.51742" lon="1.41337">
        <ele>135</ele>
        <time>2012-03-11T10:06:08Z</time>
      </trkpt>
      <trkpt lat="43.51741" lon="1.41339">
        <ele>135</ele>
        <time>2012-03-11T10:06:09Z</time>
      </trkpt>
      <trkpt lat="43.5174" lon="1.4134">
        <ele>135</ele>
        <time>2012-03-11T10:06:10Z</time>
      </trkpt>
      <trkpt lat="43.51738" lon="1.41342">
        <ele>135</ele>
        <time>2012-03-11T10:06:11Z</time>
      </trkpt>
      <trkpt lat="43.51737" lon="1.41343">
        <ele>135</ele>
        <time>2012-03-11T10:06:12Z</time>
      </trkpt>
      <trkpt lat="43.51736" lon="1.41345">
        <ele>135</ele>
        <time>2012-03-11T10:06:13Z</time>
      </trkpt>
      <trkpt lat="43.51734" lon="1.41346">
        <ele>135</ele>
        <time>2012-03-11T10:06:14Z</time>
      </trkpt>
      <trkpt lat="43.51733" lon="1.41347">
        <ele>134</ele>
        <time>2012-03-11T10:06:15Z</time>
      </trkpt>
      <trkpt lat="43.51732" lon="1.41348">
        <ele>134</ele>
        <time>2012-03-11T10:06:16Z</time>
      </trkpt>
      <trkpt lat="43.51731" lon="1.4135">
        <ele>134</ele>
        <time>2012-03-11T10:06:17Z</time>
      </trkpt>
      <trkpt lat="43.5173" lon="1.41351">
        <ele>133</ele>
        <time>2012-03-11T10:06:18Z</time>
      </trkpt>
      <trkpt lat="43.51729" lon="1.41353">
        <ele>133</ele>
        <time>2012-03-11T10:06:19Z</time>
      </trkpt>
      <trkpt lat="43.51727" lon="1.41356">
        <ele>133</ele>
        <time>2012-03-11T10:06:20Z</time>
      </trkpt>
      <trkpt lat="43.51726" lon="1.41358">
        <ele>133</ele>
        <time>2012-03-11T10:06:21Z</time>
      </trkpt>
      <trkpt lat="43.51725" lon="1.41359">
        <ele>133</ele>
        <time>2012-03-11T10:06:22Z</time>
      </trkpt>
      <trkpt lat="43.51724" lon="1.41361">
        <ele>133</ele>
        <time>2012-03-11T10:06:23Z</time>
      </trkpt>
      <trkpt lat="43.51723" lon="1.41363">
        <ele>133</ele>
        <time>2012-03-11T10:06:24Z</time>
      </trkpt>
      <trkpt lat="43.51722" lon="1.41365">
        <ele>133</ele>
        <time>2012-03-11T10:06:25Z</time>
      </trkpt>
      <trkpt lat="43.51721" lon="1.41366">
        <ele>133</ele>
        <time>2012-03-11T10:06:26Z</time>
      </trkpt>
      <trkpt lat="43.5172" lon="1.41368">
        <ele>133</ele>
        <time>2012-03-11T10:06:27Z</time>
      </trkpt>
      <trkpt lat="43.51718" lon="1.4137">
        <ele>133</ele>
        <time>2012-03-11T10:06:29Z</time>
      </trkpt>
      <trkpt lat="43.51717" lon="1.41373">
        <ele>133</ele>
        <time>2012-03-11T10:06:30Z</time>
      </trkpt>
      <trkpt lat="43.51715" lon="1.41376">
        <ele>133</ele>
        <time>2012-03-11T10:06:31Z</time>
      </trkpt>
      <trkpt lat="43.51714" lon="1.41377">
        <ele>133</ele>
        <time>2012-03-11T10:06:32Z</time>
      </trkpt>
      <trkpt lat="43.51713" lon="1.41378">
        <ele>133</ele>
        <time>2012-03-11T10:06:33Z</time>
      </trkpt>
      <trkpt lat="43.51712" lon="1.4138">
        <ele>133</ele>
        <time>2012-03-11T10:06:34Z</time>
      </trkpt>
      <trkpt lat="43.51711" lon="1.41381">
        <ele>133</ele>
        <time>2012-03-11T10:06:35Z</time>
      </trkpt>
      <trkpt lat="43.51709" lon="1.41382">
        <ele>133</ele>
        <time>2012-03-11T10:06:36Z</time>
      </trkpt>
      <trkpt lat="43.51707" lon="1.41383">
        <ele>133</ele>
        <time>2012-03-11T10:06:37Z</time>
      </trkpt>
      <trkpt lat="43.51706" lon="1.41385">
        <ele>133</ele>
        <time>2012-03-11T10:06:38Z</time>
      </trkpt>
      <trkpt lat="43.51704" lon="1.41386">
        <ele>133</ele>
        <time>2012-03-11T10:06:39Z</time>
      </trkpt>
      <trkpt lat="43.51703" lon="1.41386">
        <ele>133</ele>
        <time>2012-03-11T10:06:40Z</time>
      </trkpt>
      <trkpt lat="43.51701" lon="1.41387">
        <ele>133</ele>
        <time>2012-03-11T10:06:41Z</time>
      </trkpt>
      <trkpt lat="43.51699" lon="1.41387">
        <ele>133</ele>
        <time>2012-03-11T10:06:42Z</time>
      </trkpt>
      <trkpt lat="43.51698" lon="1.41387">
        <ele>133</ele>
        <time>2012-03-11T10:06:43Z</time>
      </trkpt>
      <trkpt lat="43.51696" lon="1.41387">
        <ele>133</ele>
        <time>2012-03-11T10:06:44Z</time>
      </trkpt>
      <trkpt lat="43.51695" lon="1.41387">
        <ele>133</ele>
        <time>2012-03-11T10:06:45Z</time>
      </trkpt>
      <trkpt lat="43.51693" lon="1.41386">
        <ele>133</ele>
        <time>2012-03-11T10:06:46Z</time>
      </trkpt>
      <trkpt lat="43.51691" lon="1.41386">
        <ele>133</ele>
        <time>2012-03-11T10:06:47Z</time>
      </trkpt>
      <trkpt lat="43.5169" lon="1.41386">
        <ele>133</ele>
        <time>2012-03-11T10:06:48Z</time>
      </trkpt>
      <trkpt lat="43.51688" lon="1.41385">
        <ele>133</ele>
        <time>2012-03-11T10:06:49Z</time>
      </trkpt>
      <trkpt lat="43.51686" lon="1.41385">
        <ele>133</ele>
        <time>2012-03-11T10:06:50Z</time>
      </trkpt>
      <trkpt lat="43.51685" lon="1.41384">
        <ele>133</ele>
        <time>2012-03-11T10:06:51Z</time>
      </trkpt>
      <trkpt lat="43.51683" lon="1.41384">
        <ele>133</ele>
        <time>2012-03-11T10:06:52Z</time>
      </trkpt>
      <trkpt lat="43.51682" lon="1.41383">
        <ele>133</ele>
        <time>2012-03-11T10:06:53Z</time>
      </trkpt>
      <trkpt lat="43.5168" lon="1.41382">
        <ele>133</ele>
        <time>2012-03-11T10:06:54Z</time>
      </trkpt>
      <trkpt lat="43.51678" lon="1.41381">
        <ele>133</ele>
        <time>2012-03-11T10:06:55Z</time>
      </trkpt>
      <trkpt lat="43.51677" lon="1.41381">
        <ele>133</ele>
        <time>2012-03-11T10:06:56Z</time>
      </trkpt>
      <trkpt lat="43.51675" lon="1.4138">
        <ele>133</ele>
        <time>2012-03-11T10:06:57Z</time>
      </trkpt>
      <trkpt lat="43.51674" lon="1.41379">
        <ele>133</ele>
        <time>2012-03-11T10:06:58Z</time>
      </trkpt>
      <trkpt lat="43.51672" lon="1.41378">
        <ele>133</ele>
        <time>2012-03-11T10:06:59Z</time>
      </trkpt>
      <trkpt lat="43.5167" lon="1.41378">
        <ele>133</ele>
        <time>2012-03-11T10:07:00Z</time>
      </trkpt>
      <trkpt lat="43.51669" lon="1.41377">
        <ele>133</ele>
        <time>2012-03-11T10:07:01Z</time>
      </trkpt>
      <trkpt lat="43.51667" lon="1.41376">
        <ele>133</ele>
        <time>2012-03-11T10:07:02Z</time>
      </trkpt>
      <trkpt lat="43.51665" lon="1.41375">
        <ele>133</ele>
        <time>2012-03-11T10:07:03Z</time>
      </trkpt>
      <trkpt lat="43.51664" lon="1.41374">
        <ele>133</ele>
        <time>2012-03-11T10:07:04Z</time>
      </trkpt>
      <trkpt lat="43.51662" lon="1.41374">
        <ele>133</ele>
        <time>2012-03-11T10:07:05Z</time>
      </trkpt>
      <trkpt lat="43.51661" lon="1.41373">
        <ele>133</ele>
        <time>2012-03-11T10:07:06Z</time>
      </trkpt>
      <trkpt lat="43.51659" lon="1.41372">
        <ele>133</ele>
        <time>2012-03-11T10:07:07Z</time>
      </trkpt>
      <trkpt lat="43.51658" lon="1.41371">
        <ele>133</ele>
        <time>2012-03-11T10:07:08Z</time>
      </trkpt>
      <trkpt lat="43.51656" lon="1.4137">
        <ele>133</ele>
        <time>2012-03-11T10:07:09Z</time>
      </trkpt>
      <trkpt lat="43.51655" lon="1.41369">
        <ele>133</ele>
        <time>2012-03-11T10:07:10Z</time>
      </trkpt>
      <trkpt lat="43.51654" lon="1.41368">
        <ele>133</ele>
        <time>2012-03-11T10:07:11Z</time>
      </trkpt>
      <trkpt lat="43.51652" lon="1.41367">
        <ele>133</ele>
        <time>2012-03-11T10:07:12Z</time>
      </trkpt>
      <trkpt lat="43.51651" lon="1.41367">
        <ele>133</ele>
        <time>2012-03-11T10:07:13Z</time>
      </trkpt>
      <trkpt lat="43.51649" lon="1.41366">
        <ele>133</ele>
        <time>2012-03-11T10:07:14Z</time>
      </trkpt>
      <trkpt lat="43.51648" lon="1.41365">
        <ele>133</ele>
        <time>2012-03-11T10:07:15Z</time>
      </trkpt>
      <trkpt lat="43.51646" lon="1.41364">
        <ele>133</ele>
        <time>2012-03-11T10:07:16Z</time>
      </trkpt>
      <trkpt lat="43.51644" lon="1.41363">
        <ele>133</ele>
        <time>2012-03-11T10:07:17Z</time>
      </trkpt>
      <trkpt lat="43.51643" lon="1.41361">
        <ele>133</ele>
        <time>2012-03-11T10:07:18Z</time>
      </trkpt>
      <trkpt lat="43.51641" lon="1.4136">
        <ele>133</ele>
        <time>2012-03-11T10:07:19Z</time>
      </trkpt>
      <trkpt lat="43.5164" lon="1.4136">
        <ele>133</ele>
        <time>2012-03-11T10:07:20Z</time>
      </trkpt>
      <trkpt lat="43.51638" lon="1.41358">
        <ele>133</ele>
        <time>2012-03-11T10:07:21Z</time>
      </trkpt>
      <trkpt lat="43.51637" lon="1.41358">
        <ele>133</ele>
        <time>2012-03-11T10:07:22Z</time>
      </trkpt>
      <trkpt lat="43.51635" lon="1.41357">
        <ele>133</ele>
        <time>2012-03-11T10:07:23Z</time>
      </trkpt>
      <trkpt lat="43.51634" lon="1.41356">
        <ele>133</ele>
        <time>2012-03-11T10:07:24Z</time>
      </trkpt>
      <trkpt lat="43.51633" lon="1.41355">
        <ele>133</ele>
        <time>2012-03-11T10:07:25Z</time>
      </trkpt>
      <trkpt lat="43.51631" lon="1.41354">
        <ele>133</ele>
        <time>2012-03-11T10:07:26Z</time>
      </trkpt>
      <trkpt lat="43.5163" lon="1.41353">
        <ele>133</ele>
        <time>2012-03-11T10:07:27Z</time>
      </trkpt>
      <trkpt lat="43.51628" lon="1.41352">
        <ele>133</ele>
        <time>2012-03-11T10:07:28Z</time>
      </trkpt>
      <trkpt lat="43.51627" lon="1.41351">
        <ele>133</ele>
        <time>2012-03-11T10:07:29Z</time>
      </trkpt>
      <trkpt lat="43.51626" lon="1.4135">
        <ele>133</ele>
        <time>2012-03-11T10:07:30Z</time>
      </trkpt>
      <trkpt lat="43.51625" lon="1.41349">
        <ele>133</ele>
        <time>2012-03-11T10:07:31Z</time>
      </trkpt>
      <trkpt lat="43.51623" lon="1.41348">
        <ele>133</ele>
        <time>2012-03-11T10:07:32Z</time>
      </trkpt>
      <trkpt lat="43.51622" lon="1.41347">
        <ele>133</ele>
        <time>2012-03-11T10:07:33Z</time>
      </trkpt>
      <trkpt lat="43.51621" lon="1.41346">
        <ele>133</ele>
        <time>2012-03-11T10:07:34Z</time>
      </trkpt>
      <trkpt lat="43.51619" lon="1.41345">
        <ele>133</ele>
        <time>2012-03-11T10:07:35Z</time>
      </trkpt>
      <trkpt lat="43.51618" lon="1.41345">
        <ele>133</ele>
        <time>2012-03-11T10:07:36Z</time>
      </trkpt>
      <trkpt lat="43.51616" lon="1.41344">
        <ele>133</ele>
        <time>2012-03-11T10:07:37Z</time>
      </trkpt>
      <trkpt lat="43.51615" lon="1.41344">
        <ele>133</ele>
        <time>2012-03-11T10:07:38Z</time>
      </trkpt>
      <trkpt lat="43.51613" lon="1.41343">
        <ele>133</ele>
        <time>2012-03-11T10:07:39Z</time>
      </trkpt>
      <trkpt lat="43.51612" lon="1.41342">
        <ele>133</ele>
        <time>2012-03-11T10:07:40Z</time>
      </trkpt>
      <trkpt lat="43.51611" lon="1.41341">
        <ele>133</ele>
        <time>2012-03-11T10:07:41Z</time>
      </trkpt>
      <trkpt lat="43.51609" lon="1.41338">
        <ele>133</ele>
        <time>2012-03-11T10:07:43Z</time>
      </trkpt>
      <trkpt lat="43.51608" lon="1.41337">
        <ele>133</ele>
        <time>2012-03-11T10:07:44Z</time>
      </trkpt>
      <trkpt lat="43.51607" lon="1.41335">
        <ele>133</ele>
        <time>2012-03-11T10:07:45Z</time>
      </trkpt>
      <trkpt lat="43.51604" lon="1.41333">
        <ele>133</ele>
        <time>2012-03-11T10:07:47Z</time>
      </trkpt>
      <trkpt lat="43.51603" lon="1.41332">
        <ele>133</ele>
        <time>2012-03-11T10:07:48Z</time>
      </trkpt>
      <trkpt lat="43.51602" lon="1.41332">
        <ele>133</ele>
        <time>2012-03-11T10:07:49Z</time>
      </trkpt>
      <trkpt lat="43.51601" lon="1.41332">
        <ele>133</ele>
        <time>2012-03-11T10:07:50Z</time>
      </trkpt>
      <trkpt lat="43.51599" lon="1.41332">
        <ele>133</ele>
        <time>2012-03-11T10:07:51Z</time>
      </trkpt>
      <trkpt lat="43.51597" lon="1.41332">
        <ele>133</ele>
        <time>2012-03-11T10:07:52Z</time>
      </trkpt>
      <trkpt lat="43.51596" lon="1.41332">
        <ele>133</ele>
        <time>2012-03-11T10:07:53Z</time>
      </trkpt>
      <trkpt lat="43.51595" lon="1.41333">
        <ele>133</ele>
        <time>2012-03-11T10:07:54Z</time>
      </trkpt>
      <trkpt lat="43.51593" lon="1.41334">
        <ele>133</ele>
        <time>2012-03-11T10:07:55Z</time>
      </trkpt>
      <trkpt lat="43.51592" lon="1.41334">
        <ele>133</ele>
        <time>2012-03-11T10:07:56Z</time>
      </trkpt>
      <trkpt lat="43.5159" lon="1.41334">
        <ele>133</ele>
        <time>2012-03-11T10:07:57Z</time>
      </trkpt>
      <trkpt lat="43.51589" lon="1.41334">
        <ele>133</ele>
        <time>2012-03-11T10:07:58Z</time>
      </trkpt>
      <trkpt lat="43.51588" lon="1.41334">
        <ele>133</ele>
        <time>2012-03-11T10:07:59Z</time>
      </trkpt>
      <trkpt lat="43.51586" lon="1.41334">
        <ele>133</ele>
        <time>2012-03-11T10:08:00Z</time>
      </trkpt>
      <trkpt lat="43.51585" lon="1.41334">
        <ele>133</ele>
        <time>2012-03-11T10:08:01Z</time>
      </trkpt>
      <trkpt lat="43.51583" lon="1.41334">
        <ele>133</ele>
        <time>2012-03-11T10:08:02Z</time>
      </trkpt>
      <trkpt lat="43.51582" lon="1.41334">
        <ele>133</ele>
        <time>2012-03-11T10:08:03Z</time>
      </trkpt>
      <trkpt lat="43.5158" lon="1.41334">
        <ele>133</ele>
        <time>2012-03-11T10:08:04Z</time>
      </trkpt>
      <trkpt lat="43.51578" lon="1.41334">
        <ele>133</ele>
        <time>2012-03-11T10:08:05Z</time>
      </trkpt>
      <trkpt lat="43.51577" lon="1.41334">
        <ele>133</ele>
        <time>2012-03-11T10:08:06Z</time>
      </trkpt>
      <trkpt lat="43.51575" lon="1.41334">
        <ele>133</ele>
        <time>2012-03-11T10:08:07Z</time>
      </trkpt>
      <trkpt lat="43.51574" lon="1.41333">
        <ele>133</ele>
        <time>2012-03-11T10:08:08Z</time>
      </trkpt>
      <trkpt lat="43.51572" lon="1.41332">
        <ele>133</ele>
        <time>2012-03-11T10:08:09Z</time>
      </trkpt>
      <trkpt lat="43.51571" lon="1.41332">
        <ele>133</ele>
        <time>2012-03-11T10:08:10Z</time>
      </trkpt>
      <trkpt lat="43.51569" lon="1.41332">
        <ele>133</ele>
        <time>2012-03-11T10:08:11Z</time>
      </trkpt>
      <trkpt lat="43.51568" lon="1.41332">
        <ele>133</ele>
        <time>2012-03-11T10:08:12Z</time>
      </trkpt>
      <trkpt lat="43.51566" lon="1.41332">
        <ele>133</ele>
        <time>2012-03-11T10:08:13Z</time>
      </trkpt>
      <trkpt lat="43.51565" lon="1.41332">
        <ele>133</ele>
        <time>2012-03-11T10:08:14Z</time>
      </trkpt>
      <trkpt lat="43.51564" lon="1.41333">
        <ele>133</ele>
        <time>2012-03-11T10:08:15Z</time>
      </trkpt>
      <trkpt lat="43.51562" lon="1.41333">
        <ele>133</ele>
        <time>2012-03-11T10:08:16Z</time>
      </trkpt>
      <trkpt lat="43.51561" lon="1.41333">
        <ele>133</ele>
        <time>2012-03-11T10:08:17Z</time>
      </trkpt>
      <trkpt lat="43.51559" lon="1.41333">
        <ele>133</ele>
        <time>2012-03-11T10:08:18Z</time>
      </trkpt>
      <trkpt lat="43.51558" lon="1.41333">
        <ele>133</ele>
        <time>2012-03-11T10:08:19Z</time>
      </trkpt>
      <trkpt lat="43.51557" lon="1.41333">
        <ele>133</ele>
        <time>2012-03-11T10:08:20Z</time>
      </trkpt>
      <trkpt lat="43.51555" lon="1.41334">
        <ele>133</ele>
        <time>2012-03-11T10:08:21Z</time>
      </trkpt>
      <trkpt lat="43.51553" lon="1.41335">
        <ele>133</ele>
        <time>2012-03-11T10:08:22Z</time>
      </trkpt>
      <trkpt lat="43.51552" lon="1.41335">
        <ele>133</ele>
        <time>2012-03-11T10:08:23Z</time>
      </trkpt>
      <trkpt lat="43.51551" lon="1.41336">
        <ele>133</ele>
        <time>2012-03-11T10:08:24Z</time>
      </trkpt>
      <trkpt lat="43.51549" lon="1.41337">
        <ele>133</ele>
        <time>2012-03-11T10:08:25Z</time>
      </trkpt>
      <trkpt lat="43.51548" lon="1.41338">
        <ele>133</ele>
        <time>2012-03-11T10:08:26Z</time>
      </trkpt>
      <trkpt lat="43.51546" lon="1.41338">
        <ele>133</ele>
        <time>2012-03-11T10:08:27Z</time>
      </trkpt>
      <trkpt lat="43.51545" lon="1.41338">
        <ele>133</ele>
        <time>2012-03-11T10:08:28Z</time>
      </trkpt>
      <trkpt lat="43.51543" lon="1.41338">
        <ele>133</ele>
        <time>2012-03-11T10:08:29Z</time>
      </trkpt>
      <trkpt lat="43.51542" lon="1.41337">
        <ele>133</ele>
        <time>2012-03-11T10:08:30Z</time>
      </trkpt>
      <trkpt lat="43.51541" lon="1.41337">
        <ele>133</ele>
        <time>2012-03-11T10:08:31Z</time>
      </trkpt>
      <trkpt lat="43.51539" lon="1.41336">
        <ele>133</ele>
        <time>2012-03-11T10:08:32Z</time>
      </trkpt>
      <trkpt lat="43.51538" lon="1.41334">
        <ele>133</ele>
        <time>2012-03-11T10:08:33Z</time>
      </trkpt>
      <trkpt lat="43.51537" lon="1.41332">
        <ele>133</ele>
        <time>2012-03-11T10:08:34Z</time>
      </trkpt>
      <trkpt lat="43.51536" lon="1.41331">
        <ele>133</ele>
        <time>2012-03-11T10:08:35Z</time>
      </trkpt>
      <trkpt lat="43.51535" lon="1.41329">
        <ele>133</ele>
        <time>2012-03-11T10:08:36Z</time>
      </trkpt>
      <trkpt lat="43.51534" lon="1.41328">
        <ele>133</ele>
        <time>2012-03-11T10:08:37Z</time>
      </trkpt>
      <trkpt lat="43.51532" lon="1.41326">
        <ele>133</ele>
        <time>2012-03-11T10:08:38Z</time>
      </trkpt>
      <trkpt lat="43.51531" lon="1.41325">
        <ele>133</ele>
        <time>2012-03-11T10:08:39Z</time>
      </trkpt>
      <trkpt lat="43.5153" lon="1.41324">
        <ele>133</ele>
        <time>2012-03-11T10:08:40Z</time>
      </trkpt>
      <trkpt lat="43.51528" lon="1.41323">
        <ele>133</ele>
        <time>2012-03-11T10:08:41Z</time>
      </trkpt>
      <trkpt lat="43.51527" lon="1.41322">
        <ele>133</ele>
        <time>2012-03-11T10:08:42Z</time>
      </trkpt>
      <trkpt lat="43.51526" lon="1.41321">
        <ele>133</ele>
        <time>2012-03-11T10:08:43Z</time>
      </trkpt>
      <trkpt lat="43.51524" lon="1.4132">
        <ele>133</ele>
        <time>2012-03-11T10:08:44Z</time>
      </trkpt>
      <trkpt lat="43.51524" lon="1.41318">
        <ele>133</ele>
        <time>2012-03-11T10:08:45Z</time>
      </trkpt>
      <trkpt lat="43.51523" lon="1.41316">
        <ele>133</ele>
        <time>2012-03-11T10:08:46Z</time>
      </trkpt>
      <trkpt lat="43.51522" lon="1.41314">
        <ele>133</ele>
        <time>2012-03-11T10:08:47Z</time>
      </trkpt>
      <trkpt lat="43.51522" lon="1.41312">
        <ele>133</ele>
        <time>2012-03-11T10:08:48Z</time>
      </trkpt>
      <trkpt lat="43.51522" lon="1.4131">
        <ele>133</ele>
        <time>2012-03-11T10:08:49Z</time>
      </trkpt>
      <trkpt lat="43.51521" lon="1.41307">
        <ele>133</ele>
        <time>2012-03-11T10:08:51Z</time>
      </trkpt>
      <trkpt lat="43.5152" lon="1.41306">
        <ele>133</ele>
        <time>2012-03-11T10:08:52Z</time>
      </trkpt>
      <trkpt lat="43.51519" lon="1.41303">
        <ele>133</ele>
        <time>2012-03-11T10:08:54Z</time>
      </trkpt>
      <trkpt lat="43.51517" lon="1.41301">
        <ele>133</ele>
        <time>2012-03-11T10:08:56Z</time>
      </trkpt>
      <trkpt lat="43.51516" lon="1.413">
        <ele>133</ele>
        <time>2012-03-11T10:08:57Z</time>
      </trkpt>
      <trkpt lat="43.51515" lon="1.41299">
        <ele>133</ele>
        <time>2012-03-11T10:08:58Z</time>
      </trkpt>
      <trkpt lat="43.51514" lon="1.41298">
        <ele>133</ele>
        <time>2012-03-11T10:08:59Z</time>
      </trkpt>
      <trkpt lat="43.51512" lon="1.41296">
        <ele>133</ele>
        <time>2012-03-11T10:09:01Z</time>
      </trkpt>
      <trkpt lat="43.5151" lon="1.41294">
        <ele>133</ele>
        <time>2012-03-11T10:09:03Z</time>
      </trkpt>
      <trkpt lat="43.51508" lon="1.41291">
        <ele>133</ele>
        <time>2012-03-11T10:09:05Z</time>
      </trkpt>
      <trkpt lat="43.51507" lon="1.41289">
        <ele>133</ele>
        <time>2012-03-11T10:09:07Z</time>
      </trkpt>
      <trkpt lat="43.51505" lon="1.41287">
        <ele>133</ele>
        <time>2012-03-11T10:09:09Z</time>
      </trkpt>
      <trkpt lat="43.51503" lon="1.41285">
        <ele>133</ele>
        <time>2012-03-11T10:09:11Z</time>
      </trkpt>
      <trkpt lat="43.51502" lon="1.41284">
        <ele>133</ele>
        <time>2012-03-11T10:09:12Z</time>
      </trkpt>
      <trkpt lat="43.51501" lon="1.41283">
        <ele>133</ele>
        <time>2012-03-11T10:09:13Z</time>
      </trkpt>
      <trkpt lat="43.515" lon="1.41283">
        <ele>133</ele>
        <time>2012-03-11T10:09:14Z</time>
      </trkpt>
      <trkpt lat="43.51499" lon="1.41282">
        <ele>133</ele>
        <time>2012-03-11T10:09:15Z</time>
      </trkpt>
      <trkpt lat="43.51497" lon="1.41282">
        <ele>133</ele>
        <time>2012-03-11T10:09:16Z</time>
      </trkpt>
      <trkpt lat="43.51496" lon="1.41281">
        <ele>133</ele>
        <time>2012-03-11T10:09:17Z</time>
      </trkpt>
      <trkpt lat="43.51495" lon="1.4128">
        <ele>133</ele>
        <time>2012-03-11T10:09:18Z</time>
      </trkpt>
      <trkpt lat="43.51493" lon="1.41278">
        <ele>133</ele>
        <time>2012-03-11T10:09:20Z</time>
      </trkpt>
      <trkpt lat="43.51492" lon="1.41277">
        <ele>133</ele>
        <time>2012-03-11T10:09:21Z</time>
      </trkpt>
      <trkpt lat="43.5149" lon="1.41277">
        <ele>133</ele>
        <time>2012-03-11T10:09:22Z</time>
      </trkpt>
      <trkpt lat="43.51489" lon="1.41274">
        <ele>134</ele>
        <time>2012-03-11T10:09:24Z</time>
      </trkpt>
      <trkpt lat="43.51488" lon="1.41272">
        <ele>134</ele>
        <time>2012-03-11T10:09:26Z</time>
      </trkpt>
      <trkpt lat="43.51488" lon="1.41273">
        <ele>134</ele>
        <time>2012-03-11T10:09:34Z</time>
      </trkpt>
      <trkpt lat="43.51487" lon="1.41276">
        <ele>134</ele>
        <time>2012-03-11T10:09:36Z</time>
      </trkpt>
      <trkpt lat="43.51488" lon="1.41277">
        <ele>134</ele>
        <time>2012-03-11T10:09:38Z</time>
      </trkpt>
      <trkpt lat="43.51489" lon="1.41278">
        <ele>134</ele>
        <time>2012-03-11T10:09:40Z</time>
      </trkpt>
      <trkpt lat="43.51492" lon="1.4128">
        <ele>134</ele>
        <time>2012-03-11T10:09:42Z</time>
      </trkpt>
      <trkpt lat="43.51493" lon="1.41281">
        <ele>134</ele>
        <time>2012-03-11T10:09:44Z</time>
      </trkpt>
      <trkpt lat="43.51495" lon="1.41282">
        <ele>134</ele>
        <time>2012-03-11T10:09:46Z</time>
      </trkpt>
      <trkpt lat="43.51497" lon="1.41282">
        <ele>134</ele>
        <time>2012-03-11T10:09:47Z</time>
      </trkpt>
      <trkpt lat="43.51498" lon="1.41283">
        <ele>134</ele>
        <time>2012-03-11T10:09:48Z</time>
      </trkpt>
      <trkpt lat="43.51499" lon="1.41283">
        <ele>134</ele>
        <time>2012-03-11T10:09:49Z</time>
      </trkpt>
      <trkpt lat="43.515" lon="1.41284">
        <ele>134</ele>
        <time>2012-03-11T10:09:50Z</time>
      </trkpt>
      <trkpt lat="43.51502" lon="1.41285">
        <ele>134</ele>
        <time>2012-03-11T10:09:52Z</time>
      </trkpt>
      <trkpt lat="43.51504" lon="1.41288">
        <ele>134</ele>
        <time>2012-03-11T10:09:54Z</time>
      </trkpt>
      <trkpt lat="43.51505" lon="1.4129">
        <ele>134</ele>
        <time>2012-03-11T10:09:56Z</time>
      </trkpt>
      <trkpt lat="43.51506" lon="1.41292">
        <ele>134</ele>
        <time>2012-03-11T10:09:57Z</time>
      </trkpt>
      <trkpt lat="43.51508" lon="1.41293">
        <ele>134</ele>
        <time>2012-03-11T10:09:59Z</time>
      </trkpt>
      <trkpt lat="43.51509" lon="1.41294">
        <ele>134</ele>
        <time>2012-03-11T10:10:00Z</time>
      </trkpt>
      <trkpt lat="43.51511" lon="1.41296">
        <ele>134</ele>
        <time>2012-03-11T10:10:02Z</time>
      </trkpt>
      <trkpt lat="43.51512" lon="1.41298">
        <ele>134</ele>
        <time>2012-03-11T10:10:04Z</time>
      </trkpt>
      <trkpt lat="43.51514" lon="1.413">
        <ele>134</ele>
        <time>2012-03-11T10:10:06Z</time>
      </trkpt>
      <trkpt lat="43.51516" lon="1.41301">
        <ele>134</ele>
        <time>2012-03-11T10:10:07Z</time>
      </trkpt>
      <trkpt lat="43.51517" lon="1.41303">
        <ele>134</ele>
        <time>2012-03-11T10:10:09Z</time>
      </trkpt>
      <trkpt lat="43.51518" lon="1.41305">
        <ele>134</ele>
        <time>2012-03-11T10:10:10Z</time>
      </trkpt>
      <trkpt lat="43.51519" lon="1.41307">
        <ele>134</ele>
        <time>2012-03-11T10:10:12Z</time>
      </trkpt>
      <trkpt lat="43.5152" lon="1.41309">
        <ele>134</ele>
        <time>2012-03-11T10:10:14Z</time>
      </trkpt>
      <trkpt lat="43.5152" lon="1.41311">
        <ele>134</ele>
        <time>2012-03-11T10:10:15Z</time>
      </trkpt>
      <trkpt lat="43.51521" lon="1.41313">
        <ele>134</ele>
        <time>2012-03-11T10:10:17Z</time>
      </trkpt>
      <trkpt lat="43.51522" lon="1.41315">
        <ele>134</ele>
        <time>2012-03-11T10:10:18Z</time>
      </trkpt>
      <trkpt lat="43.51522" lon="1.41316">
        <ele>134</ele>
        <time>2012-03-11T10:10:19Z</time>
      </trkpt>
      <trkpt lat="43.51522" lon="1.41318">
        <ele>134</ele>
        <time>2012-03-11T10:10:20Z</time>
      </trkpt>
      <trkpt lat="43.51523" lon="1.41319">
        <ele>134</ele>
        <time>2012-03-11T10:10:21Z</time>
      </trkpt>
      <trkpt lat="43.51524" lon="1.41321">
        <ele>134</ele>
        <time>2012-03-11T10:10:22Z</time>
      </trkpt>
      <trkpt lat="43.51525" lon="1.41322">
        <ele>134</ele>
        <time>2012-03-11T10:10:23Z</time>
      </trkpt>
      <trkpt lat="43.51526" lon="1.41323">
        <ele>134</ele>
        <time>2012-03-11T10:10:24Z</time>
      </trkpt>
      <trkpt lat="43.51528" lon="1.41326">
        <ele>134</ele>
        <time>2012-03-11T10:10:26Z</time>
      </trkpt>
      <trkpt lat="43.51529" lon="1.41327">
        <ele>134</ele>
        <time>2012-03-11T10:10:27Z</time>
      </trkpt>
      <trkpt lat="43.51529" lon="1.41329">
        <ele>134</ele>
        <time>2012-03-11T10:10:28Z</time>
      </trkpt>
      <trkpt lat="43.51531" lon="1.41331">
        <ele>134</ele>
        <time>2012-03-11T10:10:30Z</time>
      </trkpt>
      <trkpt lat="43.51533" lon="1.41334">
        <ele>134</ele>
        <time>2012-03-11T10:10:32Z</time>
      </trkpt>
      <trkpt lat="43.51534" lon="1.41335">
        <ele>134</ele>
        <time>2012-03-11T10:10:33Z</time>
      </trkpt>
      <trkpt lat="43.51536" lon="1.41338">
        <ele>134</ele>
        <time>2012-03-11T10:10:35Z</time>
      </trkpt>
      <trkpt lat="43.51538" lon="1.41341">
        <ele>134</ele>
        <time>2012-03-11T10:10:37Z</time>
      </trkpt>
      <trkpt lat="43.51538" lon="1.41343">
        <ele>134</ele>
        <time>2012-03-11T10:10:38Z</time>
      </trkpt>
      <trkpt lat="43.51538" lon="1.41344">
        <ele>134</ele>
        <time>2012-03-11T10:10:39Z</time>
      </trkpt>
      <trkpt lat="43.51538" lon="1.41346">
        <ele>134</ele>
        <time>2012-03-11T10:10:40Z</time>
      </trkpt>
      <trkpt lat="43.51538" lon="1.41348">
        <ele>134</ele>
        <time>2012-03-11T10:10:41Z</time>
      </trkpt>
      <trkpt lat="43.51537" lon="1.4135">
        <ele>134</ele>
        <time>2012-03-11T10:10:42Z</time>
      </trkpt>
      <trkpt lat="43.51537" lon="1.41352">
        <ele>134</ele>
        <time>2012-03-11T10:10:43Z</time>
      </trkpt>
      <trkpt lat="43.51537" lon="1.41354">
        <ele>134</ele>
        <time>2012-03-11T10:10:44Z</time>
      </trkpt>
      <trkpt lat="43.51536" lon="1.41357">
        <ele>134</ele>
        <time>2012-03-11T10:10:45Z</time>
      </trkpt>
      <trkpt lat="43.51535" lon="1.41359">
        <ele>134</ele>
        <time>2012-03-11T10:10:46Z</time>
      </trkpt>
      <trkpt lat="43.51535" lon="1.41361">
        <ele>134</ele>
        <time>2012-03-11T10:10:47Z</time>
      </trkpt>
      <trkpt lat="43.51534" lon="1.41364">
        <ele>134</ele>
        <time>2012-03-11T10:10:48Z</time>
      </trkpt>
      <trkpt lat="43.51534" lon="1.41366">
        <ele>134</ele>
        <time>2012-03-11T10:10:49Z</time>
      </trkpt>
      <trkpt lat="43.51533" lon="1.41368">
        <ele>134</ele>
        <time>2012-03-11T10:10:50Z</time>
      </trkpt>
      <trkpt lat="43.51533" lon="1.4137">
        <ele>134</ele>
        <time>2012-03-11T10:10:51Z</time>
      </trkpt>
      <trkpt lat="43.51532" lon="1.41372">
        <ele>134</ele>
        <time>2012-03-11T10:10:52Z</time>
      </trkpt>
      <trkpt lat="43.51532" lon="1.41374">
        <ele>134</ele>
        <time>2012-03-11T10:10:53Z</time>
      </trkpt>
      <trkpt lat="43.51531" lon="1.41376">
        <ele>134</ele>
        <time>2012-03-11T10:10:54Z</time>
      </trkpt>
      <trkpt lat="43.5153" lon="1.41379">
        <ele>134</ele>
        <time>2012-03-11T10:10:55Z</time>
      </trkpt>
      <trkpt lat="43.5153" lon="1.41382">
        <ele>134</ele>
        <time>2012-03-11T10:10:56Z</time>
      </trkpt>
      <trkpt lat="43.51529" lon="1.41384">
        <ele>134</ele>
        <time>2012-03-11T10:10:57Z</time>
      </trkpt>
      <trkpt lat="43.51529" lon="1.41386">
        <ele>134</ele>
        <time>2012-03-11T10:10:58Z</time>
      </trkpt>
      <trkpt lat="43.51529" lon="1.41388">
        <ele>134</ele>
        <time>2012-03-11T10:10:59Z</time>
      </trkpt>
      <trkpt lat="43.51529" lon="1.4139">
        <ele>134</ele>
        <time>2012-03-11T10:11:00Z</time>
      </trkpt>
      <trkpt lat="43.51529" lon="1.41392">
        <ele>134</ele>
        <time>2012-03-11T10:11:01Z</time>
      </trkpt>
      <trkpt lat="43.51528" lon="1.41394">
        <ele>134</ele>
        <time>2012-03-11T10:11:02Z</time>
      </trkpt>
      <trkpt lat="43.51528" lon="1.41396">
        <ele>134</ele>
        <time>2012-03-11T10:11:03Z</time>
      </trkpt>
      <trkpt lat="43.51528" lon="1.41399">
        <ele>134</ele>
        <time>2012-03-11T10:11:04Z</time>
      </trkpt>
      <trkpt lat="43.51528" lon="1.41401">
        <ele>134</ele>
        <time>2012-03-11T10:11:05Z</time>
      </trkpt>
      <trkpt lat="43.51528" lon="1.41402">
        <ele>134</ele>
        <time>2012-03-11T10:11:06Z</time>
      </trkpt>
      <trkpt lat="43.51528" lon="1.41405">
        <ele>134</ele>
        <time>2012-03-11T10:11:07Z</time>
      </trkpt>
      <trkpt lat="43.51528" lon="1.41407">
        <ele>134</ele>
        <time>2012-03-11T10:11:08Z</time>
      </trkpt>
      <trkpt lat="43.51528" lon="1.41409">
        <ele>134</ele>
        <time>2012-03-11T10:11:09Z</time>
      </trkpt>
      <trkpt lat="43.51528" lon="1.41411">
        <ele>134</ele>
        <time>2012-03-11T10:11:10Z</time>
      </trkpt>
      <trkpt lat="43.51528" lon="1.41413">
        <ele>134</ele>
        <time>2012-03-11T10:11:11Z</time>
      </trkpt>
      <trkpt lat="43.51528" lon="1.41415">
        <ele>134</ele>
        <time>2012-03-11T10:11:12Z</time>
      </trkpt>
      <trkpt lat="43.51528" lon="1.41417">
        <ele>134</ele>
        <time>2012-03-11T10:11:13Z</time>
      </trkpt>
      <trkpt lat="43.51529" lon="1.41419">
        <ele>134</ele>
        <time>2012-03-11T10:11:14Z</time>
      </trkpt>
      <trkpt lat="43.51529" lon="1.4142">
        <ele>134</ele>
        <time>2012-03-11T10:11:15Z</time>
      </trkpt>
      <trkpt lat="43.51529" lon="1.41422">
        <ele>134</ele>
        <time>2012-03-11T10:11:16Z</time>
      </trkpt>
      <trkpt lat="43.51529" lon="1.41424">
        <ele>134</ele>
        <time>2012-03-11T10:11:17Z</time>
      </trkpt>
      <trkpt lat="43.51529" lon="1.41426">
        <ele>134</ele>
        <time>2012-03-11T10:11:18Z</time>
      </trkpt>
      <trkpt lat="43.51528" lon="1.41428">
        <ele>134</ele>
        <time>2012-03-11T10:11:19Z</time>
      </trkpt>
      <trkpt lat="43.51529" lon="1.4143">
        <ele>134</ele>
        <time>2012-03-11T10:11:20Z</time>
      </trkpt>
      <trkpt lat="43.51529" lon="1.41432">
        <ele>134</ele>
        <time>2012-03-11T10:11:21Z</time>
      </trkpt>
      <trkpt lat="43.51528" lon="1.41434">
        <ele>134</ele>
        <time>2012-03-11T10:11:22Z</time>
      </trkpt>
      <trkpt lat="43.51528" lon="1.41436">
        <ele>134</ele>
        <time>2012-03-11T10:11:23Z</time>
      </trkpt>
      <trkpt lat="43.51527" lon="1.41438">
        <ele>134</ele>
        <time>2012-03-11T10:11:24Z</time>
      </trkpt>
      <trkpt lat="43.51527" lon="1.4144">
        <ele>134</ele>
        <time>2012-03-11T10:11:25Z</time>
      </trkpt>
      <trkpt lat="43.51527" lon="1.41442">
        <ele>134</ele>
        <time>2012-03-11T10:11:26Z</time>
      </trkpt>
      <trkpt lat="43.51526" lon="1.41444">
        <ele>134</ele>
        <time>2012-03-11T10:11:27Z</time>
      </trkpt>
      <trkpt lat="43.51526" lon="1.41445">
        <ele>134</ele>
        <time>2012-03-11T10:11:28Z</time>
      </trkpt>
      <trkpt lat="43.51525" lon="1.41447">
        <ele>134</ele>
        <time>2012-03-11T10:11:29Z</time>
      </trkpt>
      <trkpt lat="43.51525" lon="1.41448">
        <ele>134</ele>
        <time>2012-03-11T10:11:30Z</time>
      </trkpt>
      <trkpt lat="43.51525" lon="1.4145">
        <ele>134</ele>
        <time>2012-03-11T10:11:31Z</time>
      </trkpt>
      <trkpt lat="43.51525" lon="1.41452">
        <ele>134</ele>
        <time>2012-03-11T10:11:32Z</time>
      </trkpt>
      <trkpt lat="43.51524" lon="1.41455">
        <ele>134</ele>
        <time>2012-03-11T10:11:33Z</time>
      </trkpt>
      <trkpt lat="43.51524" lon="1.41457">
        <ele>134</ele>
        <time>2012-03-11T10:11:34Z</time>
      </trkpt>
      <trkpt lat="43.51524" lon="1.41459">
        <ele>134</ele>
        <time>2012-03-11T10:11:35Z</time>
      </trkpt>
      <trkpt lat="43.51523" lon="1.41461">
        <ele>134</ele>
        <time>2012-03-11T10:11:36Z</time>
      </trkpt>
      <trkpt lat="43.51522" lon="1.41463">
        <ele>134</ele>
        <time>2012-03-11T10:11:37Z</time>
      </trkpt>
      <trkpt lat="43.51522" lon="1.41465">
        <ele>134</ele>
        <time>2012-03-11T10:11:38Z</time>
      </trkpt>
      <trkpt lat="43.51522" lon="1.41467">
        <ele>134</ele>
        <time>2012-03-11T10:11:39Z</time>
      </trkpt>
      <trkpt lat="43.51522" lon="1.41469">
        <ele>134</ele>
        <time>2012-03-11T10:11:40Z</time>
      </trkpt>
      <trkpt lat="43.51522" lon="1.4147">
        <ele>134</ele>
        <time>2012-03-11T10:11:41Z</time>
      </trkpt>
      <trkpt lat="43.51522" lon="1.41472">
        <ele>134</ele>
        <time>2012-03-11T10:11:42Z</time>
      </trkpt>
      <trkpt lat="43.51522" lon="1.41474">
        <ele>134</ele>
        <time>2012-03-11T10:11:43Z</time>
      </trkpt>
      <trkpt lat="43.51522" lon="1.41477">
        <ele>134</ele>
        <time>2012-03-11T10:11:44Z</time>
      </trkpt>
      <trkpt lat="43.51522" lon="1.41479">
        <ele>134</ele>
        <time>2012-03-11T10:11:45Z</time>
      </trkpt>
      <trkpt lat="43.51522" lon="1.41481">
        <ele>134</ele>
        <time>2012-03-11T10:11:46Z</time>
      </trkpt>
      <trkpt lat="43.51522" lon="1.41483">
        <ele>134</ele>
        <time>2012-03-11T10:11:47Z</time>
      </trkpt>
      <trkpt lat="43.51521" lon="1.41486">
        <ele>135</ele>
        <time>2012-03-11T10:11:48Z</time>
      </trkpt>
      <trkpt lat="43.51522" lon="1.41488">
        <ele>135</ele>
        <time>2012-03-11T10:11:49Z</time>
      </trkpt>
      <trkpt lat="43.51522" lon="1.4149">
        <ele>135</ele>
        <time>2012-03-11T10:11:50Z</time>
      </trkpt>
      <trkpt lat="43.51522" lon="1.41492">
        <ele>135</ele>
        <time>2012-03-11T10:11:51Z</time>
      </trkpt>
      <trkpt lat="43.51522" lon="1.41494">
        <ele>135</ele>
        <time>2012-03-11T10:11:52Z</time>
      </trkpt>
      <trkpt lat="43.51522" lon="1.41496">
        <ele>135</ele>
        <time>2012-03-11T10:11:53Z</time>
      </trkpt>
      <trkpt lat="43.51522" lon="1.41498">
        <ele>135</ele>
        <time>2012-03-11T10:11:54Z</time>
      </trkpt>
      <trkpt lat="43.51522" lon="1.41501">
        <ele>135</ele>
        <time>2012-03-11T10:11:55Z</time>
      </trkpt>
      <trkpt lat="43.51522" lon="1.41503">
        <ele>135</ele>
        <time>2012-03-11T10:11:56Z</time>
      </trkpt>
      <trkpt lat="43.51523" lon="1.41505">
        <ele>135</ele>
        <time>2012-03-11T10:11:57Z</time>
      </trkpt>
      <trkpt lat="43.51523" lon="1.41507">
        <ele>135</ele>
        <time>2012-03-11T10:11:58Z</time>
      </trkpt>
      <trkpt lat="43.51524" lon="1.41509">
        <ele>135</ele>
        <time>2012-03-11T10:11:59Z</time>
      </trkpt>
      <trkpt lat="43.51524" lon="1.41511">
        <ele>135</ele>
        <time>2012-03-11T10:12:00Z</time>
      </trkpt>
      <trkpt lat="43.51525" lon="1.41513">
        <ele>135</ele>
        <time>2012-03-11T10:12:01Z</time>
      </trkpt>
      <trkpt lat="43.51525" lon="1.41515">
        <ele>135</ele>
        <time>2012-03-11T10:12:02Z</time>
      </trkpt>
      <trkpt lat="43.51526" lon="1.41517">
        <ele>135</ele>
        <time>2012-03-11T10:12:03Z</time>
      </trkpt>
      <trkpt lat="43.51526" lon="1.41519">
        <ele>135</ele>
        <time>2012-03-11T10:12:04Z</time>
      </trkpt>
      <trkpt lat="43.51527" lon="1.41521">
        <ele>135</ele>
        <time>2012-03-11T10:12:05Z</time>
      </trkpt>
      <trkpt lat="43.51527" lon="1.41523">
        <ele>135</ele>
        <time>2012-03-11T10:12:06Z</time>
      </trkpt>
      <trkpt lat="43.51528" lon="1.41525">
        <ele>135</ele>
        <time>2012-03-11T10:12:07Z</time>
      </trkpt>
      <trkpt lat="43.51529" lon="1.41527">
        <ele>135</ele>
        <time>2012-03-11T10:12:08Z</time>
      </trkpt>
      <trkpt lat="43.51529" lon="1.41529">
        <ele>135</ele>
        <time>2012-03-11T10:12:09Z</time>
      </trkpt>
      <trkpt lat="43.5153" lon="1.41531">
        <ele>135</ele>
        <time>2012-03-11T10:12:10Z</time>
      </trkpt>
      <trkpt lat="43.5153" lon="1.41533">
        <ele>135</ele>
        <time>2012-03-11T10:12:11Z</time>
      </trkpt>
      <trkpt lat="43.51531" lon="1.41535">
        <ele>135</ele>
        <time>2012-03-11T10:12:12Z</time>
      </trkpt>
      <trkpt lat="43.51531" lon="1.41537">
        <ele>135</ele>
        <time>2012-03-11T10:12:13Z</time>
      </trkpt>
      <trkpt lat="43.51531" lon="1.41539">
        <ele>135</ele>
        <time>2012-03-11T10:12:14Z</time>
      </trkpt>
      <trkpt lat="43.51532" lon="1.41541">
        <ele>135</ele>
        <time>2012-03-11T10:12:15Z</time>
      </trkpt>
      <trkpt lat="43.51532" lon="1.41543">
        <ele>135</ele>
        <time>2012-03-11T10:12:16Z</time>
      </trkpt>
      <trkpt lat="43.51533" lon="1.41545">
        <ele>135</ele>
        <time>2012-03-11T10:12:17Z</time>
      </trkpt>
      <trkpt lat="43.51533" lon="1.41548">
        <ele>135</ele>
        <time>2012-03-11T10:12:18Z</time>
      </trkpt>
      <trkpt lat="43.51534" lon="1.4155">
        <ele>135</ele>
        <time>2012-03-11T10:12:19Z</time>
      </trkpt>
      <trkpt lat="43.51534" lon="1.41552">
        <ele>135</ele>
        <time>2012-03-11T10:12:20Z</time>
      </trkpt>
      <trkpt lat="43.51534" lon="1.41554">
        <ele>135</ele>
        <time>2012-03-11T10:12:21Z</time>
      </trkpt>
      <trkpt lat="43.51534" lon="1.41556">
        <ele>135</ele>
        <time>2012-03-11T10:12:22Z</time>
      </trkpt>
      <trkpt lat="43.51534" lon="1.41559">
        <ele>135</ele>
        <time>2012-03-11T10:12:23Z</time>
      </trkpt>
      <trkpt lat="43.51534" lon="1.4156">
        <ele>135</ele>
        <time>2012-03-11T10:12:24Z</time>
      </trkpt>
      <trkpt lat="43.51534" lon="1.41562">
        <ele>135</ele>
        <time>2012-03-11T10:12:25Z</time>
      </trkpt>
      <trkpt lat="43.51534" lon="1.41565">
        <ele>135</ele>
        <time>2012-03-11T10:12:26Z</time>
      </trkpt>
      <trkpt lat="43.51534" lon="1.41567">
        <ele>135</ele>
        <time>2012-03-11T10:12:27Z</time>
      </trkpt>
      <trkpt lat="43.51535" lon="1.41568">
        <ele>135</ele>
        <time>2012-03-11T10:12:28Z</time>
      </trkpt>
      <trkpt lat="43.51535" lon="1.4157">
        <ele>135</ele>
        <time>2012-03-11T10:12:29Z</time>
      </trkpt>
      <trkpt lat="43.51535" lon="1.41572">
        <ele>135</ele>
        <time>2012-03-11T10:12:30Z</time>
      </trkpt>
      <trkpt lat="43.51535" lon="1.41574">
        <ele>135</ele>
        <time>2012-03-11T10:12:31Z</time>
      </trkpt>
      <trkpt lat="43.51535" lon="1.41576">
        <ele>135</ele>
        <time>2012-03-11T10:12:32Z</time>
      </trkpt>
      <trkpt lat="43.51535" lon="1.41578">
        <ele>135</ele>
        <time>2012-03-11T10:12:33Z</time>
      </trkpt>
      <trkpt lat="43.51535" lon="1.4158">
        <ele>135</ele>
        <time>2012-03-11T10:12:34Z</time>
      </trkpt>
      <trkpt lat="43.51535" lon="1.41582">
        <ele>135</ele>
        <time>2012-03-11T10:12:35Z</time>
      </trkpt>
      <trkpt lat="43.51535" lon="1.41584">
        <ele>135</ele>
        <time>2012-03-11T10:12:36Z</time>
      </trkpt>
      <trkpt lat="43.51535" lon="1.41586">
        <ele>136</ele>
        <time>2012-03-11T10:12:37Z</time>
      </trkpt>
      <trkpt lat="43.51535" lon="1.41588">
        <ele>136</ele>
        <time>2012-03-11T10:12:38Z</time>
      </trkpt>
      <trkpt lat="43.51535" lon="1.4159">
        <ele>136</ele>
        <time>2012-03-11T10:12:39Z</time>
      </trkpt>
      <trkpt lat="43.51535" lon="1.41592">
        <ele>136</ele>
        <time>2012-03-11T10:12:40Z</time>
      </trkpt>
      <trkpt lat="43.51535" lon="1.41594">
        <ele>136</ele>
        <time>2012-03-11T10:12:41Z</time>
      </trkpt>
      <trkpt lat="43.51535" lon="1.41596">
        <ele>136</ele>
        <time>2012-03-11T10:12:42Z</time>
      </trkpt>
      <trkpt lat="43.51536" lon="1.41598">
        <ele>136</ele>
        <time>2012-03-11T10:12:43Z</time>
      </trkpt>
      <trkpt lat="43.51536" lon="1.416">
        <ele>136</ele>
        <time>2012-03-11T10:12:44Z</time>
      </trkpt>
      <trkpt lat="43.51536" lon="1.41602">
        <ele>136</ele>
        <time>2012-03-11T10:12:45Z</time>
      </trkpt>
      <trkpt lat="43.51536" lon="1.41604">
        <ele>136</ele>
        <time>2012-03-11T10:12:46Z</time>
      </trkpt>
      <trkpt lat="43.51536" lon="1.41606">
        <ele>136</ele>
        <time>2012-03-11T10:12:47Z</time>
      </trkpt>
      <trkpt lat="43.51537" lon="1.41608">
        <ele>136</ele>
        <time>2012-03-11T10:12:48Z</time>
      </trkpt>
      <trkpt lat="43.51537" lon="1.4161">
        <ele>136</ele>
        <time>2012-03-11T10:12:49Z</time>
      </trkpt>
      <trkpt lat="43.51537" lon="1.41612">
        <ele>136</ele>
        <time>2012-03-11T10:12:50Z</time>
      </trkpt>
      <trkpt lat="43.51537" lon="1.41614">
        <ele>136</ele>
        <time>2012-03-11T10:12:51Z</time>
      </trkpt>
      <trkpt lat="43.51537" lon="1.41615">
        <ele>136</ele>
        <time>2012-03-11T10:12:52Z</time>
      </trkpt>
      <trkpt lat="43.51537" lon="1.41617">
        <ele>136</ele>
        <time>2012-03-11T10:12:53Z</time>
      </trkpt>
      <trkpt lat="43.51536" lon="1.4162">
        <ele>136</ele>
        <time>2012-03-11T10:12:55Z</time>
      </trkpt>
      <trkpt lat="43.51535" lon="1.41621">
        <ele>136</ele>
        <time>2012-03-11T10:12:56Z</time>
      </trkpt>
      <trkpt lat="43.51535" lon="1.41623">
        <ele>136</ele>
        <time>2012-03-11T10:12:58Z</time>
      </trkpt>
      <trkpt lat="43.51536" lon="1.41623">
        <ele>136</ele>
        <time>2012-03-11T10:13:04Z</time>
      </trkpt>
      <trkpt lat="43.51536" lon="1.41625">
        <ele>137</ele>
        <time>2012-03-11T10:13:12Z</time>
      </trkpt>
      <trkpt lat="43.51534" lon="1.41628">
        <ele>137</ele>
        <time>2012-03-11T10:13:14Z</time>
      </trkpt>
      <trkpt lat="43.51532" lon="1.4163">
        <ele>137</ele>
        <time>2012-03-11T10:13:16Z</time>
      </trkpt>
      <trkpt lat="43.5153" lon="1.41631">
        <ele>137</ele>
        <time>2012-03-11T10:13:17Z</time>
      </trkpt>
      <trkpt lat="43.51529" lon="1.41631">
        <ele>137</ele>
        <time>2012-03-11T10:13:18Z</time>
      </trkpt>
      <trkpt lat="43.51527" lon="1.41631">
        <ele>137</ele>
        <time>2012-03-11T10:13:20Z</time>
      </trkpt>
      <trkpt lat="43.51526" lon="1.41631">
        <ele>137</ele>
        <time>2012-03-11T10:13:21Z</time>
      </trkpt>
      <trkpt lat="43.51524" lon="1.4163">
        <ele>137</ele>
        <time>2012-03-11T10:13:22Z</time>
      </trkpt>
      <trkpt lat="43.51522" lon="1.41627">
        <ele>137</ele>
        <time>2012-03-11T10:13:24Z</time>
      </trkpt>
      <trkpt lat="43.51521" lon="1.41626">
        <ele>137</ele>
        <time>2012-03-11T10:13:25Z</time>
      </trkpt>
      <trkpt lat="43.51519" lon="1.41625">
        <ele>137</ele>
        <time>2012-03-11T10:13:26Z</time>
      </trkpt>
      <trkpt lat="43.51518" lon="1.41624">
        <ele>137</ele>
        <time>2012-03-11T10:13:27Z</time>
      </trkpt>
      <trkpt lat="43.51516" lon="1.41622">
        <ele>137</ele>
        <time>2012-03-11T10:13:29Z</time>
      </trkpt>
      <trkpt lat="43.51514" lon="1.41621">
        <ele>137</ele>
        <time>2012-03-11T10:13:30Z</time>
      </trkpt>
      <trkpt lat="43.51513" lon="1.4162">
        <ele>137</ele>
        <time>2012-03-11T10:13:31Z</time>
      </trkpt>
      <trkpt lat="43.51511" lon="1.41618">
        <ele>137</ele>
        <time>2012-03-11T10:13:33Z</time>
      </trkpt>
      <trkpt lat="43.51509" lon="1.41617">
        <ele>137</ele>
        <time>2012-03-11T10:13:34Z</time>
      </trkpt>
      <trkpt lat="43.51508" lon="1.41616">
        <ele>137</ele>
        <time>2012-03-11T10:13:35Z</time>
      </trkpt>
      <trkpt lat="43.51506" lon="1.41615">
        <ele>137</ele>
        <time>2012-03-11T10:13:36Z</time>
      </trkpt>
      <trkpt lat="43.51505" lon="1.41615">
        <ele>137</ele>
        <time>2012-03-11T10:13:37Z</time>
      </trkpt>
      <trkpt lat="43.51504" lon="1.41614">
        <ele>137</ele>
        <time>2012-03-11T10:13:38Z</time>
      </trkpt>
      <trkpt lat="43.51503" lon="1.41614">
        <ele>137</ele>
        <time>2012-03-11T10:13:39Z</time>
      </trkpt>
      <trkpt lat="43.51501" lon="1.41614">
        <ele>137</ele>
        <time>2012-03-11T10:13:40Z</time>
      </trkpt>
      <trkpt lat="43.515" lon="1.41613">
        <ele>137</ele>
        <time>2012-03-11T10:13:41Z</time>
      </trkpt>
      <trkpt lat="43.51498" lon="1.41614">
        <ele>137</ele>
        <time>2012-03-11T10:13:43Z</time>
      </trkpt>
      <trkpt lat="43.51496" lon="1.41615">
        <ele>137</ele>
        <time>2012-03-11T10:13:44Z</time>
      </trkpt>
      <trkpt lat="43.51495" lon="1.41615">
        <ele>137</ele>
        <time>2012-03-11T10:13:45Z</time>
      </trkpt>
      <trkpt lat="43.51493" lon="1.41616">
        <ele>137</ele>
        <time>2012-03-11T10:13:46Z</time>
      </trkpt>
      <trkpt lat="43.51492" lon="1.41617">
        <ele>137</ele>
        <time>2012-03-11T10:13:47Z</time>
      </trkpt>
      <trkpt lat="43.5149" lon="1.41618">
        <ele>137</ele>
        <time>2012-03-11T10:13:48Z</time>
      </trkpt>
      <trkpt lat="43.51489" lon="1.41618">
        <ele>137</ele>
        <time>2012-03-11T10:13:49Z</time>
      </trkpt>
      <trkpt lat="43.51487" lon="1.41619">
        <ele>137</ele>
        <time>2012-03-11T10:13:51Z</time>
      </trkpt>
      <trkpt lat="43.51485" lon="1.41619">
        <ele>137</ele>
        <time>2012-03-11T10:13:53Z</time>
      </trkpt>
      <trkpt lat="43.51483" lon="1.41618">
        <ele>137</ele>
        <time>2012-03-11T10:13:55Z</time>
      </trkpt>
      <trkpt lat="43.51485" lon="1.41619">
        <ele>137</ele>
        <time>2012-03-11T10:13:57Z</time>
      </trkpt>
      <trkpt lat="43.51486" lon="1.41619">
        <ele>137</ele>
        <time>2012-03-11T10:13:59Z</time>
      </trkpt>
      <trkpt lat="43.51487" lon="1.41618">
        <ele>137</ele>
        <time>2012-03-11T10:14:01Z</time>
      </trkpt>
      <trkpt lat="43.51488" lon="1.41617">
        <ele>137</ele>
        <time>2012-03-11T10:14:02Z</time>
      </trkpt>
      <trkpt lat="43.51491" lon="1.41617">
        <ele>137</ele>
        <time>2012-03-11T10:14:04Z</time>
      </trkpt>
      <trkpt lat="43.51493" lon="1.41616">
        <ele>137</ele>
        <time>2012-03-11T10:14:06Z</time>
      </trkpt>
      <trkpt lat="43.51495" lon="1.41616">
        <ele>137</ele>
        <time>2012-03-11T10:14:08Z</time>
      </trkpt>
      <trkpt lat="43.51497" lon="1.41615">
        <ele>137</ele>
        <time>2012-03-11T10:14:09Z</time>
      </trkpt>
      <trkpt lat="43.51498" lon="1.41615">
        <ele>137</ele>
        <time>2012-03-11T10:14:10Z</time>
      </trkpt>
      <trkpt lat="43.515" lon="1.41615">
        <ele>136</ele>
        <time>2012-03-11T10:14:11Z</time>
      </trkpt>
      <trkpt lat="43.51501" lon="1.41616">
        <ele>136</ele>
        <time>2012-03-11T10:14:12Z</time>
      </trkpt>
      <trkpt lat="43.51503" lon="1.41616">
        <ele>136</ele>
        <time>2012-03-11T10:14:13Z</time>
      </trkpt>
      <trkpt lat="43.51504" lon="1.41617">
        <ele>136</ele>
        <time>2012-03-11T10:14:14Z</time>
      </trkpt>
      <trkpt lat="43.51506" lon="1.41619">
        <ele>135</ele>
        <time>2012-03-11T10:14:15Z</time>
      </trkpt>
      <trkpt lat="43.51507" lon="1.4162">
        <ele>135</ele>
        <time>2012-03-11T10:14:16Z</time>
      </trkpt>
      <trkpt lat="43.51508" lon="1.41621">
        <ele>135</ele>
        <time>2012-03-11T10:14:17Z</time>
      </trkpt>
      <trkpt lat="43.5151" lon="1.41622">
        <ele>135</ele>
        <time>2012-03-11T10:14:18Z</time>
      </trkpt>
      <trkpt lat="43.51511" lon="1.41624">
        <ele>134</ele>
        <time>2012-03-11T10:14:19Z</time>
      </trkpt>
      <trkpt lat="43.51513" lon="1.41626">
        <ele>133</ele>
        <time>2012-03-11T10:14:21Z</time>
      </trkpt>
      <trkpt lat="43.51514" lon="1.41627">
        <ele>133</ele>
        <time>2012-03-11T10:14:22Z</time>
      </trkpt>
      <trkpt lat="43.51516" lon="1.41627">
        <ele>132</ele>
        <time>2012-03-11T10:14:23Z</time>
      </trkpt>
      <trkpt lat="43.51517" lon="1.41628">
        <ele>132</ele>
        <time>2012-03-11T10:14:24Z</time>
      </trkpt>
      <trkpt lat="43.51519" lon="1.41629">
        <ele>132</ele>
        <time>2012-03-11T10:14:25Z</time>
      </trkpt>
      <trkpt lat="43.5152" lon="1.41629">
        <ele>132</ele>
        <time>2012-03-11T10:14:26Z</time>
      </trkpt>
      <trkpt lat="43.51521" lon="1.4163">
        <ele>132</ele>
        <time>2012-03-11T10:14:27Z</time>
      </trkpt>
      <trkpt lat="43.51523" lon="1.41631">
        <ele>132</ele>
        <time>2012-03-11T10:14:28Z</time>
      </trkpt>
      <trkpt lat="43.51524" lon="1.41631">
        <ele>132</ele>
        <time>2012-03-11T10:14:29Z</time>
      </trkpt>
      <trkpt lat="43.51525" lon="1.41631">
        <ele>132</ele>
        <time>2012-03-11T10:14:30Z</time>
      </trkpt>
      <trkpt lat="43.51527" lon="1.4163">
        <ele>132</ele>
        <time>2012-03-11T10:14:31Z</time>
      </trkpt>
      <trkpt lat="43.51528" lon="1.41629">
        <ele>132</ele>
        <time>2012-03-11T10:14:32Z</time>
      </trkpt>
      <trkpt lat="43.51529" lon="1.41628">
        <ele>132</ele>
        <time>2012-03-11T10:14:33Z</time>
      </trkpt>
      <trkpt lat="43.51532" lon="1.41626">
        <ele>132</ele>
        <time>2012-03-11T10:14:35Z</time>
      </trkpt>
      <trkpt lat="43.51533" lon="1.41623">
        <ele>132</ele>
        <time>2012-03-11T10:14:37Z</time>
      </trkpt>
      <trkpt lat="43.51533" lon="1.41622">
        <ele>132</ele>
        <time>2012-03-11T10:14:38Z</time>
      </trkpt>
      <trkpt lat="43.51534" lon="1.4162">
        <ele>132</ele>
        <time>2012-03-11T10:14:39Z</time>
      </trkpt>
      <trkpt lat="43.51535" lon="1.41618">
        <ele>132</ele>
        <time>2012-03-11T10:14:40Z</time>
      </trkpt>
      <trkpt lat="43.51536" lon="1.41616">
        <ele>132</ele>
        <time>2012-03-11T10:14:41Z</time>
      </trkpt>
      <trkpt lat="43.51536" lon="1.41615">
        <ele>132</ele>
        <time>2012-03-11T10:14:42Z</time>
      </trkpt>
      <trkpt lat="43.51537" lon="1.41612">
        <ele>132</ele>
        <time>2012-03-11T10:14:43Z</time>
      </trkpt>
      <trkpt lat="43.51537" lon="1.41611">
        <ele>132</ele>
        <time>2012-03-11T10:14:44Z</time>
      </trkpt>
      <trkpt lat="43.51536" lon="1.41608">
        <ele>132</ele>
        <time>2012-03-11T10:14:45Z</time>
      </trkpt>
      <trkpt lat="43.51536" lon="1.41606">
        <ele>132</ele>
        <time>2012-03-11T10:14:46Z</time>
      </trkpt>
      <trkpt lat="43.51536" lon="1.41604">
        <ele>132</ele>
        <time>2012-03-11T10:14:47Z</time>
      </trkpt>
      <trkpt lat="43.51535" lon="1.41602">
        <ele>132</ele>
        <time>2012-03-11T10:14:48Z</time>
      </trkpt>
      <trkpt lat="43.51535" lon="1.416">
        <ele>132</ele>
        <time>2012-03-11T10:14:49Z</time>
      </trkpt>
      <trkpt lat="43.51535" lon="1.41598">
        <ele>132</ele>
        <time>2012-03-11T10:14:50Z</time>
      </trkpt>
      <trkpt lat="43.51535" lon="1.41596">
        <ele>132</ele>
        <time>2012-03-11T10:14:51Z</time>
      </trkpt>
      <trkpt lat="43.51534" lon="1.41594">
        <ele>132</ele>
        <time>2012-03-11T10:14:52Z</time>
      </trkpt>
      <trkpt lat="43.51534" lon="1.41591">
        <ele>132</ele>
        <time>2012-03-11T10:14:53Z</time>
      </trkpt>
      <trkpt lat="43.51534" lon="1.41589">
        <ele>132</ele>
        <time>2012-03-11T10:14:54Z</time>
      </trkpt>
      <trkpt lat="43.51534" lon="1.41588">
        <ele>132</ele>
        <time>2012-03-11T10:14:55Z</time>
      </trkpt>
      <trkpt lat="43.51533" lon="1.41586">
        <ele>132</ele>
        <time>2012-03-11T10:14:56Z</time>
      </trkpt>
      <trkpt lat="43.51533" lon="1.41584">
        <ele>132</ele>
        <time>2012-03-11T10:14:57Z</time>
      </trkpt>
      <trkpt lat="43.51533" lon="1.41581">
        <ele>132</ele>
        <time>2012-03-11T10:14:58Z</time>
      </trkpt>
      <trkpt lat="43.51533" lon="1.41579">
        <ele>132</ele>
        <time>2012-03-11T10:14:59Z</time>
      </trkpt>
      <trkpt lat="43.51533" lon="1.41577">
        <ele>132</ele>
        <time>2012-03-11T10:15:00Z</time>
      </trkpt>
      <trkpt lat="43.51533" lon="1.41576">
        <ele>132</ele>
        <time>2012-03-11T10:15:01Z</time>
      </trkpt>
      <trkpt lat="43.51532" lon="1.41574">
        <ele>132</ele>
        <time>2012-03-11T10:15:02Z</time>
      </trkpt>
      <trkpt lat="43.51532" lon="1.41572">
        <ele>132</ele>
        <time>2012-03-11T10:15:03Z</time>
      </trkpt>
      <trkpt lat="43.51532" lon="1.4157">
        <ele>132</ele>
        <time>2012-03-11T10:15:04Z</time>
      </trkpt>
      <trkpt lat="43.51532" lon="1.41568">
        <ele>132</ele>
        <time>2012-03-11T10:15:05Z</time>
      </trkpt>
      <trkpt lat="43.51532" lon="1.41566">
        <ele>132</ele>
        <time>2012-03-11T10:15:06Z</time>
      </trkpt>
      <trkpt lat="43.51532" lon="1.41564">
        <ele>132</ele>
        <time>2012-03-11T10:15:07Z</time>
      </trkpt>
      <trkpt lat="43.51532" lon="1.41562">
        <ele>132</ele>
        <time>2012-03-11T10:15:08Z</time>
      </trkpt>
      <trkpt lat="43.51532" lon="1.4156">
        <ele>132</ele>
        <time>2012-03-11T10:15:09Z</time>
      </trkpt>
      <trkpt lat="43.51533" lon="1.41557">
        <ele>132</ele>
        <time>2012-03-11T10:15:10Z</time>
      </trkpt>
      <trkpt lat="43.51533" lon="1.41555">
        <ele>132</ele>
        <time>2012-03-11T10:15:11Z</time>
      </trkpt>
      <trkpt lat="43.51533" lon="1.41553">
        <ele>132</ele>
        <time>2012-03-11T10:15:12Z</time>
      </trkpt>
      <trkpt lat="43.51533" lon="1.41551">
        <ele>132</ele>
        <time>2012-03-11T10:15:13Z</time>
      </trkpt>
      <trkpt lat="43.51532" lon="1.41549">
        <ele>132</ele>
        <time>2012-03-11T10:15:14Z</time>
      </trkpt>
      <trkpt lat="43.51532" lon="1.41546">
        <ele>132</ele>
        <time>2012-03-11T10:15:15Z</time>
      </trkpt>
      <trkpt lat="43.51531" lon="1.41544">
        <ele>132</ele>
        <time>2012-03-11T10:15:16Z</time>
      </trkpt>
      <trkpt lat="43.51531" lon="1.41542">
        <ele>132</ele>
        <time>2012-03-11T10:15:17Z</time>
      </trkpt>
      <trkpt lat="43.5153" lon="1.41539">
        <ele>132</ele>
        <time>2012-03-11T10:15:18Z</time>
      </trkpt>
      <trkpt lat="43.5153" lon="1.41537">
        <ele>132</ele>
        <time>2012-03-11T10:15:19Z</time>
      </trkpt>
      <trkpt lat="43.5153" lon="1.41535">
        <ele>132</ele>
        <time>2012-03-11T10:15:20Z</time>
      </trkpt>
      <trkpt lat="43.5153" lon="1.41533">
        <ele>132</ele>
        <time>2012-03-11T10:15:21Z</time>
      </trkpt>
      <trkpt lat="43.51529" lon="1.4153">
        <ele>132</ele>
        <time>2012-03-11T10:15:22Z</time>
      </trkpt>
      <trkpt lat="43.51528" lon="1.41528">
        <ele>132</ele>
        <time>2012-03-11T10:15:23Z</time>
      </trkpt>
      <trkpt lat="43.51527" lon="1.41526">
        <ele>132</ele>
        <time>2012-03-11T10:15:24Z</time>
      </trkpt>
      <trkpt lat="43.51526" lon="1.41524">
        <ele>132</ele>
        <time>2012-03-11T10:15:25Z</time>
      </trkpt>
      <trkpt lat="43.51525" lon="1.41522">
        <ele>132</ele>
        <time>2012-03-11T10:15:26Z</time>
      </trkpt>
      <trkpt lat="43.51524" lon="1.41519">
        <ele>132</ele>
        <time>2012-03-11T10:15:27Z</time>
      </trkpt>
      <trkpt lat="43.51524" lon="1.41517">
        <ele>132</ele>
        <time>2012-03-11T10:15:28Z</time>
      </trkpt>
      <trkpt lat="43.51524" lon="1.41515">
        <ele>132</ele>
        <time>2012-03-11T10:15:29Z</time>
      </trkpt>
      <trkpt lat="43.51524" lon="1.41513">
        <ele>132</ele>
        <time>2012-03-11T10:15:30Z</time>
      </trkpt>
      <trkpt lat="43.51523" lon="1.41511">
        <ele>132</ele>
        <time>2012-03-11T10:15:31Z</time>
      </trkpt>
      <trkpt lat="43.51523" lon="1.41509">
        <ele>132</ele>
        <time>2012-03-11T10:15:32Z</time>
      </trkpt>
      <trkpt lat="43.51523" lon="1.41506">
        <ele>132</ele>
        <time>2012-03-11T10:15:33Z</time>
      </trkpt>
      <trkpt lat="43.51522" lon="1.41504">
        <ele>132</ele>
        <time>2012-03-11T10:15:34Z</time>
      </trkpt>
      <trkpt lat="43.51522" lon="1.41502">
        <ele>132</ele>
        <time>2012-03-11T10:15:35Z</time>
      </trkpt>
      <trkpt lat="43.51522" lon="1.415">
        <ele>132</ele>
        <time>2012-03-11T10:15:36Z</time>
      </trkpt>
      <trkpt lat="43.51522" lon="1.41497">
        <ele>132</ele>
        <time>2012-03-11T10:15:37Z</time>
      </trkpt>
      <trkpt lat="43.51522" lon="1.41495">
        <ele>132</ele>
        <time>2012-03-11T10:15:38Z</time>
      </trkpt>
      <trkpt lat="43.51522" lon="1.41493">
        <ele>132</ele>
        <time>2012-03-11T10:15:39Z</time>
      </trkpt>
      <trkpt lat="43.51521" lon="1.41491">
        <ele>132</ele>
        <time>2012-03-11T10:15:40Z</time>
      </trkpt>
      <trkpt lat="43.51521" lon="1.41489">
        <ele>132</ele>
        <time>2012-03-11T10:15:41Z</time>
      </trkpt>
      <trkpt lat="43.51521" lon="1.41487">
        <ele>132</ele>
        <time>2012-03-11T10:15:42Z</time>
      </trkpt>
      <trkpt lat="43.51521" lon="1.41485">
        <ele>132</ele>
        <time>2012-03-11T10:15:43Z</time>
      </trkpt>
      <trkpt lat="43.51521" lon="1.41483">
        <ele>132</ele>
        <time>2012-03-11T10:15:44Z</time>
      </trkpt>
      <trkpt lat="43.51521" lon="1.41481">
        <ele>132</ele>
        <time>2012-03-11T10:15:45Z</time>
      </trkpt>
      <trkpt lat="43.51521" lon="1.41479">
        <ele>132</ele>
        <time>2012-03-11T10:15:46Z</time>
      </trkpt>
      <trkpt lat="43.5152" lon="1.41476">
        <ele>132</ele>
        <time>2012-03-11T10:15:47Z</time>
      </trkpt>
      <trkpt lat="43.5152" lon="1.41474">
        <ele>132</ele>
        <time>2012-03-11T10:15:48Z</time>
      </trkpt>
      <trkpt lat="43.5152" lon="1.41472">
        <ele>132</ele>
        <time>2012-03-11T10:15:49Z</time>
      </trkpt>
      <trkpt lat="43.5152" lon="1.41471">
        <ele>132</ele>
        <time>2012-03-11T10:15:50Z</time>
      </trkpt>
      <trkpt lat="43.5152" lon="1.41469">
        <ele>132</ele>
        <time>2012-03-11T10:15:51Z</time>
      </trkpt>
      <trkpt lat="43.51521" lon="1.41467">
        <ele>132</ele>
        <time>2012-03-11T10:15:52Z</time>
      </trkpt>
      <trkpt lat="43.51522" lon="1.41464">
        <ele>132</ele>
        <time>2012-03-11T10:15:53Z</time>
      </trkpt>
      <trkpt lat="43.51522" lon="1.41462">
        <ele>133</ele>
        <time>2012-03-11T10:15:54Z</time>
      </trkpt>
      <trkpt lat="43.51523" lon="1.4146">
        <ele>133</ele>
        <time>2012-03-11T10:15:55Z</time>
      </trkpt>
      <trkpt lat="43.51523" lon="1.41458">
        <ele>133</ele>
        <time>2012-03-11T10:15:56Z</time>
      </trkpt>
      <trkpt lat="43.51524" lon="1.41455">
        <ele>133</ele>
        <time>2012-03-11T10:15:57Z</time>
      </trkpt>
      <trkpt lat="43.51525" lon="1.41453">
        <ele>133</ele>
        <time>2012-03-11T10:15:58Z</time>
      </trkpt>
      <trkpt lat="43.51526" lon="1.41451">
        <ele>133</ele>
        <time>2012-03-11T10:15:59Z</time>
      </trkpt>
      <trkpt lat="43.51526" lon="1.41449">
        <ele>133</ele>
        <time>2012-03-11T10:16:00Z</time>
      </trkpt>
      <trkpt lat="43.51527" lon="1.41446">
        <ele>133</ele>
        <time>2012-03-11T10:16:01Z</time>
      </trkpt>
      <trkpt lat="43.51527" lon="1.41445">
        <ele>133</ele>
        <time>2012-03-11T10:16:02Z</time>
      </trkpt>
      <trkpt lat="43.51527" lon="1.41443">
        <ele>133</ele>
        <time>2012-03-11T10:16:03Z</time>
      </trkpt>
      <trkpt lat="43.51527" lon="1.41441">
        <ele>133</ele>
        <time>2012-03-11T10:16:04Z</time>
      </trkpt>
      <trkpt lat="43.51527" lon="1.41439">
        <ele>133</ele>
        <time>2012-03-11T10:16:05Z</time>
      </trkpt>
      <trkpt lat="43.51528" lon="1.41436">
        <ele>133</ele>
        <time>2012-03-11T10:16:06Z</time>
      </trkpt>
      <trkpt lat="43.51528" lon="1.41433">
        <ele>133</ele>
        <time>2012-03-11T10:16:07Z</time>
      </trkpt>
      <trkpt lat="43.51529" lon="1.41431">
        <ele>133</ele>
        <time>2012-03-11T10:16:08Z</time>
      </trkpt>
      <trkpt lat="43.51529" lon="1.41428">
        <ele>133</ele>
        <time>2012-03-11T10:16:09Z</time>
      </trkpt>
      <trkpt lat="43.51529" lon="1.41427">
        <ele>133</ele>
        <time>2012-03-11T10:16:10Z</time>
      </trkpt>
      <trkpt lat="43.51529" lon="1.41425">
        <ele>133</ele>
        <time>2012-03-11T10:16:11Z</time>
      </trkpt>
      <trkpt lat="43.51529" lon="1.41423">
        <ele>133</ele>
        <time>2012-03-11T10:16:12Z</time>
      </trkpt>
      <trkpt lat="43.51529" lon="1.41421">
        <ele>133</ele>
        <time>2012-03-11T10:16:13Z</time>
      </trkpt>
      <trkpt lat="43.51529" lon="1.41419">
        <ele>133</ele>
        <time>2012-03-11T10:16:14Z</time>
      </trkpt>
      <trkpt lat="43.51529" lon="1.41418">
        <ele>133</ele>
        <time>2012-03-11T10:16:15Z</time>
      </trkpt>
      <trkpt lat="43.51529" lon="1.41415">
        <ele>133</ele>
        <time>2012-03-11T10:16:16Z</time>
      </trkpt>
      <trkpt lat="43.51529" lon="1.41413">
        <ele>133</ele>
        <time>2012-03-11T10:16:17Z</time>
      </trkpt>
      <trkpt lat="43.51529" lon="1.41411">
        <ele>133</ele>
        <time>2012-03-11T10:16:18Z</time>
      </trkpt>
      <trkpt lat="43.51529" lon="1.41409">
        <ele>133</ele>
        <time>2012-03-11T10:16:19Z</time>
      </trkpt>
      <trkpt lat="43.51529" lon="1.41407">
        <ele>133</ele>
        <time>2012-03-11T10:16:20Z</time>
      </trkpt>
      <trkpt lat="43.51529" lon="1.41405">
        <ele>133</ele>
        <time>2012-03-11T10:16:21Z</time>
      </trkpt>
      <trkpt lat="43.51529" lon="1.41403">
        <ele>133</ele>
        <time>2012-03-11T10:16:22Z</time>
      </trkpt>
      <trkpt lat="43.51529" lon="1.41401">
        <ele>133</ele>
        <time>2012-03-11T10:16:23Z</time>
      </trkpt>
      <trkpt lat="43.51529" lon="1.414">
        <ele>133</ele>
        <time>2012-03-11T10:16:24Z</time>
      </trkpt>
      <trkpt lat="43.51528" lon="1.41397">
        <ele>133</ele>
        <time>2012-03-11T10:16:25Z</time>
      </trkpt>
      <trkpt lat="43.51528" lon="1.41395">
        <ele>133</ele>
        <time>2012-03-11T10:16:26Z</time>
      </trkpt>
      <trkpt lat="43.51528" lon="1.41393">
        <ele>133</ele>
        <time>2012-03-11T10:16:27Z</time>
      </trkpt>
      <trkpt lat="43.51529" lon="1.41391">
        <ele>133</ele>
        <time>2012-03-11T10:16:28Z</time>
      </trkpt>
      <trkpt lat="43.51529" lon="1.41389">
        <ele>133</ele>
        <time>2012-03-11T10:16:29Z</time>
      </trkpt>
      <trkpt lat="43.51529" lon="1.41387">
        <ele>133</ele>
        <time>2012-03-11T10:16:30Z</time>
      </trkpt>
      <trkpt lat="43.51529" lon="1.41385">
        <ele>133</ele>
        <time>2012-03-11T10:16:31Z</time>
      </trkpt>
      <trkpt lat="43.51529" lon="1.41383">
        <ele>133</ele>
        <time>2012-03-11T10:16:32Z</time>
      </trkpt>
      <trkpt lat="43.51529" lon="1.41381">
        <ele>133</ele>
        <time>2012-03-11T10:16:33Z</time>
      </trkpt>
      <trkpt lat="43.5153" lon="1.41379">
        <ele>133</ele>
        <time>2012-03-11T10:16:34Z</time>
      </trkpt>
      <trkpt lat="43.5153" lon="1.41376">
        <ele>133</ele>
        <time>2012-03-11T10:16:35Z</time>
      </trkpt>
      <trkpt lat="43.51531" lon="1.41375">
        <ele>133</ele>
        <time>2012-03-11T10:16:36Z</time>
      </trkpt>
      <trkpt lat="43.51532" lon="1.41373">
        <ele>133</ele>
        <time>2012-03-11T10:16:37Z</time>
      </trkpt>
      <trkpt lat="43.51532" lon="1.41371">
        <ele>133</ele>
        <time>2012-03-11T10:16:38Z</time>
      </trkpt>
      <trkpt lat="43.51533" lon="1.41369">
        <ele>133</ele>
        <time>2012-03-11T10:16:39Z</time>
      </trkpt>
      <trkpt lat="43.51533" lon="1.41367">
        <ele>133</ele>
        <time>2012-03-11T10:16:40Z</time>
      </trkpt>
      <trkpt lat="43.51534" lon="1.41365">
        <ele>133</ele>
        <time>2012-03-11T10:16:41Z</time>
      </trkpt>
      <trkpt lat="43.51535" lon="1.41363">
        <ele>133</ele>
        <time>2012-03-11T10:16:42Z</time>
      </trkpt>
      <trkpt lat="43.51535" lon="1.41361">
        <ele>133</ele>
        <time>2012-03-11T10:16:43Z</time>
      </trkpt>
      <trkpt lat="43.51536" lon="1.41359">
        <ele>133</ele>
        <time>2012-03-11T10:16:44Z</time>
      </trkpt>
      <trkpt lat="43.51537" lon="1.41357">
        <ele>133</ele>
        <time>2012-03-11T10:16:45Z</time>
      </trkpt>
      <trkpt lat="43.51537" lon="1.41355">
        <ele>133</ele>
        <time>2012-03-11T10:16:46Z</time>
      </trkpt>
      <trkpt lat="43.51538" lon="1.41353">
        <ele>133</ele>
        <time>2012-03-11T10:16:47Z</time>
      </trkpt>
      <trkpt lat="43.51538" lon="1.41351">
        <ele>133</ele>
        <time>2012-03-11T10:16:48Z</time>
      </trkpt>
      <trkpt lat="43.51539" lon="1.41349">
        <ele>133</ele>
        <time>2012-03-11T10:16:49Z</time>
      </trkpt>
      <trkpt lat="43.5154" lon="1.41348">
        <ele>133</ele>
        <time>2012-03-11T10:16:50Z</time>
      </trkpt>
      <trkpt lat="43.51541" lon="1.41346">
        <ele>133</ele>
        <time>2012-03-11T10:16:51Z</time>
      </trkpt>
      <trkpt lat="43.51543" lon="1.41344">
        <ele>133</ele>
        <time>2012-03-11T10:16:53Z</time>
      </trkpt>
      <trkpt lat="43.51544" lon="1.41342">
        <ele>133</ele>
        <time>2012-03-11T10:16:54Z</time>
      </trkpt>
      <trkpt lat="43.51546" lon="1.41341">
        <ele>133</ele>
        <time>2012-03-11T10:16:55Z</time>
      </trkpt>
      <trkpt lat="43.51547" lon="1.41341">
        <ele>133</ele>
        <time>2012-03-11T10:16:56Z</time>
      </trkpt>
      <trkpt lat="43.51548" lon="1.4134">
        <ele>133</ele>
        <time>2012-03-11T10:16:57Z</time>
      </trkpt>
      <trkpt lat="43.5155" lon="1.4134">
        <ele>133</ele>
        <time>2012-03-11T10:16:58Z</time>
      </trkpt>
      <trkpt lat="43.51551" lon="1.41339">
        <ele>133</ele>
        <time>2012-03-11T10:16:59Z</time>
      </trkpt>
      <trkpt lat="43.51552" lon="1.41339">
        <ele>133</ele>
        <time>2012-03-11T10:17:00Z</time>
      </trkpt>
      <trkpt lat="43.51553" lon="1.41338">
        <ele>133</ele>
        <time>2012-03-11T10:17:01Z</time>
      </trkpt>
      <trkpt lat="43.51555" lon="1.41338">
        <ele>133</ele>
        <time>2012-03-11T10:17:02Z</time>
      </trkpt>
      <trkpt lat="43.51556" lon="1.41337">
        <ele>133</ele>
        <time>2012-03-11T10:17:03Z</time>
      </trkpt>
      <trkpt lat="43.51558" lon="1.41337">
        <ele>133</ele>
        <time>2012-03-11T10:17:04Z</time>
      </trkpt>
      <trkpt lat="43.51559" lon="1.41337">
        <ele>133</ele>
        <time>2012-03-11T10:17:05Z</time>
      </trkpt>
      <trkpt lat="43.51561" lon="1.41336">
        <ele>133</ele>
        <time>2012-03-11T10:17:06Z</time>
      </trkpt>
      <trkpt lat="43.51563" lon="1.41336">
        <ele>133</ele>
        <time>2012-03-11T10:17:07Z</time>
      </trkpt>
      <trkpt lat="43.51564" lon="1.41336">
        <ele>133</ele>
        <time>2012-03-11T10:17:08Z</time>
      </trkpt>
      <trkpt lat="43.51566" lon="1.41336">
        <ele>133</ele>
        <time>2012-03-11T10:17:09Z</time>
      </trkpt>
      <trkpt lat="43.51567" lon="1.41336">
        <ele>133</ele>
        <time>2012-03-11T10:17:10Z</time>
      </trkpt>
      <trkpt lat="43.51569" lon="1.41336">
        <ele>133</ele>
        <time>2012-03-11T10:17:11Z</time>
      </trkpt>
      <trkpt lat="43.5157" lon="1.41336">
        <ele>133</ele>
        <time>2012-03-11T10:17:12Z</time>
      </trkpt>
      <trkpt lat="43.51572" lon="1.41336">
        <ele>133</ele>
        <time>2012-03-11T10:17:13Z</time>
      </trkpt>
      <trkpt lat="43.51573" lon="1.41336">
        <ele>133</ele>
        <time>2012-03-11T10:17:14Z</time>
      </trkpt>
      <trkpt lat="43.51575" lon="1.41336">
        <ele>133</ele>
        <time>2012-03-11T10:17:15Z</time>
      </trkpt>
      <trkpt lat="43.51577" lon="1.41336">
        <ele>133</ele>
        <time>2012-03-11T10:17:16Z</time>
      </trkpt>
      <trkpt lat="43.51578" lon="1.41336">
        <ele>133</ele>
        <time>2012-03-11T10:17:17Z</time>
      </trkpt>
      <trkpt lat="43.5158" lon="1.41336">
        <ele>133</ele>
        <time>2012-03-11T10:17:18Z</time>
      </trkpt>
      <trkpt lat="43.51582" lon="1.41336">
        <ele>133</ele>
        <time>2012-03-11T10:17:19Z</time>
      </trkpt>
      <trkpt lat="43.51583" lon="1.41336">
        <ele>133</ele>
        <time>2012-03-11T10:17:20Z</time>
      </trkpt>
      <trkpt lat="43.51585" lon="1.41336">
        <ele>133</ele>
        <time>2012-03-11T10:17:21Z</time>
      </trkpt>
      <trkpt lat="43.51586" lon="1.41335">
        <ele>133</ele>
        <time>2012-03-11T10:17:22Z</time>
      </trkpt>
      <trkpt lat="43.51588" lon="1.41335">
        <ele>133</ele>
        <time>2012-03-11T10:17:23Z</time>
      </trkpt>
      <trkpt lat="43.51589" lon="1.41334">
        <ele>133</ele>
        <time>2012-03-11T10:17:24Z</time>
      </trkpt>
      <trkpt lat="43.51591" lon="1.41334">
        <ele>133</ele>
        <time>2012-03-11T10:17:25Z</time>
      </trkpt>
      <trkpt lat="43.51592" lon="1.41334">
        <ele>133</ele>
        <time>2012-03-11T10:17:26Z</time>
      </trkpt>
      <trkpt lat="43.51594" lon="1.41334">
        <ele>133</ele>
        <time>2012-03-11T10:17:27Z</time>
      </trkpt>
      <trkpt lat="43.51595" lon="1.41334">
        <ele>133</ele>
        <time>2012-03-11T10:17:28Z</time>
      </trkpt>
      <trkpt lat="43.51596" lon="1.41334">
        <ele>133</ele>
        <time>2012-03-11T10:17:29Z</time>
      </trkpt>
      <trkpt lat="43.51599" lon="1.41335">
        <ele>133</ele>
        <time>2012-03-11T10:17:31Z</time>
      </trkpt>
      <trkpt lat="43.516" lon="1.41335">
        <ele>133</ele>
        <time>2012-03-11T10:17:32Z</time>
      </trkpt>
      <trkpt lat="43.51601" lon="1.41337">
        <ele>133</ele>
        <time>2012-03-11T10:17:33Z</time>
      </trkpt>
      <trkpt lat="43.51603" lon="1.41339">
        <ele>133</ele>
        <time>2012-03-11T10:17:35Z</time>
      </trkpt>
      <trkpt lat="43.51604" lon="1.41341">
        <ele>133</ele>
        <time>2012-03-11T10:17:37Z</time>
      </trkpt>
      <trkpt lat="43.51605" lon="1.41342">
        <ele>133</ele>
        <time>2012-03-11T10:17:37Z</time>
      </trkpt>
      <trkpt lat="43.51606" lon="1.41344">
        <ele>133</ele>
        <time>2012-03-11T10:17:38Z</time>
      </trkpt>
      <trkpt lat="43.51607" lon="1.41345">
        <ele>133</ele>
        <time>2012-03-11T10:17:39Z</time>
      </trkpt>
      <trkpt lat="43.51609" lon="1.41347">
        <ele>133</ele>
        <time>2012-03-11T10:17:40Z</time>
      </trkpt>
      <trkpt lat="43.5161" lon="1.41348">
        <ele>133</ele>
        <time>2012-03-11T10:17:41Z</time>
      </trkpt>
      <trkpt lat="43.51611" lon="1.41349">
        <ele>133</ele>
        <time>2012-03-11T10:17:42Z</time>
      </trkpt>
      <trkpt lat="43.51613" lon="1.41349">
        <ele>133</ele>
        <time>2012-03-11T10:17:43Z</time>
      </trkpt>
      <trkpt lat="43.51614" lon="1.41349">
        <ele>133</ele>
        <time>2012-03-11T10:17:44Z</time>
      </trkpt>
      <trkpt lat="43.51616" lon="1.4135">
        <ele>133</ele>
        <time>2012-03-11T10:17:45Z</time>
      </trkpt>
      <trkpt lat="43.51617" lon="1.4135">
        <ele>133</ele>
        <time>2012-03-11T10:17:46Z</time>
      </trkpt>
      <trkpt lat="43.51619" lon="1.41351">
        <ele>133</ele>
        <time>2012-03-11T10:17:47Z</time>
      </trkpt>
      <trkpt lat="43.5162" lon="1.41352">
        <ele>133</ele>
        <time>2012-03-11T10:17:48Z</time>
      </trkpt>
      <trkpt lat="43.51622" lon="1.41352">
        <ele>133</ele>
        <time>2012-03-11T10:17:49Z</time>
      </trkpt>
      <trkpt lat="43.51623" lon="1.41353">
        <ele>133</ele>
        <time>2012-03-11T10:17:50Z</time>
      </trkpt>
      <trkpt lat="43.51624" lon="1.41354">
        <ele>133</ele>
        <time>2012-03-11T10:17:51Z</time>
      </trkpt>
      <trkpt lat="43.51625" lon="1.41355">
        <ele>133</ele>
        <time>2012-03-11T10:17:52Z</time>
      </trkpt>
      <trkpt lat="43.51627" lon="1.41356">
        <ele>133</ele>
        <time>2012-03-11T10:17:53Z</time>
      </trkpt>
      <trkpt lat="43.51628" lon="1.41357">
        <ele>133</ele>
        <time>2012-03-11T10:17:54Z</time>
      </trkpt>
      <trkpt lat="43.5163" lon="1.41358">
        <ele>133</ele>
        <time>2012-03-11T10:17:55Z</time>
      </trkpt>
      <trkpt lat="43.51631" lon="1.41359">
        <ele>133</ele>
        <time>2012-03-11T10:17:56Z</time>
      </trkpt>
      <trkpt lat="43.51633" lon="1.41359">
        <ele>133</ele>
        <time>2012-03-11T10:17:57Z</time>
      </trkpt>
      <trkpt lat="43.51634" lon="1.4136">
        <ele>133</ele>
        <time>2012-03-11T10:17:58Z</time>
      </trkpt>
      <trkpt lat="43.51636" lon="1.41361">
        <ele>133</ele>
        <time>2012-03-11T10:17:59Z</time>
      </trkpt>
      <trkpt lat="43.51637" lon="1.41362">
        <ele>133</ele>
        <time>2012-03-11T10:18:00Z</time>
      </trkpt>
      <trkpt lat="43.51638" lon="1.41363">
        <ele>133</ele>
        <time>2012-03-11T10:18:01Z</time>
      </trkpt>
      <trkpt lat="43.5164" lon="1.41364">
        <ele>133</ele>
        <time>2012-03-11T10:18:02Z</time>
      </trkpt>
      <trkpt lat="43.51641" lon="1.41365">
        <ele>133</ele>
        <time>2012-03-11T10:18:03Z</time>
      </trkpt>
      <trkpt lat="43.51642" lon="1.41365">
        <ele>133</ele>
        <time>2012-03-11T10:18:04Z</time>
      </trkpt>
      <trkpt lat="43.51645" lon="1.41366">
        <ele>133</ele>
        <time>2012-03-11T10:18:06Z</time>
      </trkpt>
      <trkpt lat="43.51646" lon="1.41367">
        <ele>133</ele>
        <time>2012-03-11T10:18:07Z</time>
      </trkpt>
      <trkpt lat="43.51647" lon="1.41368">
        <ele>133</ele>
        <time>2012-03-11T10:18:08Z</time>
      </trkpt>
      <trkpt lat="43.51649" lon="1.41368">
        <ele>133</ele>
        <time>2012-03-11T10:18:09Z</time>
      </trkpt>
      <trkpt lat="43.51651" lon="1.41369">
        <ele>133</ele>
        <time>2012-03-11T10:18:10Z</time>
      </trkpt>
      <trkpt lat="43.51652" lon="1.4137">
        <ele>133</ele>
        <time>2012-03-11T10:18:11Z</time>
      </trkpt>
      <trkpt lat="43.51653" lon="1.41371">
        <ele>133</ele>
        <time>2012-03-11T10:18:12Z</time>
      </trkpt>
      <trkpt lat="43.51655" lon="1.41372">
        <ele>133</ele>
        <time>2012-03-11T10:18:13Z</time>
      </trkpt>
      <trkpt lat="43.51656" lon="1.41373">
        <ele>133</ele>
        <time>2012-03-11T10:18:14Z</time>
      </trkpt>
      <trkpt lat="43.51658" lon="1.41374">
        <ele>133</ele>
        <time>2012-03-11T10:18:15Z</time>
      </trkpt>
      <trkpt lat="43.51659" lon="1.41375">
        <ele>133</ele>
        <time>2012-03-11T10:18:16Z</time>
      </trkpt>
      <trkpt lat="43.51661" lon="1.41376">
        <ele>133</ele>
        <time>2012-03-11T10:18:17Z</time>
      </trkpt>
      <trkpt lat="43.51662" lon="1.41376">
        <ele>133</ele>
        <time>2012-03-11T10:18:18Z</time>
      </trkpt>
      <trkpt lat="43.51663" lon="1.41377">
        <ele>133</ele>
        <time>2012-03-11T10:18:19Z</time>
      </trkpt>
      <trkpt lat="43.51665" lon="1.41378">
        <ele>133</ele>
        <time>2012-03-11T10:18:20Z</time>
      </trkpt>
      <trkpt lat="43.51667" lon="1.41378">
        <ele>133</ele>
        <time>2012-03-11T10:18:21Z</time>
      </trkpt>
      <trkpt lat="43.51668" lon="1.41379">
        <ele>133</ele>
        <time>2012-03-11T10:18:22Z</time>
      </trkpt>
      <trkpt lat="43.51669" lon="1.4138">
        <ele>133</ele>
        <time>2012-03-11T10:18:23Z</time>
      </trkpt>
      <trkpt lat="43.51671" lon="1.4138">
        <ele>133</ele>
        <time>2012-03-11T10:18:24Z</time>
      </trkpt>
      <trkpt lat="43.51672" lon="1.41381">
        <ele>133</ele>
        <time>2012-03-11T10:18:25Z</time>
      </trkpt>
      <trkpt lat="43.51674" lon="1.41381">
        <ele>133</ele>
        <time>2012-03-11T10:18:26Z</time>
      </trkpt>
      <trkpt lat="43.51676" lon="1.41382">
        <ele>133</ele>
        <time>2012-03-11T10:18:27Z</time>
      </trkpt>
      <trkpt lat="43.51677" lon="1.41383">
        <ele>133</ele>
        <time>2012-03-11T10:18:28Z</time>
      </trkpt>
      <trkpt lat="43.51679" lon="1.41384">
        <ele>133</ele>
        <time>2012-03-11T10:18:29Z</time>
      </trkpt>
      <trkpt lat="43.5168" lon="1.41384">
        <ele>133</ele>
        <time>2012-03-11T10:18:30Z</time>
      </trkpt>
      <trkpt lat="43.51682" lon="1.41385">
        <ele>133</ele>
        <time>2012-03-11T10:18:31Z</time>
      </trkpt>
      <trkpt lat="43.51683" lon="1.41385">
        <ele>133</ele>
        <time>2012-03-11T10:18:32Z</time>
      </trkpt>
      <trkpt lat="43.51685" lon="1.41385">
        <ele>133</ele>
        <time>2012-03-11T10:18:33Z</time>
      </trkpt>
      <trkpt lat="43.51687" lon="1.41386">
        <ele>133</ele>
        <time>2012-03-11T10:18:34Z</time>
      </trkpt>
      <trkpt lat="43.51688" lon="1.41386">
        <ele>133</ele>
        <time>2012-03-11T10:18:35Z</time>
      </trkpt>
      <trkpt lat="43.5169" lon="1.41387">
        <ele>133</ele>
        <time>2012-03-11T10:18:36Z</time>
      </trkpt>
      <trkpt lat="43.51691" lon="1.41387">
        <ele>133</ele>
        <time>2012-03-11T10:18:37Z</time>
      </trkpt>
      <trkpt lat="43.51693" lon="1.41387">
        <ele>133</ele>
        <time>2012-03-11T10:18:38Z</time>
      </trkpt>
      <trkpt lat="43.51694" lon="1.41388">
        <ele>133</ele>
        <time>2012-03-11T10:18:39Z</time>
      </trkpt>
      <trkpt lat="43.51696" lon="1.41388">
        <ele>133</ele>
        <time>2012-03-11T10:18:40Z</time>
      </trkpt>
      <trkpt lat="43.51698" lon="1.41387">
        <ele>133</ele>
        <time>2012-03-11T10:18:41Z</time>
      </trkpt>
      <trkpt lat="43.51699" lon="1.41387">
        <ele>133</ele>
        <time>2012-03-11T10:18:42Z</time>
      </trkpt>
      <trkpt lat="43.517" lon="1.41386">
        <ele>133</ele>
        <time>2012-03-11T10:18:43Z</time>
      </trkpt>
      <trkpt lat="43.51702" lon="1.41386">
        <ele>133</ele>
        <time>2012-03-11T10:18:44Z</time>
      </trkpt>
      <trkpt lat="43.51703" lon="1.41385">
        <ele>133</ele>
        <time>2012-03-11T10:18:45Z</time>
      </trkpt>
      <trkpt lat="43.51705" lon="1.41384">
        <ele>133</ele>
        <time>2012-03-11T10:18:46Z</time>
      </trkpt>
      <trkpt lat="43.51706" lon="1.41384">
        <ele>133</ele>
        <time>2012-03-11T10:18:47Z</time>
      </trkpt>
      <trkpt lat="43.51708" lon="1.41383">
        <ele>133</ele>
        <time>2012-03-11T10:18:48Z</time>
      </trkpt>
      <trkpt lat="43.51709" lon="1.41381">
        <ele>133</ele>
        <time>2012-03-11T10:18:49Z</time>
      </trkpt>
      <trkpt lat="43.5171" lon="1.4138">
        <ele>133</ele>
        <time>2012-03-11T10:18:50Z</time>
      </trkpt>
      <trkpt lat="43.51711" lon="1.41378">
        <ele>133</ele>
        <time>2012-03-11T10:18:51Z</time>
      </trkpt>
      <trkpt lat="43.51712" lon="1.41376">
        <ele>133</ele>
        <time>2012-03-11T10:18:52Z</time>
      </trkpt>
      <trkpt lat="43.51713" lon="1.41375">
        <ele>133</ele>
        <time>2012-03-11T10:18:53Z</time>
      </trkpt>
      <trkpt lat="43.51714" lon="1.41374">
        <ele>133</ele>
        <time>2012-03-11T10:18:54Z</time>
      </trkpt>
      <trkpt lat="43.51715" lon="1.41372">
        <ele>133</ele>
        <time>2012-03-11T10:18:55Z</time>
      </trkpt>
      <trkpt lat="43.51717" lon="1.41371">
        <ele>133</ele>
        <time>2012-03-11T10:18:56Z</time>
      </trkpt>
      <trkpt lat="43.51718" lon="1.41369">
        <ele>133</ele>
        <time>2012-03-11T10:18:57Z</time>
      </trkpt>
      <trkpt lat="43.51719" lon="1.41367">
        <ele>133</ele>
        <time>2012-03-11T10:18:58Z</time>
      </trkpt>
      <trkpt lat="43.5172" lon="1.41365">
        <ele>133</ele>
        <time>2012-03-11T10:18:59Z</time>
      </trkpt>
      <trkpt lat="43.51722" lon="1.41363">
        <ele>133</ele>
        <time>2012-03-11T10:19:00Z</time>
      </trkpt>
      <trkpt lat="43.51723" lon="1.41362">
        <ele>133</ele>
        <time>2012-03-11T10:19:01Z</time>
      </trkpt>
      <trkpt lat="43.51724" lon="1.4136">
        <ele>133</ele>
        <time>2012-03-11T10:19:02Z</time>
      </trkpt>
      <trkpt lat="43.51725" lon="1.41358">
        <ele>133</ele>
        <time>2012-03-11T10:19:03Z</time>
      </trkpt>
      <trkpt lat="43.51726" lon="1.41356">
        <ele>133</ele>
        <time>2012-03-11T10:19:04Z</time>
      </trkpt>
      <trkpt lat="43.51727" lon="1.41355">
        <ele>133</ele>
        <time>2012-03-11T10:19:05Z</time>
      </trkpt>
      <trkpt lat="43.51728" lon="1.41353">
        <ele>133</ele>
        <time>2012-03-11T10:19:06Z</time>
      </trkpt>
      <trkpt lat="43.51729" lon="1.41352">
        <ele>133</ele>
        <time>2012-03-11T10:19:07Z</time>
      </trkpt>
      <trkpt lat="43.5173" lon="1.4135">
        <ele>133</ele>
        <time>2012-03-11T10:19:08Z</time>
      </trkpt>
      <trkpt lat="43.51732" lon="1.41349">
        <ele>133</ele>
        <time>2012-03-11T10:19:09Z</time>
      </trkpt>
      <trkpt lat="43.51733" lon="1.41347">
        <ele>133</ele>
        <time>2012-03-11T10:19:10Z</time>
      </trkpt>
      <trkpt lat="43.51734" lon="1.41346">
        <ele>133</ele>
        <time>2012-03-11T10:19:11Z</time>
      </trkpt>
      <trkpt lat="43.51736" lon="1.41345">
        <ele>133</ele>
        <time>2012-03-11T10:19:12Z</time>
      </trkpt>
      <trkpt lat="43.51737" lon="1.41343">
        <ele>133</ele>
        <time>2012-03-11T10:19:13Z</time>
      </trkpt>
      <trkpt lat="43.51738" lon="1.41343">
        <ele>133</ele>
        <time>2012-03-11T10:19:14Z</time>
      </trkpt>
      <trkpt lat="43.5174" lon="1.41342">
        <ele>133</ele>
        <time>2012-03-11T10:19:15Z</time>
      </trkpt>
      <trkpt lat="43.51741" lon="1.41342">
        <ele>133</ele>
        <time>2012-03-11T10:19:16Z</time>
      </trkpt>
      <trkpt lat="43.51743" lon="1.41341">
        <ele>133</ele>
        <time>2012-03-11T10:19:17Z</time>
      </trkpt>
      <trkpt lat="43.51744" lon="1.4134">
        <ele>133</ele>
        <time>2012-03-11T10:19:18Z</time>
      </trkpt>
      <trkpt lat="43.51746" lon="1.4134">
        <ele>133</ele>
        <time>2012-03-11T10:19:19Z</time>
      </trkpt>
      <trkpt lat="43.51748" lon="1.41339">
        <ele>133</ele>
        <time>2012-03-11T10:19:20Z</time>
      </trkpt>
      <trkpt lat="43.51749" lon="1.41338">
        <ele>133</ele>
        <time>2012-03-11T10:19:21Z</time>
      </trkpt>
      <trkpt lat="43.51751" lon="1.41337">
        <ele>133</ele>
        <time>2012-03-11T10:19:23Z</time>
      </trkpt>
      <trkpt lat="43.51752" lon="1.41337">
        <ele>133</ele>
        <time>2012-03-11T10:19:24Z</time>
      </trkpt>
      <trkpt lat="43.51754" lon="1.41336">
        <ele>133</ele>
        <time>2012-03-11T10:19:25Z</time>
      </trkpt>
      <trkpt lat="43.51755" lon="1.41336">
        <ele>133</ele>
        <time>2012-03-11T10:19:26Z</time>
      </trkpt>
      <trkpt lat="43.51756" lon="1.41335">
        <ele>133</ele>
        <time>2012-03-11T10:19:27Z</time>
      </trkpt>
      <trkpt lat="43.51757" lon="1.41334">
        <ele>133</ele>
        <time>2012-03-11T10:19:28Z</time>
      </trkpt>
      <trkpt lat="43.51759" lon="1.41334">
        <ele>133</ele>
        <time>2012-03-11T10:19:29Z</time>
      </trkpt>
      <trkpt lat="43.5176" lon="1.41334">
        <ele>133</ele>
        <time>2012-03-11T10:19:30Z</time>
      </trkpt>
      <trkpt lat="43.51762" lon="1.41334">
        <ele>133</ele>
        <time>2012-03-11T10:19:31Z</time>
      </trkpt>
      <trkpt lat="43.51763" lon="1.41334">
        <ele>133</ele>
        <time>2012-03-11T10:19:32Z</time>
      </trkpt>
      <trkpt lat="43.51765" lon="1.41334">
        <ele>133</ele>
        <time>2012-03-11T10:19:33Z</time>
      </trkpt>
      <trkpt lat="43.51767" lon="1.41335">
        <ele>133</ele>
        <time>2012-03-11T10:19:34Z</time>
      </trkpt>
      <trkpt lat="43.51768" lon="1.41336">
        <ele>133</ele>
        <time>2012-03-11T10:19:35Z</time>
      </trkpt>
      <trkpt lat="43.5177" lon="1.41337">
        <ele>133</ele>
        <time>2012-03-11T10:19:36Z</time>
      </trkpt>
      <trkpt lat="43.51772" lon="1.41338">
        <ele>133</ele>
        <time>2012-03-11T10:19:37Z</time>
      </trkpt>
      <trkpt lat="43.51773" lon="1.41338">
        <ele>133</ele>
        <time>2012-03-11T10:19:38Z</time>
      </trkpt>
      <trkpt lat="43.51775" lon="1.41339">
        <ele>133</ele>
        <time>2012-03-11T10:19:39Z</time>
      </trkpt>
      <trkpt lat="43.51776" lon="1.41339">
        <ele>133</ele>
        <time>2012-03-11T10:19:40Z</time>
      </trkpt>
      <trkpt lat="43.51778" lon="1.41339">
        <ele>133</ele>
        <time>2012-03-11T10:19:41Z</time>
      </trkpt>
      <trkpt lat="43.51779" lon="1.4134">
        <ele>133</ele>
        <time>2012-03-11T10:19:42Z</time>
      </trkpt>
      <trkpt lat="43.5178" lon="1.4134">
        <ele>133</ele>
        <time>2012-03-11T10:19:43Z</time>
      </trkpt>
      <trkpt lat="43.51782" lon="1.41341">
        <ele>133</ele>
        <time>2012-03-11T10:19:44Z</time>
      </trkpt>
      <trkpt lat="43.51783" lon="1.41342">
        <ele>133</ele>
        <time>2012-03-11T10:19:45Z</time>
      </trkpt>
      <trkpt lat="43.51785" lon="1.41343">
        <ele>133</ele>
        <time>2012-03-11T10:19:46Z</time>
      </trkpt>
      <trkpt lat="43.51786" lon="1.41343">
        <ele>133</ele>
        <time>2012-03-11T10:19:47Z</time>
      </trkpt>
      <trkpt lat="43.51788" lon="1.41344">
        <ele>133</ele>
        <time>2012-03-11T10:19:48Z</time>
      </trkpt>
      <trkpt lat="43.51789" lon="1.41345">
        <ele>133</ele>
        <time>2012-03-11T10:19:49Z</time>
      </trkpt>
      <trkpt lat="43.51791" lon="1.41346">
        <ele>133</ele>
        <time>2012-03-11T10:19:50Z</time>
      </trkpt>
      <trkpt lat="43.51793" lon="1.41346">
        <ele>133</ele>
        <time>2012-03-11T10:19:51Z</time>
      </trkpt>
      <trkpt lat="43.51795" lon="1.41348">
        <ele>133</ele>
        <time>2012-03-11T10:19:53Z</time>
      </trkpt>
      <trkpt lat="43.51796" lon="1.41349">
        <ele>133</ele>
        <time>2012-03-11T10:19:54Z</time>
      </trkpt>
      <trkpt lat="43.51798" lon="1.41349">
        <ele>133</ele>
        <time>2012-03-11T10:19:55Z</time>
      </trkpt>
      <trkpt lat="43.51799" lon="1.4135">
        <ele>133</ele>
        <time>2012-03-11T10:19:56Z</time>
      </trkpt>
      <trkpt lat="43.51801" lon="1.4135">
        <ele>133</ele>
        <time>2012-03-11T10:19:57Z</time>
      </trkpt>
      <trkpt lat="43.51803" lon="1.4135">
        <ele>133</ele>
        <time>2012-03-11T10:19:58Z</time>
      </trkpt>
      <trkpt lat="43.51804" lon="1.41351">
        <ele>133</ele>
        <time>2012-03-11T10:19:59Z</time>
      </trkpt>
      <trkpt lat="43.51806" lon="1.41351">
        <ele>133</ele>
        <time>2012-03-11T10:20:00Z</time>
      </trkpt>
      <trkpt lat="43.51808" lon="1.41352">
        <ele>133</ele>
        <time>2012-03-11T10:20:01Z</time>
      </trkpt>
      <trkpt lat="43.51809" lon="1.41352">
        <ele>133</ele>
        <time>2012-03-11T10:20:02Z</time>
      </trkpt>
      <trkpt lat="43.51811" lon="1.41353">
        <ele>133</ele>
        <time>2012-03-11T10:20:03Z</time>
      </trkpt>
      <trkpt lat="43.51812" lon="1.41353">
        <ele>133</ele>
        <time>2012-03-11T10:20:04Z</time>
      </trkpt>
      <trkpt lat="43.51814" lon="1.41354">
        <ele>133</ele>
        <time>2012-03-11T10:20:05Z</time>
      </trkpt>
      <trkpt lat="43.51816" lon="1.41354">
        <ele>133</ele>
        <time>2012-03-11T10:20:06Z</time>
      </trkpt>
      <trkpt lat="43.51817" lon="1.41355">
        <ele>133</ele>
        <time>2012-03-11T10:20:07Z</time>
      </trkpt>
      <trkpt lat="43.51819" lon="1.41356">
        <ele>133</ele>
        <time>2012-03-11T10:20:08Z</time>
      </trkpt>
      <trkpt lat="43.5182" lon="1.41356">
        <ele>133</ele>
        <time>2012-03-11T10:20:09Z</time>
      </trkpt>
      <trkpt lat="43.51822" lon="1.41357">
        <ele>133</ele>
        <time>2012-03-11T10:20:10Z</time>
      </trkpt>
      <trkpt lat="43.51823" lon="1.41357">
        <ele>133</ele>
        <time>2012-03-11T10:20:11Z</time>
      </trkpt>
      <trkpt lat="43.51825" lon="1.41358">
        <ele>133</ele>
        <time>2012-03-11T10:20:12Z</time>
      </trkpt>
      <trkpt lat="43.51827" lon="1.41358">
        <ele>133</ele>
        <time>2012-03-11T10:20:13Z</time>
      </trkpt>
      <trkpt lat="43.51828" lon="1.41359">
        <ele>133</ele>
        <time>2012-03-11T10:20:14Z</time>
      </trkpt>
      <trkpt lat="43.5183" lon="1.4136">
        <ele>133</ele>
        <time>2012-03-11T10:20:15Z</time>
      </trkpt>
      <trkpt lat="43.51831" lon="1.41361">
        <ele>133</ele>
        <time>2012-03-11T10:20:16Z</time>
      </trkpt>
      <trkpt lat="43.51833" lon="1.41361">
        <ele>133</ele>
        <time>2012-03-11T10:20:17Z</time>
      </trkpt>
      <trkpt lat="43.51835" lon="1.41362">
        <ele>133</ele>
        <time>2012-03-11T10:20:18Z</time>
      </trkpt>
      <trkpt lat="43.51836" lon="1.41363">
        <ele>133</ele>
        <time>2012-03-11T10:20:19Z</time>
      </trkpt>
      <trkpt lat="43.51838" lon="1.41363">
        <ele>133</ele>
        <time>2012-03-11T10:20:20Z</time>
      </trkpt>
      <trkpt lat="43.5184" lon="1.41364">
        <ele>133</ele>
        <time>2012-03-11T10:20:21Z</time>
      </trkpt>
      <trkpt lat="43.51841" lon="1.41365">
        <ele>133</ele>
        <time>2012-03-11T10:20:22Z</time>
      </trkpt>
      <trkpt lat="43.51842" lon="1.41366">
        <ele>133</ele>
        <time>2012-03-11T10:20:23Z</time>
      </trkpt>
      <trkpt lat="43.51845" lon="1.41367">
        <ele>133</ele>
        <time>2012-03-11T10:20:25Z</time>
      </trkpt>
      <trkpt lat="43.51846" lon="1.41368">
        <ele>133</ele>
        <time>2012-03-11T10:20:26Z</time>
      </trkpt>
      <trkpt lat="43.51848" lon="1.41369">
        <ele>133</ele>
        <time>2012-03-11T10:20:27Z</time>
      </trkpt>
      <trkpt lat="43.51849" lon="1.4137">
        <ele>133</ele>
        <time>2012-03-11T10:20:28Z</time>
      </trkpt>
      <trkpt lat="43.51851" lon="1.41371">
        <ele>133</ele>
        <time>2012-03-11T10:20:29Z</time>
      </trkpt>
      <trkpt lat="43.51852" lon="1.41372">
        <ele>133</ele>
        <time>2012-03-11T10:20:30Z</time>
      </trkpt>
      <trkpt lat="43.51853" lon="1.41373">
        <ele>133</ele>
        <time>2012-03-11T10:20:31Z</time>
      </trkpt>
      <trkpt lat="43.51855" lon="1.41374">
        <ele>133</ele>
        <time>2012-03-11T10:20:32Z</time>
      </trkpt>
      <trkpt lat="43.51856" lon="1.41374">
        <ele>133</ele>
        <time>2012-03-11T10:20:33Z</time>
      </trkpt>
      <trkpt lat="43.51858" lon="1.41375">
        <ele>133</ele>
        <time>2012-03-11T10:20:34Z</time>
      </trkpt>
      <trkpt lat="43.51859" lon="1.41376">
        <ele>133</ele>
        <time>2012-03-11T10:20:35Z</time>
      </trkpt>
      <trkpt lat="43.51861" lon="1.41377">
        <ele>133</ele>
        <time>2012-03-11T10:20:36Z</time>
      </trkpt>
      <trkpt lat="43.51862" lon="1.41377">
        <ele>133</ele>
        <time>2012-03-11T10:20:37Z</time>
      </trkpt>
      <trkpt lat="43.51864" lon="1.41378">
        <ele>133</ele>
        <time>2012-03-11T10:20:38Z</time>
      </trkpt>
      <trkpt lat="43.51866" lon="1.41378">
        <ele>133</ele>
        <time>2012-03-11T10:20:39Z</time>
      </trkpt>
      <trkpt lat="43.51867" lon="1.41379">
        <ele>133</ele>
        <time>2012-03-11T10:20:40Z</time>
      </trkpt>
      <trkpt lat="43.51869" lon="1.4138">
        <ele>133</ele>
        <time>2012-03-11T10:20:41Z</time>
      </trkpt>
      <trkpt lat="43.5187" lon="1.41381">
        <ele>133</ele>
        <time>2012-03-11T10:20:42Z</time>
      </trkpt>
      <trkpt lat="43.51872" lon="1.41381">
        <ele>133</ele>
        <time>2012-03-11T10:20:43Z</time>
      </trkpt>
      <trkpt lat="43.51873" lon="1.41382">
        <ele>133</ele>
        <time>2012-03-11T10:20:44Z</time>
      </trkpt>
      <trkpt lat="43.51875" lon="1.41382">
        <ele>133</ele>
        <time>2012-03-11T10:20:45Z</time>
      </trkpt>
      <trkpt lat="43.51876" lon="1.41383">
        <ele>133</ele>
        <time>2012-03-11T10:20:46Z</time>
      </trkpt>
      <trkpt lat="43.51878" lon="1.41383">
        <ele>133</ele>
        <time>2012-03-11T10:20:47Z</time>
      </trkpt>
      <trkpt lat="43.5188" lon="1.41383">
        <ele>133</ele>
        <time>2012-03-11T10:20:48Z</time>
      </trkpt>
      <trkpt lat="43.51882" lon="1.41384">
        <ele>133</ele>
        <time>2012-03-11T10:20:49Z</time>
      </trkpt>
      <trkpt lat="43.51883" lon="1.41384">
        <ele>133</ele>
        <time>2012-03-11T10:20:50Z</time>
      </trkpt>
      <trkpt lat="43.51885" lon="1.41384">
        <ele>133</ele>
        <time>2012-03-11T10:20:51Z</time>
      </trkpt>
      <trkpt lat="43.51886" lon="1.41385">
        <ele>133</ele>
        <time>2012-03-11T10:20:52Z</time>
      </trkpt>
      <trkpt lat="43.51888" lon="1.41386">
        <ele>133</ele>
        <time>2012-03-11T10:20:53Z</time>
      </trkpt>
      <trkpt lat="43.51889" lon="1.41386">
        <ele>133</ele>
        <time>2012-03-11T10:20:54Z</time>
      </trkpt>
      <trkpt lat="43.51891" lon="1.41386">
        <ele>133</ele>
        <time>2012-03-11T10:20:55Z</time>
      </trkpt>
      <trkpt lat="43.51892" lon="1.41387">
        <ele>133</ele>
        <time>2012-03-11T10:20:56Z</time>
      </trkpt>
      <trkpt lat="43.51894" lon="1.41387">
        <ele>133</ele>
        <time>2012-03-11T10:20:57Z</time>
      </trkpt>
      <trkpt lat="43.51896" lon="1.41387">
        <ele>133</ele>
        <time>2012-03-11T10:20:58Z</time>
      </trkpt>
      <trkpt lat="43.51897" lon="1.41387">
        <ele>133</ele>
        <time>2012-03-11T10:20:59Z</time>
      </trkpt>
      <trkpt lat="43.51899" lon="1.41387">
        <ele>133</ele>
        <time>2012-03-11T10:21:00Z</time>
      </trkpt>
      <trkpt lat="43.519" lon="1.41387">
        <ele>133</ele>
        <time>2012-03-11T10:21:01Z</time>
      </trkpt>
      <trkpt lat="43.51902" lon="1.41387">
        <ele>133</ele>
        <time>2012-03-11T10:21:02Z</time>
      </trkpt>
      <trkpt lat="43.51903" lon="1.41388">
        <ele>133</ele>
        <time>2012-03-11T10:21:03Z</time>
      </trkpt>
      <trkpt lat="43.51905" lon="1.41388">
        <ele>133</ele>
        <time>2012-03-11T10:21:04Z</time>
      </trkpt>
      <trkpt lat="43.51906" lon="1.41389">
        <ele>133</ele>
        <time>2012-03-11T10:21:05Z</time>
      </trkpt>
      <trkpt lat="43.51908" lon="1.41389">
        <ele>133</ele>
        <time>2012-03-11T10:21:06Z</time>
      </trkpt>
      <trkpt lat="43.51909" lon="1.4139">
        <ele>133</ele>
        <time>2012-03-11T10:21:07Z</time>
      </trkpt>
      <trkpt lat="43.51911" lon="1.4139">
        <ele>133</ele>
        <time>2012-03-11T10:21:08Z</time>
      </trkpt>
      <trkpt lat="43.51913" lon="1.41391">
        <ele>133</ele>
        <time>2012-03-11T10:21:09Z</time>
      </trkpt>
      <trkpt lat="43.51914" lon="1.41391">
        <ele>133</ele>
        <time>2012-03-11T10:21:10Z</time>
      </trkpt>
      <trkpt lat="43.51916" lon="1.41392">
        <ele>133</ele>
        <time>2012-03-11T10:21:11Z</time>
      </trkpt>
      <trkpt lat="43.51918" lon="1.41392">
        <ele>133</ele>
        <time>2012-03-11T10:21:12Z</time>
      </trkpt>
      <trkpt lat="43.51919" lon="1.41393">
        <ele>133</ele>
        <time>2012-03-11T10:21:13Z</time>
      </trkpt>
      <trkpt lat="43.5192" lon="1.41393">
        <ele>133</ele>
        <time>2012-03-11T10:21:14Z</time>
      </trkpt>
      <trkpt lat="43.51922" lon="1.41394">
        <ele>133</ele>
        <time>2012-03-11T10:21:15Z</time>
      </trkpt>
      <trkpt lat="43.51923" lon="1.41395">
        <ele>133</ele>
        <time>2012-03-11T10:21:16Z</time>
      </trkpt>
      <trkpt lat="43.51925" lon="1.41395">
        <ele>133</ele>
        <time>2012-03-11T10:21:17Z</time>
      </trkpt>
      <trkpt lat="43.51926" lon="1.41396">
        <ele>133</ele>
        <time>2012-03-11T10:21:18Z</time>
      </trkpt>
      <trkpt lat="43.51928" lon="1.41397">
        <ele>133</ele>
        <time>2012-03-11T10:21:19Z</time>
      </trkpt>
      <trkpt lat="43.51929" lon="1.41398">
        <ele>133</ele>
        <time>2012-03-11T10:21:20Z</time>
      </trkpt>
      <trkpt lat="43.51931" lon="1.41398">
        <ele>133</ele>
        <time>2012-03-11T10:21:21Z</time>
      </trkpt>
      <trkpt lat="43.51932" lon="1.41399">
        <ele>133</ele>
        <time>2012-03-11T10:21:22Z</time>
      </trkpt>
      <trkpt lat="43.51933" lon="1.414">
        <ele>133</ele>
        <time>2012-03-11T10:21:23Z</time>
      </trkpt>
      <trkpt lat="43.51934" lon="1.414">
        <ele>133</ele>
        <time>2012-03-11T10:21:24Z</time>
      </trkpt>
      <trkpt lat="43.51936" lon="1.41401">
        <ele>133</ele>
        <time>2012-03-11T10:21:25Z</time>
      </trkpt>
      <trkpt lat="43.51938" lon="1.41402">
        <ele>133</ele>
        <time>2012-03-11T10:21:26Z</time>
      </trkpt>
      <trkpt lat="43.51939" lon="1.41402">
        <ele>133</ele>
        <time>2012-03-11T10:21:27Z</time>
      </trkpt>
      <trkpt lat="43.51941" lon="1.41403">
        <ele>133</ele>
        <time>2012-03-11T10:21:28Z</time>
      </trkpt>
      <trkpt lat="43.51942" lon="1.41404">
        <ele>133</ele>
        <time>2012-03-11T10:21:29Z</time>
      </trkpt>
      <trkpt lat="43.51944" lon="1.41404">
        <ele>132</ele>
        <time>2012-03-11T10:21:30Z</time>
      </trkpt>
      <trkpt lat="43.51945" lon="1.41405">
        <ele>132</ele>
        <time>2012-03-11T10:21:31Z</time>
      </trkpt>
      <trkpt lat="43.51946" lon="1.41406">
        <ele>132</ele>
        <time>2012-03-11T10:21:32Z</time>
      </trkpt>
      <trkpt lat="43.51948" lon="1.41407">
        <ele>132</ele>
        <time>2012-03-11T10:21:33Z</time>
      </trkpt>
      <trkpt lat="43.51949" lon="1.41408">
        <ele>132</ele>
        <time>2012-03-11T10:21:34Z</time>
      </trkpt>
      <trkpt lat="43.51951" lon="1.41409">
        <ele>132</ele>
        <time>2012-03-11T10:21:35Z</time>
      </trkpt>
      <trkpt lat="43.51952" lon="1.4141">
        <ele>132</ele>
        <time>2012-03-11T10:21:36Z</time>
      </trkpt>
      <trkpt lat="43.51954" lon="1.4141">
        <ele>132</ele>
        <time>2012-03-11T10:21:37Z</time>
      </trkpt>
      <trkpt lat="43.51955" lon="1.41411">
        <ele>132</ele>
        <time>2012-03-11T10:21:38Z</time>
      </trkpt>
      <trkpt lat="43.51957" lon="1.41412">
        <ele>132</ele>
        <time>2012-03-11T10:21:39Z</time>
      </trkpt>
      <trkpt lat="43.5196" lon="1.41414">
        <ele>132</ele>
        <time>2012-03-11T10:21:41Z</time>
      </trkpt>
      <trkpt lat="43.51961" lon="1.41416">
        <ele>132</ele>
        <time>2012-03-11T10:21:42Z</time>
      </trkpt>
      <trkpt lat="43.51962" lon="1.41417">
        <ele>132</ele>
        <time>2012-03-11T10:21:43Z</time>
      </trkpt>
      <trkpt lat="43.51963" lon="1.41418">
        <ele>132</ele>
        <time>2012-03-11T10:21:44Z</time>
      </trkpt>
      <trkpt lat="43.51965" lon="1.41419">
        <ele>132</ele>
        <time>2012-03-11T10:21:45Z</time>
      </trkpt>
      <trkpt lat="43.51966" lon="1.41419">
        <ele>132</ele>
        <time>2012-03-11T10:21:46Z</time>
      </trkpt>
      <trkpt lat="43.51968" lon="1.4142">
        <ele>132</ele>
        <time>2012-03-11T10:21:47Z</time>
      </trkpt>
      <trkpt lat="43.51969" lon="1.41421">
        <ele>132</ele>
        <time>2012-03-11T10:21:48Z</time>
      </trkpt>
      <trkpt lat="43.5197" lon="1.41421">
        <ele>132</ele>
        <time>2012-03-11T10:21:49Z</time>
      </trkpt>
      <trkpt lat="43.51971" lon="1.41422">
        <ele>132</ele>
        <time>2012-03-11T10:21:50Z</time>
      </trkpt>
      <trkpt lat="43.51973" lon="1.41423">
        <ele>132</ele>
        <time>2012-03-11T10:21:51Z</time>
      </trkpt>
      <trkpt lat="43.51974" lon="1.41423">
        <ele>132</ele>
        <time>2012-03-11T10:21:52Z</time>
      </trkpt>
      <trkpt lat="43.51976" lon="1.41424">
        <ele>132</ele>
        <time>2012-03-11T10:21:53Z</time>
      </trkpt>
      <trkpt lat="43.51977" lon="1.41425">
        <ele>132</ele>
        <time>2012-03-11T10:21:54Z</time>
      </trkpt>
      <trkpt lat="43.51979" lon="1.41426">
        <ele>132</ele>
        <time>2012-03-11T10:21:55Z</time>
      </trkpt>
      <trkpt lat="43.5198" lon="1.41427">
        <ele>132</ele>
        <time>2012-03-11T10:21:56Z</time>
      </trkpt>
      <trkpt lat="43.51981" lon="1.41427">
        <ele>132</ele>
        <time>2012-03-11T10:21:57Z</time>
      </trkpt>
      <trkpt lat="43.51983" lon="1.41427">
        <ele>132</ele>
        <time>2012-03-11T10:21:58Z</time>
      </trkpt>
      <trkpt lat="43.51984" lon="1.41428">
        <ele>132</ele>
        <time>2012-03-11T10:21:59Z</time>
      </trkpt>
      <trkpt lat="43.51986" lon="1.41428">
        <ele>132</ele>
        <time>2012-03-11T10:22:00Z</time>
      </trkpt>
      <trkpt lat="43.51987" lon="1.41429">
        <ele>132</ele>
        <time>2012-03-11T10:22:01Z</time>
      </trkpt>
      <trkpt lat="43.51989" lon="1.4143">
        <ele>132</ele>
        <time>2012-03-11T10:22:02Z</time>
      </trkpt>
      <trkpt lat="43.5199" lon="1.41431">
        <ele>132</ele>
        <time>2012-03-11T10:22:03Z</time>
      </trkpt>
      <trkpt lat="43.51991" lon="1.41432">
        <ele>132</ele>
        <time>2012-03-11T10:22:04Z</time>
      </trkpt>
      <trkpt lat="43.51992" lon="1.41432">
        <ele>132</ele>
        <time>2012-03-11T10:22:05Z</time>
      </trkpt>
      <trkpt lat="43.51994" lon="1.41434">
        <ele>132</ele>
        <time>2012-03-11T10:22:06Z</time>
      </trkpt>
      <trkpt lat="43.51996" lon="1.41435">
        <ele>132</ele>
        <time>2012-03-11T10:22:07Z</time>
      </trkpt>
      <trkpt lat="43.51997" lon="1.41436">
        <ele>132</ele>
        <time>2012-03-11T10:22:08Z</time>
      </trkpt>
      <trkpt lat="43.51998" lon="1.41437">
        <ele>132</ele>
        <time>2012-03-11T10:22:09Z</time>
      </trkpt>
      <trkpt lat="43.52" lon="1.41438">
        <ele>132</ele>
        <time>2012-03-11T10:22:10Z</time>
      </trkpt>
      <trkpt lat="43.52001" lon="1.41439">
        <ele>132</ele>
        <time>2012-03-11T10:22:11Z</time>
      </trkpt>
      <trkpt lat="43.52002" lon="1.41441">
        <ele>132</ele>
        <time>2012-03-11T10:22:12Z</time>
      </trkpt>
      <trkpt lat="43.52003" lon="1.41443">
        <ele>132</ele>
        <time>2012-03-11T10:22:13Z</time>
      </trkpt>
      <trkpt lat="43.52004" lon="1.41444">
        <ele>132</ele>
        <time>2012-03-11T10:22:14Z</time>
      </trkpt>
      <trkpt lat="43.52006" lon="1.41446">
        <ele>132</ele>
        <time>2012-03-11T10:22:15Z</time>
      </trkpt>
      <trkpt lat="43.52007" lon="1.41447">
        <ele>132</ele>
        <time>2012-03-11T10:22:16Z</time>
      </trkpt>
      <trkpt lat="43.52009" lon="1.41448">
        <ele>132</ele>
        <time>2012-03-11T10:22:17Z</time>
      </trkpt>
      <trkpt lat="43.5201" lon="1.4145">
        <ele>132</ele>
        <time>2012-03-11T10:22:18Z</time>
      </trkpt>
      <trkpt lat="43.52011" lon="1.41451">
        <ele>132</ele>
        <time>2012-03-11T10:22:19Z</time>
      </trkpt>
      <trkpt lat="43.52012" lon="1.41453">
        <ele>132</ele>
        <time>2012-03-11T10:22:20Z</time>
      </trkpt>
      <trkpt lat="43.52013" lon="1.41454">
        <ele>132</ele>
        <time>2012-03-11T10:22:21Z</time>
      </trkpt>
      <trkpt lat="43.52014" lon="1.41456">
        <ele>132</ele>
        <time>2012-03-11T10:22:22Z</time>
      </trkpt>
      <trkpt lat="43.52016" lon="1.41457">
        <ele>132</ele>
        <time>2012-03-11T10:22:23Z</time>
      </trkpt>
      <trkpt lat="43.52018" lon="1.4146">
        <ele>132</ele>
        <time>2012-03-11T10:22:25Z</time>
      </trkpt>
      <trkpt lat="43.52019" lon="1.41461">
        <ele>132</ele>
        <time>2012-03-11T10:22:26Z</time>
      </trkpt>
      <trkpt lat="43.5202" lon="1.41462">
        <ele>132</ele>
        <time>2012-03-11T10:22:27Z</time>
      </trkpt>
      <trkpt lat="43.52021" lon="1.41463">
        <ele>132</ele>
        <time>2012-03-11T10:22:28Z</time>
      </trkpt>
      <trkpt lat="43.52023" lon="1.41464">
        <ele>132</ele>
        <time>2012-03-11T10:22:29Z</time>
      </trkpt>
      <trkpt lat="43.52024" lon="1.41465">
        <ele>132</ele>
        <time>2012-03-11T10:22:30Z</time>
      </trkpt>
      <trkpt lat="43.52026" lon="1.41466">
        <ele>132</ele>
        <time>2012-03-11T10:22:31Z</time>
      </trkpt>
      <trkpt lat="43.52027" lon="1.41467">
        <ele>132</ele>
        <time>2012-03-11T10:22:32Z</time>
      </trkpt>
      <trkpt lat="43.52028" lon="1.41468">
        <ele>132</ele>
        <time>2012-03-11T10:22:33Z</time>
      </trkpt>
      <trkpt lat="43.52029" lon="1.41469">
        <ele>132</ele>
        <time>2012-03-11T10:22:34Z</time>
      </trkpt>
      <trkpt lat="43.52031" lon="1.4147">
        <ele>132</ele>
        <time>2012-03-11T10:22:35Z</time>
      </trkpt>
      <trkpt lat="43.52032" lon="1.41471">
        <ele>132</ele>
        <time>2012-03-11T10:22:36Z</time>
      </trkpt>
      <trkpt lat="43.52034" lon="1.41471">
        <ele>132</ele>
        <time>2012-03-11T10:22:37Z</time>
      </trkpt>
      <trkpt lat="43.52035" lon="1.41472">
        <ele>132</ele>
        <time>2012-03-11T10:22:38Z</time>
      </trkpt>
      <trkpt lat="43.52037" lon="1.41473">
        <ele>132</ele>
        <time>2012-03-11T10:22:39Z</time>
      </trkpt>
      <trkpt lat="43.52038" lon="1.41474">
        <ele>132</ele>
        <time>2012-03-11T10:22:40Z</time>
      </trkpt>
      <trkpt lat="43.52039" lon="1.41475">
        <ele>132</ele>
        <time>2012-03-11T10:22:41Z</time>
      </trkpt>
      <trkpt lat="43.52041" lon="1.41476">
        <ele>132</ele>
        <time>2012-03-11T10:22:42Z</time>
      </trkpt>
      <trkpt lat="43.52042" lon="1.41477">
        <ele>132</ele>
        <time>2012-03-11T10:22:43Z</time>
      </trkpt>
      <trkpt lat="43.52044" lon="1.41478">
        <ele>132</ele>
        <time>2012-03-11T10:22:44Z</time>
      </trkpt>
      <trkpt lat="43.52045" lon="1.41479">
        <ele>132</ele>
        <time>2012-03-11T10:22:45Z</time>
      </trkpt>
      <trkpt lat="43.52047" lon="1.4148">
        <ele>132</ele>
        <time>2012-03-11T10:22:46Z</time>
      </trkpt>
      <trkpt lat="43.52048" lon="1.41481">
        <ele>132</ele>
        <time>2012-03-11T10:22:47Z</time>
      </trkpt>
      <trkpt lat="43.5205" lon="1.41482">
        <ele>132</ele>
        <time>2012-03-11T10:22:48Z</time>
      </trkpt>
      <trkpt lat="43.52051" lon="1.41483">
        <ele>132</ele>
        <time>2012-03-11T10:22:49Z</time>
      </trkpt>
      <trkpt lat="43.52053" lon="1.41483">
        <ele>132</ele>
        <time>2012-03-11T10:22:50Z</time>
      </trkpt>
      <trkpt lat="43.52054" lon="1.41484">
        <ele>132</ele>
        <time>2012-03-11T10:22:51Z</time>
      </trkpt>
      <trkpt lat="43.52055" lon="1.41485">
        <ele>132</ele>
        <time>2012-03-11T10:22:52Z</time>
      </trkpt>
      <trkpt lat="43.52057" lon="1.41486">
        <ele>132</ele>
        <time>2012-03-11T10:22:53Z</time>
      </trkpt>
      <trkpt lat="43.52058" lon="1.41487">
        <ele>132</ele>
        <time>2012-03-11T10:22:54Z</time>
      </trkpt>
      <trkpt lat="43.52059" lon="1.41488">
        <ele>132</ele>
        <time>2012-03-11T10:22:55Z</time>
      </trkpt>
      <trkpt lat="43.5206" lon="1.41488">
        <ele>132</ele>
        <time>2012-03-11T10:22:56Z</time>
      </trkpt>
      <trkpt lat="43.52062" lon="1.41489">
        <ele>132</ele>
        <time>2012-03-11T10:22:57Z</time>
      </trkpt>
      <trkpt lat="43.52063" lon="1.4149">
        <ele>132</ele>
        <time>2012-03-11T10:22:58Z</time>
      </trkpt>
      <trkpt lat="43.52064" lon="1.41491">
        <ele>132</ele>
        <time>2012-03-11T10:22:59Z</time>
      </trkpt>
      <trkpt lat="43.52066" lon="1.41491">
        <ele>132</ele>
        <time>2012-03-11T10:23:00Z</time>
      </trkpt>
      <trkpt lat="43.52067" lon="1.41492">
        <ele>132</ele>
        <time>2012-03-11T10:23:01Z</time>
      </trkpt>
      <trkpt lat="43.52068" lon="1.41493">
        <ele>132</ele>
        <time>2012-03-11T10:23:02Z</time>
      </trkpt>
      <trkpt lat="43.5207" lon="1.41493">
        <ele>132</ele>
        <time>2012-03-11T10:23:03Z</time>
      </trkpt>
      <trkpt lat="43.52071" lon="1.41494">
        <ele>132</ele>
        <time>2012-03-11T10:23:04Z</time>
      </trkpt>
      <trkpt lat="43.52073" lon="1.41495">
        <ele>132</ele>
        <time>2012-03-11T10:23:05Z</time>
      </trkpt>
      <trkpt lat="43.52074" lon="1.41496">
        <ele>132</ele>
        <time>2012-03-11T10:23:06Z</time>
      </trkpt>
      <trkpt lat="43.52076" lon="1.41496">
        <ele>132</ele>
        <time>2012-03-11T10:23:07Z</time>
      </trkpt>
      <trkpt lat="43.52077" lon="1.41497">
        <ele>132</ele>
        <time>2012-03-11T10:23:08Z</time>
      </trkpt>
      <trkpt lat="43.52078" lon="1.41498">
        <ele>132</ele>
        <time>2012-03-11T10:23:09Z</time>
      </trkpt>
      <trkpt lat="43.5208" lon="1.41498">
        <ele>132</ele>
        <time>2012-03-11T10:23:10Z</time>
      </trkpt>
      <trkpt lat="43.52082" lon="1.41499">
        <ele>132</ele>
        <time>2012-03-11T10:23:11Z</time>
      </trkpt>
      <trkpt lat="43.52083" lon="1.41499">
        <ele>132</ele>
        <time>2012-03-11T10:23:12Z</time>
      </trkpt>
      <trkpt lat="43.52085" lon="1.415">
        <ele>132</ele>
        <time>2012-03-11T10:23:13Z</time>
      </trkpt>
      <trkpt lat="43.52086" lon="1.415">
        <ele>132</ele>
        <time>2012-03-11T10:23:14Z</time>
      </trkpt>
      <trkpt lat="43.52088" lon="1.41501">
        <ele>132</ele>
        <time>2012-03-11T10:23:15Z</time>
      </trkpt>
      <trkpt lat="43.52089" lon="1.41501">
        <ele>132</ele>
        <time>2012-03-11T10:23:16Z</time>
      </trkpt>
      <trkpt lat="43.52091" lon="1.41502">
        <ele>132</ele>
        <time>2012-03-11T10:23:17Z</time>
      </trkpt>
      <trkpt lat="43.52092" lon="1.41502">
        <ele>132</ele>
        <time>2012-03-11T10:23:18Z</time>
      </trkpt>
      <trkpt lat="43.52093" lon="1.41503">
        <ele>132</ele>
        <time>2012-03-11T10:23:19Z</time>
      </trkpt>
      <trkpt lat="43.52094" lon="1.41504">
        <ele>132</ele>
        <time>2012-03-11T10:23:20Z</time>
      </trkpt>
      <trkpt lat="43.52096" lon="1.41505">
        <ele>132</ele>
        <time>2012-03-11T10:23:21Z</time>
      </trkpt>
      <trkpt lat="43.52097" lon="1.41505">
        <ele>132</ele>
        <time>2012-03-11T10:23:22Z</time>
      </trkpt>
      <trkpt lat="43.52098" lon="1.41506">
        <ele>132</ele>
        <time>2012-03-11T10:23:23Z</time>
      </trkpt>
      <trkpt lat="43.521" lon="1.41507">
        <ele>132</ele>
        <time>2012-03-11T10:23:24Z</time>
      </trkpt>
      <trkpt lat="43.52102" lon="1.41507">
        <ele>132</ele>
        <time>2012-03-11T10:23:25Z</time>
      </trkpt>
      <trkpt lat="43.52103" lon="1.41508">
        <ele>132</ele>
        <time>2012-03-11T10:23:26Z</time>
      </trkpt>
      <trkpt lat="43.52105" lon="1.41509">
        <ele>132</ele>
        <time>2012-03-11T10:23:27Z</time>
      </trkpt>
      <trkpt lat="43.52106" lon="1.4151">
        <ele>132</ele>
        <time>2012-03-11T10:23:28Z</time>
      </trkpt>
      <trkpt lat="43.52108" lon="1.4151">
        <ele>132</ele>
        <time>2012-03-11T10:23:29Z</time>
      </trkpt>
      <trkpt lat="43.52109" lon="1.41511">
        <ele>132</ele>
        <time>2012-03-11T10:23:30Z</time>
      </trkpt>
      <trkpt lat="43.52111" lon="1.41511">
        <ele>132</ele>
        <time>2012-03-11T10:23:31Z</time>
      </trkpt>
      <trkpt lat="43.52112" lon="1.41512">
        <ele>132</ele>
        <time>2012-03-11T10:23:32Z</time>
      </trkpt>
      <trkpt lat="43.52113" lon="1.41513">
        <ele>132</ele>
        <time>2012-03-11T10:23:33Z</time>
      </trkpt>
      <trkpt lat="43.52115" lon="1.41514">
        <ele>132</ele>
        <time>2012-03-11T10:23:34Z</time>
      </trkpt>
      <trkpt lat="43.52116" lon="1.41515">
        <ele>132</ele>
        <time>2012-03-11T10:23:35Z</time>
      </trkpt>
      <trkpt lat="43.52118" lon="1.41516">
        <ele>132</ele>
        <time>2012-03-11T10:23:36Z</time>
      </trkpt>
      <trkpt lat="43.52119" lon="1.41517">
        <ele>132</ele>
        <time>2012-03-11T10:23:37Z</time>
      </trkpt>
      <trkpt lat="43.52121" lon="1.41518">
        <ele>132</ele>
        <time>2012-03-11T10:23:38Z</time>
      </trkpt>
      <trkpt lat="43.52122" lon="1.41519">
        <ele>132</ele>
        <time>2012-03-11T10:23:39Z</time>
      </trkpt>
      <trkpt lat="43.52124" lon="1.4152">
        <ele>132</ele>
        <time>2012-03-11T10:23:40Z</time>
      </trkpt>
      <trkpt lat="43.52125" lon="1.4152">
        <ele>132</ele>
        <time>2012-03-11T10:23:41Z</time>
      </trkpt>
      <trkpt lat="43.52126" lon="1.41521">
        <ele>132</ele>
        <time>2012-03-11T10:23:42Z</time>
      </trkpt>
      <trkpt lat="43.52128" lon="1.41522">
        <ele>132</ele>
        <time>2012-03-11T10:23:43Z</time>
      </trkpt>
      <trkpt lat="43.52129" lon="1.41523">
        <ele>132</ele>
        <time>2012-03-11T10:23:44Z</time>
      </trkpt>
      <trkpt lat="43.52131" lon="1.41524">
        <ele>132</ele>
        <time>2012-03-11T10:23:45Z</time>
      </trkpt>
      <trkpt lat="43.52132" lon="1.41525">
        <ele>132</ele>
        <time>2012-03-11T10:23:46Z</time>
      </trkpt>
      <trkpt lat="43.52134" lon="1.41526">
        <ele>132</ele>
        <time>2012-03-11T10:23:47Z</time>
      </trkpt>
      <trkpt lat="43.52135" lon="1.41527">
        <ele>132</ele>
        <time>2012-03-11T10:23:48Z</time>
      </trkpt>
      <trkpt lat="43.52137" lon="1.41527">
        <ele>132</ele>
        <time>2012-03-11T10:23:49Z</time>
      </trkpt>
      <trkpt lat="43.52139" lon="1.41528">
        <ele>132</ele>
        <time>2012-03-11T10:23:50Z</time>
      </trkpt>
      <trkpt lat="43.5214" lon="1.41529">
        <ele>132</ele>
        <time>2012-03-11T10:23:51Z</time>
      </trkpt>
      <trkpt lat="43.52142" lon="1.4153">
        <ele>132</ele>
        <time>2012-03-11T10:23:52Z</time>
      </trkpt>
      <trkpt lat="43.52143" lon="1.41531">
        <ele>132</ele>
        <time>2012-03-11T10:23:53Z</time>
      </trkpt>
      <trkpt lat="43.52144" lon="1.41532">
        <ele>132</ele>
        <time>2012-03-11T10:23:54Z</time>
      </trkpt>
      <trkpt lat="43.52146" lon="1.41533">
        <ele>132</ele>
        <time>2012-03-11T10:23:55Z</time>
      </trkpt>
      <trkpt lat="43.52147" lon="1.41534">
        <ele>132</ele>
        <time>2012-03-11T10:23:56Z</time>
      </trkpt>
      <trkpt lat="43.52148" lon="1.41535">
        <ele>132</ele>
        <time>2012-03-11T10:23:57Z</time>
      </trkpt>
      <trkpt lat="43.5215" lon="1.41536">
        <ele>132</ele>
        <time>2012-03-11T10:23:58Z</time>
      </trkpt>
      <trkpt lat="43.52151" lon="1.41537">
        <ele>132</ele>
        <time>2012-03-11T10:23:59Z</time>
      </trkpt>
      <trkpt lat="43.52153" lon="1.41538">
        <ele>132</ele>
        <time>2012-03-11T10:24:00Z</time>
      </trkpt>
      <trkpt lat="43.52154" lon="1.41539">
        <ele>132</ele>
        <time>2012-03-11T10:24:01Z</time>
      </trkpt>
      <trkpt lat="43.52156" lon="1.4154">
        <ele>132</ele>
        <time>2012-03-11T10:24:02Z</time>
      </trkpt>
      <trkpt lat="43.52157" lon="1.41541">
        <ele>132</ele>
        <time>2012-03-11T10:24:03Z</time>
      </trkpt>
      <trkpt lat="43.52159" lon="1.41542">
        <ele>132</ele>
        <time>2012-03-11T10:24:04Z</time>
      </trkpt>
      <trkpt lat="43.5216" lon="1.41543">
        <ele>132</ele>
        <time>2012-03-11T10:24:05Z</time>
      </trkpt>
      <trkpt lat="43.52162" lon="1.41544">
        <ele>132</ele>
        <time>2012-03-11T10:24:06Z</time>
      </trkpt>
      <trkpt lat="43.52163" lon="1.41545">
        <ele>132</ele>
        <time>2012-03-11T10:24:07Z</time>
      </trkpt>
      <trkpt lat="43.52165" lon="1.41546">
        <ele>132</ele>
        <time>2012-03-11T10:24:08Z</time>
      </trkpt>
      <trkpt lat="43.52166" lon="1.41547">
        <ele>132</ele>
        <time>2012-03-11T10:24:09Z</time>
      </trkpt>
      <trkpt lat="43.52168" lon="1.41548">
        <ele>132</ele>
        <time>2012-03-11T10:24:10Z</time>
      </trkpt>
      <trkpt lat="43.5217" lon="1.41548">
        <ele>132</ele>
        <time>2012-03-11T10:24:11Z</time>
      </trkpt>
      <trkpt lat="43.52171" lon="1.41549">
        <ele>132</ele>
        <time>2012-03-11T10:24:12Z</time>
      </trkpt>
      <trkpt lat="43.52172" lon="1.4155">
        <ele>132</ele>
        <time>2012-03-11T10:24:13Z</time>
      </trkpt>
      <trkpt lat="43.52174" lon="1.41551">
        <ele>132</ele>
        <time>2012-03-11T10:24:14Z</time>
      </trkpt>
      <trkpt lat="43.52176" lon="1.41552">
        <ele>132</ele>
        <time>2012-03-11T10:24:15Z</time>
      </trkpt>
      <trkpt lat="43.52177" lon="1.41553">
        <ele>132</ele>
        <time>2012-03-11T10:24:16Z</time>
      </trkpt>
      <trkpt lat="43.52179" lon="1.41554">
        <ele>132</ele>
        <time>2012-03-11T10:24:17Z</time>
      </trkpt>
      <trkpt lat="43.5218" lon="1.41556">
        <ele>132</ele>
        <time>2012-03-11T10:24:18Z</time>
      </trkpt>
      <trkpt lat="43.52181" lon="1.41557">
        <ele>132</ele>
        <time>2012-03-11T10:24:19Z</time>
      </trkpt>
      <trkpt lat="43.52182" lon="1.41558">
        <ele>132</ele>
        <time>2012-03-11T10:24:20Z</time>
      </trkpt>
      <trkpt lat="43.52184" lon="1.41559">
        <ele>132</ele>
        <time>2012-03-11T10:24:21Z</time>
      </trkpt>
      <trkpt lat="43.52185" lon="1.4156">
        <ele>132</ele>
        <time>2012-03-11T10:24:22Z</time>
      </trkpt>
      <trkpt lat="43.52187" lon="1.41561">
        <ele>132</ele>
        <time>2012-03-11T10:24:23Z</time>
      </trkpt>
      <trkpt lat="43.52188" lon="1.41562">
        <ele>132</ele>
        <time>2012-03-11T10:24:24Z</time>
      </trkpt>
      <trkpt lat="43.52189" lon="1.41563">
        <ele>132</ele>
        <time>2012-03-11T10:24:25Z</time>
      </trkpt>
      <trkpt lat="43.5219" lon="1.41565">
        <ele>132</ele>
        <time>2012-03-11T10:24:26Z</time>
      </trkpt>
      <trkpt lat="43.52192" lon="1.41566">
        <ele>132</ele>
        <time>2012-03-11T10:24:27Z</time>
      </trkpt>
      <trkpt lat="43.52193" lon="1.41568">
        <ele>132</ele>
        <time>2012-03-11T10:24:28Z</time>
      </trkpt>
      <trkpt lat="43.52194" lon="1.41569">
        <ele>132</ele>
        <time>2012-03-11T10:24:29Z</time>
      </trkpt>
      <trkpt lat="43.52195" lon="1.4157">
        <ele>132</ele>
        <time>2012-03-11T10:24:30Z</time>
      </trkpt>
      <trkpt lat="43.52197" lon="1.41571">
        <ele>132</ele>
        <time>2012-03-11T10:24:31Z</time>
      </trkpt>
      <trkpt lat="43.52198" lon="1.41572">
        <ele>132</ele>
        <time>2012-03-11T10:24:32Z</time>
      </trkpt>
      <trkpt lat="43.52199" lon="1.41574">
        <ele>132</ele>
        <time>2012-03-11T10:24:33Z</time>
      </trkpt>
      <trkpt lat="43.522" lon="1.41576">
        <ele>132</ele>
        <time>2012-03-11T10:24:34Z</time>
      </trkpt>
      <trkpt lat="43.52201" lon="1.41577">
        <ele>132</ele>
        <time>2012-03-11T10:24:35Z</time>
      </trkpt>
      <trkpt lat="43.52202" lon="1.41579">
        <ele>132</ele>
        <time>2012-03-11T10:24:36Z</time>
      </trkpt>
      <trkpt lat="43.52203" lon="1.4158">
        <ele>132</ele>
        <time>2012-03-11T10:24:37Z</time>
      </trkpt>
      <trkpt lat="43.52204" lon="1.41582">
        <ele>132</ele>
        <time>2012-03-11T10:24:38Z</time>
      </trkpt>
      <trkpt lat="43.52206" lon="1.41584">
        <ele>132</ele>
        <time>2012-03-11T10:24:39Z</time>
      </trkpt>
      <trkpt lat="43.52206" lon="1.41585">
        <ele>132</ele>
        <time>2012-03-11T10:24:40Z</time>
      </trkpt>
      <trkpt lat="43.52208" lon="1.41587">
        <ele>132</ele>
        <time>2012-03-11T10:24:42Z</time>
      </trkpt>
      <trkpt lat="43.5221" lon="1.41588">
        <ele>132</ele>
        <time>2012-03-11T10:24:43Z</time>
      </trkpt>
      <trkpt lat="43.52211" lon="1.4159">
        <ele>132</ele>
        <time>2012-03-11T10:24:44Z</time>
      </trkpt>
      <trkpt lat="43.52212" lon="1.41591">
        <ele>132</ele>
        <time>2012-03-11T10:24:45Z</time>
      </trkpt>
      <trkpt lat="43.52214" lon="1.41592">
        <ele>132</ele>
        <time>2012-03-11T10:24:46Z</time>
      </trkpt>
      <trkpt lat="43.52215" lon="1.41594">
        <ele>132</ele>
        <time>2012-03-11T10:24:47Z</time>
      </trkpt>
      <trkpt lat="43.52216" lon="1.41595">
        <ele>132</ele>
        <time>2012-03-11T10:24:48Z</time>
      </trkpt>
      <trkpt lat="43.52217" lon="1.41597">
        <ele>132</ele>
        <time>2012-03-11T10:24:49Z</time>
      </trkpt>
      <trkpt lat="43.52218" lon="1.41598">
        <ele>132</ele>
        <time>2012-03-11T10:24:50Z</time>
      </trkpt>
      <trkpt lat="43.52219" lon="1.416">
        <ele>132</ele>
        <time>2012-03-11T10:24:51Z</time>
      </trkpt>
      <trkpt lat="43.5222" lon="1.41601">
        <ele>132</ele>
        <time>2012-03-11T10:24:52Z</time>
      </trkpt>
      <trkpt lat="43.52222" lon="1.41602">
        <ele>132</ele>
        <time>2012-03-11T10:24:53Z</time>
      </trkpt>
      <trkpt lat="43.52223" lon="1.41604">
        <ele>132</ele>
        <time>2012-03-11T10:24:54Z</time>
      </trkpt>
      <trkpt lat="43.52224" lon="1.41605">
        <ele>132</ele>
        <time>2012-03-11T10:24:55Z</time>
      </trkpt>
      <trkpt lat="43.52225" lon="1.41606">
        <ele>132</ele>
        <time>2012-03-11T10:24:56Z</time>
      </trkpt>
      <trkpt lat="43.52227" lon="1.41607">
        <ele>132</ele>
        <time>2012-03-11T10:24:57Z</time>
      </trkpt>
      <trkpt lat="43.52228" lon="1.41608">
        <ele>132</ele>
        <time>2012-03-11T10:24:58Z</time>
      </trkpt>
      <trkpt lat="43.52229" lon="1.4161">
        <ele>132</ele>
        <time>2012-03-11T10:24:59Z</time>
      </trkpt>
      <trkpt lat="43.5223" lon="1.41611">
        <ele>132</ele>
        <time>2012-03-11T10:25:00Z</time>
      </trkpt>
      <trkpt lat="43.52232" lon="1.41612">
        <ele>132</ele>
        <time>2012-03-11T10:25:01Z</time>
      </trkpt>
      <trkpt lat="43.52233" lon="1.41613">
        <ele>132</ele>
        <time>2012-03-11T10:25:02Z</time>
      </trkpt>
      <trkpt lat="43.52234" lon="1.41615">
        <ele>132</ele>
        <time>2012-03-11T10:25:03Z</time>
      </trkpt>
      <trkpt lat="43.52235" lon="1.41616">
        <ele>132</ele>
        <time>2012-03-11T10:25:04Z</time>
      </trkpt>
      <trkpt lat="43.52237" lon="1.41618">
        <ele>132</ele>
        <time>2012-03-11T10:25:05Z</time>
      </trkpt>
      <trkpt lat="43.52238" lon="1.41619">
        <ele>132</ele>
        <time>2012-03-11T10:25:06Z</time>
      </trkpt>
      <trkpt lat="43.5224" lon="1.4162">
        <ele>132</ele>
        <time>2012-03-11T10:25:07Z</time>
      </trkpt>
      <trkpt lat="43.52241" lon="1.41622">
        <ele>132</ele>
        <time>2012-03-11T10:25:08Z</time>
      </trkpt>
      <trkpt lat="43.52242" lon="1.41623">
        <ele>132</ele>
        <time>2012-03-11T10:25:09Z</time>
      </trkpt>
      <trkpt lat="43.52243" lon="1.41625">
        <ele>132</ele>
        <time>2012-03-11T10:25:10Z</time>
      </trkpt>
      <trkpt lat="43.52243" lon="1.41627">
        <ele>132</ele>
        <time>2012-03-11T10:25:11Z</time>
      </trkpt>
      <trkpt lat="43.52245" lon="1.41628">
        <ele>132</ele>
        <time>2012-03-11T10:25:12Z</time>
      </trkpt>
      <trkpt lat="43.52245" lon="1.4163">
        <ele>132</ele>
        <time>2012-03-11T10:25:13Z</time>
      </trkpt>
      <trkpt lat="43.52246" lon="1.41632">
        <ele>132</ele>
        <time>2012-03-11T10:25:14Z</time>
      </trkpt>
      <trkpt lat="43.52247" lon="1.41634">
        <ele>133</ele>
        <time>2012-03-11T10:25:15Z</time>
      </trkpt>
      <trkpt lat="43.52248" lon="1.41636">
        <ele>133</ele>
        <time>2012-03-11T10:25:16Z</time>
      </trkpt>
      <trkpt lat="43.52249" lon="1.41637">
        <ele>133</ele>
        <time>2012-03-11T10:25:17Z</time>
      </trkpt>
      <trkpt lat="43.52249" lon="1.41639">
        <ele>133</ele>
        <time>2012-03-11T10:25:18Z</time>
      </trkpt>
      <trkpt lat="43.5225" lon="1.41641">
        <ele>133</ele>
        <time>2012-03-11T10:25:19Z</time>
      </trkpt>
      <trkpt lat="43.52251" lon="1.41643">
        <ele>133</ele>
        <time>2012-03-11T10:25:20Z</time>
      </trkpt>
      <trkpt lat="43.52251" lon="1.41645">
        <ele>133</ele>
        <time>2012-03-11T10:25:21Z</time>
      </trkpt>
      <trkpt lat="43.52253" lon="1.41647">
        <ele>133</ele>
        <time>2012-03-11T10:25:22Z</time>
      </trkpt>
      <trkpt lat="43.52253" lon="1.41648">
        <ele>133</ele>
        <time>2012-03-11T10:25:23Z</time>
      </trkpt>
      <trkpt lat="43.52255" lon="1.41649">
        <ele>133</ele>
        <time>2012-03-11T10:25:24Z</time>
      </trkpt>
      <trkpt lat="43.52256" lon="1.41651">
        <ele>133</ele>
        <time>2012-03-11T10:25:25Z</time>
      </trkpt>
      <trkpt lat="43.52257" lon="1.41654">
        <ele>133</ele>
        <time>2012-03-11T10:25:27Z</time>
      </trkpt>
      <trkpt lat="43.52258" lon="1.41655">
        <ele>133</ele>
        <time>2012-03-11T10:25:28Z</time>
      </trkpt>
      <trkpt lat="43.52259" lon="1.41656">
        <ele>133</ele>
        <time>2012-03-11T10:25:29Z</time>
      </trkpt>
      <trkpt lat="43.5226" lon="1.41658">
        <ele>133</ele>
        <time>2012-03-11T10:25:30Z</time>
      </trkpt>
      <trkpt lat="43.52261" lon="1.4166">
        <ele>133</ele>
        <time>2012-03-11T10:25:31Z</time>
      </trkpt>
      <trkpt lat="43.52263" lon="1.41663">
        <ele>133</ele>
        <time>2012-03-11T10:25:33Z</time>
      </trkpt>
      <trkpt lat="43.52265" lon="1.41665">
        <ele>133</ele>
        <time>2012-03-11T10:25:35Z</time>
      </trkpt>
      <trkpt lat="43.52267" lon="1.41667">
        <ele>133</ele>
        <time>2012-03-11T10:25:36Z</time>
      </trkpt>
      <trkpt lat="43.52268" lon="1.41668">
        <ele>133</ele>
        <time>2012-03-11T10:25:37Z</time>
      </trkpt>
      <trkpt lat="43.52269" lon="1.41669">
        <ele>133</ele>
        <time>2012-03-11T10:25:38Z</time>
      </trkpt>
      <trkpt lat="43.5227" lon="1.41671">
        <ele>133</ele>
        <time>2012-03-11T10:25:39Z</time>
      </trkpt>
      <trkpt lat="43.52271" lon="1.41673">
        <ele>133</ele>
        <time>2012-03-11T10:25:40Z</time>
      </trkpt>
      <trkpt lat="43.52272" lon="1.41674">
        <ele>133</ele>
        <time>2012-03-11T10:25:41Z</time>
      </trkpt>
      <trkpt lat="43.52274" lon="1.41676">
        <ele>133</ele>
        <time>2012-03-11T10:25:42Z</time>
      </trkpt>
      <trkpt lat="43.52275" lon="1.41677">
        <ele>133</ele>
        <time>2012-03-11T10:25:43Z</time>
      </trkpt>
      <trkpt lat="43.52276" lon="1.41678">
        <ele>133</ele>
        <time>2012-03-11T10:25:44Z</time>
      </trkpt>
      <trkpt lat="43.52277" lon="1.4168">
        <ele>133</ele>
        <time>2012-03-11T10:25:45Z</time>
      </trkpt>
      <trkpt lat="43.52279" lon="1.41681">
        <ele>133</ele>
        <time>2012-03-11T10:25:46Z</time>
      </trkpt>
      <trkpt lat="43.5228" lon="1.41682">
        <ele>133</ele>
        <time>2012-03-11T10:25:47Z</time>
      </trkpt>
      <trkpt lat="43.52282" lon="1.41683">
        <ele>133</ele>
        <time>2012-03-11T10:25:48Z</time>
      </trkpt>
      <trkpt lat="43.52283" lon="1.41685">
        <ele>133</ele>
        <time>2012-03-11T10:25:49Z</time>
      </trkpt>
      <trkpt lat="43.52285" lon="1.41688">
        <ele>133</ele>
        <time>2012-03-11T10:25:51Z</time>
      </trkpt>
      <trkpt lat="43.52286" lon="1.41689">
        <ele>133</ele>
        <time>2012-03-11T10:25:52Z</time>
      </trkpt>
      <trkpt lat="43.52287" lon="1.41691">
        <ele>133</ele>
        <time>2012-03-11T10:25:53Z</time>
      </trkpt>
      <trkpt lat="43.52288" lon="1.41692">
        <ele>133</ele>
        <time>2012-03-11T10:25:54Z</time>
      </trkpt>
      <trkpt lat="43.5229" lon="1.41693">
        <ele>133</ele>
        <time>2012-03-11T10:25:55Z</time>
      </trkpt>
      <trkpt lat="43.52291" lon="1.41695">
        <ele>133</ele>
        <time>2012-03-11T10:25:56Z</time>
      </trkpt>
      <trkpt lat="43.52292" lon="1.41697">
        <ele>133</ele>
        <time>2012-03-11T10:25:57Z</time>
      </trkpt>
      <trkpt lat="43.52293" lon="1.41699">
        <ele>133</ele>
        <time>2012-03-11T10:25:58Z</time>
      </trkpt>
      <trkpt lat="43.52294" lon="1.417">
        <ele>133</ele>
        <time>2012-03-11T10:25:59Z</time>
      </trkpt>
      <trkpt lat="43.52295" lon="1.41702">
        <ele>133</ele>
        <time>2012-03-11T10:26:00Z</time>
      </trkpt>
      <trkpt lat="43.52296" lon="1.41704">
        <ele>133</ele>
        <time>2012-03-11T10:26:01Z</time>
      </trkpt>
      <trkpt lat="43.52296" lon="1.41706">
        <ele>133</ele>
        <time>2012-03-11T10:26:02Z</time>
      </trkpt>
      <trkpt lat="43.52297" lon="1.41708">
        <ele>133</ele>
        <time>2012-03-11T10:26:03Z</time>
      </trkpt>
      <trkpt lat="43.52297" lon="1.4171">
        <ele>133</ele>
        <time>2012-03-11T10:26:04Z</time>
      </trkpt>
      <trkpt lat="43.52298" lon="1.41712">
        <ele>133</ele>
        <time>2012-03-11T10:26:05Z</time>
      </trkpt>
      <trkpt lat="43.52298" lon="1.41715">
        <ele>133</ele>
        <time>2012-03-11T10:26:06Z</time>
      </trkpt>
      <trkpt lat="43.52298" lon="1.41717">
        <ele>133</ele>
        <time>2012-03-11T10:26:07Z</time>
      </trkpt>
      <trkpt lat="43.52298" lon="1.41719">
        <ele>133</ele>
        <time>2012-03-11T10:26:08Z</time>
      </trkpt>
      <trkpt lat="43.52298" lon="1.41721">
        <ele>133</ele>
        <time>2012-03-11T10:26:09Z</time>
      </trkpt>
      <trkpt lat="43.52299" lon="1.41723">
        <ele>133</ele>
        <time>2012-03-11T10:26:10Z</time>
      </trkpt>
      <trkpt lat="43.52299" lon="1.41725">
        <ele>133</ele>
        <time>2012-03-11T10:26:11Z</time>
      </trkpt>
      <trkpt lat="43.523" lon="1.41727">
        <ele>133</ele>
        <time>2012-03-11T10:26:12Z</time>
      </trkpt>
      <trkpt lat="43.52301" lon="1.41729">
        <ele>133</ele>
        <time>2012-03-11T10:26:13Z</time>
      </trkpt>
      <trkpt lat="43.52301" lon="1.41731">
        <ele>133</ele>
        <time>2012-03-11T10:26:14Z</time>
      </trkpt>
      <trkpt lat="43.52302" lon="1.41733">
        <ele>133</ele>
        <time>2012-03-11T10:26:15Z</time>
      </trkpt>
      <trkpt lat="43.52303" lon="1.41735">
        <ele>133</ele>
        <time>2012-03-11T10:26:16Z</time>
      </trkpt>
      <trkpt lat="43.52304" lon="1.41737">
        <ele>133</ele>
        <time>2012-03-11T10:26:17Z</time>
      </trkpt>
      <trkpt lat="43.52304" lon="1.41739">
        <ele>133</ele>
        <time>2012-03-11T10:26:18Z</time>
      </trkpt>
      <trkpt lat="43.52305" lon="1.41741">
        <ele>133</ele>
        <time>2012-03-11T10:26:19Z</time>
      </trkpt>
      <trkpt lat="43.52306" lon="1.41743">
        <ele>133</ele>
        <time>2012-03-11T10:26:20Z</time>
      </trkpt>
      <trkpt lat="43.52306" lon="1.41745">
        <ele>133</ele>
        <time>2012-03-11T10:26:21Z</time>
      </trkpt>
      <trkpt lat="43.52308" lon="1.41747">
        <ele>133</ele>
        <time>2012-03-11T10:26:22Z</time>
      </trkpt>
      <trkpt lat="43.52309" lon="1.41748">
        <ele>133</ele>
        <time>2012-03-11T10:26:23Z</time>
      </trkpt>
      <trkpt lat="43.5231" lon="1.4175">
        <ele>133</ele>
        <time>2012-03-11T10:26:24Z</time>
      </trkpt>
      <trkpt lat="43.52311" lon="1.41752">
        <ele>133</ele>
        <time>2012-03-11T10:26:25Z</time>
      </trkpt>
      <trkpt lat="43.52312" lon="1.41753">
        <ele>133</ele>
        <time>2012-03-11T10:26:26Z</time>
      </trkpt>
      <trkpt lat="43.52313" lon="1.41754">
        <ele>133</ele>
        <time>2012-03-11T10:26:27Z</time>
      </trkpt>
      <trkpt lat="43.52314" lon="1.41756">
        <ele>133</ele>
        <time>2012-03-11T10:26:28Z</time>
      </trkpt>
      <trkpt lat="43.52316" lon="1.41759">
        <ele>133</ele>
        <time>2012-03-11T10:26:30Z</time>
      </trkpt>
      <trkpt lat="43.52317" lon="1.41761">
        <ele>134</ele>
        <time>2012-03-11T10:26:31Z</time>
      </trkpt>
      <trkpt lat="43.52319" lon="1.41763">
        <ele>134</ele>
        <time>2012-03-11T10:26:32Z</time>
      </trkpt>
      <trkpt lat="43.5232" lon="1.41764">
        <ele>134</ele>
        <time>2012-03-11T10:26:33Z</time>
      </trkpt>
      <trkpt lat="43.52321" lon="1.41766">
        <ele>134</ele>
        <time>2012-03-11T10:26:34Z</time>
      </trkpt>
      <trkpt lat="43.52322" lon="1.41768">
        <ele>134</ele>
        <time>2012-03-11T10:26:35Z</time>
      </trkpt>
      <trkpt lat="43.52324" lon="1.41769">
        <ele>134</ele>
        <time>2012-03-11T10:26:36Z</time>
      </trkpt>
      <trkpt lat="43.52325" lon="1.41771">
        <ele>134</ele>
        <time>2012-03-11T10:26:37Z</time>
      </trkpt>
      <trkpt lat="43.52326" lon="1.41772">
        <ele>134</ele>
        <time>2012-03-11T10:26:38Z</time>
      </trkpt>
      <trkpt lat="43.52327" lon="1.41773">
        <ele>134</ele>
        <time>2012-03-11T10:26:39Z</time>
      </trkpt>
      <trkpt lat="43.52328" lon="1.41775">
        <ele>134</ele>
        <time>2012-03-11T10:26:40Z</time>
      </trkpt>
      <trkpt lat="43.52329" lon="1.41777">
        <ele>134</ele>
        <time>2012-03-11T10:26:41Z</time>
      </trkpt>
      <trkpt lat="43.5233" lon="1.41779">
        <ele>134</ele>
        <time>2012-03-11T10:26:42Z</time>
      </trkpt>
      <trkpt lat="43.52331" lon="1.4178">
        <ele>134</ele>
        <time>2012-03-11T10:26:43Z</time>
      </trkpt>
      <trkpt lat="43.52332" lon="1.41782">
        <ele>134</ele>
        <time>2012-03-11T10:26:44Z</time>
      </trkpt>
      <trkpt lat="43.52333" lon="1.41784">
        <ele>134</ele>
        <time>2012-03-11T10:26:45Z</time>
      </trkpt>
      <trkpt lat="43.52334" lon="1.41786">
        <ele>134</ele>
        <time>2012-03-11T10:26:46Z</time>
      </trkpt>
      <trkpt lat="43.52335" lon="1.41787">
        <ele>134</ele>
        <time>2012-03-11T10:26:47Z</time>
      </trkpt>
      <trkpt lat="43.52336" lon="1.41789">
        <ele>134</ele>
        <time>2012-03-11T10:26:48Z</time>
      </trkpt>
      <trkpt lat="43.52337" lon="1.41791">
        <ele>134</ele>
        <time>2012-03-11T10:26:49Z</time>
      </trkpt>
      <trkpt lat="43.52338" lon="1.41793">
        <ele>134</ele>
        <time>2012-03-11T10:26:50Z</time>
      </trkpt>
      <trkpt lat="43.5234" lon="1.41795">
        <ele>134</ele>
        <time>2012-03-11T10:26:51Z</time>
      </trkpt>
      <trkpt lat="43.52341" lon="1.41796">
        <ele>134</ele>
        <time>2012-03-11T10:26:52Z</time>
      </trkpt>
      <trkpt lat="43.52342" lon="1.41798">
        <ele>134</ele>
        <time>2012-03-11T10:26:53Z</time>
      </trkpt>
      <trkpt lat="43.52343" lon="1.41799">
        <ele>134</ele>
        <time>2012-03-11T10:26:54Z</time>
      </trkpt>
      <trkpt lat="43.52344" lon="1.41801">
        <ele>134</ele>
        <time>2012-03-11T10:26:55Z</time>
      </trkpt>
      <trkpt lat="43.52345" lon="1.41802">
        <ele>134</ele>
        <time>2012-03-11T10:26:56Z</time>
      </trkpt>
      <trkpt lat="43.52346" lon="1.41804">
        <ele>134</ele>
        <time>2012-03-11T10:26:57Z</time>
      </trkpt>
      <trkpt lat="43.52348" lon="1.41805">
        <ele>134</ele>
        <time>2012-03-11T10:26:58Z</time>
      </trkpt>
      <trkpt lat="43.52349" lon="1.41806">
        <ele>134</ele>
        <time>2012-03-11T10:26:59Z</time>
      </trkpt>
      <trkpt lat="43.5235" lon="1.41808">
        <ele>134</ele>
        <time>2012-03-11T10:27:00Z</time>
      </trkpt>
      <trkpt lat="43.52351" lon="1.41809">
        <ele>134</ele>
        <time>2012-03-11T10:27:01Z</time>
      </trkpt>
      <trkpt lat="43.52353" lon="1.41811">
        <ele>134</ele>
        <time>2012-03-11T10:27:02Z</time>
      </trkpt>
      <trkpt lat="43.52354" lon="1.41813">
        <ele>134</ele>
        <time>2012-03-11T10:27:03Z</time>
      </trkpt>
      <trkpt lat="43.52355" lon="1.41814">
        <ele>134</ele>
        <time>2012-03-11T10:27:04Z</time>
      </trkpt>
      <trkpt lat="43.52356" lon="1.41816">
        <ele>134</ele>
        <time>2012-03-11T10:27:05Z</time>
      </trkpt>
      <trkpt lat="43.52357" lon="1.41817">
        <ele>134</ele>
        <time>2012-03-11T10:27:06Z</time>
      </trkpt>
      <trkpt lat="43.52359" lon="1.41819">
        <ele>134</ele>
        <time>2012-03-11T10:27:07Z</time>
      </trkpt>
      <trkpt lat="43.5236" lon="1.4182">
        <ele>134</ele>
        <time>2012-03-11T10:27:08Z</time>
      </trkpt>
      <trkpt lat="43.52361" lon="1.41822">
        <ele>134</ele>
        <time>2012-03-11T10:27:09Z</time>
      </trkpt>
      <trkpt lat="43.52362" lon="1.41823">
        <ele>134</ele>
        <time>2012-03-11T10:27:10Z</time>
      </trkpt>
      <trkpt lat="43.52363" lon="1.41825">
        <ele>134</ele>
        <time>2012-03-11T10:27:11Z</time>
      </trkpt>
      <trkpt lat="43.52364" lon="1.41826">
        <ele>134</ele>
        <time>2012-03-11T10:27:12Z</time>
      </trkpt>
      <trkpt lat="43.52366" lon="1.41828">
        <ele>134</ele>
        <time>2012-03-11T10:27:13Z</time>
      </trkpt>
      <trkpt lat="43.52367" lon="1.41829">
        <ele>134</ele>
        <time>2012-03-11T10:27:14Z</time>
      </trkpt>
      <trkpt lat="43.52367" lon="1.41831">
        <ele>134</ele>
        <time>2012-03-11T10:27:15Z</time>
      </trkpt>
      <trkpt lat="43.52369" lon="1.41832">
        <ele>134</ele>
        <time>2012-03-11T10:27:16Z</time>
      </trkpt>
      <trkpt lat="43.5237" lon="1.41834">
        <ele>134</ele>
        <time>2012-03-11T10:27:17Z</time>
      </trkpt>
      <trkpt lat="43.52371" lon="1.41835">
        <ele>134</ele>
        <time>2012-03-11T10:27:18Z</time>
      </trkpt>
      <trkpt lat="43.52372" lon="1.41837">
        <ele>134</ele>
        <time>2012-03-11T10:27:19Z</time>
      </trkpt>
      <trkpt lat="43.52373" lon="1.41838">
        <ele>134</ele>
        <time>2012-03-11T10:27:20Z</time>
      </trkpt>
      <trkpt lat="43.52375" lon="1.41841">
        <ele>134</ele>
        <time>2012-03-11T10:27:22Z</time>
      </trkpt>
      <trkpt lat="43.52376" lon="1.41842">
        <ele>134</ele>
        <time>2012-03-11T10:27:23Z</time>
      </trkpt>
      <trkpt lat="43.52378" lon="1.41845">
        <ele>134</ele>
        <time>2012-03-11T10:27:25Z</time>
      </trkpt>
      <trkpt lat="43.5238" lon="1.41848">
        <ele>134</ele>
        <time>2012-03-11T10:27:27Z</time>
      </trkpt>
      <trkpt lat="43.52382" lon="1.41849">
        <ele>134</ele>
        <time>2012-03-11T10:27:28Z</time>
      </trkpt>
      <trkpt lat="43.52383" lon="1.41851">
        <ele>134</ele>
        <time>2012-03-11T10:27:29Z</time>
      </trkpt>
      <trkpt lat="43.52383" lon="1.41852">
        <ele>134</ele>
        <time>2012-03-11T10:27:30Z</time>
      </trkpt>
      <trkpt lat="43.52385" lon="1.41854">
        <ele>134</ele>
        <time>2012-03-11T10:27:31Z</time>
      </trkpt>
      <trkpt lat="43.52386" lon="1.41856">
        <ele>134</ele>
        <time>2012-03-11T10:27:32Z</time>
      </trkpt>
      <trkpt lat="43.52386" lon="1.41857">
        <ele>134</ele>
        <time>2012-03-11T10:27:33Z</time>
      </trkpt>
      <trkpt lat="43.52388" lon="1.41859">
        <ele>134</ele>
        <time>2012-03-11T10:27:34Z</time>
      </trkpt>
      <trkpt lat="43.52388" lon="1.4186">
        <ele>134</ele>
        <time>2012-03-11T10:27:35Z</time>
      </trkpt>
      <trkpt lat="43.5239" lon="1.41862">
        <ele>134</ele>
        <time>2012-03-11T10:27:36Z</time>
      </trkpt>
      <trkpt lat="43.5239" lon="1.41864">
        <ele>134</ele>
        <time>2012-03-11T10:27:37Z</time>
      </trkpt>
      <trkpt lat="43.52391" lon="1.41865">
        <ele>134</ele>
        <time>2012-03-11T10:27:38Z</time>
      </trkpt>
      <trkpt lat="43.52392" lon="1.41867">
        <ele>134</ele>
        <time>2012-03-11T10:27:39Z</time>
      </trkpt>
      <trkpt lat="43.52393" lon="1.41869">
        <ele>134</ele>
        <time>2012-03-11T10:27:40Z</time>
      </trkpt>
      <trkpt lat="43.52393" lon="1.4187">
        <ele>134</ele>
        <time>2012-03-11T10:27:41Z</time>
      </trkpt>
      <trkpt lat="43.52394" lon="1.41872">
        <ele>134</ele>
        <time>2012-03-11T10:27:42Z</time>
      </trkpt>
      <trkpt lat="43.52395" lon="1.41874">
        <ele>134</ele>
        <time>2012-03-11T10:27:43Z</time>
      </trkpt>
      <trkpt lat="43.52396" lon="1.41875">
        <ele>134</ele>
        <time>2012-03-11T10:27:44Z</time>
      </trkpt>
      <trkpt lat="43.52397" lon="1.41877">
        <ele>134</ele>
        <time>2012-03-11T10:27:45Z</time>
      </trkpt>
      <trkpt lat="43.52398" lon="1.41879">
        <ele>134</ele>
        <time>2012-03-11T10:27:46Z</time>
      </trkpt>
      <trkpt lat="43.52399" lon="1.4188">
        <ele>134</ele>
        <time>2012-03-11T10:27:47Z</time>
      </trkpt>
      <trkpt lat="43.52399" lon="1.41882">
        <ele>134</ele>
        <time>2012-03-11T10:27:48Z</time>
      </trkpt>
      <trkpt lat="43.524" lon="1.41884">
        <ele>134</ele>
        <time>2012-03-11T10:27:49Z</time>
      </trkpt>
      <trkpt lat="43.52401" lon="1.41885">
        <ele>134</ele>
        <time>2012-03-11T10:27:50Z</time>
      </trkpt>
      <trkpt lat="43.52402" lon="1.41887">
        <ele>134</ele>
        <time>2012-03-11T10:27:51Z</time>
      </trkpt>
      <trkpt lat="43.52402" lon="1.41889">
        <ele>134</ele>
        <time>2012-03-11T10:27:52Z</time>
      </trkpt>
      <trkpt lat="43.52402" lon="1.41892">
        <ele>134</ele>
        <time>2012-03-11T10:27:53Z</time>
      </trkpt>
      <trkpt lat="43.52401" lon="1.41893">
        <ele>134</ele>
        <time>2012-03-11T10:27:54Z</time>
      </trkpt>
      <trkpt lat="43.52401" lon="1.41895">
        <ele>134</ele>
        <time>2012-03-11T10:27:55Z</time>
      </trkpt>
      <trkpt lat="43.524" lon="1.41897">
        <ele>134</ele>
        <time>2012-03-11T10:27:56Z</time>
      </trkpt>
      <trkpt lat="43.52399" lon="1.41899">
        <ele>134</ele>
        <time>2012-03-11T10:27:57Z</time>
      </trkpt>
      <trkpt lat="43.52399" lon="1.41901">
        <ele>134</ele>
        <time>2012-03-11T10:27:58Z</time>
      </trkpt>
      <trkpt lat="43.52398" lon="1.41903">
        <ele>134</ele>
        <time>2012-03-11T10:27:59Z</time>
      </trkpt>
      <trkpt lat="43.52397" lon="1.41905">
        <ele>134</ele>
        <time>2012-03-11T10:28:00Z</time>
      </trkpt>
      <trkpt lat="43.52396" lon="1.41907">
        <ele>134</ele>
        <time>2012-03-11T10:28:01Z</time>
      </trkpt>
      <trkpt lat="43.52395" lon="1.41909">
        <ele>134</ele>
        <time>2012-03-11T10:28:02Z</time>
      </trkpt>
      <trkpt lat="43.52394" lon="1.4191">
        <ele>135</ele>
        <time>2012-03-11T10:28:03Z</time>
      </trkpt>
      <trkpt lat="43.52393" lon="1.41912">
        <ele>135</ele>
        <time>2012-03-11T10:28:04Z</time>
      </trkpt>
      <trkpt lat="43.52393" lon="1.41914">
        <ele>135</ele>
        <time>2012-03-11T10:28:05Z</time>
      </trkpt>
      <trkpt lat="43.52392" lon="1.41916">
        <ele>135</ele>
        <time>2012-03-11T10:28:06Z</time>
      </trkpt>
      <trkpt lat="43.52391" lon="1.41918">
        <ele>135</ele>
        <time>2012-03-11T10:28:07Z</time>
      </trkpt>
      <trkpt lat="43.5239" lon="1.4192">
        <ele>135</ele>
        <time>2012-03-11T10:28:08Z</time>
      </trkpt>
      <trkpt lat="43.52389" lon="1.41922">
        <ele>135</ele>
        <time>2012-03-11T10:28:09Z</time>
      </trkpt>
      <trkpt lat="43.52388" lon="1.41923">
        <ele>135</ele>
        <time>2012-03-11T10:28:10Z</time>
      </trkpt>
      <trkpt lat="43.52387" lon="1.41925">
        <ele>135</ele>
        <time>2012-03-11T10:28:11Z</time>
      </trkpt>
      <trkpt lat="43.52386" lon="1.41927">
        <ele>135</ele>
        <time>2012-03-11T10:28:12Z</time>
      </trkpt>
      <trkpt lat="43.52385" lon="1.41929">
        <ele>135</ele>
        <time>2012-03-11T10:28:13Z</time>
      </trkpt>
      <trkpt lat="43.52384" lon="1.41931">
        <ele>135</ele>
        <time>2012-03-11T10:28:14Z</time>
      </trkpt>
      <trkpt lat="43.52383" lon="1.41932">
        <ele>135</ele>
        <time>2012-03-11T10:28:15Z</time>
      </trkpt>
      <trkpt lat="43.52382" lon="1.41934">
        <ele>135</ele>
        <time>2012-03-11T10:28:16Z</time>
      </trkpt>
      <trkpt lat="43.52381" lon="1.41936">
        <ele>135</ele>
        <time>2012-03-11T10:28:17Z</time>
      </trkpt>
      <trkpt lat="43.5238" lon="1.41938">
        <ele>135</ele>
        <time>2012-03-11T10:28:18Z</time>
      </trkpt>
      <trkpt lat="43.5238" lon="1.4194">
        <ele>135</ele>
        <time>2012-03-11T10:28:19Z</time>
      </trkpt>
      <trkpt lat="43.52379" lon="1.41941">
        <ele>135</ele>
        <time>2012-03-11T10:28:20Z</time>
      </trkpt>
      <trkpt lat="43.52378" lon="1.41943">
        <ele>135</ele>
        <time>2012-03-11T10:28:21Z</time>
      </trkpt>
      <trkpt lat="43.52377" lon="1.41945">
        <ele>135</ele>
        <time>2012-03-11T10:28:22Z</time>
      </trkpt>
      <trkpt lat="43.52377" lon="1.41947">
        <ele>136</ele>
        <time>2012-03-11T10:28:23Z</time>
      </trkpt>
      <trkpt lat="43.52376" lon="1.41949">
        <ele>136</ele>
        <time>2012-03-11T10:28:24Z</time>
      </trkpt>
      <trkpt lat="43.52375" lon="1.41951">
        <ele>136</ele>
        <time>2012-03-11T10:28:25Z</time>
      </trkpt>
      <trkpt lat="43.52375" lon="1.41952">
        <ele>136</ele>
        <time>2012-03-11T10:28:26Z</time>
      </trkpt>
      <trkpt lat="43.52374" lon="1.41954">
        <ele>136</ele>
        <time>2012-03-11T10:28:27Z</time>
      </trkpt>
      <trkpt lat="43.52373" lon="1.41956">
        <ele>136</ele>
        <time>2012-03-11T10:28:28Z</time>
      </trkpt>
      <trkpt lat="43.52372" lon="1.41958">
        <ele>136</ele>
        <time>2012-03-11T10:28:29Z</time>
      </trkpt>
      <trkpt lat="43.52371" lon="1.4196">
        <ele>136</ele>
        <time>2012-03-11T10:28:30Z</time>
      </trkpt>
      <trkpt lat="43.5237" lon="1.41962">
        <ele>136</ele>
        <time>2012-03-11T10:28:31Z</time>
      </trkpt>
      <trkpt lat="43.5237" lon="1.41964">
        <ele>136</ele>
        <time>2012-03-11T10:28:32Z</time>
      </trkpt>
      <trkpt lat="43.52369" lon="1.41965">
        <ele>136</ele>
        <time>2012-03-11T10:28:33Z</time>
      </trkpt>
      <trkpt lat="43.52368" lon="1.41967">
        <ele>136</ele>
        <time>2012-03-11T10:28:34Z</time>
      </trkpt>
      <trkpt lat="43.52367" lon="1.41969">
        <ele>136</ele>
        <time>2012-03-11T10:28:35Z</time>
      </trkpt>
      <trkpt lat="43.52366" lon="1.41971">
        <ele>136</ele>
        <time>2012-03-11T10:28:36Z</time>
      </trkpt>
      <trkpt lat="43.52365" lon="1.41972">
        <ele>136</ele>
        <time>2012-03-11T10:28:37Z</time>
      </trkpt>
      <trkpt lat="43.52364" lon="1.41974">
        <ele>136</ele>
        <time>2012-03-11T10:28:38Z</time>
      </trkpt>
      <trkpt lat="43.52364" lon="1.41975">
        <ele>136</ele>
        <time>2012-03-11T10:28:39Z</time>
      </trkpt>
      <trkpt lat="43.52363" lon="1.41977">
        <ele>136</ele>
        <time>2012-03-11T10:28:40Z</time>
      </trkpt>
      <trkpt lat="43.52362" lon="1.41979">
        <ele>136</ele>
        <time>2012-03-11T10:28:41Z</time>
      </trkpt>
      <trkpt lat="43.52361" lon="1.4198">
        <ele>136</ele>
        <time>2012-03-11T10:28:42Z</time>
      </trkpt>
      <trkpt lat="43.5236" lon="1.41982">
        <ele>136</ele>
        <time>2012-03-11T10:28:43Z</time>
      </trkpt>
      <trkpt lat="43.52359" lon="1.41983">
        <ele>136</ele>
        <time>2012-03-11T10:28:44Z</time>
      </trkpt>
      <trkpt lat="43.52359" lon="1.41985">
        <ele>136</ele>
        <time>2012-03-11T10:28:45Z</time>
      </trkpt>
      <trkpt lat="43.52357" lon="1.41987">
        <ele>136</ele>
        <time>2012-03-11T10:28:46Z</time>
      </trkpt>
      <trkpt lat="43.52357" lon="1.41988">
        <ele>136</ele>
        <time>2012-03-11T10:28:47Z</time>
      </trkpt>
      <trkpt lat="43.52356" lon="1.4199">
        <ele>136</ele>
        <time>2012-03-11T10:28:48Z</time>
      </trkpt>
      <trkpt lat="43.52355" lon="1.41991">
        <ele>136</ele>
        <time>2012-03-11T10:28:49Z</time>
      </trkpt>
      <trkpt lat="43.52354" lon="1.41993">
        <ele>136</ele>
        <time>2012-03-11T10:28:50Z</time>
      </trkpt>
      <trkpt lat="43.52353" lon="1.41995">
        <ele>136</ele>
        <time>2012-03-11T10:28:51Z</time>
      </trkpt>
      <trkpt lat="43.52352" lon="1.41996">
        <ele>136</ele>
        <time>2012-03-11T10:28:52Z</time>
      </trkpt>
      <trkpt lat="43.52351" lon="1.41998">
        <ele>136</ele>
        <time>2012-03-11T10:28:53Z</time>
      </trkpt>
      <trkpt lat="43.5235" lon="1.41999">
        <ele>136</ele>
        <time>2012-03-11T10:28:54Z</time>
      </trkpt>
      <trkpt lat="43.52349" lon="1.42001">
        <ele>136</ele>
        <time>2012-03-11T10:28:55Z</time>
      </trkpt>
      <trkpt lat="43.52348" lon="1.42003">
        <ele>136</ele>
        <time>2012-03-11T10:28:56Z</time>
      </trkpt>
      <trkpt lat="43.52348" lon="1.42005">
        <ele>136</ele>
        <time>2012-03-11T10:28:57Z</time>
      </trkpt>
      <trkpt lat="43.52347" lon="1.42006">
        <ele>136</ele>
        <time>2012-03-11T10:28:58Z</time>
      </trkpt>
      <trkpt lat="43.52346" lon="1.42008">
        <ele>136</ele>
        <time>2012-03-11T10:28:59Z</time>
      </trkpt>
      <trkpt lat="43.52346" lon="1.4201">
        <ele>136</ele>
        <time>2012-03-11T10:29:00Z</time>
      </trkpt>
      <trkpt lat="43.52345" lon="1.42012">
        <ele>136</ele>
        <time>2012-03-11T10:29:01Z</time>
      </trkpt>
      <trkpt lat="43.52344" lon="1.42014">
        <ele>136</ele>
        <time>2012-03-11T10:29:02Z</time>
      </trkpt>
      <trkpt lat="43.52343" lon="1.42016">
        <ele>136</ele>
        <time>2012-03-11T10:29:03Z</time>
      </trkpt>
      <trkpt lat="43.52343" lon="1.42018">
        <ele>136</ele>
        <time>2012-03-11T10:29:04Z</time>
      </trkpt>
      <trkpt lat="43.52342" lon="1.42019">
        <ele>136</ele>
        <time>2012-03-11T10:29:05Z</time>
      </trkpt>
      <trkpt lat="43.52341" lon="1.42021">
        <ele>136</ele>
        <time>2012-03-11T10:29:06Z</time>
      </trkpt>
      <trkpt lat="43.5234" lon="1.42023">
        <ele>136</ele>
        <time>2012-03-11T10:29:07Z</time>
      </trkpt>
      <trkpt lat="43.52339" lon="1.42025">
        <ele>136</ele>
        <time>2012-03-11T10:29:08Z</time>
      </trkpt>
      <trkpt lat="43.52338" lon="1.42026">
        <ele>136</ele>
        <time>2012-03-11T10:29:09Z</time>
      </trkpt>
      <trkpt lat="43.52338" lon="1.42028">
        <ele>136</ele>
        <time>2012-03-11T10:29:10Z</time>
      </trkpt>
      <trkpt lat="43.52337" lon="1.42029">
        <ele>136</ele>
        <time>2012-03-11T10:29:11Z</time>
      </trkpt>
      <trkpt lat="43.52336" lon="1.42031">
        <ele>136</ele>
        <time>2012-03-11T10:29:12Z</time>
      </trkpt>
      <trkpt lat="43.52335" lon="1.42033">
        <ele>136</ele>
        <time>2012-03-11T10:29:13Z</time>
      </trkpt>
      <trkpt lat="43.52335" lon="1.42034">
        <ele>136</ele>
        <time>2012-03-11T10:29:14Z</time>
      </trkpt>
      <trkpt lat="43.52334" lon="1.42036">
        <ele>136</ele>
        <time>2012-03-11T10:29:15Z</time>
      </trkpt>
      <trkpt lat="43.52333" lon="1.42038">
        <ele>136</ele>
        <time>2012-03-11T10:29:16Z</time>
      </trkpt>
      <trkpt lat="43.52332" lon="1.42039">
        <ele>136</ele>
        <time>2012-03-11T10:29:17Z</time>
      </trkpt>
      <trkpt lat="43.52331" lon="1.42041">
        <ele>136</ele>
        <time>2012-03-11T10:29:18Z</time>
      </trkpt>
      <trkpt lat="43.52331" lon="1.42043">
        <ele>136</ele>
        <time>2012-03-11T10:29:19Z</time>
      </trkpt>
      <trkpt lat="43.5233" lon="1.42044">
        <ele>136</ele>
        <time>2012-03-11T10:29:20Z</time>
      </trkpt>
      <trkpt lat="43.52329" lon="1.42046">
        <ele>136</ele>
        <time>2012-03-11T10:29:21Z</time>
      </trkpt>
      <trkpt lat="43.52328" lon="1.42047">
        <ele>136</ele>
        <time>2012-03-11T10:29:22Z</time>
      </trkpt>
      <trkpt lat="43.52327" lon="1.42049">
        <ele>136</ele>
        <time>2012-03-11T10:29:23Z</time>
      </trkpt>
      <trkpt lat="43.52327" lon="1.42051">
        <ele>136</ele>
        <time>2012-03-11T10:29:24Z</time>
      </trkpt>
      <trkpt lat="43.52326" lon="1.42052">
        <ele>136</ele>
        <time>2012-03-11T10:29:25Z</time>
      </trkpt>
      <trkpt lat="43.52325" lon="1.42054">
        <ele>136</ele>
        <time>2012-03-11T10:29:26Z</time>
      </trkpt>
      <trkpt lat="43.52325" lon="1.42056">
        <ele>136</ele>
        <time>2012-03-11T10:29:27Z</time>
      </trkpt>
      <trkpt lat="43.52324" lon="1.42057">
        <ele>136</ele>
        <time>2012-03-11T10:29:28Z</time>
      </trkpt>
      <trkpt lat="43.52323" lon="1.42059">
        <ele>136</ele>
        <time>2012-03-11T10:29:29Z</time>
      </trkpt>
      <trkpt lat="43.52322" lon="1.42061">
        <ele>136</ele>
        <time>2012-03-11T10:29:30Z</time>
      </trkpt>
      <trkpt lat="43.52321" lon="1.42063">
        <ele>136</ele>
        <time>2012-03-11T10:29:31Z</time>
      </trkpt>
      <trkpt lat="43.5232" lon="1.42064">
        <ele>136</ele>
        <time>2012-03-11T10:29:32Z</time>
      </trkpt>
      <trkpt lat="43.5232" lon="1.42067">
        <ele>136</ele>
        <time>2012-03-11T10:29:33Z</time>
      </trkpt>
      <trkpt lat="43.52319" lon="1.42068">
        <ele>136</ele>
        <time>2012-03-11T10:29:34Z</time>
      </trkpt>
      <trkpt lat="43.52318" lon="1.4207">
        <ele>136</ele>
        <time>2012-03-11T10:29:35Z</time>
      </trkpt>
      <trkpt lat="43.52318" lon="1.42072">
        <ele>136</ele>
        <time>2012-03-11T10:29:36Z</time>
      </trkpt>
      <trkpt lat="43.52317" lon="1.42074">
        <ele>136</ele>
        <time>2012-03-11T10:29:37Z</time>
      </trkpt>
      <trkpt lat="43.52316" lon="1.42076">
        <ele>136</ele>
        <time>2012-03-11T10:29:38Z</time>
      </trkpt>
      <trkpt lat="43.52316" lon="1.42077">
        <ele>136</ele>
        <time>2012-03-11T10:29:39Z</time>
      </trkpt>
      <trkpt lat="43.52315" lon="1.42079">
        <ele>136</ele>
        <time>2012-03-11T10:29:40Z</time>
      </trkpt>
      <trkpt lat="43.52314" lon="1.42081">
        <ele>136</ele>
        <time>2012-03-11T10:29:41Z</time>
      </trkpt>
      <trkpt lat="43.52313" lon="1.42082">
        <ele>136</ele>
        <time>2012-03-11T10:29:42Z</time>
      </trkpt>
      <trkpt lat="43.52311" lon="1.42085">
        <ele>136</ele>
        <time>2012-03-11T10:29:44Z</time>
      </trkpt>
      <trkpt lat="43.52311" lon="1.42086">
        <ele>137</ele>
        <time>2012-03-11T10:29:45Z</time>
      </trkpt>
      <trkpt lat="43.5231" lon="1.42088">
        <ele>137</ele>
        <time>2012-03-11T10:29:46Z</time>
      </trkpt>
      <trkpt lat="43.52309" lon="1.4209">
        <ele>137</ele>
        <time>2012-03-11T10:29:47Z</time>
      </trkpt>
      <trkpt lat="43.52308" lon="1.42091">
        <ele>137</ele>
        <time>2012-03-11T10:29:48Z</time>
      </trkpt>
      <trkpt lat="43.52308" lon="1.42093">
        <ele>137</ele>
        <time>2012-03-11T10:29:49Z</time>
      </trkpt>
      <trkpt lat="43.52307" lon="1.42095">
        <ele>137</ele>
        <time>2012-03-11T10:29:50Z</time>
      </trkpt>
      <trkpt lat="43.52306" lon="1.42096">
        <ele>137</ele>
        <time>2012-03-11T10:29:51Z</time>
      </trkpt>
      <trkpt lat="43.52306" lon="1.42098">
        <ele>137</ele>
        <time>2012-03-11T10:29:52Z</time>
      </trkpt>
      <trkpt lat="43.52305" lon="1.421">
        <ele>137</ele>
        <time>2012-03-11T10:29:53Z</time>
      </trkpt>
      <trkpt lat="43.52304" lon="1.42101">
        <ele>137</ele>
        <time>2012-03-11T10:29:54Z</time>
      </trkpt>
      <trkpt lat="43.52303" lon="1.42103">
        <ele>137</ele>
        <time>2012-03-11T10:29:55Z</time>
      </trkpt>
      <trkpt lat="43.52303" lon="1.42105">
        <ele>137</ele>
        <time>2012-03-11T10:29:56Z</time>
      </trkpt>
      <trkpt lat="43.52302" lon="1.42106">
        <ele>137</ele>
        <time>2012-03-11T10:29:57Z</time>
      </trkpt>
      <trkpt lat="43.52301" lon="1.42108">
        <ele>137</ele>
        <time>2012-03-11T10:29:58Z</time>
      </trkpt>
      <trkpt lat="43.523" lon="1.42109">
        <ele>137</ele>
        <time>2012-03-11T10:29:59Z</time>
      </trkpt>
      <trkpt lat="43.523" lon="1.42111">
        <ele>137</ele>
        <time>2012-03-11T10:30:00Z</time>
      </trkpt>
      <trkpt lat="43.52298" lon="1.42114">
        <ele>137</ele>
        <time>2012-03-11T10:30:02Z</time>
      </trkpt>
      <trkpt lat="43.52297" lon="1.42115">
        <ele>137</ele>
        <time>2012-03-11T10:30:03Z</time>
      </trkpt>
      <trkpt lat="43.52296" lon="1.42117">
        <ele>137</ele>
        <time>2012-03-11T10:30:04Z</time>
      </trkpt>
      <trkpt lat="43.52295" lon="1.4212">
        <ele>137</ele>
        <time>2012-03-11T10:30:06Z</time>
      </trkpt>
      <trkpt lat="43.52294" lon="1.42121">
        <ele>137</ele>
        <time>2012-03-11T10:30:07Z</time>
      </trkpt>
      <trkpt lat="43.52293" lon="1.42124">
        <ele>137</ele>
        <time>2012-03-11T10:30:09Z</time>
      </trkpt>
      <trkpt lat="43.52291" lon="1.42125">
        <ele>137</ele>
        <time>2012-03-11T10:30:11Z</time>
      </trkpt>
      <trkpt lat="43.52291" lon="1.42125">
        <ele>137</ele>
        <time>2012-03-11T10:30:12Z</time>
      </trkpt>
    </trkseg>
  </trk>
</gpx>